<?xml version="1.0" encoding="UTF-8" standalone="no" ?>
<gpx xmlns="http://www.topografix.com/GPX/1/1" xmlns:xsi="http://www.w3.org/2001/XMLSchema-instance" xsi:schemaLocation="http://www.topografix.com/GPX/1/1 http://www.topografix.com/GPX/1/1/gpx.xsd" version="1.1" creator="VisuGPX - https://www.visugpx.com">
  <metadata>
    <name>Boucle les trois pignons Fontainebleau</name>
    <desc><![CDATA[Jolie boucle sans les bosses (a part une ou deux )
Très beau paysage sans difficulté]]></desc>
  </metadata>
  <trk>
    <name><![CDATA[SityTrail - Boucle les trois pignons Fontainebleau]]></name>
    <desc><![CDATA[Jolie boucle sans les bosses (a part une ou deux )
Très beau paysage sans difficulté]]></desc>
    <trkseg>
      <trkpt lat="48.37305" lon="2.5108">
        <ele>76</ele>
        <time>2021-03-05T07:41:25.904Z</time>
      </trkpt>
      <trkpt lat="48.37305" lon="2.5108">
        <ele>76</ele>
        <time>2021-03-05T07:41:31.906Z</time>
      </trkpt>
      <trkpt lat="48.37305" lon="2.51083">
        <ele>76</ele>
        <time>2021-03-05T07:41:35.911Z</time>
      </trkpt>
      <trkpt lat="48.37305" lon="2.51086">
        <ele>76</ele>
        <time>2021-03-05T07:41:39.909Z</time>
      </trkpt>
      <trkpt lat="48.37305" lon="2.51089">
        <ele>76</ele>
        <time>2021-03-05T07:41:43.917Z</time>
      </trkpt>
      <trkpt lat="48.37305" lon="2.51095">
        <ele>76</ele>
        <time>2021-03-05T07:41:48.918Z</time>
      </trkpt>
      <trkpt lat="48.37304" lon="2.51102">
        <ele>76</ele>
        <time>2021-03-05T07:41:52.922Z</time>
      </trkpt>
      <trkpt lat="48.37305" lon="2.51108">
        <ele>76</ele>
        <time>2021-03-05T07:41:57.917Z</time>
      </trkpt>
      <trkpt lat="48.37308" lon="2.51113">
        <ele>76</ele>
        <time>2021-03-05T07:42:02.919Z</time>
      </trkpt>
      <trkpt lat="48.37311" lon="2.51117">
        <ele>76</ele>
        <time>2021-03-05T07:42:06.926Z</time>
      </trkpt>
      <trkpt lat="48.37317" lon="2.51117">
        <ele>76</ele>
        <time>2021-03-05T07:42:11.908Z</time>
      </trkpt>
      <trkpt lat="48.37321" lon="2.51119">
        <ele>76</ele>
        <time>2021-03-05T07:42:15.923Z</time>
      </trkpt>
      <trkpt lat="48.37325" lon="2.51122">
        <ele>76</ele>
        <time>2021-03-05T07:42:20.040Z</time>
      </trkpt>
      <trkpt lat="48.3733" lon="2.51124">
        <ele>76</ele>
        <time>2021-03-05T07:42:24.917Z</time>
      </trkpt>
      <trkpt lat="48.37335" lon="2.51126">
        <ele>77</ele>
        <time>2021-03-05T07:42:28.931Z</time>
      </trkpt>
      <trkpt lat="48.3734" lon="2.5113">
        <ele>77</ele>
        <time>2021-03-05T07:42:33.924Z</time>
      </trkpt>
      <trkpt lat="48.37347" lon="2.51133">
        <ele>77</ele>
        <time>2021-03-05T07:42:38.925Z</time>
      </trkpt>
      <trkpt lat="48.37352" lon="2.51135">
        <ele>77</ele>
        <time>2021-03-05T07:42:43.905Z</time>
      </trkpt>
      <trkpt lat="48.37356" lon="2.51138">
        <ele>77</ele>
        <time>2021-03-05T07:42:47.919Z</time>
      </trkpt>
      <trkpt lat="48.3736" lon="2.51139">
        <ele>77</ele>
        <time>2021-03-05T07:42:51.927Z</time>
      </trkpt>
      <trkpt lat="48.37366" lon="2.51142">
        <ele>77</ele>
        <time>2021-03-05T07:42:56.946Z</time>
      </trkpt>
      <trkpt lat="48.37372" lon="2.51146">
        <ele>77</ele>
        <time>2021-03-05T07:43:01.910Z</time>
      </trkpt>
      <trkpt lat="48.37377" lon="2.5115">
        <ele>78</ele>
        <time>2021-03-05T07:43:05.933Z</time>
      </trkpt>
      <trkpt lat="48.37383" lon="2.51152">
        <ele>78</ele>
        <time>2021-03-05T07:43:10.909Z</time>
      </trkpt>
      <trkpt lat="48.37389" lon="2.51152">
        <ele>78</ele>
        <time>2021-03-05T07:43:14.923Z</time>
      </trkpt>
      <trkpt lat="48.37393" lon="2.51154">
        <ele>78</ele>
        <time>2021-03-05T07:43:18.928Z</time>
      </trkpt>
      <trkpt lat="48.37397" lon="2.51158">
        <ele>78</ele>
        <time>2021-03-05T07:43:23.909Z</time>
      </trkpt>
      <trkpt lat="48.37402" lon="2.5116">
        <ele>78</ele>
        <time>2021-03-05T07:43:27.919Z</time>
      </trkpt>
      <trkpt lat="48.37409" lon="2.51162">
        <ele>77</ele>
        <time>2021-03-05T07:43:31.939Z</time>
      </trkpt>
      <trkpt lat="48.37418" lon="2.51164">
        <ele>77</ele>
        <time>2021-03-05T07:43:36.933Z</time>
      </trkpt>
      <trkpt lat="48.37426" lon="2.51166">
        <ele>77</ele>
        <time>2021-03-05T07:43:41.927Z</time>
      </trkpt>
      <trkpt lat="48.37432" lon="2.51168">
        <ele>76</ele>
        <time>2021-03-05T07:43:46.003Z</time>
      </trkpt>
      <trkpt lat="48.37438" lon="2.51171">
        <ele>76</ele>
        <time>2021-03-05T07:43:50.918Z</time>
      </trkpt>
      <trkpt lat="48.37443" lon="2.51173">
        <ele>76</ele>
        <time>2021-03-05T07:43:54.913Z</time>
      </trkpt>
      <trkpt lat="48.3745" lon="2.51178">
        <ele>76</ele>
        <time>2021-03-05T07:43:59.936Z</time>
      </trkpt>
      <trkpt lat="48.37456" lon="2.51182">
        <ele>77</ele>
        <time>2021-03-05T07:44:04.934Z</time>
      </trkpt>
      <trkpt lat="48.37462" lon="2.51185">
        <ele>76</ele>
        <time>2021-03-05T07:44:09.908Z</time>
      </trkpt>
      <trkpt lat="48.37467" lon="2.51188">
        <ele>76</ele>
        <time>2021-03-05T07:44:13.925Z</time>
      </trkpt>
      <trkpt lat="48.37472" lon="2.5119">
        <ele>76</ele>
        <time>2021-03-05T07:44:17.931Z</time>
      </trkpt>
      <trkpt lat="48.37478" lon="2.51194">
        <ele>76</ele>
        <time>2021-03-05T07:44:22.924Z</time>
      </trkpt>
      <trkpt lat="48.37483" lon="2.51197">
        <ele>76</ele>
        <time>2021-03-05T07:44:26.934Z</time>
      </trkpt>
      <trkpt lat="48.37489" lon="2.51201">
        <ele>74</ele>
        <time>2021-03-05T07:44:31.913Z</time>
      </trkpt>
      <trkpt lat="48.37495" lon="2.51206">
        <ele>74</ele>
        <time>2021-03-05T07:44:36.928Z</time>
      </trkpt>
      <trkpt lat="48.375" lon="2.5121">
        <ele>75</ele>
        <time>2021-03-05T07:44:41.927Z</time>
      </trkpt>
      <trkpt lat="48.37505" lon="2.51213">
        <ele>75</ele>
        <time>2021-03-05T07:44:45.948Z</time>
      </trkpt>
      <trkpt lat="48.37511" lon="2.51218">
        <ele>75</ele>
        <time>2021-03-05T07:44:50.911Z</time>
      </trkpt>
      <trkpt lat="48.37517" lon="2.51222">
        <ele>74</ele>
        <time>2021-03-05T07:44:54.921Z</time>
      </trkpt>
      <trkpt lat="48.37525" lon="2.51226">
        <ele>74</ele>
        <time>2021-03-05T07:44:59.919Z</time>
      </trkpt>
      <trkpt lat="48.37531" lon="2.51231">
        <ele>74</ele>
        <time>2021-03-05T07:45:03.926Z</time>
      </trkpt>
      <trkpt lat="48.37537" lon="2.51234">
        <ele>74</ele>
        <time>2021-03-05T07:45:08.926Z</time>
      </trkpt>
      <trkpt lat="48.37543" lon="2.51237">
        <ele>73</ele>
        <time>2021-03-05T07:45:13.942Z</time>
      </trkpt>
      <trkpt lat="48.37549" lon="2.51238">
        <ele>73</ele>
        <time>2021-03-05T07:45:18.927Z</time>
      </trkpt>
      <trkpt lat="48.37554" lon="2.51239">
        <ele>73</ele>
        <time>2021-03-05T07:45:22.929Z</time>
      </trkpt>
      <trkpt lat="48.37559" lon="2.51242">
        <ele>73</ele>
        <time>2021-03-05T07:45:27.919Z</time>
      </trkpt>
      <trkpt lat="48.37564" lon="2.51245">
        <ele>73</ele>
        <time>2021-03-05T07:45:31.928Z</time>
      </trkpt>
      <trkpt lat="48.3757" lon="2.51248">
        <ele>72</ele>
        <time>2021-03-05T07:45:36.921Z</time>
      </trkpt>
      <trkpt lat="48.37577" lon="2.5125">
        <ele>72</ele>
        <time>2021-03-05T07:45:41.934Z</time>
      </trkpt>
      <trkpt lat="48.37583" lon="2.51254">
        <ele>72</ele>
        <time>2021-03-05T07:45:46.927Z</time>
      </trkpt>
      <trkpt lat="48.37587" lon="2.51258">
        <ele>72</ele>
        <time>2021-03-05T07:45:50.938Z</time>
      </trkpt>
      <trkpt lat="48.37591" lon="2.51261">
        <ele>72</ele>
        <time>2021-03-05T07:45:54.941Z</time>
      </trkpt>
      <trkpt lat="48.37596" lon="2.51265">
        <ele>73</ele>
        <time>2021-03-05T07:45:59.928Z</time>
      </trkpt>
      <trkpt lat="48.37602" lon="2.51268">
        <ele>73</ele>
        <time>2021-03-05T07:46:04.913Z</time>
      </trkpt>
      <trkpt lat="48.37608" lon="2.51269">
        <ele>73</ele>
        <time>2021-03-05T07:46:08.923Z</time>
      </trkpt>
      <trkpt lat="48.37613" lon="2.51271">
        <ele>73</ele>
        <time>2021-03-05T07:46:13.933Z</time>
      </trkpt>
      <trkpt lat="48.37618" lon="2.51272">
        <ele>73</ele>
        <time>2021-03-05T07:46:17.929Z</time>
      </trkpt>
      <trkpt lat="48.37625" lon="2.51272">
        <ele>73</ele>
        <time>2021-03-05T07:46:22.921Z</time>
      </trkpt>
      <trkpt lat="48.3763" lon="2.51273">
        <ele>74</ele>
        <time>2021-03-05T07:46:27.927Z</time>
      </trkpt>
      <trkpt lat="48.37635" lon="2.51273">
        <ele>74</ele>
        <time>2021-03-05T07:46:31.946Z</time>
      </trkpt>
      <trkpt lat="48.37641" lon="2.51274">
        <ele>74</ele>
        <time>2021-03-05T07:46:36.939Z</time>
      </trkpt>
      <trkpt lat="48.37646" lon="2.51273">
        <ele>74</ele>
        <time>2021-03-05T07:46:41.936Z</time>
      </trkpt>
      <trkpt lat="48.3765" lon="2.51271">
        <ele>74</ele>
        <time>2021-03-05T07:46:45.948Z</time>
      </trkpt>
      <trkpt lat="48.37655" lon="2.51269">
        <ele>75</ele>
        <time>2021-03-05T07:46:50.946Z</time>
      </trkpt>
      <trkpt lat="48.37661" lon="2.51267">
        <ele>75</ele>
        <time>2021-03-05T07:46:55.911Z</time>
      </trkpt>
      <trkpt lat="48.37666" lon="2.51262">
        <ele>75</ele>
        <time>2021-03-05T07:47:00.922Z</time>
      </trkpt>
      <trkpt lat="48.3767" lon="2.51257">
        <ele>75</ele>
        <time>2021-03-05T07:47:04.920Z</time>
      </trkpt>
      <trkpt lat="48.37674" lon="2.51253">
        <ele>75</ele>
        <time>2021-03-05T07:47:08.932Z</time>
      </trkpt>
      <trkpt lat="48.37678" lon="2.51249">
        <ele>75</ele>
        <time>2021-03-05T07:47:12.926Z</time>
      </trkpt>
      <trkpt lat="48.37684" lon="2.51248">
        <ele>75</ele>
        <time>2021-03-05T07:47:17.928Z</time>
      </trkpt>
      <trkpt lat="48.37689" lon="2.51248">
        <ele>75</ele>
        <time>2021-03-05T07:47:21.926Z</time>
      </trkpt>
      <trkpt lat="48.37695" lon="2.51252">
        <ele>75</ele>
        <time>2021-03-05T07:47:26.956Z</time>
      </trkpt>
      <trkpt lat="48.37701" lon="2.51258">
        <ele>75</ele>
        <time>2021-03-05T07:47:31.936Z</time>
      </trkpt>
      <trkpt lat="48.37705" lon="2.51263">
        <ele>75</ele>
        <time>2021-03-05T07:47:36.943Z</time>
      </trkpt>
      <trkpt lat="48.37709" lon="2.51269">
        <ele>74</ele>
        <time>2021-03-05T07:47:41.916Z</time>
      </trkpt>
      <trkpt lat="48.37711" lon="2.51273">
        <ele>74</ele>
        <time>2021-03-05T07:47:45.928Z</time>
      </trkpt>
      <trkpt lat="48.37715" lon="2.51277">
        <ele>74</ele>
        <time>2021-03-05T07:47:49.946Z</time>
      </trkpt>
      <trkpt lat="48.37719" lon="2.51281">
        <ele>74</ele>
        <time>2021-03-05T07:47:54.949Z</time>
      </trkpt>
      <trkpt lat="48.37722" lon="2.51287">
        <ele>74</ele>
        <time>2021-03-05T07:47:59.928Z</time>
      </trkpt>
      <trkpt lat="48.37725" lon="2.51292">
        <ele>74</ele>
        <time>2021-03-05T07:48:04.939Z</time>
      </trkpt>
      <trkpt lat="48.37728" lon="2.51293">
        <ele>74</ele>
        <time>2021-03-05T07:48:08.990Z</time>
      </trkpt>
      <trkpt lat="48.37732" lon="2.51296">
        <ele>74</ele>
        <time>2021-03-05T07:48:13.945Z</time>
      </trkpt>
      <trkpt lat="48.37734" lon="2.51301">
        <ele>74</ele>
        <time>2021-03-05T07:48:17.941Z</time>
      </trkpt>
      <trkpt lat="48.37739" lon="2.51303">
        <ele>74</ele>
        <time>2021-03-05T07:48:22.925Z</time>
      </trkpt>
      <trkpt lat="48.37744" lon="2.51303">
        <ele>74</ele>
        <time>2021-03-05T07:48:27.929Z</time>
      </trkpt>
      <trkpt lat="48.37749" lon="2.513">
        <ele>74</ele>
        <time>2021-03-05T07:48:32.925Z</time>
      </trkpt>
      <trkpt lat="48.37752" lon="2.51294">
        <ele>74</ele>
        <time>2021-03-05T07:48:37.924Z</time>
      </trkpt>
      <trkpt lat="48.37756" lon="2.5129">
        <ele>74</ele>
        <time>2021-03-05T07:48:42.920Z</time>
      </trkpt>
      <trkpt lat="48.3776" lon="2.51287">
        <ele>74</ele>
        <time>2021-03-05T07:48:46.918Z</time>
      </trkpt>
      <trkpt lat="48.37765" lon="2.51282">
        <ele>73</ele>
        <time>2021-03-05T07:48:51.924Z</time>
      </trkpt>
      <trkpt lat="48.37768" lon="2.51277">
        <ele>73</ele>
        <time>2021-03-05T07:48:55.948Z</time>
      </trkpt>
      <trkpt lat="48.37773" lon="2.51273">
        <ele>73</ele>
        <time>2021-03-05T07:49:00.929Z</time>
      </trkpt>
      <trkpt lat="48.37775" lon="2.51266">
        <ele>73</ele>
        <time>2021-03-05T07:49:05.922Z</time>
      </trkpt>
      <trkpt lat="48.37778" lon="2.51262">
        <ele>73</ele>
        <time>2021-03-05T07:49:09.926Z</time>
      </trkpt>
      <trkpt lat="48.3778" lon="2.51253">
        <ele>73</ele>
        <time>2021-03-05T07:49:14.925Z</time>
      </trkpt>
      <trkpt lat="48.37782" lon="2.51246">
        <ele>73</ele>
        <time>2021-03-05T07:49:19.921Z</time>
      </trkpt>
      <trkpt lat="48.37784" lon="2.51239">
        <ele>73</ele>
        <time>2021-03-05T07:49:23.933Z</time>
      </trkpt>
      <trkpt lat="48.37785" lon="2.51231">
        <ele>74</ele>
        <time>2021-03-05T07:49:27.947Z</time>
      </trkpt>
      <trkpt lat="48.37788" lon="2.51225">
        <ele>74</ele>
        <time>2021-03-05T07:49:32.923Z</time>
      </trkpt>
      <trkpt lat="48.37791" lon="2.5122">
        <ele>74</ele>
        <time>2021-03-05T07:49:36.932Z</time>
      </trkpt>
      <trkpt lat="48.37795" lon="2.51216">
        <ele>72</ele>
        <time>2021-03-05T07:49:41.920Z</time>
      </trkpt>
      <trkpt lat="48.37799" lon="2.51212">
        <ele>72</ele>
        <time>2021-03-05T07:49:45.926Z</time>
      </trkpt>
      <trkpt lat="48.37803" lon="2.51209">
        <ele>72</ele>
        <time>2021-03-05T07:49:49.930Z</time>
      </trkpt>
      <trkpt lat="48.37807" lon="2.51202">
        <ele>72</ele>
        <time>2021-03-05T07:49:54.927Z</time>
      </trkpt>
      <trkpt lat="48.37811" lon="2.51199">
        <ele>72</ele>
        <time>2021-03-05T07:49:58.927Z</time>
      </trkpt>
      <trkpt lat="48.37815" lon="2.51196">
        <ele>72</ele>
        <time>2021-03-05T07:50:02.945Z</time>
      </trkpt>
      <trkpt lat="48.37819" lon="2.51193">
        <ele>72</ele>
        <time>2021-03-05T07:50:07.937Z</time>
      </trkpt>
      <trkpt lat="48.37824" lon="2.51189">
        <ele>72</ele>
        <time>2021-03-05T07:50:12.928Z</time>
      </trkpt>
      <trkpt lat="48.37829" lon="2.51184">
        <ele>72</ele>
        <time>2021-03-05T07:50:16.944Z</time>
      </trkpt>
      <trkpt lat="48.37833" lon="2.51177">
        <ele>73</ele>
        <time>2021-03-05T07:50:21.923Z</time>
      </trkpt>
      <trkpt lat="48.37837" lon="2.51171">
        <ele>73</ele>
        <time>2021-03-05T07:50:26.931Z</time>
      </trkpt>
      <trkpt lat="48.37841" lon="2.51166">
        <ele>73</ele>
        <time>2021-03-05T07:50:31.919Z</time>
      </trkpt>
      <trkpt lat="48.37843" lon="2.5116">
        <ele>73</ele>
        <time>2021-03-05T07:50:35.940Z</time>
      </trkpt>
      <trkpt lat="48.37847" lon="2.51152">
        <ele>74</ele>
        <time>2021-03-05T07:50:40.932Z</time>
      </trkpt>
      <trkpt lat="48.3785" lon="2.51144">
        <ele>72</ele>
        <time>2021-03-05T07:50:45.919Z</time>
      </trkpt>
      <trkpt lat="48.37852" lon="2.51136">
        <ele>72</ele>
        <time>2021-03-05T07:50:50.911Z</time>
      </trkpt>
      <trkpt lat="48.37851" lon="2.5113">
        <ele>72</ele>
        <time>2021-03-05T07:50:54.916Z</time>
      </trkpt>
      <trkpt lat="48.37854" lon="2.51122">
        <ele>73</ele>
        <time>2021-03-05T07:50:59.926Z</time>
      </trkpt>
      <trkpt lat="48.37855" lon="2.51116">
        <ele>73</ele>
        <time>2021-03-05T07:51:03.923Z</time>
      </trkpt>
      <trkpt lat="48.37859" lon="2.51106">
        <ele>73</ele>
        <time>2021-03-05T07:51:08.926Z</time>
      </trkpt>
      <trkpt lat="48.37862" lon="2.51092">
        <ele>74</ele>
        <time>2021-03-05T07:51:13.938Z</time>
      </trkpt>
      <trkpt lat="48.37867" lon="2.51087">
        <ele>74</ele>
        <time>2021-03-05T07:51:18.927Z</time>
      </trkpt>
      <trkpt lat="48.37873" lon="2.51082">
        <ele>74</ele>
        <time>2021-03-05T07:51:23.943Z</time>
      </trkpt>
      <trkpt lat="48.37881" lon="2.51089">
        <ele>73</ele>
        <time>2021-03-05T07:51:28.916Z</time>
      </trkpt>
      <trkpt lat="48.37883" lon="2.51096">
        <ele>73</ele>
        <time>2021-03-05T07:51:32.922Z</time>
      </trkpt>
      <trkpt lat="48.37885" lon="2.51101">
        <ele>72</ele>
        <time>2021-03-05T07:51:36.919Z</time>
      </trkpt>
      <trkpt lat="48.37888" lon="2.51106">
        <ele>72</ele>
        <time>2021-03-05T07:51:40.936Z</time>
      </trkpt>
      <trkpt lat="48.37891" lon="2.51113">
        <ele>72</ele>
        <time>2021-03-05T07:51:45.931Z</time>
      </trkpt>
      <trkpt lat="48.37893" lon="2.51118">
        <ele>72</ele>
        <time>2021-03-05T07:51:50.920Z</time>
      </trkpt>
      <trkpt lat="48.37895" lon="2.51124">
        <ele>72</ele>
        <time>2021-03-05T07:51:55.920Z</time>
      </trkpt>
      <trkpt lat="48.37899" lon="2.51132">
        <ele>72</ele>
        <time>2021-03-05T07:52:00.906Z</time>
      </trkpt>
      <trkpt lat="48.37902" lon="2.5114">
        <ele>72</ele>
        <time>2021-03-05T07:52:04.917Z</time>
      </trkpt>
      <trkpt lat="48.37907" lon="2.51146">
        <ele>73</ele>
        <time>2021-03-05T07:52:09.910Z</time>
      </trkpt>
      <trkpt lat="48.3791" lon="2.5115">
        <ele>73</ele>
        <time>2021-03-05T07:52:13.923Z</time>
      </trkpt>
      <trkpt lat="48.37913" lon="2.51154">
        <ele>72</ele>
        <time>2021-03-05T07:52:17.919Z</time>
      </trkpt>
      <trkpt lat="48.37916" lon="2.5116">
        <ele>72</ele>
        <time>2021-03-05T07:52:22.913Z</time>
      </trkpt>
      <trkpt lat="48.37918" lon="2.51166">
        <ele>72</ele>
        <time>2021-03-05T07:52:26.919Z</time>
      </trkpt>
      <trkpt lat="48.37922" lon="2.51172">
        <ele>72</ele>
        <time>2021-03-05T07:52:31.923Z</time>
      </trkpt>
      <trkpt lat="48.37926" lon="2.51179">
        <ele>72</ele>
        <time>2021-03-05T07:52:36.913Z</time>
      </trkpt>
      <trkpt lat="48.37929" lon="2.51185">
        <ele>72</ele>
        <time>2021-03-05T07:52:40.926Z</time>
      </trkpt>
      <trkpt lat="48.37933" lon="2.51192">
        <ele>74</ele>
        <time>2021-03-05T07:52:45.915Z</time>
      </trkpt>
      <trkpt lat="48.37937" lon="2.51199">
        <ele>74</ele>
        <time>2021-03-05T07:52:50.912Z</time>
      </trkpt>
      <trkpt lat="48.3794" lon="2.51206">
        <ele>74</ele>
        <time>2021-03-05T07:52:54.914Z</time>
      </trkpt>
      <trkpt lat="48.37944" lon="2.51216">
        <ele>73</ele>
        <time>2021-03-05T07:52:58.920Z</time>
      </trkpt>
      <trkpt lat="48.37949" lon="2.51223">
        <ele>73</ele>
        <time>2021-03-05T07:53:03.929Z</time>
      </trkpt>
      <trkpt lat="48.37954" lon="2.51231">
        <ele>73</ele>
        <time>2021-03-05T07:53:08.925Z</time>
      </trkpt>
      <trkpt lat="48.3796" lon="2.51238">
        <ele>72</ele>
        <time>2021-03-05T07:53:13.924Z</time>
      </trkpt>
      <trkpt lat="48.37963" lon="2.51246">
        <ele>72</ele>
        <time>2021-03-05T07:53:17.944Z</time>
      </trkpt>
      <trkpt lat="48.37968" lon="2.51253">
        <ele>72</ele>
        <time>2021-03-05T07:53:22.918Z</time>
      </trkpt>
      <trkpt lat="48.37972" lon="2.51259">
        <ele>72</ele>
        <time>2021-03-05T07:53:26.924Z</time>
      </trkpt>
      <trkpt lat="48.37977" lon="2.51265">
        <ele>71</ele>
        <time>2021-03-05T07:53:30.927Z</time>
      </trkpt>
      <trkpt lat="48.3798" lon="2.5127">
        <ele>71</ele>
        <time>2021-03-05T07:53:34.944Z</time>
      </trkpt>
      <trkpt lat="48.37985" lon="2.51278">
        <ele>71</ele>
        <time>2021-03-05T07:53:39.926Z</time>
      </trkpt>
      <trkpt lat="48.3799" lon="2.51284">
        <ele>72</ele>
        <time>2021-03-05T07:53:44.925Z</time>
      </trkpt>
      <trkpt lat="48.37993" lon="2.51288">
        <ele>72</ele>
        <time>2021-03-05T07:53:48.938Z</time>
      </trkpt>
      <trkpt lat="48.37998" lon="2.51296">
        <ele>71</ele>
        <time>2021-03-05T07:53:53.933Z</time>
      </trkpt>
      <trkpt lat="48.38004" lon="2.51302">
        <ele>71</ele>
        <time>2021-03-05T07:53:58.917Z</time>
      </trkpt>
      <trkpt lat="48.38007" lon="2.51308">
        <ele>71</ele>
        <time>2021-03-05T07:54:02.928Z</time>
      </trkpt>
      <trkpt lat="48.3801" lon="2.51313">
        <ele>71</ele>
        <time>2021-03-05T07:54:06.928Z</time>
      </trkpt>
      <trkpt lat="48.38015" lon="2.51318">
        <ele>73</ele>
        <time>2021-03-05T07:54:12.031Z</time>
      </trkpt>
      <trkpt lat="48.3802" lon="2.51324">
        <ele>73</ele>
        <time>2021-03-05T07:54:16.926Z</time>
      </trkpt>
      <trkpt lat="48.38025" lon="2.5133">
        <ele>73</ele>
        <time>2021-03-05T07:54:21.936Z</time>
      </trkpt>
      <trkpt lat="48.3803" lon="2.51335">
        <ele>73</ele>
        <time>2021-03-05T07:54:26.943Z</time>
      </trkpt>
      <trkpt lat="48.38035" lon="2.51341">
        <ele>73</ele>
        <time>2021-03-05T07:54:31.933Z</time>
      </trkpt>
      <trkpt lat="48.38039" lon="2.51347">
        <ele>73</ele>
        <time>2021-03-05T07:54:36.921Z</time>
      </trkpt>
      <trkpt lat="48.38043" lon="2.51353">
        <ele>73</ele>
        <time>2021-03-05T07:54:40.925Z</time>
      </trkpt>
      <trkpt lat="48.38047" lon="2.51359">
        <ele>73</ele>
        <time>2021-03-05T07:54:45.934Z</time>
      </trkpt>
      <trkpt lat="48.38052" lon="2.51365">
        <ele>73</ele>
        <time>2021-03-05T07:54:50.917Z</time>
      </trkpt>
      <trkpt lat="48.38056" lon="2.51371">
        <ele>73</ele>
        <time>2021-03-05T07:54:54.927Z</time>
      </trkpt>
      <trkpt lat="48.3806" lon="2.51375">
        <ele>72</ele>
        <time>2021-03-05T07:54:58.930Z</time>
      </trkpt>
      <trkpt lat="48.38064" lon="2.51382">
        <ele>72</ele>
        <time>2021-03-05T07:55:03.929Z</time>
      </trkpt>
      <trkpt lat="48.38069" lon="2.51389">
        <ele>72</ele>
        <time>2021-03-05T07:55:08.924Z</time>
      </trkpt>
      <trkpt lat="48.38073" lon="2.51395">
        <ele>71</ele>
        <time>2021-03-05T07:55:12.924Z</time>
      </trkpt>
      <trkpt lat="48.38078" lon="2.51402">
        <ele>71</ele>
        <time>2021-03-05T07:55:17.920Z</time>
      </trkpt>
      <trkpt lat="48.38083" lon="2.51406">
        <ele>70</ele>
        <time>2021-03-05T07:55:22.922Z</time>
      </trkpt>
      <trkpt lat="48.38088" lon="2.5141">
        <ele>70</ele>
        <time>2021-03-05T07:55:26.925Z</time>
      </trkpt>
      <trkpt lat="48.38093" lon="2.51416">
        <ele>70</ele>
        <time>2021-03-05T07:55:31.933Z</time>
      </trkpt>
      <trkpt lat="48.38098" lon="2.51422">
        <ele>71</ele>
        <time>2021-03-05T07:55:36.934Z</time>
      </trkpt>
      <trkpt lat="48.38101" lon="2.51429">
        <ele>71</ele>
        <time>2021-03-05T07:55:41.927Z</time>
      </trkpt>
      <trkpt lat="48.38105" lon="2.51436">
        <ele>71</ele>
        <time>2021-03-05T07:55:46.925Z</time>
      </trkpt>
      <trkpt lat="48.38109" lon="2.5144">
        <ele>71</ele>
        <time>2021-03-05T07:55:50.934Z</time>
      </trkpt>
      <trkpt lat="48.38113" lon="2.51447">
        <ele>71</ele>
        <time>2021-03-05T07:55:55.927Z</time>
      </trkpt>
      <trkpt lat="48.38117" lon="2.51454">
        <ele>71</ele>
        <time>2021-03-05T07:56:00.927Z</time>
      </trkpt>
      <trkpt lat="48.38122" lon="2.51459">
        <ele>71</ele>
        <time>2021-03-05T07:56:05.923Z</time>
      </trkpt>
      <trkpt lat="48.38126" lon="2.51464">
        <ele>73</ele>
        <time>2021-03-05T07:56:09.928Z</time>
      </trkpt>
      <trkpt lat="48.38129" lon="2.51469">
        <ele>73</ele>
        <time>2021-03-05T07:56:13.941Z</time>
      </trkpt>
      <trkpt lat="48.38133" lon="2.51476">
        <ele>73</ele>
        <time>2021-03-05T07:56:18.912Z</time>
      </trkpt>
      <trkpt lat="48.38135" lon="2.51481">
        <ele>73</ele>
        <time>2021-03-05T07:56:22.937Z</time>
      </trkpt>
      <trkpt lat="48.38137" lon="2.51489">
        <ele>73</ele>
        <time>2021-03-05T07:56:27.929Z</time>
      </trkpt>
      <trkpt lat="48.38137" lon="2.51495">
        <ele>73</ele>
        <time>2021-03-05T07:56:31.929Z</time>
      </trkpt>
      <trkpt lat="48.38136" lon="2.51503">
        <ele>73</ele>
        <time>2021-03-05T07:56:36.925Z</time>
      </trkpt>
      <trkpt lat="48.38136" lon="2.51511">
        <ele>73</ele>
        <time>2021-03-05T07:56:41.927Z</time>
      </trkpt>
      <trkpt lat="48.38136" lon="2.51519">
        <ele>73</ele>
        <time>2021-03-05T07:56:46.932Z</time>
      </trkpt>
      <trkpt lat="48.38136" lon="2.51528">
        <ele>73</ele>
        <time>2021-03-05T07:56:51.923Z</time>
      </trkpt>
      <trkpt lat="48.38138" lon="2.51534">
        <ele>73</ele>
        <time>2021-03-05T07:56:55.927Z</time>
      </trkpt>
      <trkpt lat="48.38138" lon="2.51543">
        <ele>73</ele>
        <time>2021-03-05T07:57:00.935Z</time>
      </trkpt>
      <trkpt lat="48.38138" lon="2.51552">
        <ele>73</ele>
        <time>2021-03-05T07:57:05.950Z</time>
      </trkpt>
      <trkpt lat="48.38138" lon="2.51561">
        <ele>73</ele>
        <time>2021-03-05T07:57:10.920Z</time>
      </trkpt>
      <trkpt lat="48.38137" lon="2.5157">
        <ele>73</ele>
        <time>2021-03-05T07:57:14.919Z</time>
      </trkpt>
      <trkpt lat="48.38136" lon="2.51577">
        <ele>73</ele>
        <time>2021-03-05T07:57:18.948Z</time>
      </trkpt>
      <trkpt lat="48.38135" lon="2.51585">
        <ele>73</ele>
        <time>2021-03-05T07:57:23.927Z</time>
      </trkpt>
      <trkpt lat="48.38134" lon="2.51591">
        <ele>73</ele>
        <time>2021-03-05T07:57:27.931Z</time>
      </trkpt>
      <trkpt lat="48.38133" lon="2.516">
        <ele>72</ele>
        <time>2021-03-05T07:57:32.925Z</time>
      </trkpt>
      <trkpt lat="48.38133" lon="2.51608">
        <ele>72</ele>
        <time>2021-03-05T07:57:36.927Z</time>
      </trkpt>
      <trkpt lat="48.38131" lon="2.51616">
        <ele>72</ele>
        <time>2021-03-05T07:57:41.915Z</time>
      </trkpt>
      <trkpt lat="48.38129" lon="2.51623">
        <ele>72</ele>
        <time>2021-03-05T07:57:45.923Z</time>
      </trkpt>
      <trkpt lat="48.38128" lon="2.5163">
        <ele>72</ele>
        <time>2021-03-05T07:57:49.932Z</time>
      </trkpt>
      <trkpt lat="48.38127" lon="2.51636">
        <ele>72</ele>
        <time>2021-03-05T07:57:53.941Z</time>
      </trkpt>
      <trkpt lat="48.38126" lon="2.51644">
        <ele>72</ele>
        <time>2021-03-05T07:57:58.920Z</time>
      </trkpt>
      <trkpt lat="48.38125" lon="2.51653">
        <ele>71</ele>
        <time>2021-03-05T07:58:03.913Z</time>
      </trkpt>
      <trkpt lat="48.38123" lon="2.51659">
        <ele>71</ele>
        <time>2021-03-05T07:58:07.925Z</time>
      </trkpt>
      <trkpt lat="48.38121" lon="2.51665">
        <ele>71</ele>
        <time>2021-03-05T07:58:11.928Z</time>
      </trkpt>
      <trkpt lat="48.38119" lon="2.51673">
        <ele>71</ele>
        <time>2021-03-05T07:58:16.929Z</time>
      </trkpt>
      <trkpt lat="48.38119" lon="2.51685">
        <ele>70</ele>
        <time>2021-03-05T07:58:21.935Z</time>
      </trkpt>
      <trkpt lat="48.38118" lon="2.51692">
        <ele>70</ele>
        <time>2021-03-05T07:58:25.940Z</time>
      </trkpt>
      <trkpt lat="48.38118" lon="2.51701">
        <ele>70</ele>
        <time>2021-03-05T07:58:30.918Z</time>
      </trkpt>
      <trkpt lat="48.38117" lon="2.51709">
        <ele>70</ele>
        <time>2021-03-05T07:58:34.922Z</time>
      </trkpt>
      <trkpt lat="48.38115" lon="2.51717">
        <ele>70</ele>
        <time>2021-03-05T07:58:39.909Z</time>
      </trkpt>
      <trkpt lat="48.38115" lon="2.51729">
        <ele>70</ele>
        <time>2021-03-05T07:58:44.920Z</time>
      </trkpt>
      <trkpt lat="48.38114" lon="2.51744">
        <ele>70</ele>
        <time>2021-03-05T07:58:49.900Z</time>
      </trkpt>
      <trkpt lat="48.38114" lon="2.51755">
        <ele>70</ele>
        <time>2021-03-05T07:58:53.907Z</time>
      </trkpt>
      <trkpt lat="48.38115" lon="2.51765">
        <ele>71</ele>
        <time>2021-03-05T07:58:57.911Z</time>
      </trkpt>
      <trkpt lat="48.38114" lon="2.51772">
        <ele>71</ele>
        <time>2021-03-05T07:59:01.934Z</time>
      </trkpt>
      <trkpt lat="48.38113" lon="2.5178">
        <ele>71</ele>
        <time>2021-03-05T07:59:06.939Z</time>
      </trkpt>
      <trkpt lat="48.38111" lon="2.51789">
        <ele>71</ele>
        <time>2021-03-05T07:59:11.915Z</time>
      </trkpt>
      <trkpt lat="48.3811" lon="2.51796">
        <ele>70</ele>
        <time>2021-03-05T07:59:15.928Z</time>
      </trkpt>
      <trkpt lat="48.38109" lon="2.51802">
        <ele>70</ele>
        <time>2021-03-05T07:59:19.946Z</time>
      </trkpt>
      <trkpt lat="48.38109" lon="2.51814">
        <ele>70</ele>
        <time>2021-03-05T07:59:24.932Z</time>
      </trkpt>
      <trkpt lat="48.3811" lon="2.51825">
        <ele>71</ele>
        <time>2021-03-05T07:59:29.940Z</time>
      </trkpt>
      <trkpt lat="48.3811" lon="2.51835">
        <ele>71</ele>
        <time>2021-03-05T07:59:34.927Z</time>
      </trkpt>
      <trkpt lat="48.38109" lon="2.51841">
        <ele>71</ele>
        <time>2021-03-05T07:59:38.927Z</time>
      </trkpt>
      <trkpt lat="48.3811" lon="2.51851">
        <ele>71</ele>
        <time>2021-03-05T07:59:43.925Z</time>
      </trkpt>
      <trkpt lat="48.38109" lon="2.51862">
        <ele>71</ele>
        <time>2021-03-05T07:59:48.930Z</time>
      </trkpt>
      <trkpt lat="48.38109" lon="2.5187">
        <ele>71</ele>
        <time>2021-03-05T07:59:52.931Z</time>
      </trkpt>
      <trkpt lat="48.38109" lon="2.51881">
        <ele>71</ele>
        <time>2021-03-05T07:59:57.918Z</time>
      </trkpt>
      <trkpt lat="48.38109" lon="2.5189">
        <ele>71</ele>
        <time>2021-03-05T08:00:01.953Z</time>
      </trkpt>
      <trkpt lat="48.3811" lon="2.51898">
        <ele>71</ele>
        <time>2021-03-05T08:00:06.926Z</time>
      </trkpt>
      <trkpt lat="48.3811" lon="2.51907">
        <ele>71</ele>
        <time>2021-03-05T08:00:11.927Z</time>
      </trkpt>
      <trkpt lat="48.38112" lon="2.51917">
        <ele>71</ele>
        <time>2021-03-05T08:00:16.931Z</time>
      </trkpt>
      <trkpt lat="48.38112" lon="2.51925">
        <ele>71</ele>
        <time>2021-03-05T08:00:21.924Z</time>
      </trkpt>
      <trkpt lat="48.38115" lon="2.51934">
        <ele>71</ele>
        <time>2021-03-05T08:00:25.926Z</time>
      </trkpt>
      <trkpt lat="48.38117" lon="2.51944">
        <ele>71</ele>
        <time>2021-03-05T08:00:29.924Z</time>
      </trkpt>
      <trkpt lat="48.38119" lon="2.51952">
        <ele>71</ele>
        <time>2021-03-05T08:00:34.923Z</time>
      </trkpt>
      <trkpt lat="48.38121" lon="2.51959">
        <ele>71</ele>
        <time>2021-03-05T08:00:38.928Z</time>
      </trkpt>
      <trkpt lat="48.38126" lon="2.51965">
        <ele>71</ele>
        <time>2021-03-05T08:00:43.910Z</time>
      </trkpt>
      <trkpt lat="48.3813" lon="2.51974">
        <ele>71</ele>
        <time>2021-03-05T08:00:48.933Z</time>
      </trkpt>
      <trkpt lat="48.38134" lon="2.51982">
        <ele>71</ele>
        <time>2021-03-05T08:00:53.936Z</time>
      </trkpt>
      <trkpt lat="48.38138" lon="2.51988">
        <ele>70</ele>
        <time>2021-03-05T08:00:57.938Z</time>
      </trkpt>
      <trkpt lat="48.38145" lon="2.5199">
        <ele>70</ele>
        <time>2021-03-05T08:01:01.940Z</time>
      </trkpt>
      <trkpt lat="48.38152" lon="2.51988">
        <ele>70</ele>
        <time>2021-03-05T08:01:06.928Z</time>
      </trkpt>
      <trkpt lat="48.38159" lon="2.51985">
        <ele>70</ele>
        <time>2021-03-05T08:01:11.968Z</time>
      </trkpt>
      <trkpt lat="48.38167" lon="2.51983">
        <ele>70</ele>
        <time>2021-03-05T08:01:16.964Z</time>
      </trkpt>
      <trkpt lat="48.38175" lon="2.51981">
        <ele>70</ele>
        <time>2021-03-05T08:01:21.918Z</time>
      </trkpt>
      <trkpt lat="48.3818" lon="2.5198">
        <ele>70</ele>
        <time>2021-03-05T08:01:25.930Z</time>
      </trkpt>
      <trkpt lat="48.38187" lon="2.51981">
        <ele>71</ele>
        <time>2021-03-05T08:01:30.924Z</time>
      </trkpt>
      <trkpt lat="48.38191" lon="2.51984">
        <ele>71</ele>
        <time>2021-03-05T08:01:34.938Z</time>
      </trkpt>
      <trkpt lat="48.38196" lon="2.51987">
        <ele>71</ele>
        <time>2021-03-05T08:01:38.943Z</time>
      </trkpt>
      <trkpt lat="48.38203" lon="2.51989">
        <ele>71</ele>
        <time>2021-03-05T08:01:43.928Z</time>
      </trkpt>
      <trkpt lat="48.38209" lon="2.51987">
        <ele>74</ele>
        <time>2021-03-05T08:01:47.931Z</time>
      </trkpt>
      <trkpt lat="48.38215" lon="2.51984">
        <ele>74</ele>
        <time>2021-03-05T08:01:52.940Z</time>
      </trkpt>
      <trkpt lat="48.3822" lon="2.5198">
        <ele>74</ele>
        <time>2021-03-05T08:01:57.927Z</time>
      </trkpt>
      <trkpt lat="48.38224" lon="2.51978">
        <ele>74</ele>
        <time>2021-03-05T08:02:01.937Z</time>
      </trkpt>
      <trkpt lat="48.38229" lon="2.51973">
        <ele>74</ele>
        <time>2021-03-05T08:02:06.962Z</time>
      </trkpt>
      <trkpt lat="48.38232" lon="2.51965">
        <ele>74</ele>
        <time>2021-03-05T08:02:11.926Z</time>
      </trkpt>
      <trkpt lat="48.38236" lon="2.51958">
        <ele>78</ele>
        <time>2021-03-05T08:02:16.929Z</time>
      </trkpt>
      <trkpt lat="48.3824" lon="2.51954">
        <ele>78</ele>
        <time>2021-03-05T08:02:20.935Z</time>
      </trkpt>
      <trkpt lat="48.38246" lon="2.5195">
        <ele>78</ele>
        <time>2021-03-05T08:02:25.924Z</time>
      </trkpt>
      <trkpt lat="48.3825" lon="2.51947">
        <ele>78</ele>
        <time>2021-03-05T08:02:29.945Z</time>
      </trkpt>
      <trkpt lat="48.38255" lon="2.51946">
        <ele>78</ele>
        <time>2021-03-05T08:02:34.926Z</time>
      </trkpt>
      <trkpt lat="48.38259" lon="2.51944">
        <ele>78</ele>
        <time>2021-03-05T08:02:38.938Z</time>
      </trkpt>
      <trkpt lat="48.38266" lon="2.51937">
        <ele>80</ele>
        <time>2021-03-05T08:02:43.910Z</time>
      </trkpt>
      <trkpt lat="48.3827" lon="2.51932">
        <ele>80</ele>
        <time>2021-03-05T08:02:47.926Z</time>
      </trkpt>
      <trkpt lat="48.38276" lon="2.51927">
        <ele>80</ele>
        <time>2021-03-05T08:02:52.940Z</time>
      </trkpt>
      <trkpt lat="48.3828" lon="2.51923">
        <ele>80</ele>
        <time>2021-03-05T08:02:56.935Z</time>
      </trkpt>
      <trkpt lat="48.38286" lon="2.51919">
        <ele>80</ele>
        <time>2021-03-05T08:03:01.942Z</time>
      </trkpt>
      <trkpt lat="48.38291" lon="2.51916">
        <ele>80</ele>
        <time>2021-03-05T08:03:06.937Z</time>
      </trkpt>
      <trkpt lat="48.38296" lon="2.51913">
        <ele>82</ele>
        <time>2021-03-05T08:03:11.925Z</time>
      </trkpt>
      <trkpt lat="48.38301" lon="2.5191">
        <ele>82</ele>
        <time>2021-03-05T08:03:16.919Z</time>
      </trkpt>
      <trkpt lat="48.38305" lon="2.51907">
        <ele>82</ele>
        <time>2021-03-05T08:03:20.924Z</time>
      </trkpt>
      <trkpt lat="48.38309" lon="2.51908">
        <ele>82</ele>
        <time>2021-03-05T08:03:24.934Z</time>
      </trkpt>
      <trkpt lat="48.38316" lon="2.51911">
        <ele>82</ele>
        <time>2021-03-05T08:03:29.926Z</time>
      </trkpt>
      <trkpt lat="48.38323" lon="2.51913">
        <ele>84</ele>
        <time>2021-03-05T08:03:34.916Z</time>
      </trkpt>
      <trkpt lat="48.38328" lon="2.51912">
        <ele>84</ele>
        <time>2021-03-05T08:03:38.924Z</time>
      </trkpt>
      <trkpt lat="48.38334" lon="2.51907">
        <ele>84</ele>
        <time>2021-03-05T08:03:43.915Z</time>
      </trkpt>
      <trkpt lat="48.38339" lon="2.51904">
        <ele>84</ele>
        <time>2021-03-05T08:03:47.920Z</time>
      </trkpt>
      <trkpt lat="48.38344" lon="2.51898">
        <ele>85</ele>
        <time>2021-03-05T08:03:52.918Z</time>
      </trkpt>
      <trkpt lat="48.38349" lon="2.51895">
        <ele>85</ele>
        <time>2021-03-05T08:03:57.912Z</time>
      </trkpt>
      <trkpt lat="48.38353" lon="2.51891">
        <ele>85</ele>
        <time>2021-03-05T08:04:01.915Z</time>
      </trkpt>
      <trkpt lat="48.38359" lon="2.51885">
        <ele>85</ele>
        <time>2021-03-05T08:04:06.913Z</time>
      </trkpt>
      <trkpt lat="48.38364" lon="2.51883">
        <ele>85</ele>
        <time>2021-03-05T08:04:10.909Z</time>
      </trkpt>
      <trkpt lat="48.38368" lon="2.51879">
        <ele>85</ele>
        <time>2021-03-05T08:04:14.949Z</time>
      </trkpt>
      <trkpt lat="48.38375" lon="2.51873">
        <ele>84</ele>
        <time>2021-03-05T08:04:19.926Z</time>
      </trkpt>
      <trkpt lat="48.38381" lon="2.51865">
        <ele>84</ele>
        <time>2021-03-05T08:04:24.939Z</time>
      </trkpt>
      <trkpt lat="48.38386" lon="2.51859">
        <ele>84</ele>
        <time>2021-03-05T08:04:29.922Z</time>
      </trkpt>
      <trkpt lat="48.38391" lon="2.51853">
        <ele>84</ele>
        <time>2021-03-05T08:04:34.922Z</time>
      </trkpt>
      <trkpt lat="48.38395" lon="2.51846">
        <ele>85</ele>
        <time>2021-03-05T08:04:39.918Z</time>
      </trkpt>
      <trkpt lat="48.38398" lon="2.51841">
        <ele>85</ele>
        <time>2021-03-05T08:04:43.931Z</time>
      </trkpt>
      <trkpt lat="48.38402" lon="2.51834">
        <ele>85</ele>
        <time>2021-03-05T08:04:48.937Z</time>
      </trkpt>
      <trkpt lat="48.38406" lon="2.51827">
        <ele>83</ele>
        <time>2021-03-05T08:04:53.915Z</time>
      </trkpt>
      <trkpt lat="48.3841" lon="2.51819">
        <ele>83</ele>
        <time>2021-03-05T08:04:58.933Z</time>
      </trkpt>
      <trkpt lat="48.38415" lon="2.51808">
        <ele>83</ele>
        <time>2021-03-05T08:05:03.915Z</time>
      </trkpt>
      <trkpt lat="48.38417" lon="2.51801">
        <ele>83</ele>
        <time>2021-03-05T08:05:07.924Z</time>
      </trkpt>
      <trkpt lat="48.3842" lon="2.51794">
        <ele>83</ele>
        <time>2021-03-05T08:05:11.935Z</time>
      </trkpt>
      <trkpt lat="48.38423" lon="2.51787">
        <ele>82</ele>
        <time>2021-03-05T08:05:16.943Z</time>
      </trkpt>
      <trkpt lat="48.38427" lon="2.5178">
        <ele>82</ele>
        <time>2021-03-05T08:05:21.924Z</time>
      </trkpt>
      <trkpt lat="48.38429" lon="2.51774">
        <ele>82</ele>
        <time>2021-03-05T08:05:25.949Z</time>
      </trkpt>
      <trkpt lat="48.38432" lon="2.51768">
        <ele>79</ele>
        <time>2021-03-05T08:05:30.030Z</time>
      </trkpt>
      <trkpt lat="48.38435" lon="2.51755">
        <ele>79</ele>
        <time>2021-03-05T08:05:34.904Z</time>
      </trkpt>
      <trkpt lat="48.38438" lon="2.51748">
        <ele>79</ele>
        <time>2021-03-05T08:05:38.907Z</time>
      </trkpt>
      <trkpt lat="48.38441" lon="2.5174">
        <ele>79</ele>
        <time>2021-03-05T08:05:43.913Z</time>
      </trkpt>
      <trkpt lat="48.38445" lon="2.51733">
        <ele>79</ele>
        <time>2021-03-05T08:05:48.930Z</time>
      </trkpt>
      <trkpt lat="48.38447" lon="2.51727">
        <ele>79</ele>
        <time>2021-03-05T08:05:52.939Z</time>
      </trkpt>
      <trkpt lat="48.3845" lon="2.5172">
        <ele>79</ele>
        <time>2021-03-05T08:05:57.911Z</time>
      </trkpt>
      <trkpt lat="48.38452" lon="2.5171">
        <ele>79</ele>
        <time>2021-03-05T08:06:02.907Z</time>
      </trkpt>
      <trkpt lat="48.38456" lon="2.51703">
        <ele>79</ele>
        <time>2021-03-05T08:06:06.933Z</time>
      </trkpt>
      <trkpt lat="48.38459" lon="2.51697">
        <ele>77</ele>
        <time>2021-03-05T08:06:11.911Z</time>
      </trkpt>
      <trkpt lat="48.38465" lon="2.51689">
        <ele>77</ele>
        <time>2021-03-05T08:06:16.907Z</time>
      </trkpt>
      <trkpt lat="48.3847" lon="2.5168">
        <ele>77</ele>
        <time>2021-03-05T08:06:21.919Z</time>
      </trkpt>
      <trkpt lat="48.38472" lon="2.5167">
        <ele>77</ele>
        <time>2021-03-05T08:06:26.905Z</time>
      </trkpt>
      <trkpt lat="48.38476" lon="2.51663">
        <ele>77</ele>
        <time>2021-03-05T08:06:31.906Z</time>
      </trkpt>
      <trkpt lat="48.3848" lon="2.51658">
        <ele>77</ele>
        <time>2021-03-05T08:06:35.912Z</time>
      </trkpt>
      <trkpt lat="48.38484" lon="2.51648">
        <ele>77</ele>
        <time>2021-03-05T08:06:40.906Z</time>
      </trkpt>
      <trkpt lat="48.38488" lon="2.51639">
        <ele>75</ele>
        <time>2021-03-05T08:06:45.907Z</time>
      </trkpt>
      <trkpt lat="48.38492" lon="2.51631">
        <ele>75</ele>
        <time>2021-03-05T08:06:50.933Z</time>
      </trkpt>
      <trkpt lat="48.38495" lon="2.51623">
        <ele>75</ele>
        <time>2021-03-05T08:06:55.921Z</time>
      </trkpt>
      <trkpt lat="48.38499" lon="2.51614">
        <ele>75</ele>
        <time>2021-03-05T08:07:00.908Z</time>
      </trkpt>
      <trkpt lat="48.38501" lon="2.51607">
        <ele>75</ele>
        <time>2021-03-05T08:07:04.926Z</time>
      </trkpt>
      <trkpt lat="48.38504" lon="2.516">
        <ele>75</ele>
        <time>2021-03-05T08:07:09.910Z</time>
      </trkpt>
      <trkpt lat="48.38507" lon="2.51593">
        <ele>74</ele>
        <time>2021-03-05T08:07:13.932Z</time>
      </trkpt>
      <trkpt lat="48.3851" lon="2.51587">
        <ele>74</ele>
        <time>2021-03-05T08:07:18.908Z</time>
      </trkpt>
      <trkpt lat="48.38514" lon="2.51579">
        <ele>74</ele>
        <time>2021-03-05T08:07:23.928Z</time>
      </trkpt>
      <trkpt lat="48.38517" lon="2.51573">
        <ele>73</ele>
        <time>2021-03-05T08:07:28.903Z</time>
      </trkpt>
      <trkpt lat="48.3852" lon="2.51562">
        <ele>73</ele>
        <time>2021-03-05T08:07:33.927Z</time>
      </trkpt>
      <trkpt lat="48.38523" lon="2.51552">
        <ele>73</ele>
        <time>2021-03-05T08:07:38.901Z</time>
      </trkpt>
      <trkpt lat="48.38536" lon="2.5153">
        <ele>73</ele>
        <time>2021-03-05T08:07:58.905Z</time>
      </trkpt>
      <trkpt lat="48.3854" lon="2.51534">
        <ele>73</ele>
        <time>2021-03-05T08:08:02.916Z</time>
      </trkpt>
      <trkpt lat="48.38542" lon="2.51538">
        <ele>75</ele>
        <time>2021-03-05T08:08:06.923Z</time>
      </trkpt>
      <trkpt lat="48.38546" lon="2.51541">
        <ele>75</ele>
        <time>2021-03-05T08:08:11.916Z</time>
      </trkpt>
      <trkpt lat="48.3855" lon="2.51545">
        <ele>74</ele>
        <time>2021-03-05T08:08:15.937Z</time>
      </trkpt>
      <trkpt lat="48.38553" lon="2.51549">
        <ele>74</ele>
        <time>2021-03-05T08:08:20.913Z</time>
      </trkpt>
      <trkpt lat="48.38556" lon="2.51555">
        <ele>74</ele>
        <time>2021-03-05T08:08:24.931Z</time>
      </trkpt>
      <trkpt lat="48.38559" lon="2.5156">
        <ele>74</ele>
        <time>2021-03-05T08:08:29.911Z</time>
      </trkpt>
      <trkpt lat="48.38562" lon="2.51566">
        <ele>74</ele>
        <time>2021-03-05T08:08:34.914Z</time>
      </trkpt>
      <trkpt lat="48.38565" lon="2.51573">
        <ele>74</ele>
        <time>2021-03-05T08:08:39.914Z</time>
      </trkpt>
      <trkpt lat="48.38569" lon="2.51579">
        <ele>74</ele>
        <time>2021-03-05T08:08:44.918Z</time>
      </trkpt>
      <trkpt lat="48.38572" lon="2.51585">
        <ele>76</ele>
        <time>2021-03-05T08:08:49.919Z</time>
      </trkpt>
      <trkpt lat="48.38576" lon="2.51592">
        <ele>76</ele>
        <time>2021-03-05T08:08:54.919Z</time>
      </trkpt>
      <trkpt lat="48.38579" lon="2.51597">
        <ele>76</ele>
        <time>2021-03-05T08:08:58.930Z</time>
      </trkpt>
      <trkpt lat="48.38584" lon="2.51603">
        <ele>75</ele>
        <time>2021-03-05T08:09:03.928Z</time>
      </trkpt>
      <trkpt lat="48.38588" lon="2.5161">
        <ele>75</ele>
        <time>2021-03-05T08:09:08.926Z</time>
      </trkpt>
      <trkpt lat="48.38591" lon="2.51616">
        <ele>75</ele>
        <time>2021-03-05T08:09:13.925Z</time>
      </trkpt>
      <trkpt lat="48.38595" lon="2.51622">
        <ele>75</ele>
        <time>2021-03-05T08:09:18.915Z</time>
      </trkpt>
      <trkpt lat="48.386" lon="2.51627">
        <ele>76</ele>
        <time>2021-03-05T08:09:23.933Z</time>
      </trkpt>
      <trkpt lat="48.38605" lon="2.51629">
        <ele>76</ele>
        <time>2021-03-05T08:09:28.940Z</time>
      </trkpt>
      <trkpt lat="48.38609" lon="2.51625">
        <ele>76</ele>
        <time>2021-03-05T08:09:33.919Z</time>
      </trkpt>
      <trkpt lat="48.38612" lon="2.51622">
        <ele>76</ele>
        <time>2021-03-05T08:09:37.923Z</time>
      </trkpt>
      <trkpt lat="48.38617" lon="2.5162">
        <ele>76</ele>
        <time>2021-03-05T08:09:42.929Z</time>
      </trkpt>
      <trkpt lat="48.38622" lon="2.51619">
        <ele>76</ele>
        <time>2021-03-05T08:09:47.910Z</time>
      </trkpt>
      <trkpt lat="48.38626" lon="2.51622">
        <ele>77</ele>
        <time>2021-03-05T08:09:52.904Z</time>
      </trkpt>
      <trkpt lat="48.38631" lon="2.51624">
        <ele>77</ele>
        <time>2021-03-05T08:09:57.915Z</time>
      </trkpt>
      <trkpt lat="48.38635" lon="2.51626">
        <ele>77</ele>
        <time>2021-03-05T08:10:01.922Z</time>
      </trkpt>
      <trkpt lat="48.38637" lon="2.51633">
        <ele>77</ele>
        <time>2021-03-05T08:10:06.917Z</time>
      </trkpt>
      <trkpt lat="48.38636" lon="2.51637">
        <ele>77</ele>
        <time>2021-03-05T08:10:11.920Z</time>
      </trkpt>
      <trkpt lat="48.38639" lon="2.51643">
        <ele>77</ele>
        <time>2021-03-05T08:10:15.921Z</time>
      </trkpt>
      <trkpt lat="48.38658" lon="2.51647">
        <ele>76</ele>
        <time>2021-03-05T08:10:20.914Z</time>
      </trkpt>
      <trkpt lat="48.38662" lon="2.51656">
        <ele>76</ele>
        <time>2021-03-05T08:10:25.913Z</time>
      </trkpt>
      <trkpt lat="48.38664" lon="2.5166">
        <ele>76</ele>
        <time>2021-03-05T08:10:30.911Z</time>
      </trkpt>
      <trkpt lat="48.38667" lon="2.51664">
        <ele>76</ele>
        <time>2021-03-05T08:10:34.911Z</time>
      </trkpt>
      <trkpt lat="48.38674" lon="2.51669">
        <ele>76</ele>
        <time>2021-03-05T08:10:39.911Z</time>
      </trkpt>
      <trkpt lat="48.38681" lon="2.51671">
        <ele>74</ele>
        <time>2021-03-05T08:10:43.925Z</time>
      </trkpt>
      <trkpt lat="48.38689" lon="2.51678">
        <ele>74</ele>
        <time>2021-03-05T08:10:48.922Z</time>
      </trkpt>
      <trkpt lat="48.38694" lon="2.51687">
        <ele>73</ele>
        <time>2021-03-05T08:10:53.927Z</time>
      </trkpt>
      <trkpt lat="48.38698" lon="2.51694">
        <ele>73</ele>
        <time>2021-03-05T08:10:58.917Z</time>
      </trkpt>
      <trkpt lat="48.38701" lon="2.51696">
        <ele>73</ele>
        <time>2021-03-05T08:11:02.928Z</time>
      </trkpt>
      <trkpt lat="48.38705" lon="2.51703">
        <ele>73</ele>
        <time>2021-03-05T08:11:07.917Z</time>
      </trkpt>
      <trkpt lat="48.38707" lon="2.51708">
        <ele>73</ele>
        <time>2021-03-05T08:11:11.927Z</time>
      </trkpt>
      <trkpt lat="48.38709" lon="2.51715">
        <ele>72</ele>
        <time>2021-03-05T08:11:15.926Z</time>
      </trkpt>
      <trkpt lat="48.38713" lon="2.51721">
        <ele>72</ele>
        <time>2021-03-05T08:11:20.908Z</time>
      </trkpt>
      <trkpt lat="48.38716" lon="2.51727">
        <ele>72</ele>
        <time>2021-03-05T08:11:25.920Z</time>
      </trkpt>
      <trkpt lat="48.38719" lon="2.51733">
        <ele>72</ele>
        <time>2021-03-05T08:11:29.918Z</time>
      </trkpt>
      <trkpt lat="48.38725" lon="2.5174">
        <ele>72</ele>
        <time>2021-03-05T08:11:34.928Z</time>
      </trkpt>
      <trkpt lat="48.38729" lon="2.51748">
        <ele>72</ele>
        <time>2021-03-05T08:11:39.919Z</time>
      </trkpt>
      <trkpt lat="48.38733" lon="2.51755">
        <ele>72</ele>
        <time>2021-03-05T08:11:43.927Z</time>
      </trkpt>
      <trkpt lat="48.38733" lon="2.51763">
        <ele>72</ele>
        <time>2021-03-05T08:11:48.922Z</time>
      </trkpt>
      <trkpt lat="48.38734" lon="2.51772">
        <ele>73</ele>
        <time>2021-03-05T08:11:52.930Z</time>
      </trkpt>
      <trkpt lat="48.38735" lon="2.51781">
        <ele>73</ele>
        <time>2021-03-05T08:11:57.921Z</time>
      </trkpt>
      <trkpt lat="48.38737" lon="2.51788">
        <ele>73</ele>
        <time>2021-03-05T08:12:01.927Z</time>
      </trkpt>
      <trkpt lat="48.38738" lon="2.51796">
        <ele>73</ele>
        <time>2021-03-05T08:12:05.931Z</time>
      </trkpt>
      <trkpt lat="48.38741" lon="2.51803">
        <ele>73</ele>
        <time>2021-03-05T08:12:10.933Z</time>
      </trkpt>
      <trkpt lat="48.38742" lon="2.51812">
        <ele>73</ele>
        <time>2021-03-05T08:12:15.926Z</time>
      </trkpt>
      <trkpt lat="48.38743" lon="2.51819">
        <ele>73</ele>
        <time>2021-03-05T08:12:20.946Z</time>
      </trkpt>
      <trkpt lat="48.38744" lon="2.51828">
        <ele>74</ele>
        <time>2021-03-05T08:12:25.924Z</time>
      </trkpt>
      <trkpt lat="48.38745" lon="2.51839">
        <ele>74</ele>
        <time>2021-03-05T08:12:30.928Z</time>
      </trkpt>
      <trkpt lat="48.38746" lon="2.51847">
        <ele>73</ele>
        <time>2021-03-05T08:12:35.917Z</time>
      </trkpt>
      <trkpt lat="48.38747" lon="2.51856">
        <ele>73</ele>
        <time>2021-03-05T08:12:39.920Z</time>
      </trkpt>
      <trkpt lat="48.38748" lon="2.51863">
        <ele>73</ele>
        <time>2021-03-05T08:12:43.924Z</time>
      </trkpt>
      <trkpt lat="48.38748" lon="2.5187">
        <ele>73</ele>
        <time>2021-03-05T08:12:47.933Z</time>
      </trkpt>
      <trkpt lat="48.38749" lon="2.51878">
        <ele>72</ele>
        <time>2021-03-05T08:12:51.932Z</time>
      </trkpt>
      <trkpt lat="48.38749" lon="2.51885">
        <ele>72</ele>
        <time>2021-03-05T08:12:56.928Z</time>
      </trkpt>
      <trkpt lat="48.38749" lon="2.51888">
        <ele>72</ele>
        <time>2021-03-05T08:13:01.916Z</time>
      </trkpt>
      <trkpt lat="48.38749" lon="2.51891">
        <ele>72</ele>
        <time>2021-03-05T08:13:05.930Z</time>
      </trkpt>
      <trkpt lat="48.38747" lon="2.51898">
        <ele>72</ele>
        <time>2021-03-05T08:13:10.918Z</time>
      </trkpt>
      <trkpt lat="48.38746" lon="2.51905">
        <ele>71</ele>
        <time>2021-03-05T08:13:15.915Z</time>
      </trkpt>
      <trkpt lat="48.38748" lon="2.51912">
        <ele>71</ele>
        <time>2021-03-05T08:13:20.918Z</time>
      </trkpt>
      <trkpt lat="48.38751" lon="2.5192">
        <ele>71</ele>
        <time>2021-03-05T08:13:25.927Z</time>
      </trkpt>
      <trkpt lat="48.38756" lon="2.51928">
        <ele>71</ele>
        <time>2021-03-05T08:13:30.915Z</time>
      </trkpt>
      <trkpt lat="48.38762" lon="2.51933">
        <ele>72</ele>
        <time>2021-03-05T08:13:35.908Z</time>
      </trkpt>
      <trkpt lat="48.38766" lon="2.5194">
        <ele>73</ele>
        <time>2021-03-05T08:13:39.914Z</time>
      </trkpt>
      <trkpt lat="48.38767" lon="2.51948">
        <ele>73</ele>
        <time>2021-03-05T08:13:44.915Z</time>
      </trkpt>
      <trkpt lat="48.38766" lon="2.51957">
        <ele>73</ele>
        <time>2021-03-05T08:13:49.906Z</time>
      </trkpt>
      <trkpt lat="48.38767" lon="2.51963">
        <ele>74</ele>
        <time>2021-03-05T08:13:53.920Z</time>
      </trkpt>
      <trkpt lat="48.38766" lon="2.51972">
        <ele>74</ele>
        <time>2021-03-05T08:13:58.917Z</time>
      </trkpt>
      <trkpt lat="48.38764" lon="2.5198">
        <ele>74</ele>
        <time>2021-03-05T08:14:03.918Z</time>
      </trkpt>
      <trkpt lat="48.38765" lon="2.5199">
        <ele>76</ele>
        <time>2021-03-05T08:14:08.928Z</time>
      </trkpt>
      <trkpt lat="48.38768" lon="2.51998">
        <ele>76</ele>
        <time>2021-03-05T08:14:13.921Z</time>
      </trkpt>
      <trkpt lat="48.3877" lon="2.52004">
        <ele>76</ele>
        <time>2021-03-05T08:14:17.931Z</time>
      </trkpt>
      <trkpt lat="48.38775" lon="2.52008">
        <ele>76</ele>
        <time>2021-03-05T08:14:22.930Z</time>
      </trkpt>
      <trkpt lat="48.38778" lon="2.52015">
        <ele>77</ele>
        <time>2021-03-05T08:14:27.930Z</time>
      </trkpt>
      <trkpt lat="48.38781" lon="2.52022">
        <ele>77</ele>
        <time>2021-03-05T08:14:32.930Z</time>
      </trkpt>
      <trkpt lat="48.38784" lon="2.52029">
        <ele>77</ele>
        <time>2021-03-05T08:14:37.921Z</time>
      </trkpt>
      <trkpt lat="48.38788" lon="2.52033">
        <ele>77</ele>
        <time>2021-03-05T08:14:42.931Z</time>
      </trkpt>
      <trkpt lat="48.38792" lon="2.52038">
        <ele>77</ele>
        <time>2021-03-05T08:14:47.930Z</time>
      </trkpt>
      <trkpt lat="48.38796" lon="2.52041">
        <ele>77</ele>
        <time>2021-03-05T08:14:52.926Z</time>
      </trkpt>
      <trkpt lat="48.388" lon="2.52043">
        <ele>79</ele>
        <time>2021-03-05T08:14:57.929Z</time>
      </trkpt>
      <trkpt lat="48.38805" lon="2.52046">
        <ele>79</ele>
        <time>2021-03-05T08:15:02.912Z</time>
      </trkpt>
      <trkpt lat="48.38809" lon="2.52051">
        <ele>79</ele>
        <time>2021-03-05T08:15:07.912Z</time>
      </trkpt>
      <trkpt lat="48.38813" lon="2.52052">
        <ele>79</ele>
        <time>2021-03-05T08:15:11.932Z</time>
      </trkpt>
      <trkpt lat="48.38817" lon="2.52052">
        <ele>79</ele>
        <time>2021-03-05T08:15:16.930Z</time>
      </trkpt>
      <trkpt lat="48.38823" lon="2.52054">
        <ele>77</ele>
        <time>2021-03-05T08:15:21.921Z</time>
      </trkpt>
      <trkpt lat="48.38826" lon="2.52055">
        <ele>77</ele>
        <time>2021-03-05T08:15:25.920Z</time>
      </trkpt>
      <trkpt lat="48.3883" lon="2.52056">
        <ele>77</ele>
        <time>2021-03-05T08:15:30.929Z</time>
      </trkpt>
      <trkpt lat="48.38833" lon="2.52059">
        <ele>77</ele>
        <time>2021-03-05T08:15:34.934Z</time>
      </trkpt>
      <trkpt lat="48.38838" lon="2.52064">
        <ele>77</ele>
        <time>2021-03-05T08:15:39.914Z</time>
      </trkpt>
      <trkpt lat="48.38843" lon="2.52067">
        <ele>77</ele>
        <time>2021-03-05T08:15:44.920Z</time>
      </trkpt>
      <trkpt lat="48.38848" lon="2.52066">
        <ele>78</ele>
        <time>2021-03-05T08:15:49.907Z</time>
      </trkpt>
      <trkpt lat="48.38853" lon="2.52067">
        <ele>78</ele>
        <time>2021-03-05T08:15:54.927Z</time>
      </trkpt>
      <trkpt lat="48.38859" lon="2.52064">
        <ele>78</ele>
        <time>2021-03-05T08:15:59.929Z</time>
      </trkpt>
      <trkpt lat="48.38864" lon="2.52064">
        <ele>78</ele>
        <time>2021-03-05T08:16:04.933Z</time>
      </trkpt>
      <trkpt lat="48.38869" lon="2.52066">
        <ele>78</ele>
        <time>2021-03-05T08:16:09.922Z</time>
      </trkpt>
      <trkpt lat="48.38874" lon="2.52068">
        <ele>78</ele>
        <time>2021-03-05T08:16:14.920Z</time>
      </trkpt>
      <trkpt lat="48.38878" lon="2.52069">
        <ele>80</ele>
        <time>2021-03-05T08:16:18.939Z</time>
      </trkpt>
      <trkpt lat="48.38883" lon="2.52071">
        <ele>82</ele>
        <time>2021-03-05T08:16:23.922Z</time>
      </trkpt>
      <trkpt lat="48.38887" lon="2.52073">
        <ele>82</ele>
        <time>2021-03-05T08:16:28.914Z</time>
      </trkpt>
      <trkpt lat="48.38892" lon="2.52074">
        <ele>82</ele>
        <time>2021-03-05T08:16:32.916Z</time>
      </trkpt>
      <trkpt lat="48.38896" lon="2.52076">
        <ele>82</ele>
        <time>2021-03-05T08:16:36.928Z</time>
      </trkpt>
      <trkpt lat="48.38901" lon="2.52076">
        <ele>82</ele>
        <time>2021-03-05T08:16:41.932Z</time>
      </trkpt>
      <trkpt lat="48.38906" lon="2.52077">
        <ele>82</ele>
        <time>2021-03-05T08:16:46.919Z</time>
      </trkpt>
      <trkpt lat="48.38912" lon="2.5208">
        <ele>82</ele>
        <time>2021-03-05T08:16:51.911Z</time>
      </trkpt>
      <trkpt lat="48.38918" lon="2.52083">
        <ele>82</ele>
        <time>2021-03-05T08:16:56.920Z</time>
      </trkpt>
      <trkpt lat="48.38923" lon="2.52086">
        <ele>82</ele>
        <time>2021-03-05T08:17:01.924Z</time>
      </trkpt>
      <trkpt lat="48.38929" lon="2.52084">
        <ele>82</ele>
        <time>2021-03-05T08:17:06.922Z</time>
      </trkpt>
      <trkpt lat="48.38933" lon="2.52082">
        <ele>82</ele>
        <time>2021-03-05T08:17:10.927Z</time>
      </trkpt>
      <trkpt lat="48.38938" lon="2.52081">
        <ele>82</ele>
        <time>2021-03-05T08:17:15.920Z</time>
      </trkpt>
      <trkpt lat="48.38942" lon="2.5208">
        <ele>82</ele>
        <time>2021-03-05T08:17:19.932Z</time>
      </trkpt>
      <trkpt lat="48.38948" lon="2.52076">
        <ele>82</ele>
        <time>2021-03-05T08:17:24.926Z</time>
      </trkpt>
      <trkpt lat="48.38952" lon="2.52079">
        <ele>82</ele>
        <time>2021-03-05T08:17:29.912Z</time>
      </trkpt>
      <trkpt lat="48.38955" lon="2.5208">
        <ele>82</ele>
        <time>2021-03-05T08:17:33.913Z</time>
      </trkpt>
      <trkpt lat="48.38961" lon="2.52077">
        <ele>83</ele>
        <time>2021-03-05T08:17:38.913Z</time>
      </trkpt>
      <trkpt lat="48.38967" lon="2.52076">
        <ele>83</ele>
        <time>2021-03-05T08:17:43.913Z</time>
      </trkpt>
      <trkpt lat="48.3897" lon="2.52074">
        <ele>83</ele>
        <time>2021-03-05T08:17:48.915Z</time>
      </trkpt>
      <trkpt lat="48.38975" lon="2.52077">
        <ele>83</ele>
        <time>2021-03-05T08:17:53.927Z</time>
      </trkpt>
      <trkpt lat="48.3898" lon="2.52076">
        <ele>83</ele>
        <time>2021-03-05T08:17:58.917Z</time>
      </trkpt>
      <trkpt lat="48.38984" lon="2.52075">
        <ele>83</ele>
        <time>2021-03-05T08:18:02.927Z</time>
      </trkpt>
      <trkpt lat="48.38988" lon="2.52072">
        <ele>79</ele>
        <time>2021-03-05T08:18:07.928Z</time>
      </trkpt>
      <trkpt lat="48.38996" lon="2.52074">
        <ele>79</ele>
        <time>2021-03-05T08:18:12.926Z</time>
      </trkpt>
      <trkpt lat="48.39004" lon="2.52066">
        <ele>78</ele>
        <time>2021-03-05T08:18:16.923Z</time>
      </trkpt>
      <trkpt lat="48.39013" lon="2.52058">
        <ele>78</ele>
        <time>2021-03-05T08:18:21.923Z</time>
      </trkpt>
      <trkpt lat="48.39019" lon="2.52052">
        <ele>77</ele>
        <time>2021-03-05T08:18:25.931Z</time>
      </trkpt>
      <trkpt lat="48.39024" lon="2.52045">
        <ele>77</ele>
        <time>2021-03-05T08:18:30.926Z</time>
      </trkpt>
      <trkpt lat="48.39027" lon="2.52039">
        <ele>77</ele>
        <time>2021-03-05T08:18:34.927Z</time>
      </trkpt>
      <trkpt lat="48.39026" lon="2.52038">
        <ele>77</ele>
        <time>2021-03-05T08:18:39.928Z</time>
      </trkpt>
      <trkpt lat="48.3903" lon="2.52034">
        <ele>77</ele>
        <time>2021-03-05T08:18:44.909Z</time>
      </trkpt>
      <trkpt lat="48.3903" lon="2.52025">
        <ele>77</ele>
        <time>2021-03-05T08:18:48.915Z</time>
      </trkpt>
      <trkpt lat="48.39029" lon="2.52016">
        <ele>77</ele>
        <time>2021-03-05T08:18:53.919Z</time>
      </trkpt>
      <trkpt lat="48.39028" lon="2.52008">
        <ele>76</ele>
        <time>2021-03-05T08:18:59.064Z</time>
      </trkpt>
      <trkpt lat="48.39029" lon="2.52002">
        <ele>76</ele>
        <time>2021-03-05T08:19:03.915Z</time>
      </trkpt>
      <trkpt lat="48.39031" lon="2.51995">
        <ele>76</ele>
        <time>2021-03-05T08:19:08.900Z</time>
      </trkpt>
      <trkpt lat="48.39033" lon="2.51989">
        <ele>76</ele>
        <time>2021-03-05T08:19:12.903Z</time>
      </trkpt>
      <trkpt lat="48.39034" lon="2.51982">
        <ele>74</ele>
        <time>2021-03-05T08:19:16.928Z</time>
      </trkpt>
      <trkpt lat="48.39034" lon="2.51973">
        <ele>74</ele>
        <time>2021-03-05T08:19:21.912Z</time>
      </trkpt>
      <trkpt lat="48.39034" lon="2.51964">
        <ele>74</ele>
        <time>2021-03-05T08:19:25.929Z</time>
      </trkpt>
      <trkpt lat="48.39032" lon="2.51955">
        <ele>73</ele>
        <time>2021-03-05T08:19:30.912Z</time>
      </trkpt>
      <trkpt lat="48.39033" lon="2.51946">
        <ele>73</ele>
        <time>2021-03-05T08:19:35.916Z</time>
      </trkpt>
      <trkpt lat="48.39032" lon="2.51938">
        <ele>73</ele>
        <time>2021-03-05T08:19:39.919Z</time>
      </trkpt>
      <trkpt lat="48.39038" lon="2.51936">
        <ele>73</ele>
        <time>2021-03-05T08:19:43.924Z</time>
      </trkpt>
      <trkpt lat="48.39043" lon="2.51943">
        <ele>74</ele>
        <time>2021-03-05T08:19:48.921Z</time>
      </trkpt>
      <trkpt lat="48.39048" lon="2.51945">
        <ele>74</ele>
        <time>2021-03-05T08:19:53.915Z</time>
      </trkpt>
      <trkpt lat="48.39048" lon="2.51946">
        <ele>74</ele>
        <time>2021-03-05T08:19:57.923Z</time>
      </trkpt>
      <trkpt lat="48.3905" lon="2.51948">
        <ele>74</ele>
        <time>2021-03-05T08:20:01.940Z</time>
      </trkpt>
      <trkpt lat="48.39053" lon="2.5195">
        <ele>74</ele>
        <time>2021-03-05T08:20:06.924Z</time>
      </trkpt>
      <trkpt lat="48.39055" lon="2.51947">
        <ele>74</ele>
        <time>2021-03-05T08:20:11.944Z</time>
      </trkpt>
      <trkpt lat="48.39058" lon="2.51945">
        <ele>74</ele>
        <time>2021-03-05T08:20:16.932Z</time>
      </trkpt>
      <trkpt lat="48.39063" lon="2.51942">
        <ele>74</ele>
        <time>2021-03-05T08:20:21.927Z</time>
      </trkpt>
      <trkpt lat="48.39066" lon="2.5194">
        <ele>74</ele>
        <time>2021-03-05T08:20:26.913Z</time>
      </trkpt>
      <trkpt lat="48.39069" lon="2.51943">
        <ele>74</ele>
        <time>2021-03-05T08:20:31.922Z</time>
      </trkpt>
      <trkpt lat="48.39073" lon="2.51944">
        <ele>77</ele>
        <time>2021-03-05T08:20:36.918Z</time>
      </trkpt>
      <trkpt lat="48.39077" lon="2.51946">
        <ele>77</ele>
        <time>2021-03-05T08:20:40.950Z</time>
      </trkpt>
      <trkpt lat="48.3908" lon="2.5195">
        <ele>77</ele>
        <time>2021-03-05T08:20:45.929Z</time>
      </trkpt>
      <trkpt lat="48.39084" lon="2.51951">
        <ele>77</ele>
        <time>2021-03-05T08:20:49.941Z</time>
      </trkpt>
      <trkpt lat="48.39088" lon="2.51952">
        <ele>77</ele>
        <time>2021-03-05T08:20:53.941Z</time>
      </trkpt>
      <trkpt lat="48.39092" lon="2.51949">
        <ele>77</ele>
        <time>2021-03-05T08:20:58.908Z</time>
      </trkpt>
      <trkpt lat="48.39097" lon="2.51946">
        <ele>77</ele>
        <time>2021-03-05T08:21:02.928Z</time>
      </trkpt>
      <trkpt lat="48.39102" lon="2.51945">
        <ele>79</ele>
        <time>2021-03-05T08:21:07.946Z</time>
      </trkpt>
      <trkpt lat="48.39107" lon="2.51944">
        <ele>79</ele>
        <time>2021-03-05T08:21:12.940Z</time>
      </trkpt>
      <trkpt lat="48.39111" lon="2.51947">
        <ele>79</ele>
        <time>2021-03-05T08:21:17.922Z</time>
      </trkpt>
      <trkpt lat="48.39118" lon="2.51947">
        <ele>79</ele>
        <time>2021-03-05T08:21:22.925Z</time>
      </trkpt>
      <trkpt lat="48.39122" lon="2.51943">
        <ele>79</ele>
        <time>2021-03-05T08:21:27.918Z</time>
      </trkpt>
      <trkpt lat="48.39125" lon="2.51938">
        <ele>81</ele>
        <time>2021-03-05T08:21:31.947Z</time>
      </trkpt>
      <trkpt lat="48.39127" lon="2.51931">
        <ele>81</ele>
        <time>2021-03-05T08:21:36.945Z</time>
      </trkpt>
      <trkpt lat="48.3913" lon="2.51926">
        <ele>81</ele>
        <time>2021-03-05T08:21:41.915Z</time>
      </trkpt>
      <trkpt lat="48.39135" lon="2.51922">
        <ele>81</ele>
        <time>2021-03-05T08:21:46.939Z</time>
      </trkpt>
      <trkpt lat="48.39138" lon="2.51916">
        <ele>81</ele>
        <time>2021-03-05T08:21:51.921Z</time>
      </trkpt>
      <trkpt lat="48.39137" lon="2.51908">
        <ele>81</ele>
        <time>2021-03-05T08:21:56.920Z</time>
      </trkpt>
      <trkpt lat="48.39136" lon="2.519">
        <ele>80</ele>
        <time>2021-03-05T08:22:00.927Z</time>
      </trkpt>
      <trkpt lat="48.39134" lon="2.51892">
        <ele>80</ele>
        <time>2021-03-05T08:22:04.961Z</time>
      </trkpt>
      <trkpt lat="48.39131" lon="2.51885">
        <ele>80</ele>
        <time>2021-03-05T08:22:09.913Z</time>
      </trkpt>
      <trkpt lat="48.39129" lon="2.51877">
        <ele>80</ele>
        <time>2021-03-05T08:22:14.932Z</time>
      </trkpt>
      <trkpt lat="48.39127" lon="2.51868">
        <ele>79</ele>
        <time>2021-03-05T08:22:19.931Z</time>
      </trkpt>
      <trkpt lat="48.39126" lon="2.51858">
        <ele>79</ele>
        <time>2021-03-05T08:22:24.990Z</time>
      </trkpt>
      <trkpt lat="48.39126" lon="2.51848">
        <ele>79</ele>
        <time>2021-03-05T08:22:29.921Z</time>
      </trkpt>
      <trkpt lat="48.39127" lon="2.5184">
        <ele>79</ele>
        <time>2021-03-05T08:22:34.917Z</time>
      </trkpt>
      <trkpt lat="48.39127" lon="2.51832">
        <ele>79</ele>
        <time>2021-03-05T08:22:39.920Z</time>
      </trkpt>
      <trkpt lat="48.39126" lon="2.51825">
        <ele>79</ele>
        <time>2021-03-05T08:22:43.928Z</time>
      </trkpt>
      <trkpt lat="48.39128" lon="2.51816">
        <ele>79</ele>
        <time>2021-03-05T08:22:48.926Z</time>
      </trkpt>
      <trkpt lat="48.39128" lon="2.51805">
        <ele>79</ele>
        <time>2021-03-05T08:22:53.925Z</time>
      </trkpt>
      <trkpt lat="48.39128" lon="2.51794">
        <ele>79</ele>
        <time>2021-03-05T08:22:58.941Z</time>
      </trkpt>
      <trkpt lat="48.39128" lon="2.51786">
        <ele>78</ele>
        <time>2021-03-05T08:23:03.940Z</time>
      </trkpt>
      <trkpt lat="48.39128" lon="2.51778">
        <ele>78</ele>
        <time>2021-03-05T08:23:08.926Z</time>
      </trkpt>
      <trkpt lat="48.39128" lon="2.51769">
        <ele>78</ele>
        <time>2021-03-05T08:23:13.907Z</time>
      </trkpt>
      <trkpt lat="48.39127" lon="2.51761">
        <ele>79</ele>
        <time>2021-03-05T08:23:17.944Z</time>
      </trkpt>
      <trkpt lat="48.39129" lon="2.51752">
        <ele>79</ele>
        <time>2021-03-05T08:23:22.940Z</time>
      </trkpt>
      <trkpt lat="48.3913" lon="2.51745">
        <ele>79</ele>
        <time>2021-03-05T08:23:26.916Z</time>
      </trkpt>
      <trkpt lat="48.39132" lon="2.51737">
        <ele>79</ele>
        <time>2021-03-05T08:23:31.945Z</time>
      </trkpt>
      <trkpt lat="48.39135" lon="2.5173">
        <ele>79</ele>
        <time>2021-03-05T08:23:36.925Z</time>
      </trkpt>
      <trkpt lat="48.39138" lon="2.51722">
        <ele>79</ele>
        <time>2021-03-05T08:23:41.921Z</time>
      </trkpt>
      <trkpt lat="48.39139" lon="2.51712">
        <ele>79</ele>
        <time>2021-03-05T08:23:46.919Z</time>
      </trkpt>
      <trkpt lat="48.39141" lon="2.51704">
        <ele>79</ele>
        <time>2021-03-05T08:23:51.921Z</time>
      </trkpt>
      <trkpt lat="48.39146" lon="2.51696">
        <ele>79</ele>
        <time>2021-03-05T08:23:56.917Z</time>
      </trkpt>
      <trkpt lat="48.39149" lon="2.51689">
        <ele>79</ele>
        <time>2021-03-05T08:24:00.950Z</time>
      </trkpt>
      <trkpt lat="48.39151" lon="2.51683">
        <ele>79</ele>
        <time>2021-03-05T08:24:04.974Z</time>
      </trkpt>
      <trkpt lat="48.39156" lon="2.51679">
        <ele>79</ele>
        <time>2021-03-05T08:24:09.920Z</time>
      </trkpt>
      <trkpt lat="48.3916" lon="2.51673">
        <ele>79</ele>
        <time>2021-03-05T08:24:13.925Z</time>
      </trkpt>
      <trkpt lat="48.39163" lon="2.51667">
        <ele>79</ele>
        <time>2021-03-05T08:24:18.017Z</time>
      </trkpt>
      <trkpt lat="48.39169" lon="2.51665">
        <ele>79</ele>
        <time>2021-03-05T08:24:22.950Z</time>
      </trkpt>
      <trkpt lat="48.39174" lon="2.51662">
        <ele>79</ele>
        <time>2021-03-05T08:24:27.943Z</time>
      </trkpt>
      <trkpt lat="48.39179" lon="2.51658">
        <ele>79</ele>
        <time>2021-03-05T08:24:32.921Z</time>
      </trkpt>
      <trkpt lat="48.39183" lon="2.51654">
        <ele>81</ele>
        <time>2021-03-05T08:24:36.936Z</time>
      </trkpt>
      <trkpt lat="48.39188" lon="2.5165">
        <ele>80</ele>
        <time>2021-03-05T08:24:41.909Z</time>
      </trkpt>
      <trkpt lat="48.39194" lon="2.51649">
        <ele>80</ele>
        <time>2021-03-05T08:24:45.982Z</time>
      </trkpt>
      <trkpt lat="48.392" lon="2.51649">
        <ele>80</ele>
        <time>2021-03-05T08:24:50.920Z</time>
      </trkpt>
      <trkpt lat="48.39206" lon="2.51648">
        <ele>80</ele>
        <time>2021-03-05T08:24:55.926Z</time>
      </trkpt>
      <trkpt lat="48.39213" lon="2.51645">
        <ele>81</ele>
        <time>2021-03-05T08:25:00.931Z</time>
      </trkpt>
      <trkpt lat="48.39219" lon="2.51639">
        <ele>81</ele>
        <time>2021-03-05T08:25:05.923Z</time>
      </trkpt>
      <trkpt lat="48.39224" lon="2.51633">
        <ele>81</ele>
        <time>2021-03-05T08:25:10.917Z</time>
      </trkpt>
      <trkpt lat="48.39229" lon="2.51627">
        <ele>81</ele>
        <time>2021-03-05T08:25:15.899Z</time>
      </trkpt>
      <trkpt lat="48.39232" lon="2.51622">
        <ele>80</ele>
        <time>2021-03-05T08:25:19.942Z</time>
      </trkpt>
      <trkpt lat="48.39237" lon="2.51615">
        <ele>79</ele>
        <time>2021-03-05T08:25:24.916Z</time>
      </trkpt>
      <trkpt lat="48.39242" lon="2.51608">
        <ele>79</ele>
        <time>2021-03-05T08:25:29.909Z</time>
      </trkpt>
      <trkpt lat="48.39246" lon="2.51604">
        <ele>79</ele>
        <time>2021-03-05T08:25:33.928Z</time>
      </trkpt>
      <trkpt lat="48.3925" lon="2.51595">
        <ele>78</ele>
        <time>2021-03-05T08:25:38.911Z</time>
      </trkpt>
      <trkpt lat="48.39252" lon="2.51586">
        <ele>78</ele>
        <time>2021-03-05T08:25:43.917Z</time>
      </trkpt>
      <trkpt lat="48.39255" lon="2.51581">
        <ele>78</ele>
        <time>2021-03-05T08:25:47.941Z</time>
      </trkpt>
      <trkpt lat="48.39258" lon="2.51572">
        <ele>78</ele>
        <time>2021-03-05T08:25:51.952Z</time>
      </trkpt>
      <trkpt lat="48.39259" lon="2.51563">
        <ele>78</ele>
        <time>2021-03-05T08:25:56.935Z</time>
      </trkpt>
      <trkpt lat="48.3926" lon="2.51555">
        <ele>78</ele>
        <time>2021-03-05T08:26:00.942Z</time>
      </trkpt>
      <trkpt lat="48.3926" lon="2.51544">
        <ele>78</ele>
        <time>2021-03-05T08:26:05.929Z</time>
      </trkpt>
      <trkpt lat="48.3926" lon="2.51534">
        <ele>78</ele>
        <time>2021-03-05T08:26:10.928Z</time>
      </trkpt>
      <trkpt lat="48.39258" lon="2.51525">
        <ele>78</ele>
        <time>2021-03-05T08:26:14.960Z</time>
      </trkpt>
      <trkpt lat="48.39259" lon="2.51515">
        <ele>78</ele>
        <time>2021-03-05T08:26:19.921Z</time>
      </trkpt>
      <trkpt lat="48.39263" lon="2.51508">
        <ele>77</ele>
        <time>2021-03-05T08:26:24.942Z</time>
      </trkpt>
      <trkpt lat="48.39267" lon="2.51502">
        <ele>76</ele>
        <time>2021-03-05T08:26:29.921Z</time>
      </trkpt>
      <trkpt lat="48.3927" lon="2.51494">
        <ele>76</ele>
        <time>2021-03-05T08:26:34.916Z</time>
      </trkpt>
      <trkpt lat="48.39273" lon="2.51489">
        <ele>76</ele>
        <time>2021-03-05T08:26:38.924Z</time>
      </trkpt>
      <trkpt lat="48.39278" lon="2.51486">
        <ele>76</ele>
        <time>2021-03-05T08:26:43.951Z</time>
      </trkpt>
      <trkpt lat="48.3928" lon="2.51478">
        <ele>76</ele>
        <time>2021-03-05T08:26:48.924Z</time>
      </trkpt>
      <trkpt lat="48.3928" lon="2.51467">
        <ele>76</ele>
        <time>2021-03-05T08:26:53.914Z</time>
      </trkpt>
      <trkpt lat="48.39283" lon="2.5146">
        <ele>76</ele>
        <time>2021-03-05T08:26:57.932Z</time>
      </trkpt>
      <trkpt lat="48.39286" lon="2.51453">
        <ele>75</ele>
        <time>2021-03-05T08:27:02.951Z</time>
      </trkpt>
      <trkpt lat="48.3929" lon="2.51444">
        <ele>75</ele>
        <time>2021-03-05T08:27:07.948Z</time>
      </trkpt>
      <trkpt lat="48.39294" lon="2.51437">
        <ele>76</ele>
        <time>2021-03-05T08:27:12.965Z</time>
      </trkpt>
      <trkpt lat="48.39296" lon="2.51442">
        <ele>76</ele>
        <time>2021-03-05T08:27:17.926Z</time>
      </trkpt>
      <trkpt lat="48.39297" lon="2.51441">
        <ele>76</ele>
        <time>2021-03-05T08:27:22.916Z</time>
      </trkpt>
      <trkpt lat="48.39299" lon="2.51438">
        <ele>76</ele>
        <time>2021-03-05T08:27:27.916Z</time>
      </trkpt>
      <trkpt lat="48.39301" lon="2.51435">
        <ele>76</ele>
        <time>2021-03-05T08:27:31.930Z</time>
      </trkpt>
      <trkpt lat="48.39303" lon="2.51427">
        <ele>76</ele>
        <time>2021-03-05T08:27:36.942Z</time>
      </trkpt>
      <trkpt lat="48.39304" lon="2.5142">
        <ele>76</ele>
        <time>2021-03-05T08:27:40.954Z</time>
      </trkpt>
      <trkpt lat="48.39305" lon="2.5141">
        <ele>76</ele>
        <time>2021-03-05T08:27:45.940Z</time>
      </trkpt>
      <trkpt lat="48.39308" lon="2.51404">
        <ele>76</ele>
        <time>2021-03-05T08:27:50.918Z</time>
      </trkpt>
      <trkpt lat="48.39311" lon="2.514">
        <ele>75</ele>
        <time>2021-03-05T08:27:54.956Z</time>
      </trkpt>
      <trkpt lat="48.39317" lon="2.51402">
        <ele>75</ele>
        <time>2021-03-05T08:28:19.911Z</time>
      </trkpt>
      <trkpt lat="48.39313" lon="2.51407">
        <ele>76</ele>
        <time>2021-03-05T08:28:23.924Z</time>
      </trkpt>
      <trkpt lat="48.39311" lon="2.51414">
        <ele>76</ele>
        <time>2021-03-05T08:28:27.944Z</time>
      </trkpt>
      <trkpt lat="48.39313" lon="2.51425">
        <ele>76</ele>
        <time>2021-03-05T08:28:32.947Z</time>
      </trkpt>
      <trkpt lat="48.39316" lon="2.51428">
        <ele>76</ele>
        <time>2021-03-05T08:28:37.946Z</time>
      </trkpt>
      <trkpt lat="48.39308" lon="2.51418">
        <ele>76</ele>
        <time>2021-03-05T08:29:02.936Z</time>
      </trkpt>
      <trkpt lat="48.39308" lon="2.51418">
        <ele>76</ele>
        <time>2021-03-05T08:29:06.943Z</time>
      </trkpt>
      <trkpt lat="48.39302" lon="2.5142">
        <ele>76</ele>
        <time>2021-03-05T08:29:11.942Z</time>
      </trkpt>
      <trkpt lat="48.39299" lon="2.51417">
        <ele>76</ele>
        <time>2021-03-05T08:29:16.926Z</time>
      </trkpt>
      <trkpt lat="48.39297" lon="2.51414">
        <ele>76</ele>
        <time>2021-03-05T08:29:20.940Z</time>
      </trkpt>
      <trkpt lat="48.39295" lon="2.51408">
        <ele>76</ele>
        <time>2021-03-05T08:29:25.926Z</time>
      </trkpt>
      <trkpt lat="48.39297" lon="2.51406">
        <ele>76</ele>
        <time>2021-03-05T08:29:30.936Z</time>
      </trkpt>
      <trkpt lat="48.39297" lon="2.51406">
        <ele>76</ele>
        <time>2021-03-05T08:29:35.946Z</time>
      </trkpt>
      <trkpt lat="48.39298" lon="2.51398">
        <ele>75</ele>
        <time>2021-03-05T08:29:40.920Z</time>
      </trkpt>
      <trkpt lat="48.39299" lon="2.51392">
        <ele>75</ele>
        <time>2021-03-05T08:29:44.941Z</time>
      </trkpt>
      <trkpt lat="48.39298" lon="2.51389">
        <ele>75</ele>
        <time>2021-03-05T08:29:49.959Z</time>
      </trkpt>
      <trkpt lat="48.39301" lon="2.51392">
        <ele>75</ele>
        <time>2021-03-05T08:29:54.938Z</time>
      </trkpt>
      <trkpt lat="48.39306" lon="2.51392">
        <ele>75</ele>
        <time>2021-03-05T08:29:58.948Z</time>
      </trkpt>
      <trkpt lat="48.39311" lon="2.51391">
        <ele>75</ele>
        <time>2021-03-05T08:30:03.909Z</time>
      </trkpt>
      <trkpt lat="48.39314" lon="2.51389">
        <ele>75</ele>
        <time>2021-03-05T08:30:07.934Z</time>
      </trkpt>
      <trkpt lat="48.39319" lon="2.51385">
        <ele>75</ele>
        <time>2021-03-05T08:30:11.946Z</time>
      </trkpt>
      <trkpt lat="48.39325" lon="2.51379">
        <ele>78</ele>
        <time>2021-03-05T08:30:16.914Z</time>
      </trkpt>
      <trkpt lat="48.39331" lon="2.51377">
        <ele>78</ele>
        <time>2021-03-05T08:30:21.915Z</time>
      </trkpt>
      <trkpt lat="48.39335" lon="2.51377">
        <ele>78</ele>
        <time>2021-03-05T08:30:35.913Z</time>
      </trkpt>
      <trkpt lat="48.39338" lon="2.51378">
        <ele>78</ele>
        <time>2021-03-05T08:30:39.918Z</time>
      </trkpt>
      <trkpt lat="48.39344" lon="2.51378">
        <ele>78</ele>
        <time>2021-03-05T08:30:44.914Z</time>
      </trkpt>
      <trkpt lat="48.39349" lon="2.51377">
        <ele>82</ele>
        <time>2021-03-05T08:30:48.925Z</time>
      </trkpt>
      <trkpt lat="48.39353" lon="2.51373">
        <ele>80</ele>
        <time>2021-03-05T08:30:53.924Z</time>
      </trkpt>
      <trkpt lat="48.39359" lon="2.51368">
        <ele>80</ele>
        <time>2021-03-05T08:31:21.925Z</time>
      </trkpt>
      <trkpt lat="48.39359" lon="2.51368">
        <ele>80</ele>
        <time>2021-03-05T08:31:25.959Z</time>
      </trkpt>
      <trkpt lat="48.39359" lon="2.51368">
        <ele>80</ele>
        <time>2021-03-05T08:31:30.926Z</time>
      </trkpt>
      <trkpt lat="48.39361" lon="2.51368">
        <ele>80</ele>
        <time>2021-03-05T08:31:34.939Z</time>
      </trkpt>
      <trkpt lat="48.39363" lon="2.51367">
        <ele>80</ele>
        <time>2021-03-05T08:31:38.956Z</time>
      </trkpt>
      <trkpt lat="48.39367" lon="2.51367">
        <ele>80</ele>
        <time>2021-03-05T08:31:42.964Z</time>
      </trkpt>
      <trkpt lat="48.3937" lon="2.5137">
        <ele>80</ele>
        <time>2021-03-05T08:31:47.925Z</time>
      </trkpt>
      <trkpt lat="48.39375" lon="2.51373">
        <ele>80</ele>
        <time>2021-03-05T08:31:52.927Z</time>
      </trkpt>
      <trkpt lat="48.39379" lon="2.51375">
        <ele>81</ele>
        <time>2021-03-05T08:31:57.919Z</time>
      </trkpt>
      <trkpt lat="48.39384" lon="2.51374">
        <ele>81</ele>
        <time>2021-03-05T08:32:01.928Z</time>
      </trkpt>
      <trkpt lat="48.39389" lon="2.51373">
        <ele>81</ele>
        <time>2021-03-05T08:32:05.968Z</time>
      </trkpt>
      <trkpt lat="48.39393" lon="2.51376">
        <ele>83</ele>
        <time>2021-03-05T08:32:10.922Z</time>
      </trkpt>
      <trkpt lat="48.39397" lon="2.51377">
        <ele>83</ele>
        <time>2021-03-05T08:32:14.922Z</time>
      </trkpt>
      <trkpt lat="48.39402" lon="2.51379">
        <ele>83</ele>
        <time>2021-03-05T08:32:18.949Z</time>
      </trkpt>
      <trkpt lat="48.39408" lon="2.51378">
        <ele>83</ele>
        <time>2021-03-05T08:32:23.936Z</time>
      </trkpt>
      <trkpt lat="48.39414" lon="2.51378">
        <ele>83</ele>
        <time>2021-03-05T08:32:28.946Z</time>
      </trkpt>
      <trkpt lat="48.39417" lon="2.51383">
        <ele>83</ele>
        <time>2021-03-05T08:32:33.924Z</time>
      </trkpt>
      <trkpt lat="48.39422" lon="2.51386">
        <ele>83</ele>
        <time>2021-03-05T08:32:38.920Z</time>
      </trkpt>
      <trkpt lat="48.39426" lon="2.51387">
        <ele>83</ele>
        <time>2021-03-05T08:32:42.932Z</time>
      </trkpt>
      <trkpt lat="48.39432" lon="2.5139">
        <ele>82</ele>
        <time>2021-03-05T08:32:47.938Z</time>
      </trkpt>
      <trkpt lat="48.39435" lon="2.51395">
        <ele>82</ele>
        <time>2021-03-05T08:32:52.922Z</time>
      </trkpt>
      <trkpt lat="48.39441" lon="2.51398">
        <ele>82</ele>
        <time>2021-03-05T08:32:57.927Z</time>
      </trkpt>
      <trkpt lat="48.39445" lon="2.514">
        <ele>82</ele>
        <time>2021-03-05T08:33:01.955Z</time>
      </trkpt>
      <trkpt lat="48.39449" lon="2.51403">
        <ele>86</ele>
        <time>2021-03-05T08:33:05.979Z</time>
      </trkpt>
      <trkpt lat="48.3945" lon="2.51404">
        <ele>86</ele>
        <time>2021-03-05T08:33:10.926Z</time>
      </trkpt>
      <trkpt lat="48.39456" lon="2.51403">
        <ele>82</ele>
        <time>2021-03-05T08:33:15.930Z</time>
      </trkpt>
      <trkpt lat="48.39467" lon="2.51397">
        <ele>82</ele>
        <time>2021-03-05T08:33:20.918Z</time>
      </trkpt>
      <trkpt lat="48.39471" lon="2.514">
        <ele>82</ele>
        <time>2021-03-05T08:33:25.914Z</time>
      </trkpt>
      <trkpt lat="48.39471" lon="2.514">
        <ele>82</ele>
        <time>2021-03-05T08:33:30.919Z</time>
      </trkpt>
      <trkpt lat="48.39473" lon="2.51404">
        <ele>85</ele>
        <time>2021-03-05T08:33:35.919Z</time>
      </trkpt>
      <trkpt lat="48.39475" lon="2.51406">
        <ele>85</ele>
        <time>2021-03-05T08:33:39.932Z</time>
      </trkpt>
      <trkpt lat="48.39479" lon="2.51411">
        <ele>85</ele>
        <time>2021-03-05T08:33:44.919Z</time>
      </trkpt>
      <trkpt lat="48.39488" lon="2.51409">
        <ele>84</ele>
        <time>2021-03-05T08:33:49.944Z</time>
      </trkpt>
      <trkpt lat="48.39494" lon="2.51414">
        <ele>84</ele>
        <time>2021-03-05T08:33:54.922Z</time>
      </trkpt>
      <trkpt lat="48.39501" lon="2.51415">
        <ele>84</ele>
        <time>2021-03-05T08:33:59.910Z</time>
      </trkpt>
      <trkpt lat="48.39506" lon="2.51414">
        <ele>84</ele>
        <time>2021-03-05T08:34:03.922Z</time>
      </trkpt>
      <trkpt lat="48.39511" lon="2.51414">
        <ele>84</ele>
        <time>2021-03-05T08:34:08.927Z</time>
      </trkpt>
      <trkpt lat="48.39515" lon="2.51416">
        <ele>83</ele>
        <time>2021-03-05T08:34:13.922Z</time>
      </trkpt>
      <trkpt lat="48.3952" lon="2.51419">
        <ele>83</ele>
        <time>2021-03-05T08:34:18.924Z</time>
      </trkpt>
      <trkpt lat="48.39526" lon="2.51419">
        <ele>83</ele>
        <time>2021-03-05T08:34:23.946Z</time>
      </trkpt>
      <trkpt lat="48.39532" lon="2.51421">
        <ele>83</ele>
        <time>2021-03-05T08:34:28.921Z</time>
      </trkpt>
      <trkpt lat="48.39534" lon="2.51424">
        <ele>83</ele>
        <time>2021-03-05T08:34:32.934Z</time>
      </trkpt>
      <trkpt lat="48.39539" lon="2.51429">
        <ele>83</ele>
        <time>2021-03-05T08:34:37.916Z</time>
      </trkpt>
      <trkpt lat="48.39543" lon="2.51431">
        <ele>82</ele>
        <time>2021-03-05T08:34:41.954Z</time>
      </trkpt>
      <trkpt lat="48.39547" lon="2.51432">
        <ele>82</ele>
        <time>2021-03-05T08:34:46.903Z</time>
      </trkpt>
      <trkpt lat="48.39552" lon="2.51431">
        <ele>82</ele>
        <time>2021-03-05T08:34:51.910Z</time>
      </trkpt>
      <trkpt lat="48.39558" lon="2.51429">
        <ele>81</ele>
        <time>2021-03-05T08:34:56.912Z</time>
      </trkpt>
      <trkpt lat="48.39563" lon="2.51428">
        <ele>81</ele>
        <time>2021-03-05T08:35:01.925Z</time>
      </trkpt>
      <trkpt lat="48.39567" lon="2.51427">
        <ele>81</ele>
        <time>2021-03-05T08:35:06.913Z</time>
      </trkpt>
      <trkpt lat="48.39571" lon="2.51425">
        <ele>79</ele>
        <time>2021-03-05T08:35:11.913Z</time>
      </trkpt>
      <trkpt lat="48.39575" lon="2.51421">
        <ele>79</ele>
        <time>2021-03-05T08:35:15.922Z</time>
      </trkpt>
      <trkpt lat="48.39579" lon="2.51417">
        <ele>79</ele>
        <time>2021-03-05T08:35:19.947Z</time>
      </trkpt>
      <trkpt lat="48.39582" lon="2.51412">
        <ele>79</ele>
        <time>2021-03-05T08:35:24.912Z</time>
      </trkpt>
      <trkpt lat="48.39585" lon="2.5141">
        <ele>79</ele>
        <time>2021-03-05T08:35:28.911Z</time>
      </trkpt>
      <trkpt lat="48.39588" lon="2.51407">
        <ele>79</ele>
        <time>2021-03-05T08:35:33.912Z</time>
      </trkpt>
      <trkpt lat="48.39591" lon="2.51405">
        <ele>79</ele>
        <time>2021-03-05T08:35:37.909Z</time>
      </trkpt>
      <trkpt lat="48.39594" lon="2.51403">
        <ele>78</ele>
        <time>2021-03-05T08:35:42.927Z</time>
      </trkpt>
      <trkpt lat="48.39598" lon="2.51399">
        <ele>77</ele>
        <time>2021-03-05T08:35:47.931Z</time>
      </trkpt>
      <trkpt lat="48.39599" lon="2.51393">
        <ele>77</ele>
        <time>2021-03-05T08:35:51.925Z</time>
      </trkpt>
      <trkpt lat="48.39601" lon="2.51391">
        <ele>77</ele>
        <time>2021-03-05T08:35:56.916Z</time>
      </trkpt>
      <trkpt lat="48.39602" lon="2.5139">
        <ele>77</ele>
        <time>2021-03-05T08:36:01.928Z</time>
      </trkpt>
      <trkpt lat="48.39602" lon="2.51383">
        <ele>77</ele>
        <time>2021-03-05T08:36:06.928Z</time>
      </trkpt>
      <trkpt lat="48.39597" lon="2.51377">
        <ele>78</ele>
        <time>2021-03-05T08:36:11.919Z</time>
      </trkpt>
      <trkpt lat="48.39595" lon="2.51372">
        <ele>78</ele>
        <time>2021-03-05T08:36:15.925Z</time>
      </trkpt>
      <trkpt lat="48.39593" lon="2.51364">
        <ele>78</ele>
        <time>2021-03-05T08:36:20.946Z</time>
      </trkpt>
      <trkpt lat="48.39593" lon="2.51355">
        <ele>78</ele>
        <time>2021-03-05T08:36:25.996Z</time>
      </trkpt>
      <trkpt lat="48.39593" lon="2.51349">
        <ele>78</ele>
        <time>2021-03-05T08:36:30.935Z</time>
      </trkpt>
      <trkpt lat="48.39595" lon="2.51343">
        <ele>79</ele>
        <time>2021-03-05T08:36:35.918Z</time>
      </trkpt>
      <trkpt lat="48.39595" lon="2.51336">
        <ele>79</ele>
        <time>2021-03-05T08:36:40.927Z</time>
      </trkpt>
      <trkpt lat="48.39597" lon="2.51331">
        <ele>79</ele>
        <time>2021-03-05T08:36:45.912Z</time>
      </trkpt>
      <trkpt lat="48.39596" lon="2.51325">
        <ele>79</ele>
        <time>2021-03-05T08:36:50.910Z</time>
      </trkpt>
      <trkpt lat="48.39595" lon="2.51321">
        <ele>79</ele>
        <time>2021-03-05T08:36:54.928Z</time>
      </trkpt>
      <trkpt lat="48.39596" lon="2.51319">
        <ele>80</ele>
        <time>2021-03-05T08:36:58.932Z</time>
      </trkpt>
      <trkpt lat="48.39593" lon="2.51313">
        <ele>80</ele>
        <time>2021-03-05T08:37:02.949Z</time>
      </trkpt>
      <trkpt lat="48.39591" lon="2.51308">
        <ele>80</ele>
        <time>2021-03-05T08:37:07.918Z</time>
      </trkpt>
      <trkpt lat="48.39597" lon="2.51307">
        <ele>80</ele>
        <time>2021-03-05T08:37:12.918Z</time>
      </trkpt>
      <trkpt lat="48.39601" lon="2.51304">
        <ele>80</ele>
        <time>2021-03-05T08:37:17.915Z</time>
      </trkpt>
      <trkpt lat="48.39602" lon="2.51301">
        <ele>80</ele>
        <time>2021-03-05T08:37:21.918Z</time>
      </trkpt>
      <trkpt lat="48.39603" lon="2.51297">
        <ele>80</ele>
        <time>2021-03-05T08:37:26.928Z</time>
      </trkpt>
      <trkpt lat="48.39608" lon="2.51293">
        <ele>80</ele>
        <time>2021-03-05T08:37:31.913Z</time>
      </trkpt>
      <trkpt lat="48.39607" lon="2.5129">
        <ele>81</ele>
        <time>2021-03-05T08:37:35.929Z</time>
      </trkpt>
      <trkpt lat="48.3961" lon="2.51284">
        <ele>81</ele>
        <time>2021-03-05T08:37:40.928Z</time>
      </trkpt>
      <trkpt lat="48.39611" lon="2.51277">
        <ele>81</ele>
        <time>2021-03-05T08:37:45.924Z</time>
      </trkpt>
      <trkpt lat="48.39614" lon="2.51271">
        <ele>81</ele>
        <time>2021-03-05T08:37:50.922Z</time>
      </trkpt>
      <trkpt lat="48.39618" lon="2.5127">
        <ele>81</ele>
        <time>2021-03-05T08:37:54.939Z</time>
      </trkpt>
      <trkpt lat="48.39624" lon="2.5127">
        <ele>81</ele>
        <time>2021-03-05T08:37:59.936Z</time>
      </trkpt>
      <trkpt lat="48.39629" lon="2.51272">
        <ele>80</ele>
        <time>2021-03-05T08:38:04.923Z</time>
      </trkpt>
      <trkpt lat="48.39634" lon="2.51274">
        <ele>80</ele>
        <time>2021-03-05T08:38:09.920Z</time>
      </trkpt>
      <trkpt lat="48.39636" lon="2.51271">
        <ele>80</ele>
        <time>2021-03-05T08:38:13.932Z</time>
      </trkpt>
      <trkpt lat="48.39639" lon="2.51272">
        <ele>80</ele>
        <time>2021-03-05T08:38:18.926Z</time>
      </trkpt>
      <trkpt lat="48.39643" lon="2.51276">
        <ele>80</ele>
        <time>2021-03-05T08:38:23.931Z</time>
      </trkpt>
      <trkpt lat="48.39646" lon="2.51276">
        <ele>80</ele>
        <time>2021-03-05T08:38:27.942Z</time>
      </trkpt>
      <trkpt lat="48.39652" lon="2.51276">
        <ele>80</ele>
        <time>2021-03-05T08:38:32.937Z</time>
      </trkpt>
      <trkpt lat="48.39658" lon="2.51279">
        <ele>78</ele>
        <time>2021-03-05T08:38:37.929Z</time>
      </trkpt>
      <trkpt lat="48.39663" lon="2.51282">
        <ele>78</ele>
        <time>2021-03-05T08:38:42.947Z</time>
      </trkpt>
      <trkpt lat="48.39668" lon="2.51284">
        <ele>78</ele>
        <time>2021-03-05T08:38:47.926Z</time>
      </trkpt>
      <trkpt lat="48.39674" lon="2.51284">
        <ele>78</ele>
        <time>2021-03-05T08:38:52.924Z</time>
      </trkpt>
      <trkpt lat="48.39677" lon="2.51289">
        <ele>78</ele>
        <time>2021-03-05T08:38:56.934Z</time>
      </trkpt>
      <trkpt lat="48.39676" lon="2.51297">
        <ele>79</ele>
        <time>2021-03-05T08:39:01.935Z</time>
      </trkpt>
      <trkpt lat="48.39676" lon="2.51305">
        <ele>79</ele>
        <time>2021-03-05T08:39:06.939Z</time>
      </trkpt>
      <trkpt lat="48.39675" lon="2.51313">
        <ele>79</ele>
        <time>2021-03-05T08:39:11.928Z</time>
      </trkpt>
      <trkpt lat="48.39674" lon="2.5132">
        <ele>79</ele>
        <time>2021-03-05T08:39:15.931Z</time>
      </trkpt>
      <trkpt lat="48.39676" lon="2.51327">
        <ele>79</ele>
        <time>2021-03-05T08:39:20.935Z</time>
      </trkpt>
      <trkpt lat="48.39678" lon="2.51335">
        <ele>79</ele>
        <time>2021-03-05T08:39:25.965Z</time>
      </trkpt>
      <trkpt lat="48.3968" lon="2.51345">
        <ele>79</ele>
        <time>2021-03-05T08:39:30.927Z</time>
      </trkpt>
      <trkpt lat="48.39681" lon="2.51353">
        <ele>78</ele>
        <time>2021-03-05T08:39:35.930Z</time>
      </trkpt>
      <trkpt lat="48.39682" lon="2.51362">
        <ele>78</ele>
        <time>2021-03-05T08:39:40.913Z</time>
      </trkpt>
      <trkpt lat="48.39683" lon="2.51367">
        <ele>78</ele>
        <time>2021-03-05T08:39:44.931Z</time>
      </trkpt>
      <trkpt lat="48.39685" lon="2.51374">
        <ele>78</ele>
        <time>2021-03-05T08:39:49.931Z</time>
      </trkpt>
      <trkpt lat="48.39685" lon="2.51381">
        <ele>79</ele>
        <time>2021-03-05T08:39:54.924Z</time>
      </trkpt>
      <trkpt lat="48.39686" lon="2.51388">
        <ele>79</ele>
        <time>2021-03-05T08:39:58.938Z</time>
      </trkpt>
      <trkpt lat="48.39689" lon="2.51394">
        <ele>79</ele>
        <time>2021-03-05T08:40:03.931Z</time>
      </trkpt>
      <trkpt lat="48.39693" lon="2.51404">
        <ele>79</ele>
        <time>2021-03-05T08:40:08.950Z</time>
      </trkpt>
      <trkpt lat="48.39697" lon="2.51412">
        <ele>79</ele>
        <time>2021-03-05T08:40:13.927Z</time>
      </trkpt>
      <trkpt lat="48.39702" lon="2.51419">
        <ele>79</ele>
        <time>2021-03-05T08:40:18.916Z</time>
      </trkpt>
      <trkpt lat="48.39706" lon="2.51427">
        <ele>79</ele>
        <time>2021-03-05T08:40:22.944Z</time>
      </trkpt>
      <trkpt lat="48.39711" lon="2.51434">
        <ele>78</ele>
        <time>2021-03-05T08:40:27.963Z</time>
      </trkpt>
      <trkpt lat="48.39716" lon="2.51441">
        <ele>78</ele>
        <time>2021-03-05T08:40:32.918Z</time>
      </trkpt>
      <trkpt lat="48.39721" lon="2.51445">
        <ele>78</ele>
        <time>2021-03-05T08:40:37.921Z</time>
      </trkpt>
      <trkpt lat="48.39724" lon="2.51448">
        <ele>78</ele>
        <time>2021-03-05T08:40:41.945Z</time>
      </trkpt>
      <trkpt lat="48.39728" lon="2.51454">
        <ele>78</ele>
        <time>2021-03-05T08:40:46.927Z</time>
      </trkpt>
      <trkpt lat="48.3973" lon="2.51462">
        <ele>77</ele>
        <time>2021-03-05T08:40:51.919Z</time>
      </trkpt>
      <trkpt lat="48.39733" lon="2.51469">
        <ele>77</ele>
        <time>2021-03-05T08:40:55.935Z</time>
      </trkpt>
      <trkpt lat="48.39739" lon="2.51472">
        <ele>79</ele>
        <time>2021-03-05T08:41:00.925Z</time>
      </trkpt>
      <trkpt lat="48.3974" lon="2.5148">
        <ele>79</ele>
        <time>2021-03-05T08:41:05.925Z</time>
      </trkpt>
      <trkpt lat="48.39744" lon="2.51488">
        <ele>79</ele>
        <time>2021-03-05T08:41:10.926Z</time>
      </trkpt>
      <trkpt lat="48.39749" lon="2.51494">
        <ele>79</ele>
        <time>2021-03-05T08:41:15.924Z</time>
      </trkpt>
      <trkpt lat="48.39748" lon="2.51503">
        <ele>79</ele>
        <time>2021-03-05T08:41:20.932Z</time>
      </trkpt>
      <trkpt lat="48.3975" lon="2.51509">
        <ele>79</ele>
        <time>2021-03-05T08:41:25.928Z</time>
      </trkpt>
      <trkpt lat="48.39751" lon="2.51517">
        <ele>80</ele>
        <time>2021-03-05T08:41:30.928Z</time>
      </trkpt>
      <trkpt lat="48.39752" lon="2.51525">
        <ele>80</ele>
        <time>2021-03-05T08:41:35.924Z</time>
      </trkpt>
      <trkpt lat="48.39754" lon="2.51531">
        <ele>80</ele>
        <time>2021-03-05T08:41:40.942Z</time>
      </trkpt>
      <trkpt lat="48.39757" lon="2.51537">
        <ele>80</ele>
        <time>2021-03-05T08:41:45.928Z</time>
      </trkpt>
      <trkpt lat="48.39756" lon="2.51543">
        <ele>80</ele>
        <time>2021-03-05T08:41:49.935Z</time>
      </trkpt>
      <trkpt lat="48.39753" lon="2.51548">
        <ele>80</ele>
        <time>2021-03-05T08:41:54.920Z</time>
      </trkpt>
      <trkpt lat="48.3975" lon="2.51552">
        <ele>80</ele>
        <time>2021-03-05T08:41:58.945Z</time>
      </trkpt>
      <trkpt lat="48.39748" lon="2.5156">
        <ele>80</ele>
        <time>2021-03-05T08:42:03.924Z</time>
      </trkpt>
      <trkpt lat="48.39747" lon="2.51567">
        <ele>80</ele>
        <time>2021-03-05T08:42:08.931Z</time>
      </trkpt>
      <trkpt lat="48.39743" lon="2.51572">
        <ele>82</ele>
        <time>2021-03-05T08:42:12.941Z</time>
      </trkpt>
      <trkpt lat="48.39738" lon="2.51576">
        <ele>82</ele>
        <time>2021-03-05T08:42:17.924Z</time>
      </trkpt>
      <trkpt lat="48.39735" lon="2.51579">
        <ele>83</ele>
        <time>2021-03-05T08:42:21.942Z</time>
      </trkpt>
      <trkpt lat="48.39732" lon="2.51584">
        <ele>83</ele>
        <time>2021-03-05T08:42:25.975Z</time>
      </trkpt>
      <trkpt lat="48.39733" lon="2.51591">
        <ele>83</ele>
        <time>2021-03-05T08:42:30.920Z</time>
      </trkpt>
      <trkpt lat="48.39735" lon="2.51599">
        <ele>87</ele>
        <time>2021-03-05T08:42:35.928Z</time>
      </trkpt>
      <trkpt lat="48.39736" lon="2.51607">
        <ele>87</ele>
        <time>2021-03-05T08:42:40.923Z</time>
      </trkpt>
      <trkpt lat="48.39737" lon="2.51615">
        <ele>83</ele>
        <time>2021-03-05T08:42:45.925Z</time>
      </trkpt>
      <trkpt lat="48.39738" lon="2.51623">
        <ele>83</ele>
        <time>2021-03-05T08:42:50.930Z</time>
      </trkpt>
      <trkpt lat="48.39738" lon="2.51631">
        <ele>86</ele>
        <time>2021-03-05T08:42:55.925Z</time>
      </trkpt>
      <trkpt lat="48.39739" lon="2.51639">
        <ele>86</ele>
        <time>2021-03-05T08:43:00.924Z</time>
      </trkpt>
      <trkpt lat="48.39739" lon="2.51645">
        <ele>86</ele>
        <time>2021-03-05T08:43:04.947Z</time>
      </trkpt>
      <trkpt lat="48.39739" lon="2.51653">
        <ele>88</ele>
        <time>2021-03-05T08:43:09.926Z</time>
      </trkpt>
      <trkpt lat="48.39738" lon="2.51659">
        <ele>88</ele>
        <time>2021-03-05T08:43:13.926Z</time>
      </trkpt>
      <trkpt lat="48.39738" lon="2.51666">
        <ele>88</ele>
        <time>2021-03-05T08:43:18.923Z</time>
      </trkpt>
      <trkpt lat="48.39739" lon="2.51673">
        <ele>88</ele>
        <time>2021-03-05T08:43:22.943Z</time>
      </trkpt>
      <trkpt lat="48.39739" lon="2.51681">
        <ele>90</ele>
        <time>2021-03-05T08:43:27.933Z</time>
      </trkpt>
      <trkpt lat="48.39739" lon="2.51689">
        <ele>90</ele>
        <time>2021-03-05T08:43:32.929Z</time>
      </trkpt>
      <trkpt lat="48.3974" lon="2.51695">
        <ele>90</ele>
        <time>2021-03-05T08:43:36.935Z</time>
      </trkpt>
      <trkpt lat="48.39742" lon="2.51703">
        <ele>90</ele>
        <time>2021-03-05T08:43:41.951Z</time>
      </trkpt>
      <trkpt lat="48.39743" lon="2.51713">
        <ele>92</ele>
        <time>2021-03-05T08:43:46.940Z</time>
      </trkpt>
      <trkpt lat="48.39745" lon="2.51719">
        <ele>92</ele>
        <time>2021-03-05T08:43:50.949Z</time>
      </trkpt>
      <trkpt lat="48.39746" lon="2.51727">
        <ele>92</ele>
        <time>2021-03-05T08:43:55.941Z</time>
      </trkpt>
      <trkpt lat="48.39749" lon="2.51736">
        <ele>95</ele>
        <time>2021-03-05T08:44:00.936Z</time>
      </trkpt>
      <trkpt lat="48.39751" lon="2.51745">
        <ele>95</ele>
        <time>2021-03-05T08:44:05.934Z</time>
      </trkpt>
      <trkpt lat="48.39755" lon="2.51751">
        <ele>95</ele>
        <time>2021-03-05T08:44:10.927Z</time>
      </trkpt>
      <trkpt lat="48.39757" lon="2.51756">
        <ele>95</ele>
        <time>2021-03-05T08:44:14.920Z</time>
      </trkpt>
      <trkpt lat="48.3976" lon="2.51761">
        <ele>95</ele>
        <time>2021-03-05T08:44:19.926Z</time>
      </trkpt>
      <trkpt lat="48.39763" lon="2.51768">
        <ele>98</ele>
        <time>2021-03-05T08:44:24.928Z</time>
      </trkpt>
      <trkpt lat="48.39763" lon="2.51776">
        <ele>98</ele>
        <time>2021-03-05T08:44:29.935Z</time>
      </trkpt>
      <trkpt lat="48.39764" lon="2.51784">
        <ele>94</ele>
        <time>2021-03-05T08:44:34.940Z</time>
      </trkpt>
      <trkpt lat="48.39764" lon="2.5179">
        <ele>94</ele>
        <time>2021-03-05T08:44:39.928Z</time>
      </trkpt>
      <trkpt lat="48.39764" lon="2.51796">
        <ele>102</ele>
        <time>2021-03-05T08:44:43.938Z</time>
      </trkpt>
      <trkpt lat="48.39764" lon="2.51802">
        <ele>102</ele>
        <time>2021-03-05T08:44:48.942Z</time>
      </trkpt>
      <trkpt lat="48.39765" lon="2.51808">
        <ele>96</ele>
        <time>2021-03-05T08:44:52.989Z</time>
      </trkpt>
      <trkpt lat="48.39768" lon="2.51817">
        <ele>96</ele>
        <time>2021-03-05T08:44:57.933Z</time>
      </trkpt>
      <trkpt lat="48.39769" lon="2.51824">
        <ele>98</ele>
        <time>2021-03-05T08:45:02.947Z</time>
      </trkpt>
      <trkpt lat="48.3977" lon="2.51832">
        <ele>98</ele>
        <time>2021-03-05T08:45:07.938Z</time>
      </trkpt>
      <trkpt lat="48.39771" lon="2.51839">
        <ele>98</ele>
        <time>2021-03-05T08:45:12.937Z</time>
      </trkpt>
      <trkpt lat="48.3977" lon="2.51846">
        <ele>98</ele>
        <time>2021-03-05T08:45:17.937Z</time>
      </trkpt>
      <trkpt lat="48.39769" lon="2.51853">
        <ele>99</ele>
        <time>2021-03-05T08:45:22.936Z</time>
      </trkpt>
      <trkpt lat="48.39766" lon="2.51858">
        <ele>99</ele>
        <time>2021-03-05T08:45:27.933Z</time>
      </trkpt>
      <trkpt lat="48.39766" lon="2.51866">
        <ele>99</ele>
        <time>2021-03-05T08:45:32.928Z</time>
      </trkpt>
      <trkpt lat="48.39767" lon="2.51874">
        <ele>99</ele>
        <time>2021-03-05T08:45:37.931Z</time>
      </trkpt>
      <trkpt lat="48.39767" lon="2.51883">
        <ele>99</ele>
        <time>2021-03-05T08:45:42.939Z</time>
      </trkpt>
      <trkpt lat="48.39767" lon="2.51893">
        <ele>99</ele>
        <time>2021-03-05T08:45:47.939Z</time>
      </trkpt>
      <trkpt lat="48.39768" lon="2.51901">
        <ele>99</ele>
        <time>2021-03-05T08:45:52.936Z</time>
      </trkpt>
      <trkpt lat="48.39768" lon="2.51909">
        <ele>96</ele>
        <time>2021-03-05T08:45:57.930Z</time>
      </trkpt>
      <trkpt lat="48.39768" lon="2.51916">
        <ele>96</ele>
        <time>2021-03-05T08:46:01.935Z</time>
      </trkpt>
      <trkpt lat="48.3977" lon="2.51923">
        <ele>96</ele>
        <time>2021-03-05T08:46:06.938Z</time>
      </trkpt>
      <trkpt lat="48.3977" lon="2.51931">
        <ele>94</ele>
        <time>2021-03-05T08:46:11.924Z</time>
      </trkpt>
      <trkpt lat="48.3977" lon="2.51937">
        <ele>94</ele>
        <time>2021-03-05T08:46:15.934Z</time>
      </trkpt>
      <trkpt lat="48.3977" lon="2.51946">
        <ele>94</ele>
        <time>2021-03-05T08:46:20.929Z</time>
      </trkpt>
      <trkpt lat="48.39768" lon="2.51954">
        <ele>94</ele>
        <time>2021-03-05T08:46:25.927Z</time>
      </trkpt>
      <trkpt lat="48.39766" lon="2.5196">
        <ele>92</ele>
        <time>2021-03-05T08:46:29.931Z</time>
      </trkpt>
      <trkpt lat="48.39763" lon="2.51966">
        <ele>97</ele>
        <time>2021-03-05T08:46:34.921Z</time>
      </trkpt>
      <trkpt lat="48.39759" lon="2.51974">
        <ele>97</ele>
        <time>2021-03-05T08:46:39.933Z</time>
      </trkpt>
      <trkpt lat="48.39757" lon="2.51982">
        <ele>97</ele>
        <time>2021-03-05T08:46:44.929Z</time>
      </trkpt>
      <trkpt lat="48.39755" lon="2.51989">
        <ele>95</ele>
        <time>2021-03-05T08:46:48.938Z</time>
      </trkpt>
      <trkpt lat="48.39753" lon="2.51997">
        <ele>95</ele>
        <time>2021-03-05T08:46:53.928Z</time>
      </trkpt>
      <trkpt lat="48.39752" lon="2.52004">
        <ele>95</ele>
        <time>2021-03-05T08:46:57.929Z</time>
      </trkpt>
      <trkpt lat="48.3975" lon="2.52011">
        <ele>95</ele>
        <time>2021-03-05T08:47:01.939Z</time>
      </trkpt>
      <trkpt lat="48.39748" lon="2.52019">
        <ele>93</ele>
        <time>2021-03-05T08:47:06.927Z</time>
      </trkpt>
      <trkpt lat="48.39747" lon="2.52028">
        <ele>93</ele>
        <time>2021-03-05T08:47:11.929Z</time>
      </trkpt>
      <trkpt lat="48.39745" lon="2.52036">
        <ele>93</ele>
        <time>2021-03-05T08:47:15.932Z</time>
      </trkpt>
      <trkpt lat="48.39744" lon="2.52045">
        <ele>91</ele>
        <time>2021-03-05T08:47:20.927Z</time>
      </trkpt>
      <trkpt lat="48.39742" lon="2.52054">
        <ele>91</ele>
        <time>2021-03-05T08:47:25.926Z</time>
      </trkpt>
      <trkpt lat="48.39741" lon="2.52064">
        <ele>91</ele>
        <time>2021-03-05T08:47:30.905Z</time>
      </trkpt>
      <trkpt lat="48.3974" lon="2.52072">
        <ele>90</ele>
        <time>2021-03-05T08:47:34.921Z</time>
      </trkpt>
      <trkpt lat="48.39739" lon="2.52081">
        <ele>90</ele>
        <time>2021-03-05T08:47:39.915Z</time>
      </trkpt>
      <trkpt lat="48.39737" lon="2.52091">
        <ele>90</ele>
        <time>2021-03-05T08:47:44.921Z</time>
      </trkpt>
      <trkpt lat="48.39736" lon="2.52101">
        <ele>92</ele>
        <time>2021-03-05T08:47:49.916Z</time>
      </trkpt>
      <trkpt lat="48.39735" lon="2.52109">
        <ele>92</ele>
        <time>2021-03-05T08:47:53.924Z</time>
      </trkpt>
      <trkpt lat="48.39734" lon="2.52118">
        <ele>92</ele>
        <time>2021-03-05T08:47:58.932Z</time>
      </trkpt>
      <trkpt lat="48.39732" lon="2.52127">
        <ele>91</ele>
        <time>2021-03-05T08:48:03.920Z</time>
      </trkpt>
      <trkpt lat="48.39731" lon="2.52135">
        <ele>91</ele>
        <time>2021-03-05T08:48:07.930Z</time>
      </trkpt>
      <trkpt lat="48.39728" lon="2.52144">
        <ele>91</ele>
        <time>2021-03-05T08:48:12.935Z</time>
      </trkpt>
      <trkpt lat="48.39726" lon="2.52153">
        <ele>93</ele>
        <time>2021-03-05T08:48:17.921Z</time>
      </trkpt>
      <trkpt lat="48.39724" lon="2.52163">
        <ele>93</ele>
        <time>2021-03-05T08:48:21.925Z</time>
      </trkpt>
      <trkpt lat="48.39722" lon="2.52174">
        <ele>93</ele>
        <time>2021-03-05T08:48:26.924Z</time>
      </trkpt>
      <trkpt lat="48.39721" lon="2.52183">
        <ele>95</ele>
        <time>2021-03-05T08:48:30.924Z</time>
      </trkpt>
      <trkpt lat="48.39721" lon="2.52193">
        <ele>95</ele>
        <time>2021-03-05T08:48:35.937Z</time>
      </trkpt>
      <trkpt lat="48.3972" lon="2.52204">
        <ele>95</ele>
        <time>2021-03-05T08:48:40.935Z</time>
      </trkpt>
      <trkpt lat="48.39719" lon="2.52213">
        <ele>95</ele>
        <time>2021-03-05T08:48:45.935Z</time>
      </trkpt>
      <trkpt lat="48.39717" lon="2.5222">
        <ele>95</ele>
        <time>2021-03-05T08:48:50.038Z</time>
      </trkpt>
      <trkpt lat="48.39715" lon="2.52228">
        <ele>95</ele>
        <time>2021-03-05T08:48:54.933Z</time>
      </trkpt>
      <trkpt lat="48.39713" lon="2.52239">
        <ele>96</ele>
        <time>2021-03-05T08:48:59.946Z</time>
      </trkpt>
      <trkpt lat="48.39709" lon="2.52249">
        <ele>96</ele>
        <time>2021-03-05T08:49:04.932Z</time>
      </trkpt>
      <trkpt lat="48.39706" lon="2.52258">
        <ele>99</ele>
        <time>2021-03-05T08:49:09.930Z</time>
      </trkpt>
      <trkpt lat="48.39703" lon="2.52267">
        <ele>98</ele>
        <time>2021-03-05T08:49:14.930Z</time>
      </trkpt>
      <trkpt lat="48.39701" lon="2.52273">
        <ele>98</ele>
        <time>2021-03-05T08:49:18.942Z</time>
      </trkpt>
      <trkpt lat="48.39698" lon="2.52281">
        <ele>98</ele>
        <time>2021-03-05T08:49:23.932Z</time>
      </trkpt>
      <trkpt lat="48.39696" lon="2.52288">
        <ele>98</ele>
        <time>2021-03-05T08:49:27.937Z</time>
      </trkpt>
      <trkpt lat="48.39694" lon="2.52296">
        <ele>98</ele>
        <time>2021-03-05T08:49:32.938Z</time>
      </trkpt>
      <trkpt lat="48.39692" lon="2.52304">
        <ele>98</ele>
        <time>2021-03-05T08:49:37.924Z</time>
      </trkpt>
      <trkpt lat="48.39691" lon="2.52312">
        <ele>98</ele>
        <time>2021-03-05T08:49:42.930Z</time>
      </trkpt>
      <trkpt lat="48.39691" lon="2.5232">
        <ele>98</ele>
        <time>2021-03-05T08:49:47.935Z</time>
      </trkpt>
      <trkpt lat="48.3969" lon="2.52329">
        <ele>98</ele>
        <time>2021-03-05T08:49:52.939Z</time>
      </trkpt>
      <trkpt lat="48.3969" lon="2.52337">
        <ele>98</ele>
        <time>2021-03-05T08:49:57.938Z</time>
      </trkpt>
      <trkpt lat="48.39689" lon="2.52345">
        <ele>98</ele>
        <time>2021-03-05T08:50:02.934Z</time>
      </trkpt>
      <trkpt lat="48.39688" lon="2.52353">
        <ele>99</ele>
        <time>2021-03-05T08:50:07.923Z</time>
      </trkpt>
      <trkpt lat="48.39688" lon="2.5236">
        <ele>99</ele>
        <time>2021-03-05T08:50:11.930Z</time>
      </trkpt>
      <trkpt lat="48.39687" lon="2.5237">
        <ele>99</ele>
        <time>2021-03-05T08:50:16.940Z</time>
      </trkpt>
      <trkpt lat="48.39687" lon="2.52378">
        <ele>100</ele>
        <time>2021-03-05T08:50:21.936Z</time>
      </trkpt>
      <trkpt lat="48.39687" lon="2.52384">
        <ele>100</ele>
        <time>2021-03-05T08:50:26.032Z</time>
      </trkpt>
      <trkpt lat="48.39687" lon="2.52386">
        <ele>100</ele>
        <time>2021-03-05T08:50:30.925Z</time>
      </trkpt>
      <trkpt lat="48.39688" lon="2.52389">
        <ele>100</ele>
        <time>2021-03-05T08:50:34.944Z</time>
      </trkpt>
      <trkpt lat="48.39691" lon="2.52399">
        <ele>100</ele>
        <time>2021-03-05T08:50:39.937Z</time>
      </trkpt>
      <trkpt lat="48.39693" lon="2.52408">
        <ele>100</ele>
        <time>2021-03-05T08:50:44.922Z</time>
      </trkpt>
      <trkpt lat="48.39696" lon="2.52414">
        <ele>100</ele>
        <time>2021-03-05T08:50:48.923Z</time>
      </trkpt>
      <trkpt lat="48.39696" lon="2.52421">
        <ele>100</ele>
        <time>2021-03-05T08:50:53.925Z</time>
      </trkpt>
      <trkpt lat="48.39695" lon="2.52428">
        <ele>100</ele>
        <time>2021-03-05T08:50:58.930Z</time>
      </trkpt>
      <trkpt lat="48.39693" lon="2.52433">
        <ele>101</ele>
        <time>2021-03-05T08:51:02.948Z</time>
      </trkpt>
      <trkpt lat="48.3969" lon="2.5244">
        <ele>101</ele>
        <time>2021-03-05T08:51:07.941Z</time>
      </trkpt>
      <trkpt lat="48.39687" lon="2.5245">
        <ele>101</ele>
        <time>2021-03-05T08:51:12.929Z</time>
      </trkpt>
      <trkpt lat="48.39685" lon="2.52459">
        <ele>101</ele>
        <time>2021-03-05T08:51:17.930Z</time>
      </trkpt>
      <trkpt lat="48.39683" lon="2.52466">
        <ele>101</ele>
        <time>2021-03-05T08:51:21.936Z</time>
      </trkpt>
      <trkpt lat="48.39681" lon="2.52471">
        <ele>101</ele>
        <time>2021-03-05T08:51:25.943Z</time>
      </trkpt>
      <trkpt lat="48.39679" lon="2.52479">
        <ele>102</ele>
        <time>2021-03-05T08:51:30.928Z</time>
      </trkpt>
      <trkpt lat="48.39677" lon="2.52486">
        <ele>102</ele>
        <time>2021-03-05T08:51:34.934Z</time>
      </trkpt>
      <trkpt lat="48.39675" lon="2.52493">
        <ele>101</ele>
        <time>2021-03-05T08:51:39.920Z</time>
      </trkpt>
      <trkpt lat="48.39674" lon="2.52501">
        <ele>101</ele>
        <time>2021-03-05T08:51:44.931Z</time>
      </trkpt>
      <trkpt lat="48.39671" lon="2.5251">
        <ele>101</ele>
        <time>2021-03-05T08:51:49.929Z</time>
      </trkpt>
      <trkpt lat="48.3967" lon="2.52516">
        <ele>103</ele>
        <time>2021-03-05T08:51:53.939Z</time>
      </trkpt>
      <trkpt lat="48.39667" lon="2.52525">
        <ele>103</ele>
        <time>2021-03-05T08:51:58.925Z</time>
      </trkpt>
      <trkpt lat="48.39666" lon="2.52535">
        <ele>103</ele>
        <time>2021-03-05T08:52:03.931Z</time>
      </trkpt>
      <trkpt lat="48.39664" lon="2.52543">
        <ele>104</ele>
        <time>2021-03-05T08:52:08.938Z</time>
      </trkpt>
      <trkpt lat="48.39663" lon="2.52552">
        <ele>104</ele>
        <time>2021-03-05T08:52:13.925Z</time>
      </trkpt>
      <trkpt lat="48.39662" lon="2.52562">
        <ele>104</ele>
        <time>2021-03-05T08:52:18.926Z</time>
      </trkpt>
      <trkpt lat="48.3966" lon="2.52569">
        <ele>104</ele>
        <time>2021-03-05T08:52:22.932Z</time>
      </trkpt>
      <trkpt lat="48.39659" lon="2.52577">
        <ele>107</ele>
        <time>2021-03-05T08:52:27.931Z</time>
      </trkpt>
      <trkpt lat="48.39659" lon="2.52587">
        <ele>107</ele>
        <time>2021-03-05T08:52:32.949Z</time>
      </trkpt>
      <trkpt lat="48.39658" lon="2.52596">
        <ele>107</ele>
        <time>2021-03-05T08:52:37.936Z</time>
      </trkpt>
      <trkpt lat="48.39658" lon="2.52606">
        <ele>108</ele>
        <time>2021-03-05T08:52:42.925Z</time>
      </trkpt>
      <trkpt lat="48.39658" lon="2.52615">
        <ele>108</ele>
        <time>2021-03-05T08:52:46.947Z</time>
      </trkpt>
      <trkpt lat="48.39658" lon="2.52625">
        <ele>108</ele>
        <time>2021-03-05T08:52:51.936Z</time>
      </trkpt>
      <trkpt lat="48.39657" lon="2.52634">
        <ele>109</ele>
        <time>2021-03-05T08:52:56.935Z</time>
      </trkpt>
      <trkpt lat="48.39656" lon="2.52642">
        <ele>109</ele>
        <time>2021-03-05T08:53:00.930Z</time>
      </trkpt>
      <trkpt lat="48.39656" lon="2.52651">
        <ele>109</ele>
        <time>2021-03-05T08:53:04.946Z</time>
      </trkpt>
      <trkpt lat="48.39656" lon="2.52661">
        <ele>109</ele>
        <time>2021-03-05T08:53:09.943Z</time>
      </trkpt>
      <trkpt lat="48.39654" lon="2.52667">
        <ele>109</ele>
        <time>2021-03-05T08:53:13.950Z</time>
      </trkpt>
      <trkpt lat="48.39653" lon="2.52674">
        <ele>109</ele>
        <time>2021-03-05T08:53:18.960Z</time>
      </trkpt>
      <trkpt lat="48.39653" lon="2.52687">
        <ele>109</ele>
        <time>2021-03-05T08:53:23.926Z</time>
      </trkpt>
      <trkpt lat="48.3965" lon="2.52696">
        <ele>109</ele>
        <time>2021-03-05T08:53:28.980Z</time>
      </trkpt>
      <trkpt lat="48.39647" lon="2.52704">
        <ele>109</ele>
        <time>2021-03-05T08:53:33.927Z</time>
      </trkpt>
      <trkpt lat="48.39647" lon="2.52714">
        <ele>109</ele>
        <time>2021-03-05T08:53:38.934Z</time>
      </trkpt>
      <trkpt lat="48.39645" lon="2.52721">
        <ele>109</ele>
        <time>2021-03-05T08:53:43.929Z</time>
      </trkpt>
      <trkpt lat="48.39643" lon="2.52729">
        <ele>109</ele>
        <time>2021-03-05T08:53:48.925Z</time>
      </trkpt>
      <trkpt lat="48.39641" lon="2.52738">
        <ele>109</ele>
        <time>2021-03-05T08:53:53.920Z</time>
      </trkpt>
      <trkpt lat="48.39639" lon="2.52745">
        <ele>109</ele>
        <time>2021-03-05T08:53:58.921Z</time>
      </trkpt>
      <trkpt lat="48.39638" lon="2.52755">
        <ele>109</ele>
        <time>2021-03-05T08:54:03.919Z</time>
      </trkpt>
      <trkpt lat="48.39636" lon="2.52766">
        <ele>110</ele>
        <time>2021-03-05T08:54:08.920Z</time>
      </trkpt>
      <trkpt lat="48.39634" lon="2.52772">
        <ele>110</ele>
        <time>2021-03-05T08:54:12.929Z</time>
      </trkpt>
      <trkpt lat="48.39632" lon="2.52779">
        <ele>110</ele>
        <time>2021-03-05T08:54:17.919Z</time>
      </trkpt>
      <trkpt lat="48.39632" lon="2.52787">
        <ele>110</ele>
        <time>2021-03-05T08:54:21.926Z</time>
      </trkpt>
      <trkpt lat="48.39632" lon="2.52797">
        <ele>112</ele>
        <time>2021-03-05T08:54:26.922Z</time>
      </trkpt>
      <trkpt lat="48.39631" lon="2.52806">
        <ele>112</ele>
        <time>2021-03-05T08:54:30.966Z</time>
      </trkpt>
      <trkpt lat="48.39628" lon="2.52816">
        <ele>112</ele>
        <time>2021-03-05T08:54:35.933Z</time>
      </trkpt>
      <trkpt lat="48.39626" lon="2.52824">
        <ele>114</ele>
        <time>2021-03-05T08:54:40.915Z</time>
      </trkpt>
      <trkpt lat="48.39625" lon="2.5283">
        <ele>115</ele>
        <time>2021-03-05T08:54:44.927Z</time>
      </trkpt>
      <trkpt lat="48.39623" lon="2.52837">
        <ele>115</ele>
        <time>2021-03-05T08:54:48.932Z</time>
      </trkpt>
      <trkpt lat="48.39623" lon="2.52847">
        <ele>115</ele>
        <time>2021-03-05T08:54:53.931Z</time>
      </trkpt>
      <trkpt lat="48.39623" lon="2.52856">
        <ele>116</ele>
        <time>2021-03-05T08:54:58.934Z</time>
      </trkpt>
      <trkpt lat="48.39622" lon="2.52864">
        <ele>116</ele>
        <time>2021-03-05T08:55:03.935Z</time>
      </trkpt>
      <trkpt lat="48.39622" lon="2.52872">
        <ele>116</ele>
        <time>2021-03-05T08:55:08.916Z</time>
      </trkpt>
      <trkpt lat="48.3962" lon="2.52879">
        <ele>116</ele>
        <time>2021-03-05T08:55:12.942Z</time>
      </trkpt>
      <trkpt lat="48.39618" lon="2.52888">
        <ele>116</ele>
        <time>2021-03-05T08:55:17.934Z</time>
      </trkpt>
      <trkpt lat="48.39616" lon="2.52898">
        <ele>116</ele>
        <time>2021-03-05T08:55:22.938Z</time>
      </trkpt>
      <trkpt lat="48.39614" lon="2.52906">
        <ele>115</ele>
        <time>2021-03-05T08:55:27.934Z</time>
      </trkpt>
      <trkpt lat="48.39615" lon="2.52912">
        <ele>115</ele>
        <time>2021-03-05T08:55:32.933Z</time>
      </trkpt>
      <trkpt lat="48.39617" lon="2.52918">
        <ele>115</ele>
        <time>2021-03-05T08:55:36.928Z</time>
      </trkpt>
      <trkpt lat="48.39617" lon="2.52926">
        <ele>115</ele>
        <time>2021-03-05T08:55:41.929Z</time>
      </trkpt>
      <trkpt lat="48.39616" lon="2.52934">
        <ele>115</ele>
        <time>2021-03-05T08:55:46.918Z</time>
      </trkpt>
      <trkpt lat="48.39615" lon="2.52941">
        <ele>115</ele>
        <time>2021-03-05T08:55:51.931Z</time>
      </trkpt>
      <trkpt lat="48.39615" lon="2.52947">
        <ele>115</ele>
        <time>2021-03-05T08:55:56.027Z</time>
      </trkpt>
      <trkpt lat="48.39615" lon="2.52955">
        <ele>115</ele>
        <time>2021-03-05T08:56:00.931Z</time>
      </trkpt>
      <trkpt lat="48.39611" lon="2.5296">
        <ele>115</ele>
        <time>2021-03-05T08:56:05.943Z</time>
      </trkpt>
      <trkpt lat="48.39609" lon="2.52967">
        <ele>115</ele>
        <time>2021-03-05T08:56:10.926Z</time>
      </trkpt>
      <trkpt lat="48.39607" lon="2.52978">
        <ele>115</ele>
        <time>2021-03-05T08:56:15.938Z</time>
      </trkpt>
      <trkpt lat="48.39605" lon="2.52987">
        <ele>115</ele>
        <time>2021-03-05T08:56:20.950Z</time>
      </trkpt>
      <trkpt lat="48.39604" lon="2.52996">
        <ele>115</ele>
        <time>2021-03-05T08:56:25.940Z</time>
      </trkpt>
      <trkpt lat="48.39602" lon="2.53001">
        <ele>115</ele>
        <time>2021-03-05T08:56:30.946Z</time>
      </trkpt>
      <trkpt lat="48.396" lon="2.53007">
        <ele>115</ele>
        <time>2021-03-05T08:56:35.932Z</time>
      </trkpt>
      <trkpt lat="48.39599" lon="2.53012">
        <ele>115</ele>
        <time>2021-03-05T08:56:39.944Z</time>
      </trkpt>
      <trkpt lat="48.39598" lon="2.53018">
        <ele>115</ele>
        <time>2021-03-05T08:56:44.931Z</time>
      </trkpt>
      <trkpt lat="48.39597" lon="2.53025">
        <ele>119</ele>
        <time>2021-03-05T08:56:49.933Z</time>
      </trkpt>
      <trkpt lat="48.39596" lon="2.5303">
        <ele>119</ele>
        <time>2021-03-05T08:56:53.940Z</time>
      </trkpt>
      <trkpt lat="48.39595" lon="2.53036">
        <ele>119</ele>
        <time>2021-03-05T08:56:58.945Z</time>
      </trkpt>
      <trkpt lat="48.39595" lon="2.53042">
        <ele>119</ele>
        <time>2021-03-05T08:57:02.944Z</time>
      </trkpt>
      <trkpt lat="48.39594" lon="2.53049">
        <ele>119</ele>
        <time>2021-03-05T08:57:07.945Z</time>
      </trkpt>
      <trkpt lat="48.39593" lon="2.53056">
        <ele>119</ele>
        <time>2021-03-05T08:57:12.934Z</time>
      </trkpt>
      <trkpt lat="48.39592" lon="2.5306">
        <ele>119</ele>
        <time>2021-03-05T08:57:16.947Z</time>
      </trkpt>
      <trkpt lat="48.39591" lon="2.53068">
        <ele>119</ele>
        <time>2021-03-05T08:57:21.925Z</time>
      </trkpt>
      <trkpt lat="48.3959" lon="2.53075">
        <ele>119</ele>
        <time>2021-03-05T08:57:26.927Z</time>
      </trkpt>
      <trkpt lat="48.3959" lon="2.53081">
        <ele>119</ele>
        <time>2021-03-05T08:57:30.937Z</time>
      </trkpt>
      <trkpt lat="48.3959" lon="2.53089">
        <ele>119</ele>
        <time>2021-03-05T08:57:35.939Z</time>
      </trkpt>
      <trkpt lat="48.39589" lon="2.53098">
        <ele>120</ele>
        <time>2021-03-05T08:57:40.922Z</time>
      </trkpt>
      <trkpt lat="48.39589" lon="2.53104">
        <ele>120</ele>
        <time>2021-03-05T08:57:44.937Z</time>
      </trkpt>
      <trkpt lat="48.39588" lon="2.53113">
        <ele>120</ele>
        <time>2021-03-05T08:57:49.949Z</time>
      </trkpt>
      <trkpt lat="48.39586" lon="2.53121">
        <ele>120</ele>
        <time>2021-03-05T08:57:54.925Z</time>
      </trkpt>
      <trkpt lat="48.39585" lon="2.53129">
        <ele>120</ele>
        <time>2021-03-05T08:57:59.938Z</time>
      </trkpt>
      <trkpt lat="48.39585" lon="2.53138">
        <ele>120</ele>
        <time>2021-03-05T08:58:04.921Z</time>
      </trkpt>
      <trkpt lat="48.39584" lon="2.53145">
        <ele>120</ele>
        <time>2021-03-05T08:58:08.935Z</time>
      </trkpt>
      <trkpt lat="48.39583" lon="2.53154">
        <ele>121</ele>
        <time>2021-03-05T08:58:13.936Z</time>
      </trkpt>
      <trkpt lat="48.39582" lon="2.53163">
        <ele>121</ele>
        <time>2021-03-05T08:58:18.935Z</time>
      </trkpt>
      <trkpt lat="48.39581" lon="2.5317">
        <ele>121</ele>
        <time>2021-03-05T08:58:22.933Z</time>
      </trkpt>
      <trkpt lat="48.3958" lon="2.53178">
        <ele>121</ele>
        <time>2021-03-05T08:58:26.946Z</time>
      </trkpt>
      <trkpt lat="48.39579" lon="2.53186">
        <ele>120</ele>
        <time>2021-03-05T08:58:31.942Z</time>
      </trkpt>
      <trkpt lat="48.39577" lon="2.53195">
        <ele>120</ele>
        <time>2021-03-05T08:58:36.931Z</time>
      </trkpt>
      <trkpt lat="48.39575" lon="2.53201">
        <ele>120</ele>
        <time>2021-03-05T08:58:40.928Z</time>
      </trkpt>
      <trkpt lat="48.39573" lon="2.53207">
        <ele>120</ele>
        <time>2021-03-05T08:58:45.005Z</time>
      </trkpt>
      <trkpt lat="48.39571" lon="2.53215">
        <ele>119</ele>
        <time>2021-03-05T08:58:49.929Z</time>
      </trkpt>
      <trkpt lat="48.39568" lon="2.53223">
        <ele>121</ele>
        <time>2021-03-05T08:58:54.933Z</time>
      </trkpt>
      <trkpt lat="48.39566" lon="2.5323">
        <ele>121</ele>
        <time>2021-03-05T08:58:59.928Z</time>
      </trkpt>
      <trkpt lat="48.39564" lon="2.53237">
        <ele>121</ele>
        <time>2021-03-05T08:59:04.928Z</time>
      </trkpt>
      <trkpt lat="48.39561" lon="2.53244">
        <ele>121</ele>
        <time>2021-03-05T08:59:09.931Z</time>
      </trkpt>
      <trkpt lat="48.39559" lon="2.53253">
        <ele>121</ele>
        <time>2021-03-05T08:59:14.919Z</time>
      </trkpt>
      <trkpt lat="48.39558" lon="2.53262">
        <ele>121</ele>
        <time>2021-03-05T08:59:19.932Z</time>
      </trkpt>
      <trkpt lat="48.3956" lon="2.53267">
        <ele>120</ele>
        <time>2021-03-05T08:59:24.936Z</time>
      </trkpt>
      <trkpt lat="48.39563" lon="2.53277">
        <ele>120</ele>
        <time>2021-03-05T08:59:29.934Z</time>
      </trkpt>
      <trkpt lat="48.39565" lon="2.53286">
        <ele>120</ele>
        <time>2021-03-05T08:59:34.925Z</time>
      </trkpt>
      <trkpt lat="48.39568" lon="2.5329">
        <ele>120</ele>
        <time>2021-03-05T08:59:38.934Z</time>
      </trkpt>
      <trkpt lat="48.39571" lon="2.53295">
        <ele>119</ele>
        <time>2021-03-05T08:59:43.934Z</time>
      </trkpt>
      <trkpt lat="48.39573" lon="2.53299">
        <ele>119</ele>
        <time>2021-03-05T08:59:47.935Z</time>
      </trkpt>
      <trkpt lat="48.39575" lon="2.53301">
        <ele>119</ele>
        <time>2021-03-05T08:59:52.924Z</time>
      </trkpt>
      <trkpt lat="48.39584" lon="2.53304">
        <ele>119</ele>
        <time>2021-03-05T09:00:06.919Z</time>
      </trkpt>
      <trkpt lat="48.39585" lon="2.53303">
        <ele>119</ele>
        <time>2021-03-05T09:00:10.933Z</time>
      </trkpt>
      <trkpt lat="48.39585" lon="2.53305">
        <ele>119</ele>
        <time>2021-03-05T09:00:15.923Z</time>
      </trkpt>
      <trkpt lat="48.39586" lon="2.53305">
        <ele>119</ele>
        <time>2021-03-05T09:00:20.943Z</time>
      </trkpt>
      <trkpt lat="48.39589" lon="2.53306">
        <ele>119</ele>
        <time>2021-03-05T09:00:25.923Z</time>
      </trkpt>
      <trkpt lat="48.39591" lon="2.53308">
        <ele>119</ele>
        <time>2021-03-05T09:00:29.928Z</time>
      </trkpt>
      <trkpt lat="48.39592" lon="2.5331">
        <ele>119</ele>
        <time>2021-03-05T09:00:33.952Z</time>
      </trkpt>
      <trkpt lat="48.39592" lon="2.53314">
        <ele>119</ele>
        <time>2021-03-05T09:00:38.925Z</time>
      </trkpt>
      <trkpt lat="48.39592" lon="2.53319">
        <ele>119</ele>
        <time>2021-03-05T09:00:43.934Z</time>
      </trkpt>
      <trkpt lat="48.39591" lon="2.53325">
        <ele>118</ele>
        <time>2021-03-05T09:00:48.918Z</time>
      </trkpt>
      <trkpt lat="48.39593" lon="2.53328">
        <ele>118</ele>
        <time>2021-03-05T09:00:52.941Z</time>
      </trkpt>
      <trkpt lat="48.39594" lon="2.53333">
        <ele>118</ele>
        <time>2021-03-05T09:00:57.929Z</time>
      </trkpt>
      <trkpt lat="48.39595" lon="2.53338">
        <ele>118</ele>
        <time>2021-03-05T09:01:01.930Z</time>
      </trkpt>
      <trkpt lat="48.39597" lon="2.53344">
        <ele>118</ele>
        <time>2021-03-05T09:01:06.932Z</time>
      </trkpt>
      <trkpt lat="48.39598" lon="2.5335">
        <ele>120</ele>
        <time>2021-03-05T09:01:11.924Z</time>
      </trkpt>
      <trkpt lat="48.39601" lon="2.53354">
        <ele>120</ele>
        <time>2021-03-05T09:01:15.942Z</time>
      </trkpt>
      <trkpt lat="48.39604" lon="2.53359">
        <ele>120</ele>
        <time>2021-03-05T09:01:20.941Z</time>
      </trkpt>
      <trkpt lat="48.39606" lon="2.53364">
        <ele>120</ele>
        <time>2021-03-05T09:01:25.934Z</time>
      </trkpt>
      <trkpt lat="48.39606" lon="2.5337">
        <ele>120</ele>
        <time>2021-03-05T09:01:30.931Z</time>
      </trkpt>
      <trkpt lat="48.39607" lon="2.53375">
        <ele>121</ele>
        <time>2021-03-05T09:01:34.940Z</time>
      </trkpt>
      <trkpt lat="48.3961" lon="2.53379">
        <ele>121</ele>
        <time>2021-03-05T09:01:39.933Z</time>
      </trkpt>
      <trkpt lat="48.39613" lon="2.53381">
        <ele>121</ele>
        <time>2021-03-05T09:01:44.928Z</time>
      </trkpt>
      <trkpt lat="48.39615" lon="2.53383">
        <ele>121</ele>
        <time>2021-03-05T09:01:48.944Z</time>
      </trkpt>
      <trkpt lat="48.39616" lon="2.53389">
        <ele>121</ele>
        <time>2021-03-05T09:01:53.928Z</time>
      </trkpt>
      <trkpt lat="48.39615" lon="2.53395">
        <ele>121</ele>
        <time>2021-03-05T09:01:58.927Z</time>
      </trkpt>
      <trkpt lat="48.39614" lon="2.53403">
        <ele>121</ele>
        <time>2021-03-05T09:02:03.921Z</time>
      </trkpt>
      <trkpt lat="48.39615" lon="2.53408">
        <ele>121</ele>
        <time>2021-03-05T09:02:07.942Z</time>
      </trkpt>
      <trkpt lat="48.39618" lon="2.53414">
        <ele>121</ele>
        <time>2021-03-05T09:02:12.933Z</time>
      </trkpt>
      <trkpt lat="48.3962" lon="2.53421">
        <ele>121</ele>
        <time>2021-03-05T09:02:17.938Z</time>
      </trkpt>
      <trkpt lat="48.39622" lon="2.53426">
        <ele>121</ele>
        <time>2021-03-05T09:02:21.938Z</time>
      </trkpt>
      <trkpt lat="48.39627" lon="2.53433">
        <ele>123</ele>
        <time>2021-03-05T09:02:26.925Z</time>
      </trkpt>
      <trkpt lat="48.39627" lon="2.53439">
        <ele>123</ele>
        <time>2021-03-05T09:02:30.923Z</time>
      </trkpt>
      <trkpt lat="48.39627" lon="2.53445">
        <ele>123</ele>
        <time>2021-03-05T09:02:35.936Z</time>
      </trkpt>
      <trkpt lat="48.39625" lon="2.53449">
        <ele>123</ele>
        <time>2021-03-05T09:02:39.941Z</time>
      </trkpt>
      <trkpt lat="48.39626" lon="2.53455">
        <ele>123</ele>
        <time>2021-03-05T09:02:44.940Z</time>
      </trkpt>
      <trkpt lat="48.39629" lon="2.53458">
        <ele>123</ele>
        <time>2021-03-05T09:02:49.929Z</time>
      </trkpt>
      <trkpt lat="48.39632" lon="2.53461">
        <ele>122</ele>
        <time>2021-03-05T09:02:53.947Z</time>
      </trkpt>
      <trkpt lat="48.39632" lon="2.53467">
        <ele>122</ele>
        <time>2021-03-05T09:02:58.944Z</time>
      </trkpt>
      <trkpt lat="48.39633" lon="2.53472">
        <ele>122</ele>
        <time>2021-03-05T09:03:03.936Z</time>
      </trkpt>
      <trkpt lat="48.39636" lon="2.53478">
        <ele>122</ele>
        <time>2021-03-05T09:03:08.940Z</time>
      </trkpt>
      <trkpt lat="48.39639" lon="2.53485">
        <ele>122</ele>
        <time>2021-03-05T09:03:13.928Z</time>
      </trkpt>
      <trkpt lat="48.39641" lon="2.5349">
        <ele>121</ele>
        <time>2021-03-05T09:03:17.942Z</time>
      </trkpt>
      <trkpt lat="48.39642" lon="2.53495">
        <ele>121</ele>
        <time>2021-03-05T09:03:22.924Z</time>
      </trkpt>
      <trkpt lat="48.39642" lon="2.535">
        <ele>121</ele>
        <time>2021-03-05T09:03:26.938Z</time>
      </trkpt>
      <trkpt lat="48.39644" lon="2.53502">
        <ele>121</ele>
        <time>2021-03-05T09:03:31.928Z</time>
      </trkpt>
      <trkpt lat="48.39649" lon="2.53504">
        <ele>121</ele>
        <time>2021-03-05T09:03:35.938Z</time>
      </trkpt>
      <trkpt lat="48.39653" lon="2.5351">
        <ele>120</ele>
        <time>2021-03-05T09:03:40.943Z</time>
      </trkpt>
      <trkpt lat="48.39657" lon="2.53518">
        <ele>120</ele>
        <time>2021-03-05T09:03:45.945Z</time>
      </trkpt>
      <trkpt lat="48.39662" lon="2.53525">
        <ele>120</ele>
        <time>2021-03-05T09:03:50.931Z</time>
      </trkpt>
      <trkpt lat="48.39663" lon="2.53528">
        <ele>120</ele>
        <time>2021-03-05T09:03:55.923Z</time>
      </trkpt>
      <trkpt lat="48.39669" lon="2.53526">
        <ele>120</ele>
        <time>2021-03-05T09:04:14.922Z</time>
      </trkpt>
      <trkpt lat="48.3967" lon="2.53528">
        <ele>120</ele>
        <time>2021-03-05T09:04:19.922Z</time>
      </trkpt>
      <trkpt lat="48.39676" lon="2.53528">
        <ele>120</ele>
        <time>2021-03-05T09:04:24.924Z</time>
      </trkpt>
      <trkpt lat="48.39678" lon="2.53532">
        <ele>120</ele>
        <time>2021-03-05T09:04:29.923Z</time>
      </trkpt>
      <trkpt lat="48.39678" lon="2.53534">
        <ele>120</ele>
        <time>2021-03-05T09:04:34.930Z</time>
      </trkpt>
      <trkpt lat="48.39681" lon="2.53534">
        <ele>118</ele>
        <time>2021-03-05T09:04:38.937Z</time>
      </trkpt>
      <trkpt lat="48.39681" lon="2.5354">
        <ele>118</ele>
        <time>2021-03-05T09:04:42.956Z</time>
      </trkpt>
      <trkpt lat="48.39682" lon="2.53546">
        <ele>118</ele>
        <time>2021-03-05T09:04:47.919Z</time>
      </trkpt>
      <trkpt lat="48.39682" lon="2.5355">
        <ele>118</ele>
        <time>2021-03-05T09:04:51.926Z</time>
      </trkpt>
      <trkpt lat="48.39681" lon="2.53555">
        <ele>118</ele>
        <time>2021-03-05T09:04:56.937Z</time>
      </trkpt>
      <trkpt lat="48.3968" lon="2.53564">
        <ele>120</ele>
        <time>2021-03-05T09:05:01.930Z</time>
      </trkpt>
      <trkpt lat="48.39686" lon="2.53572">
        <ele>118</ele>
        <time>2021-03-05T09:05:06.932Z</time>
      </trkpt>
      <trkpt lat="48.39691" lon="2.53574">
        <ele>118</ele>
        <time>2021-03-05T09:05:10.936Z</time>
      </trkpt>
      <trkpt lat="48.39694" lon="2.5358">
        <ele>118</ele>
        <time>2021-03-05T09:05:15.935Z</time>
      </trkpt>
      <trkpt lat="48.39692" lon="2.53586">
        <ele>118</ele>
        <time>2021-03-05T09:05:20.930Z</time>
      </trkpt>
      <trkpt lat="48.3969" lon="2.53593">
        <ele>118</ele>
        <time>2021-03-05T09:05:25.922Z</time>
      </trkpt>
      <trkpt lat="48.39689" lon="2.536">
        <ele>117</ele>
        <time>2021-03-05T09:05:30.940Z</time>
      </trkpt>
      <trkpt lat="48.39686" lon="2.53607">
        <ele>117</ele>
        <time>2021-03-05T09:05:35.943Z</time>
      </trkpt>
      <trkpt lat="48.39684" lon="2.53614">
        <ele>117</ele>
        <time>2021-03-05T09:05:40.942Z</time>
      </trkpt>
      <trkpt lat="48.39681" lon="2.5362">
        <ele>117</ele>
        <time>2021-03-05T09:05:45.925Z</time>
      </trkpt>
      <trkpt lat="48.39678" lon="2.53622">
        <ele>120</ele>
        <time>2021-03-05T09:05:49.927Z</time>
      </trkpt>
      <trkpt lat="48.39678" lon="2.53622">
        <ele>120</ele>
        <time>2021-03-05T09:05:58.932Z</time>
      </trkpt>
      <trkpt lat="48.39677" lon="2.53625">
        <ele>120</ele>
        <time>2021-03-05T09:06:03.944Z</time>
      </trkpt>
      <trkpt lat="48.39675" lon="2.53627">
        <ele>120</ele>
        <time>2021-03-05T09:06:08.931Z</time>
      </trkpt>
      <trkpt lat="48.39674" lon="2.53631">
        <ele>120</ele>
        <time>2021-03-05T09:06:13.937Z</time>
      </trkpt>
      <trkpt lat="48.39673" lon="2.53641">
        <ele>120</ele>
        <time>2021-03-05T09:06:18.931Z</time>
      </trkpt>
      <trkpt lat="48.39674" lon="2.53655">
        <ele>119</ele>
        <time>2021-03-05T09:06:28.930Z</time>
      </trkpt>
      <trkpt lat="48.39675" lon="2.53657">
        <ele>119</ele>
        <time>2021-03-05T09:06:33.937Z</time>
      </trkpt>
      <trkpt lat="48.39676" lon="2.53657">
        <ele>119</ele>
        <time>2021-03-05T09:06:38.941Z</time>
      </trkpt>
      <trkpt lat="48.39676" lon="2.53657">
        <ele>119</ele>
        <time>2021-03-05T09:06:42.944Z</time>
      </trkpt>
      <trkpt lat="48.39678" lon="2.53659">
        <ele>119</ele>
        <time>2021-03-05T09:06:47.932Z</time>
      </trkpt>
      <trkpt lat="48.39685" lon="2.53652">
        <ele>116</ele>
        <time>2021-03-05T09:07:19.924Z</time>
      </trkpt>
      <trkpt lat="48.39685" lon="2.53652">
        <ele>116</ele>
        <time>2021-03-05T09:07:24.925Z</time>
      </trkpt>
      <trkpt lat="48.39686" lon="2.53652">
        <ele>116</ele>
        <time>2021-03-05T09:07:28.941Z</time>
      </trkpt>
      <trkpt lat="48.39686" lon="2.53652">
        <ele>116</ele>
        <time>2021-03-05T09:07:33.933Z</time>
      </trkpt>
      <trkpt lat="48.39686" lon="2.5365">
        <ele>116</ele>
        <time>2021-03-05T09:07:38.945Z</time>
      </trkpt>
      <trkpt lat="48.39691" lon="2.53648">
        <ele>116</ele>
        <time>2021-03-05T09:08:34.928Z</time>
      </trkpt>
      <trkpt lat="48.39693" lon="2.53649">
        <ele>116</ele>
        <time>2021-03-05T09:08:39.942Z</time>
      </trkpt>
      <trkpt lat="48.39693" lon="2.53649">
        <ele>116</ele>
        <time>2021-03-05T09:08:44.042Z</time>
      </trkpt>
      <trkpt lat="48.39695" lon="2.5365">
        <ele>116</ele>
        <time>2021-03-05T09:08:48.934Z</time>
      </trkpt>
      <trkpt lat="48.39703" lon="2.53645">
        <ele>116</ele>
        <time>2021-03-05T09:08:52.950Z</time>
      </trkpt>
      <trkpt lat="48.39707" lon="2.53648">
        <ele>116</ele>
        <time>2021-03-05T09:08:57.924Z</time>
      </trkpt>
      <trkpt lat="48.3971" lon="2.53654">
        <ele>107</ele>
        <time>2021-03-05T09:09:02.934Z</time>
      </trkpt>
      <trkpt lat="48.39711" lon="2.5366">
        <ele>107</ele>
        <time>2021-03-05T09:09:07.945Z</time>
      </trkpt>
      <trkpt lat="48.39714" lon="2.53665">
        <ele>107</ele>
        <time>2021-03-05T09:09:12.917Z</time>
      </trkpt>
      <trkpt lat="48.39716" lon="2.53668">
        <ele>107</ele>
        <time>2021-03-05T09:09:16.927Z</time>
      </trkpt>
      <trkpt lat="48.3972" lon="2.53674">
        <ele>107</ele>
        <time>2021-03-05T09:09:20.927Z</time>
      </trkpt>
      <trkpt lat="48.39721" lon="2.53679">
        <ele>107</ele>
        <time>2021-03-05T09:09:25.941Z</time>
      </trkpt>
      <trkpt lat="48.39724" lon="2.5368">
        <ele>107</ele>
        <time>2021-03-05T09:09:30.941Z</time>
      </trkpt>
      <trkpt lat="48.39727" lon="2.5368">
        <ele>107</ele>
        <time>2021-03-05T09:09:35.932Z</time>
      </trkpt>
      <trkpt lat="48.39729" lon="2.53681">
        <ele>102</ele>
        <time>2021-03-05T09:09:39.935Z</time>
      </trkpt>
      <trkpt lat="48.39728" lon="2.53689">
        <ele>102</ele>
        <time>2021-03-05T09:09:44.922Z</time>
      </trkpt>
      <trkpt lat="48.39733" lon="2.53691">
        <ele>102</ele>
        <time>2021-03-05T09:09:48.930Z</time>
      </trkpt>
      <trkpt lat="48.39736" lon="2.53695">
        <ele>102</ele>
        <time>2021-03-05T09:09:52.942Z</time>
      </trkpt>
      <trkpt lat="48.39739" lon="2.53701">
        <ele>96</ele>
        <time>2021-03-05T09:09:57.924Z</time>
      </trkpt>
      <trkpt lat="48.39742" lon="2.53706">
        <ele>96</ele>
        <time>2021-03-05T09:10:01.930Z</time>
      </trkpt>
      <trkpt lat="48.39745" lon="2.5371">
        <ele>94</ele>
        <time>2021-03-05T09:10:05.935Z</time>
      </trkpt>
      <trkpt lat="48.39745" lon="2.53717">
        <ele>94</ele>
        <time>2021-03-05T09:10:10.934Z</time>
      </trkpt>
      <trkpt lat="48.39743" lon="2.53724">
        <ele>94</ele>
        <time>2021-03-05T09:10:15.940Z</time>
      </trkpt>
      <trkpt lat="48.3974" lon="2.53731">
        <ele>94</ele>
        <time>2021-03-05T09:10:20.932Z</time>
      </trkpt>
      <trkpt lat="48.39742" lon="2.53736">
        <ele>92</ele>
        <time>2021-03-05T09:10:25.917Z</time>
      </trkpt>
      <trkpt lat="48.39745" lon="2.53741">
        <ele>92</ele>
        <time>2021-03-05T09:10:30.933Z</time>
      </trkpt>
      <trkpt lat="48.39747" lon="2.53745">
        <ele>92</ele>
        <time>2021-03-05T09:10:34.938Z</time>
      </trkpt>
      <trkpt lat="48.39749" lon="2.53752">
        <ele>92</ele>
        <time>2021-03-05T09:10:39.931Z</time>
      </trkpt>
      <trkpt lat="48.39754" lon="2.53757">
        <ele>92</ele>
        <time>2021-03-05T09:10:44.930Z</time>
      </trkpt>
      <trkpt lat="48.3976" lon="2.53761">
        <ele>92</ele>
        <time>2021-03-05T09:10:49.923Z</time>
      </trkpt>
      <trkpt lat="48.39764" lon="2.53764">
        <ele>88</ele>
        <time>2021-03-05T09:10:53.925Z</time>
      </trkpt>
      <trkpt lat="48.39768" lon="2.53768">
        <ele>88</ele>
        <time>2021-03-05T09:10:58.931Z</time>
      </trkpt>
      <trkpt lat="48.39775" lon="2.5377">
        <ele>88</ele>
        <time>2021-03-05T09:11:03.929Z</time>
      </trkpt>
      <trkpt lat="48.39787" lon="2.53766">
        <ele>88</ele>
        <time>2021-03-05T09:11:22.946Z</time>
      </trkpt>
      <trkpt lat="48.39787" lon="2.53766">
        <ele>88</ele>
        <time>2021-03-05T09:11:27.917Z</time>
      </trkpt>
      <trkpt lat="48.39787" lon="2.53766">
        <ele>88</ele>
        <time>2021-03-05T09:11:32.931Z</time>
      </trkpt>
      <trkpt lat="48.39788" lon="2.5376">
        <ele>90</ele>
        <time>2021-03-05T09:11:37.935Z</time>
      </trkpt>
      <trkpt lat="48.39789" lon="2.53758">
        <ele>90</ele>
        <time>2021-03-05T09:11:42.937Z</time>
      </trkpt>
      <trkpt lat="48.39789" lon="2.53751">
        <ele>90</ele>
        <time>2021-03-05T09:11:47.925Z</time>
      </trkpt>
      <trkpt lat="48.39789" lon="2.53745">
        <ele>90</ele>
        <time>2021-03-05T09:11:52.916Z</time>
      </trkpt>
      <trkpt lat="48.3979" lon="2.5374">
        <ele>90</ele>
        <time>2021-03-05T09:11:56.919Z</time>
      </trkpt>
      <trkpt lat="48.39791" lon="2.53734">
        <ele>92</ele>
        <time>2021-03-05T09:12:01.926Z</time>
      </trkpt>
      <trkpt lat="48.39792" lon="2.53727">
        <ele>92</ele>
        <time>2021-03-05T09:12:05.949Z</time>
      </trkpt>
      <trkpt lat="48.39792" lon="2.53717">
        <ele>92</ele>
        <time>2021-03-05T09:12:10.914Z</time>
      </trkpt>
      <trkpt lat="48.39793" lon="2.53708">
        <ele>92</ele>
        <time>2021-03-05T09:12:15.943Z</time>
      </trkpt>
      <trkpt lat="48.39794" lon="2.53701">
        <ele>92</ele>
        <time>2021-03-05T09:12:20.918Z</time>
      </trkpt>
      <trkpt lat="48.39794" lon="2.53694">
        <ele>92</ele>
        <time>2021-03-05T09:12:24.923Z</time>
      </trkpt>
      <trkpt lat="48.39795" lon="2.53686">
        <ele>92</ele>
        <time>2021-03-05T09:12:29.924Z</time>
      </trkpt>
      <trkpt lat="48.39797" lon="2.53679">
        <ele>92</ele>
        <time>2021-03-05T09:12:34.938Z</time>
      </trkpt>
      <trkpt lat="48.39799" lon="2.53671">
        <ele>92</ele>
        <time>2021-03-05T09:12:39.919Z</time>
      </trkpt>
      <trkpt lat="48.39801" lon="2.53663">
        <ele>92</ele>
        <time>2021-03-05T09:12:44.908Z</time>
      </trkpt>
      <trkpt lat="48.39802" lon="2.53657">
        <ele>92</ele>
        <time>2021-03-05T09:12:48.921Z</time>
      </trkpt>
      <trkpt lat="48.39802" lon="2.5365">
        <ele>92</ele>
        <time>2021-03-05T09:12:52.927Z</time>
      </trkpt>
      <trkpt lat="48.39803" lon="2.5364">
        <ele>92</ele>
        <time>2021-03-05T09:12:57.909Z</time>
      </trkpt>
      <trkpt lat="48.39804" lon="2.53633">
        <ele>92</ele>
        <time>2021-03-05T09:13:01.922Z</time>
      </trkpt>
      <trkpt lat="48.39805" lon="2.53626">
        <ele>92</ele>
        <time>2021-03-05T09:13:06.929Z</time>
      </trkpt>
      <trkpt lat="48.39806" lon="2.53618">
        <ele>93</ele>
        <time>2021-03-05T09:13:11.931Z</time>
      </trkpt>
      <trkpt lat="48.39806" lon="2.53608">
        <ele>93</ele>
        <time>2021-03-05T09:13:16.926Z</time>
      </trkpt>
      <trkpt lat="48.39807" lon="2.536">
        <ele>93</ele>
        <time>2021-03-05T09:13:21.916Z</time>
      </trkpt>
      <trkpt lat="48.39807" lon="2.53592">
        <ele>93</ele>
        <time>2021-03-05T09:13:25.923Z</time>
      </trkpt>
      <trkpt lat="48.39807" lon="2.53584">
        <ele>93</ele>
        <time>2021-03-05T09:13:29.924Z</time>
      </trkpt>
      <trkpt lat="48.39808" lon="2.53575">
        <ele>93</ele>
        <time>2021-03-05T09:13:34.933Z</time>
      </trkpt>
      <trkpt lat="48.39809" lon="2.53568">
        <ele>94</ele>
        <time>2021-03-05T09:13:39.923Z</time>
      </trkpt>
      <trkpt lat="48.39811" lon="2.53558">
        <ele>94</ele>
        <time>2021-03-05T09:13:44.918Z</time>
      </trkpt>
      <trkpt lat="48.39812" lon="2.53551">
        <ele>94</ele>
        <time>2021-03-05T09:13:50Z</time>
      </trkpt>
      <trkpt lat="48.39814" lon="2.53544">
        <ele>94</ele>
        <time>2021-03-05T09:13:54.923Z</time>
      </trkpt>
      <trkpt lat="48.39816" lon="2.5354">
        <ele>96</ele>
        <time>2021-03-05T09:13:58.926Z</time>
      </trkpt>
      <trkpt lat="48.3982" lon="2.53535">
        <ele>96</ele>
        <time>2021-03-05T09:14:03.928Z</time>
      </trkpt>
      <trkpt lat="48.39825" lon="2.5353">
        <ele>96</ele>
        <time>2021-03-05T09:14:08.918Z</time>
      </trkpt>
      <trkpt lat="48.39828" lon="2.53525">
        <ele>96</ele>
        <time>2021-03-05T09:14:12.932Z</time>
      </trkpt>
      <trkpt lat="48.39832" lon="2.53518">
        <ele>96</ele>
        <time>2021-03-05T09:14:17.936Z</time>
      </trkpt>
      <trkpt lat="48.39835" lon="2.53512">
        <ele>97</ele>
        <time>2021-03-05T09:14:22.939Z</time>
      </trkpt>
      <trkpt lat="48.39838" lon="2.53507">
        <ele>97</ele>
        <time>2021-03-05T09:14:27.934Z</time>
      </trkpt>
      <trkpt lat="48.39843" lon="2.53501">
        <ele>97</ele>
        <time>2021-03-05T09:14:32.931Z</time>
      </trkpt>
      <trkpt lat="48.39847" lon="2.53496">
        <ele>97</ele>
        <time>2021-03-05T09:14:36.939Z</time>
      </trkpt>
      <trkpt lat="48.3985" lon="2.53489">
        <ele>96</ele>
        <time>2021-03-05T09:14:41.946Z</time>
      </trkpt>
      <trkpt lat="48.39853" lon="2.53481">
        <ele>95</ele>
        <time>2021-03-05T09:14:46.945Z</time>
      </trkpt>
      <trkpt lat="48.39856" lon="2.53476">
        <ele>95</ele>
        <time>2021-03-05T09:14:50.948Z</time>
      </trkpt>
      <trkpt lat="48.39859" lon="2.53468">
        <ele>95</ele>
        <time>2021-03-05T09:14:55.940Z</time>
      </trkpt>
      <trkpt lat="48.39863" lon="2.53461">
        <ele>95</ele>
        <time>2021-03-05T09:15:00.937Z</time>
      </trkpt>
      <trkpt lat="48.39865" lon="2.53451">
        <ele>95</ele>
        <time>2021-03-05T09:15:05.924Z</time>
      </trkpt>
      <trkpt lat="48.39867" lon="2.53443">
        <ele>95</ele>
        <time>2021-03-05T09:15:09.923Z</time>
      </trkpt>
      <trkpt lat="48.39868" lon="2.53431">
        <ele>95</ele>
        <time>2021-03-05T09:15:14.929Z</time>
      </trkpt>
      <trkpt lat="48.39872" lon="2.53418">
        <ele>94</ele>
        <time>2021-03-05T09:15:19.924Z</time>
      </trkpt>
      <trkpt lat="48.39874" lon="2.53408">
        <ele>94</ele>
        <time>2021-03-05T09:15:24.926Z</time>
      </trkpt>
      <trkpt lat="48.39874" lon="2.53398">
        <ele>93</ele>
        <time>2021-03-05T09:15:28.934Z</time>
      </trkpt>
      <trkpt lat="48.39873" lon="2.53386">
        <ele>93</ele>
        <time>2021-03-05T09:15:33.934Z</time>
      </trkpt>
      <trkpt lat="48.39874" lon="2.53376">
        <ele>93</ele>
        <time>2021-03-05T09:15:38.927Z</time>
      </trkpt>
      <trkpt lat="48.39875" lon="2.53367">
        <ele>91</ele>
        <time>2021-03-05T09:15:42.941Z</time>
      </trkpt>
      <trkpt lat="48.39875" lon="2.53356">
        <ele>91</ele>
        <time>2021-03-05T09:15:47.914Z</time>
      </trkpt>
      <trkpt lat="48.39875" lon="2.53348">
        <ele>91</ele>
        <time>2021-03-05T09:15:51.938Z</time>
      </trkpt>
      <trkpt lat="48.39876" lon="2.53339">
        <ele>91</ele>
        <time>2021-03-05T09:15:56.926Z</time>
      </trkpt>
      <trkpt lat="48.39877" lon="2.53332">
        <ele>91</ele>
        <time>2021-03-05T09:16:00.933Z</time>
      </trkpt>
      <trkpt lat="48.3988" lon="2.53324">
        <ele>91</ele>
        <time>2021-03-05T09:16:05.921Z</time>
      </trkpt>
      <trkpt lat="48.39882" lon="2.53315">
        <ele>88</ele>
        <time>2021-03-05T09:16:10.914Z</time>
      </trkpt>
      <trkpt lat="48.39883" lon="2.53307">
        <ele>88</ele>
        <time>2021-03-05T09:16:14.950Z</time>
      </trkpt>
      <trkpt lat="48.39885" lon="2.53298">
        <ele>88</ele>
        <time>2021-03-05T09:16:19.925Z</time>
      </trkpt>
      <trkpt lat="48.39887" lon="2.5329">
        <ele>85</ele>
        <time>2021-03-05T09:16:24.923Z</time>
      </trkpt>
      <trkpt lat="48.39889" lon="2.53282">
        <ele>85</ele>
        <time>2021-03-05T09:16:28.926Z</time>
      </trkpt>
      <trkpt lat="48.39892" lon="2.53274">
        <ele>85</ele>
        <time>2021-03-05T09:16:33.933Z</time>
      </trkpt>
      <trkpt lat="48.39895" lon="2.5327">
        <ele>85</ele>
        <time>2021-03-05T09:16:37.937Z</time>
      </trkpt>
      <trkpt lat="48.39901" lon="2.53265">
        <ele>85</ele>
        <time>2021-03-05T09:16:42.925Z</time>
      </trkpt>
      <trkpt lat="48.39905" lon="2.53259">
        <ele>86</ele>
        <time>2021-03-05T09:16:47.939Z</time>
      </trkpt>
      <trkpt lat="48.3991" lon="2.53256">
        <ele>86</ele>
        <time>2021-03-05T09:16:52.925Z</time>
      </trkpt>
      <trkpt lat="48.39914" lon="2.5326">
        <ele>86</ele>
        <time>2021-03-05T09:16:57.922Z</time>
      </trkpt>
      <trkpt lat="48.39916" lon="2.53264">
        <ele>86</ele>
        <time>2021-03-05T09:17:01.921Z</time>
      </trkpt>
      <trkpt lat="48.39917" lon="2.53268">
        <ele>87</ele>
        <time>2021-03-05T09:17:05.927Z</time>
      </trkpt>
      <trkpt lat="48.39918" lon="2.53275">
        <ele>87</ele>
        <time>2021-03-05T09:17:10.929Z</time>
      </trkpt>
      <trkpt lat="48.39916" lon="2.53282">
        <ele>87</ele>
        <time>2021-03-05T09:17:15.923Z</time>
      </trkpt>
      <trkpt lat="48.3992" lon="2.53286">
        <ele>87</ele>
        <time>2021-03-05T09:17:20.925Z</time>
      </trkpt>
      <trkpt lat="48.39921" lon="2.53291">
        <ele>87</ele>
        <time>2021-03-05T09:17:25.939Z</time>
      </trkpt>
      <trkpt lat="48.39922" lon="2.53297">
        <ele>89</ele>
        <time>2021-03-05T09:17:30.931Z</time>
      </trkpt>
      <trkpt lat="48.39921" lon="2.53302">
        <ele>89</ele>
        <time>2021-03-05T09:17:35.937Z</time>
      </trkpt>
      <trkpt lat="48.39922" lon="2.53309">
        <ele>89</ele>
        <time>2021-03-05T09:17:40.933Z</time>
      </trkpt>
      <trkpt lat="48.39922" lon="2.53318">
        <ele>89</ele>
        <time>2021-03-05T09:17:45.936Z</time>
      </trkpt>
      <trkpt lat="48.39925" lon="2.53325">
        <ele>92</ele>
        <time>2021-03-05T09:17:50.940Z</time>
      </trkpt>
      <trkpt lat="48.39927" lon="2.53332">
        <ele>92</ele>
        <time>2021-03-05T09:17:55.939Z</time>
      </trkpt>
      <trkpt lat="48.3993" lon="2.53337">
        <ele>92</ele>
        <time>2021-03-05T09:17:59.948Z</time>
      </trkpt>
      <trkpt lat="48.39934" lon="2.53345">
        <ele>95</ele>
        <time>2021-03-05T09:18:04.929Z</time>
      </trkpt>
      <trkpt lat="48.39939" lon="2.53347">
        <ele>95</ele>
        <time>2021-03-05T09:18:09.946Z</time>
      </trkpt>
      <trkpt lat="48.39945" lon="2.53347">
        <ele>95</ele>
        <time>2021-03-05T09:18:14.930Z</time>
      </trkpt>
      <trkpt lat="48.3995" lon="2.53347">
        <ele>98</ele>
        <time>2021-03-05T09:18:19.931Z</time>
      </trkpt>
      <trkpt lat="48.39955" lon="2.5335">
        <ele>98</ele>
        <time>2021-03-05T09:18:24.926Z</time>
      </trkpt>
      <trkpt lat="48.39959" lon="2.53354">
        <ele>102</ele>
        <time>2021-03-05T09:18:29.928Z</time>
      </trkpt>
      <trkpt lat="48.39962" lon="2.53354">
        <ele>102</ele>
        <time>2021-03-05T09:18:33.938Z</time>
      </trkpt>
      <trkpt lat="48.39967" lon="2.53354">
        <ele>102</ele>
        <time>2021-03-05T09:18:38.922Z</time>
      </trkpt>
      <trkpt lat="48.39972" lon="2.53352">
        <ele>102</ele>
        <time>2021-03-05T09:18:43.937Z</time>
      </trkpt>
      <trkpt lat="48.39976" lon="2.53352">
        <ele>102</ele>
        <time>2021-03-05T09:18:48.921Z</time>
      </trkpt>
      <trkpt lat="48.39979" lon="2.53351">
        <ele>102</ele>
        <time>2021-03-05T09:18:52.926Z</time>
      </trkpt>
      <trkpt lat="48.39982" lon="2.53351">
        <ele>102</ele>
        <time>2021-03-05T09:18:56.940Z</time>
      </trkpt>
      <trkpt lat="48.39985" lon="2.53353">
        <ele>102</ele>
        <time>2021-03-05T09:19:01.931Z</time>
      </trkpt>
      <trkpt lat="48.39988" lon="2.53356">
        <ele>105</ele>
        <time>2021-03-05T09:19:06.925Z</time>
      </trkpt>
      <trkpt lat="48.3999" lon="2.53358">
        <ele>105</ele>
        <time>2021-03-05T09:19:10.937Z</time>
      </trkpt>
      <trkpt lat="48.39991" lon="2.53358">
        <ele>105</ele>
        <time>2021-03-05T09:19:15.926Z</time>
      </trkpt>
      <trkpt lat="48.39995" lon="2.53355">
        <ele>105</ele>
        <time>2021-03-05T09:19:20.939Z</time>
      </trkpt>
      <trkpt lat="48.39997" lon="2.53356">
        <ele>105</ele>
        <time>2021-03-05T09:19:24.943Z</time>
      </trkpt>
      <trkpt lat="48.4" lon="2.5336">
        <ele>105</ele>
        <time>2021-03-05T09:19:29.929Z</time>
      </trkpt>
      <trkpt lat="48.40001" lon="2.53364">
        <ele>105</ele>
        <time>2021-03-05T09:19:34.927Z</time>
      </trkpt>
      <trkpt lat="48.40003" lon="2.53367">
        <ele>105</ele>
        <time>2021-03-05T09:19:38.930Z</time>
      </trkpt>
      <trkpt lat="48.40004" lon="2.53373">
        <ele>105</ele>
        <time>2021-03-05T09:19:43.922Z</time>
      </trkpt>
      <trkpt lat="48.40005" lon="2.53377">
        <ele>109</ele>
        <time>2021-03-05T09:19:47.935Z</time>
      </trkpt>
      <trkpt lat="48.40005" lon="2.53383">
        <ele>109</ele>
        <time>2021-03-05T09:19:51.955Z</time>
      </trkpt>
      <trkpt lat="48.40007" lon="2.53387">
        <ele>109</ele>
        <time>2021-03-05T09:19:56.940Z</time>
      </trkpt>
      <trkpt lat="48.40009" lon="2.5339">
        <ele>109</ele>
        <time>2021-03-05T09:20:01.930Z</time>
      </trkpt>
      <trkpt lat="48.4001" lon="2.53393">
        <ele>109</ele>
        <time>2021-03-05T09:20:05.941Z</time>
      </trkpt>
      <trkpt lat="48.40013" lon="2.53395">
        <ele>109</ele>
        <time>2021-03-05T09:20:10.947Z</time>
      </trkpt>
      <trkpt lat="48.40014" lon="2.53399">
        <ele>109</ele>
        <time>2021-03-05T09:20:14.966Z</time>
      </trkpt>
      <trkpt lat="48.40016" lon="2.53401">
        <ele>113</ele>
        <time>2021-03-05T09:20:19.929Z</time>
      </trkpt>
      <trkpt lat="48.40018" lon="2.53402">
        <ele>113</ele>
        <time>2021-03-05T09:20:23.947Z</time>
      </trkpt>
      <trkpt lat="48.40019" lon="2.53407">
        <ele>116</ele>
        <time>2021-03-05T09:20:28.947Z</time>
      </trkpt>
      <trkpt lat="48.40017" lon="2.53412">
        <ele>116</ele>
        <time>2021-03-05T09:20:33.933Z</time>
      </trkpt>
      <trkpt lat="48.40018" lon="2.53417">
        <ele>116</ele>
        <time>2021-03-05T09:20:38.940Z</time>
      </trkpt>
      <trkpt lat="48.40022" lon="2.53416">
        <ele>116</ele>
        <time>2021-03-05T09:31:08.923Z</time>
      </trkpt>
      <trkpt lat="48.40027" lon="2.53418">
        <ele>116</ele>
        <time>2021-03-05T09:31:13.949Z</time>
      </trkpt>
      <trkpt lat="48.40032" lon="2.53421">
        <ele>116</ele>
        <time>2021-03-05T09:31:18.937Z</time>
      </trkpt>
      <trkpt lat="48.40036" lon="2.5342">
        <ele>116</ele>
        <time>2021-03-05T09:31:23.934Z</time>
      </trkpt>
      <trkpt lat="48.40042" lon="2.53416">
        <ele>120</ele>
        <time>2021-03-05T09:31:28.945Z</time>
      </trkpt>
      <trkpt lat="48.40046" lon="2.53415">
        <ele>120</ele>
        <time>2021-03-05T09:31:33.938Z</time>
      </trkpt>
      <trkpt lat="48.4005" lon="2.53414">
        <ele>120</ele>
        <time>2021-03-05T09:31:38.951Z</time>
      </trkpt>
      <trkpt lat="48.40056" lon="2.53412">
        <ele>120</ele>
        <time>2021-03-05T09:31:43.945Z</time>
      </trkpt>
      <trkpt lat="48.40061" lon="2.5341">
        <ele>120</ele>
        <time>2021-03-05T09:31:48.951Z</time>
      </trkpt>
      <trkpt lat="48.40068" lon="2.53413">
        <ele>120</ele>
        <time>2021-03-05T09:31:53.934Z</time>
      </trkpt>
      <trkpt lat="48.40071" lon="2.53417">
        <ele>124</ele>
        <time>2021-03-05T09:31:57.946Z</time>
      </trkpt>
      <trkpt lat="48.40076" lon="2.53421">
        <ele>124</ele>
        <time>2021-03-05T09:32:02.940Z</time>
      </trkpt>
      <trkpt lat="48.40079" lon="2.53424">
        <ele>124</ele>
        <time>2021-03-05T09:32:06.945Z</time>
      </trkpt>
      <trkpt lat="48.40082" lon="2.53428">
        <ele>124</ele>
        <time>2021-03-05T09:32:11.939Z</time>
      </trkpt>
      <trkpt lat="48.40087" lon="2.53433">
        <ele>127</ele>
        <time>2021-03-05T09:32:16.932Z</time>
      </trkpt>
      <trkpt lat="48.40091" lon="2.53436">
        <ele>127</ele>
        <time>2021-03-05T09:32:21.932Z</time>
      </trkpt>
      <trkpt lat="48.40094" lon="2.5344">
        <ele>127</ele>
        <time>2021-03-05T09:32:25.932Z</time>
      </trkpt>
      <trkpt lat="48.40098" lon="2.53445">
        <ele>127</ele>
        <time>2021-03-05T09:32:30.925Z</time>
      </trkpt>
      <trkpt lat="48.40101" lon="2.53449">
        <ele>127</ele>
        <time>2021-03-05T09:32:34.940Z</time>
      </trkpt>
      <trkpt lat="48.40105" lon="2.53452">
        <ele>127</ele>
        <time>2021-03-05T09:32:39.940Z</time>
      </trkpt>
      <trkpt lat="48.4011" lon="2.53457">
        <ele>127</ele>
        <time>2021-03-05T09:32:44.934Z</time>
      </trkpt>
      <trkpt lat="48.40113" lon="2.53462">
        <ele>127</ele>
        <time>2021-03-05T09:32:48.947Z</time>
      </trkpt>
      <trkpt lat="48.40117" lon="2.53468">
        <ele>127</ele>
        <time>2021-03-05T09:32:53.929Z</time>
      </trkpt>
      <trkpt lat="48.40121" lon="2.53472">
        <ele>127</ele>
        <time>2021-03-05T09:32:58.945Z</time>
      </trkpt>
      <trkpt lat="48.40126" lon="2.53477">
        <ele>126</ele>
        <time>2021-03-05T09:33:03.939Z</time>
      </trkpt>
      <trkpt lat="48.4013" lon="2.53481">
        <ele>126</ele>
        <time>2021-03-05T09:33:07.948Z</time>
      </trkpt>
      <trkpt lat="48.40131" lon="2.53489">
        <ele>126</ele>
        <time>2021-03-05T09:33:12.940Z</time>
      </trkpt>
      <trkpt lat="48.4013" lon="2.53497">
        <ele>126</ele>
        <time>2021-03-05T09:33:17.927Z</time>
      </trkpt>
      <trkpt lat="48.40129" lon="2.53505">
        <ele>126</ele>
        <time>2021-03-05T09:33:22.940Z</time>
      </trkpt>
      <trkpt lat="48.40128" lon="2.53512">
        <ele>126</ele>
        <time>2021-03-05T09:33:27.923Z</time>
      </trkpt>
      <trkpt lat="48.40127" lon="2.5352">
        <ele>126</ele>
        <time>2021-03-05T09:33:32.946Z</time>
      </trkpt>
      <trkpt lat="48.40127" lon="2.53528">
        <ele>126</ele>
        <time>2021-03-05T09:33:37.947Z</time>
      </trkpt>
      <trkpt lat="48.40125" lon="2.53537">
        <ele>126</ele>
        <time>2021-03-05T09:33:42.937Z</time>
      </trkpt>
      <trkpt lat="48.40124" lon="2.53544">
        <ele>126</ele>
        <time>2021-03-05T09:33:46.942Z</time>
      </trkpt>
      <trkpt lat="48.40123" lon="2.5355">
        <ele>126</ele>
        <time>2021-03-05T09:33:50.951Z</time>
      </trkpt>
      <trkpt lat="48.40121" lon="2.5356">
        <ele>126</ele>
        <time>2021-03-05T09:33:55.927Z</time>
      </trkpt>
      <trkpt lat="48.4012" lon="2.53566">
        <ele>126</ele>
        <time>2021-03-05T09:33:59.933Z</time>
      </trkpt>
      <trkpt lat="48.40118" lon="2.53572">
        <ele>126</ele>
        <time>2021-03-05T09:34:03.946Z</time>
      </trkpt>
      <trkpt lat="48.40117" lon="2.53581">
        <ele>126</ele>
        <time>2021-03-05T09:34:08.941Z</time>
      </trkpt>
      <trkpt lat="48.40115" lon="2.53589">
        <ele>126</ele>
        <time>2021-03-05T09:34:13.938Z</time>
      </trkpt>
      <trkpt lat="48.40114" lon="2.53596">
        <ele>126</ele>
        <time>2021-03-05T09:34:17.950Z</time>
      </trkpt>
      <trkpt lat="48.40113" lon="2.53604">
        <ele>126</ele>
        <time>2021-03-05T09:34:22.929Z</time>
      </trkpt>
      <trkpt lat="48.40111" lon="2.53613">
        <ele>126</ele>
        <time>2021-03-05T09:34:27.946Z</time>
      </trkpt>
      <trkpt lat="48.40108" lon="2.53622">
        <ele>126</ele>
        <time>2021-03-05T09:34:32.945Z</time>
      </trkpt>
      <trkpt lat="48.40107" lon="2.5363">
        <ele>127</ele>
        <time>2021-03-05T09:34:37.937Z</time>
      </trkpt>
      <trkpt lat="48.40105" lon="2.53638">
        <ele>127</ele>
        <time>2021-03-05T09:34:41.948Z</time>
      </trkpt>
      <trkpt lat="48.40103" lon="2.53647">
        <ele>127</ele>
        <time>2021-03-05T09:34:46.948Z</time>
      </trkpt>
      <trkpt lat="48.40102" lon="2.53655">
        <ele>126</ele>
        <time>2021-03-05T09:34:51.928Z</time>
      </trkpt>
      <trkpt lat="48.401" lon="2.53662">
        <ele>126</ele>
        <time>2021-03-05T09:34:55.933Z</time>
      </trkpt>
      <trkpt lat="48.40098" lon="2.53673">
        <ele>126</ele>
        <time>2021-03-05T09:35:00.952Z</time>
      </trkpt>
      <trkpt lat="48.40096" lon="2.53682">
        <ele>125</ele>
        <time>2021-03-05T09:35:05.932Z</time>
      </trkpt>
      <trkpt lat="48.40094" lon="2.5369">
        <ele>125</ele>
        <time>2021-03-05T09:35:10.950Z</time>
      </trkpt>
      <trkpt lat="48.40092" lon="2.53699">
        <ele>125</ele>
        <time>2021-03-05T09:35:15.940Z</time>
      </trkpt>
      <trkpt lat="48.4009" lon="2.53708">
        <ele>125</ele>
        <time>2021-03-05T09:35:20.942Z</time>
      </trkpt>
      <trkpt lat="48.40088" lon="2.53716">
        <ele>124</ele>
        <time>2021-03-05T09:35:25.935Z</time>
      </trkpt>
      <trkpt lat="48.40087" lon="2.53723">
        <ele>124</ele>
        <time>2021-03-05T09:35:29.946Z</time>
      </trkpt>
      <trkpt lat="48.40086" lon="2.53732">
        <ele>124</ele>
        <time>2021-03-05T09:35:34.947Z</time>
      </trkpt>
      <trkpt lat="48.40084" lon="2.53737">
        <ele>123</ele>
        <time>2021-03-05T09:35:38.961Z</time>
      </trkpt>
      <trkpt lat="48.40083" lon="2.53744">
        <ele>123</ele>
        <time>2021-03-05T09:35:43.948Z</time>
      </trkpt>
      <trkpt lat="48.40081" lon="2.53754">
        <ele>123</ele>
        <time>2021-03-05T09:35:48.948Z</time>
      </trkpt>
      <trkpt lat="48.40079" lon="2.53761">
        <ele>123</ele>
        <time>2021-03-05T09:35:53.936Z</time>
      </trkpt>
      <trkpt lat="48.40077" lon="2.53769">
        <ele>122</ele>
        <time>2021-03-05T09:35:58.933Z</time>
      </trkpt>
      <trkpt lat="48.40076" lon="2.53777">
        <ele>122</ele>
        <time>2021-03-05T09:36:02.947Z</time>
      </trkpt>
      <trkpt lat="48.40073" lon="2.53783">
        <ele>122</ele>
        <time>2021-03-05T09:36:07.934Z</time>
      </trkpt>
      <trkpt lat="48.40072" lon="2.53792">
        <ele>121</ele>
        <time>2021-03-05T09:36:12.940Z</time>
      </trkpt>
      <trkpt lat="48.40071" lon="2.538">
        <ele>121</ele>
        <time>2021-03-05T09:36:17.947Z</time>
      </trkpt>
      <trkpt lat="48.40068" lon="2.53807">
        <ele>120</ele>
        <time>2021-03-05T09:36:22.935Z</time>
      </trkpt>
      <trkpt lat="48.40067" lon="2.5381">
        <ele>120</ele>
        <time>2021-03-05T09:36:27.942Z</time>
      </trkpt>
      <trkpt lat="48.40065" lon="2.53815">
        <ele>120</ele>
        <time>2021-03-05T09:36:32.925Z</time>
      </trkpt>
      <trkpt lat="48.40063" lon="2.53823">
        <ele>120</ele>
        <time>2021-03-05T09:36:36.929Z</time>
      </trkpt>
      <trkpt lat="48.4006" lon="2.5383">
        <ele>120</ele>
        <time>2021-03-05T09:36:41.942Z</time>
      </trkpt>
      <trkpt lat="48.40058" lon="2.53839">
        <ele>120</ele>
        <time>2021-03-05T09:36:46.950Z</time>
      </trkpt>
      <trkpt lat="48.40057" lon="2.53846">
        <ele>120</ele>
        <time>2021-03-05T09:36:51.948Z</time>
      </trkpt>
      <trkpt lat="48.40056" lon="2.53855">
        <ele>120</ele>
        <time>2021-03-05T09:36:56.926Z</time>
      </trkpt>
      <trkpt lat="48.40055" lon="2.53863">
        <ele>120</ele>
        <time>2021-03-05T09:37:00.943Z</time>
      </trkpt>
      <trkpt lat="48.40054" lon="2.53872">
        <ele>120</ele>
        <time>2021-03-05T09:37:05.947Z</time>
      </trkpt>
      <trkpt lat="48.40053" lon="2.53881">
        <ele>119</ele>
        <time>2021-03-05T09:37:10.935Z</time>
      </trkpt>
      <trkpt lat="48.40051" lon="2.53889">
        <ele>119</ele>
        <time>2021-03-05T09:37:15.935Z</time>
      </trkpt>
      <trkpt lat="48.4005" lon="2.53897">
        <ele>119</ele>
        <time>2021-03-05T09:37:20.935Z</time>
      </trkpt>
      <trkpt lat="48.40049" lon="2.53905">
        <ele>119</ele>
        <time>2021-03-05T09:37:25.935Z</time>
      </trkpt>
      <trkpt lat="48.40049" lon="2.53913">
        <ele>119</ele>
        <time>2021-03-05T09:37:30.940Z</time>
      </trkpt>
      <trkpt lat="48.40048" lon="2.5392">
        <ele>119</ele>
        <time>2021-03-05T09:37:35.935Z</time>
      </trkpt>
      <trkpt lat="48.40048" lon="2.53929">
        <ele>119</ele>
        <time>2021-03-05T09:37:40.935Z</time>
      </trkpt>
      <trkpt lat="48.40047" lon="2.53935">
        <ele>118</ele>
        <time>2021-03-05T09:37:44.946Z</time>
      </trkpt>
      <trkpt lat="48.40047" lon="2.53943">
        <ele>118</ele>
        <time>2021-03-05T09:37:49.924Z</time>
      </trkpt>
      <trkpt lat="48.40046" lon="2.53951">
        <ele>118</ele>
        <time>2021-03-05T09:37:53.930Z</time>
      </trkpt>
      <trkpt lat="48.40044" lon="2.53958">
        <ele>118</ele>
        <time>2021-03-05T09:37:57.954Z</time>
      </trkpt>
      <trkpt lat="48.40042" lon="2.53965">
        <ele>117</ele>
        <time>2021-03-05T09:38:02.942Z</time>
      </trkpt>
      <trkpt lat="48.40037" lon="2.53974">
        <ele>116</ele>
        <time>2021-03-05T09:38:07.935Z</time>
      </trkpt>
      <trkpt lat="48.40034" lon="2.53978">
        <ele>116</ele>
        <time>2021-03-05T09:38:11.948Z</time>
      </trkpt>
      <trkpt lat="48.40029" lon="2.5398">
        <ele>116</ele>
        <time>2021-03-05T09:38:16.947Z</time>
      </trkpt>
      <trkpt lat="48.40024" lon="2.53979">
        <ele>116</ele>
        <time>2021-03-05T09:38:21.944Z</time>
      </trkpt>
      <trkpt lat="48.40018" lon="2.53975">
        <ele>116</ele>
        <time>2021-03-05T09:38:26.932Z</time>
      </trkpt>
      <trkpt lat="48.40013" lon="2.5397">
        <ele>111</ele>
        <time>2021-03-05T09:38:39.956Z</time>
      </trkpt>
      <trkpt lat="48.40012" lon="2.5397">
        <ele>111</ele>
        <time>2021-03-05T09:38:44.938Z</time>
      </trkpt>
      <trkpt lat="48.40011" lon="2.5397">
        <ele>111</ele>
        <time>2021-03-05T09:38:48.952Z</time>
      </trkpt>
      <trkpt lat="48.40007" lon="2.5397">
        <ele>111</ele>
        <time>2021-03-05T09:38:53.945Z</time>
      </trkpt>
      <trkpt lat="48.40003" lon="2.53974">
        <ele>111</ele>
        <time>2021-03-05T09:38:58.948Z</time>
      </trkpt>
      <trkpt lat="48.39998" lon="2.53972">
        <ele>111</ele>
        <time>2021-03-05T09:39:03.939Z</time>
      </trkpt>
      <trkpt lat="48.39992" lon="2.53971">
        <ele>111</ele>
        <time>2021-03-05T09:39:08.934Z</time>
      </trkpt>
      <trkpt lat="48.3999" lon="2.53966">
        <ele>111</ele>
        <time>2021-03-05T09:39:13.922Z</time>
      </trkpt>
      <trkpt lat="48.39989" lon="2.53962">
        <ele>111</ele>
        <time>2021-03-05T09:39:17.926Z</time>
      </trkpt>
      <trkpt lat="48.39987" lon="2.53957">
        <ele>111</ele>
        <time>2021-03-05T09:39:21.932Z</time>
      </trkpt>
      <trkpt lat="48.39987" lon="2.53953">
        <ele>111</ele>
        <time>2021-03-05T09:39:25.959Z</time>
      </trkpt>
      <trkpt lat="48.39986" lon="2.53948">
        <ele>111</ele>
        <time>2021-03-05T09:39:30.935Z</time>
      </trkpt>
      <trkpt lat="48.39985" lon="2.53946">
        <ele>106</ele>
        <time>2021-03-05T09:39:34.948Z</time>
      </trkpt>
      <trkpt lat="48.39981" lon="2.53944">
        <ele>106</ele>
        <time>2021-03-05T09:39:39.949Z</time>
      </trkpt>
      <trkpt lat="48.39977" lon="2.53946">
        <ele>106</ele>
        <time>2021-03-05T09:39:44.941Z</time>
      </trkpt>
      <trkpt lat="48.39975" lon="2.53953">
        <ele>106</ele>
        <time>2021-03-05T09:39:49.934Z</time>
      </trkpt>
      <trkpt lat="48.39973" lon="2.53959">
        <ele>106</ele>
        <time>2021-03-05T09:39:53.949Z</time>
      </trkpt>
      <trkpt lat="48.39971" lon="2.53965">
        <ele>106</ele>
        <time>2021-03-05T09:39:58.951Z</time>
      </trkpt>
      <trkpt lat="48.39972" lon="2.53971">
        <ele>106</ele>
        <time>2021-03-05T09:40:03.949Z</time>
      </trkpt>
      <trkpt lat="48.39971" lon="2.53977">
        <ele>106</ele>
        <time>2021-03-05T09:40:08.934Z</time>
      </trkpt>
      <trkpt lat="48.39972" lon="2.53982">
        <ele>106</ele>
        <time>2021-03-05T09:40:13.946Z</time>
      </trkpt>
      <trkpt lat="48.39974" lon="2.53987">
        <ele>104</ele>
        <time>2021-03-05T09:40:17.945Z</time>
      </trkpt>
      <trkpt lat="48.39976" lon="2.53993">
        <ele>104</ele>
        <time>2021-03-05T09:40:22.935Z</time>
      </trkpt>
      <trkpt lat="48.39977" lon="2.53998">
        <ele>104</ele>
        <time>2021-03-05T09:40:26.949Z</time>
      </trkpt>
      <trkpt lat="48.39979" lon="2.54004">
        <ele>104</ele>
        <time>2021-03-05T09:40:31.947Z</time>
      </trkpt>
      <trkpt lat="48.39981" lon="2.5401">
        <ele>104</ele>
        <time>2021-03-05T09:40:36.947Z</time>
      </trkpt>
      <trkpt lat="48.39982" lon="2.54015">
        <ele>103</ele>
        <time>2021-03-05T09:40:41.941Z</time>
      </trkpt>
      <trkpt lat="48.39981" lon="2.54022">
        <ele>103</ele>
        <time>2021-03-05T09:40:46.939Z</time>
      </trkpt>
      <trkpt lat="48.3998" lon="2.54027">
        <ele>103</ele>
        <time>2021-03-05T09:40:50.947Z</time>
      </trkpt>
      <trkpt lat="48.39976" lon="2.54034">
        <ele>103</ele>
        <time>2021-03-05T09:40:55.935Z</time>
      </trkpt>
      <trkpt lat="48.39973" lon="2.54041">
        <ele>103</ele>
        <time>2021-03-05T09:40:59.934Z</time>
      </trkpt>
      <trkpt lat="48.39968" lon="2.54046">
        <ele>101</ele>
        <time>2021-03-05T09:41:03.948Z</time>
      </trkpt>
      <trkpt lat="48.39963" lon="2.54046">
        <ele>101</ele>
        <time>2021-03-05T09:41:08.937Z</time>
      </trkpt>
      <trkpt lat="48.39959" lon="2.54042">
        <ele>101</ele>
        <time>2021-03-05T09:41:13.947Z</time>
      </trkpt>
      <trkpt lat="48.39954" lon="2.54039">
        <ele>100</ele>
        <time>2021-03-05T09:41:18.963Z</time>
      </trkpt>
      <trkpt lat="48.3995" lon="2.54035">
        <ele>100</ele>
        <time>2021-03-05T09:41:23.931Z</time>
      </trkpt>
      <trkpt lat="48.39946" lon="2.54031">
        <ele>100</ele>
        <time>2021-03-05T09:41:28.944Z</time>
      </trkpt>
      <trkpt lat="48.39941" lon="2.54026">
        <ele>100</ele>
        <time>2021-03-05T09:41:33.944Z</time>
      </trkpt>
      <trkpt lat="48.39936" lon="2.54022">
        <ele>100</ele>
        <time>2021-03-05T09:41:38.948Z</time>
      </trkpt>
      <trkpt lat="48.39932" lon="2.54016">
        <ele>100</ele>
        <time>2021-03-05T09:41:43.948Z</time>
      </trkpt>
      <trkpt lat="48.39927" lon="2.54009">
        <ele>97</ele>
        <time>2021-03-05T09:41:48.944Z</time>
      </trkpt>
      <trkpt lat="48.39922" lon="2.54004">
        <ele>97</ele>
        <time>2021-03-05T09:41:53.947Z</time>
      </trkpt>
      <trkpt lat="48.39916" lon="2.53999">
        <ele>97</ele>
        <time>2021-03-05T09:41:58.947Z</time>
      </trkpt>
      <trkpt lat="48.3991" lon="2.53995">
        <ele>97</ele>
        <time>2021-03-05T09:42:03.935Z</time>
      </trkpt>
      <trkpt lat="48.39905" lon="2.53993">
        <ele>97</ele>
        <time>2021-03-05T09:42:08.940Z</time>
      </trkpt>
      <trkpt lat="48.39899" lon="2.53992">
        <ele>93</ele>
        <time>2021-03-05T09:42:13.930Z</time>
      </trkpt>
      <trkpt lat="48.39893" lon="2.53991">
        <ele>93</ele>
        <time>2021-03-05T09:42:18.940Z</time>
      </trkpt>
      <trkpt lat="48.39889" lon="2.53991">
        <ele>93</ele>
        <time>2021-03-05T09:42:22.949Z</time>
      </trkpt>
      <trkpt lat="48.39883" lon="2.53992">
        <ele>93</ele>
        <time>2021-03-05T09:42:27.943Z</time>
      </trkpt>
      <trkpt lat="48.39876" lon="2.53994">
        <ele>93</ele>
        <time>2021-03-05T09:42:32.935Z</time>
      </trkpt>
      <trkpt lat="48.39872" lon="2.53991">
        <ele>90</ele>
        <time>2021-03-05T09:42:36.946Z</time>
      </trkpt>
      <trkpt lat="48.39869" lon="2.53985">
        <ele>91</ele>
        <time>2021-03-05T09:42:41.936Z</time>
      </trkpt>
      <trkpt lat="48.39866" lon="2.5398">
        <ele>91</ele>
        <time>2021-03-05T09:42:46.944Z</time>
      </trkpt>
      <trkpt lat="48.3986" lon="2.53983">
        <ele>91</ele>
        <time>2021-03-05T09:42:51.938Z</time>
      </trkpt>
      <trkpt lat="48.39856" lon="2.53987">
        <ele>90</ele>
        <time>2021-03-05T09:42:56.933Z</time>
      </trkpt>
      <trkpt lat="48.39852" lon="2.53992">
        <ele>90</ele>
        <time>2021-03-05T09:43:01.944Z</time>
      </trkpt>
      <trkpt lat="48.39848" lon="2.53998">
        <ele>90</ele>
        <time>2021-03-05T09:43:06.918Z</time>
      </trkpt>
      <trkpt lat="48.39845" lon="2.54004">
        <ele>88</ele>
        <time>2021-03-05T09:43:10.924Z</time>
      </trkpt>
      <trkpt lat="48.39841" lon="2.5401">
        <ele>88</ele>
        <time>2021-03-05T09:43:15.924Z</time>
      </trkpt>
      <trkpt lat="48.3984" lon="2.54012">
        <ele>88</ele>
        <time>2021-03-05T09:43:20.919Z</time>
      </trkpt>
      <trkpt lat="48.39838" lon="2.54015">
        <ele>89</ele>
        <time>2021-03-05T09:43:24.923Z</time>
      </trkpt>
      <trkpt lat="48.39836" lon="2.54019">
        <ele>89</ele>
        <time>2021-03-05T09:43:29.923Z</time>
      </trkpt>
      <trkpt lat="48.39831" lon="2.54025">
        <ele>89</ele>
        <time>2021-03-05T09:43:34.925Z</time>
      </trkpt>
      <trkpt lat="48.39828" lon="2.54028">
        <ele>89</ele>
        <time>2021-03-05T09:43:38.920Z</time>
      </trkpt>
      <trkpt lat="48.39823" lon="2.54034">
        <ele>89</ele>
        <time>2021-03-05T09:43:43.931Z</time>
      </trkpt>
      <trkpt lat="48.39817" lon="2.54039">
        <ele>88</ele>
        <time>2021-03-05T09:43:48.937Z</time>
      </trkpt>
      <trkpt lat="48.39812" lon="2.54044">
        <ele>88</ele>
        <time>2021-03-05T09:43:53.928Z</time>
      </trkpt>
      <trkpt lat="48.39807" lon="2.54048">
        <ele>88</ele>
        <time>2021-03-05T09:43:58.931Z</time>
      </trkpt>
      <trkpt lat="48.39802" lon="2.54051">
        <ele>88</ele>
        <time>2021-03-05T09:44:02.935Z</time>
      </trkpt>
      <trkpt lat="48.39796" lon="2.54055">
        <ele>88</ele>
        <time>2021-03-05T09:44:07.925Z</time>
      </trkpt>
      <trkpt lat="48.39789" lon="2.54059">
        <ele>86</ele>
        <time>2021-03-05T09:44:12.934Z</time>
      </trkpt>
      <trkpt lat="48.39784" lon="2.54065">
        <ele>86</ele>
        <time>2021-03-05T09:44:17.922Z</time>
      </trkpt>
      <trkpt lat="48.3978" lon="2.54069">
        <ele>86</ele>
        <time>2021-03-05T09:44:21.937Z</time>
      </trkpt>
      <trkpt lat="48.39775" lon="2.54073">
        <ele>86</ele>
        <time>2021-03-05T09:44:26.962Z</time>
      </trkpt>
      <trkpt lat="48.39769" lon="2.54077">
        <ele>86</ele>
        <time>2021-03-05T09:44:32Z</time>
      </trkpt>
      <trkpt lat="48.39764" lon="2.5408">
        <ele>86</ele>
        <time>2021-03-05T09:44:36.928Z</time>
      </trkpt>
      <trkpt lat="48.39761" lon="2.54085">
        <ele>84</ele>
        <time>2021-03-05T09:44:40.939Z</time>
      </trkpt>
      <trkpt lat="48.39756" lon="2.5409">
        <ele>84</ele>
        <time>2021-03-05T09:44:45.945Z</time>
      </trkpt>
      <trkpt lat="48.39752" lon="2.54095">
        <ele>84</ele>
        <time>2021-03-05T09:44:50.930Z</time>
      </trkpt>
      <trkpt lat="48.39748" lon="2.541">
        <ele>86</ele>
        <time>2021-03-05T09:44:55.942Z</time>
      </trkpt>
      <trkpt lat="48.39743" lon="2.54105">
        <ele>86</ele>
        <time>2021-03-05T09:45:00.936Z</time>
      </trkpt>
      <trkpt lat="48.39738" lon="2.5411">
        <ele>86</ele>
        <time>2021-03-05T09:45:04.943Z</time>
      </trkpt>
      <trkpt lat="48.39734" lon="2.54115">
        <ele>84</ele>
        <time>2021-03-05T09:45:08.952Z</time>
      </trkpt>
      <trkpt lat="48.39728" lon="2.5412">
        <ele>84</ele>
        <time>2021-03-05T09:45:13.934Z</time>
      </trkpt>
      <trkpt lat="48.39724" lon="2.54124">
        <ele>84</ele>
        <time>2021-03-05T09:45:17.944Z</time>
      </trkpt>
      <trkpt lat="48.39718" lon="2.54129">
        <ele>86</ele>
        <time>2021-03-05T09:45:22.934Z</time>
      </trkpt>
      <trkpt lat="48.39713" lon="2.54134">
        <ele>86</ele>
        <time>2021-03-05T09:45:27.941Z</time>
      </trkpt>
      <trkpt lat="48.39709" lon="2.54138">
        <ele>86</ele>
        <time>2021-03-05T09:45:32.917Z</time>
      </trkpt>
      <trkpt lat="48.39704" lon="2.54142">
        <ele>84</ele>
        <time>2021-03-05T09:45:36.923Z</time>
      </trkpt>
      <trkpt lat="48.39699" lon="2.54147">
        <ele>84</ele>
        <time>2021-03-05T09:45:41.922Z</time>
      </trkpt>
      <trkpt lat="48.39694" lon="2.54151">
        <ele>84</ele>
        <time>2021-03-05T09:45:46.945Z</time>
      </trkpt>
      <trkpt lat="48.3969" lon="2.54155">
        <ele>85</ele>
        <time>2021-03-05T09:45:50.949Z</time>
      </trkpt>
      <trkpt lat="48.39685" lon="2.54159">
        <ele>85</ele>
        <time>2021-03-05T09:45:55.930Z</time>
      </trkpt>
      <trkpt lat="48.39679" lon="2.54164">
        <ele>90</ele>
        <time>2021-03-05T09:46:00.931Z</time>
      </trkpt>
      <trkpt lat="48.39675" lon="2.5417">
        <ele>90</ele>
        <time>2021-03-05T09:46:04.967Z</time>
      </trkpt>
      <trkpt lat="48.39674" lon="2.5418">
        <ele>90</ele>
        <time>2021-03-05T09:46:09.940Z</time>
      </trkpt>
      <trkpt lat="48.39677" lon="2.54192">
        <ele>90</ele>
        <time>2021-03-05T09:46:14.922Z</time>
      </trkpt>
      <trkpt lat="48.3968" lon="2.54201">
        <ele>90</ele>
        <time>2021-03-05T09:46:18.926Z</time>
      </trkpt>
      <trkpt lat="48.39683" lon="2.5421">
        <ele>88</ele>
        <time>2021-03-05T09:46:22.932Z</time>
      </trkpt>
      <trkpt lat="48.39685" lon="2.54219">
        <ele>88</ele>
        <time>2021-03-05T09:46:27.930Z</time>
      </trkpt>
      <trkpt lat="48.39686" lon="2.54228">
        <ele>88</ele>
        <time>2021-03-05T09:46:31.939Z</time>
      </trkpt>
      <trkpt lat="48.39689" lon="2.54236">
        <ele>88</ele>
        <time>2021-03-05T09:46:36.934Z</time>
      </trkpt>
      <trkpt lat="48.39691" lon="2.54245">
        <ele>88</ele>
        <time>2021-03-05T09:46:41.921Z</time>
      </trkpt>
      <trkpt lat="48.39694" lon="2.54252">
        <ele>88</ele>
        <time>2021-03-05T09:46:45.924Z</time>
      </trkpt>
      <trkpt lat="48.39695" lon="2.54259">
        <ele>88</ele>
        <time>2021-03-05T09:46:49.940Z</time>
      </trkpt>
      <trkpt lat="48.39697" lon="2.54268">
        <ele>86</ele>
        <time>2021-03-05T09:46:54.932Z</time>
      </trkpt>
      <trkpt lat="48.39698" lon="2.54276">
        <ele>86</ele>
        <time>2021-03-05T09:46:58.946Z</time>
      </trkpt>
      <trkpt lat="48.397" lon="2.54284">
        <ele>86</ele>
        <time>2021-03-05T09:47:03.946Z</time>
      </trkpt>
      <trkpt lat="48.39701" lon="2.54294">
        <ele>84</ele>
        <time>2021-03-05T09:47:08.945Z</time>
      </trkpt>
      <trkpt lat="48.39704" lon="2.54303">
        <ele>84</ele>
        <time>2021-03-05T09:47:13.923Z</time>
      </trkpt>
      <trkpt lat="48.39708" lon="2.54311">
        <ele>84</ele>
        <time>2021-03-05T09:47:18.927Z</time>
      </trkpt>
      <trkpt lat="48.39712" lon="2.54318">
        <ele>83</ele>
        <time>2021-03-05T09:47:23.919Z</time>
      </trkpt>
      <trkpt lat="48.39715" lon="2.54323">
        <ele>81</ele>
        <time>2021-03-05T09:47:27.943Z</time>
      </trkpt>
      <trkpt lat="48.3972" lon="2.5433">
        <ele>81</ele>
        <time>2021-03-05T09:47:32.944Z</time>
      </trkpt>
      <trkpt lat="48.39725" lon="2.54338">
        <ele>81</ele>
        <time>2021-03-05T09:47:37.928Z</time>
      </trkpt>
      <trkpt lat="48.39728" lon="2.54344">
        <ele>81</ele>
        <time>2021-03-05T09:47:41.946Z</time>
      </trkpt>
      <trkpt lat="48.39732" lon="2.5435">
        <ele>81</ele>
        <time>2021-03-05T09:47:46.943Z</time>
      </trkpt>
      <trkpt lat="48.39736" lon="2.54356">
        <ele>81</ele>
        <time>2021-03-05T09:47:50.946Z</time>
      </trkpt>
      <trkpt lat="48.39737" lon="2.54367">
        <ele>81</ele>
        <time>2021-03-05T09:47:55.946Z</time>
      </trkpt>
      <trkpt lat="48.39736" lon="2.54375">
        <ele>81</ele>
        <time>2021-03-05T09:48:00.934Z</time>
      </trkpt>
      <trkpt lat="48.39735" lon="2.54384">
        <ele>80</ele>
        <time>2021-03-05T09:48:05.938Z</time>
      </trkpt>
      <trkpt lat="48.39733" lon="2.54392">
        <ele>80</ele>
        <time>2021-03-05T09:48:10.943Z</time>
      </trkpt>
      <trkpt lat="48.39731" lon="2.544">
        <ele>80</ele>
        <time>2021-03-05T09:48:15.946Z</time>
      </trkpt>
      <trkpt lat="48.3973" lon="2.54408">
        <ele>79</ele>
        <time>2021-03-05T09:48:20.930Z</time>
      </trkpt>
      <trkpt lat="48.39728" lon="2.54415">
        <ele>79</ele>
        <time>2021-03-05T09:48:24.938Z</time>
      </trkpt>
      <trkpt lat="48.39726" lon="2.54423">
        <ele>79</ele>
        <time>2021-03-05T09:48:29.935Z</time>
      </trkpt>
      <trkpt lat="48.39724" lon="2.54431">
        <ele>79</ele>
        <time>2021-03-05T09:48:34.928Z</time>
      </trkpt>
      <trkpt lat="48.39721" lon="2.54438">
        <ele>79</ele>
        <time>2021-03-05T09:48:38.943Z</time>
      </trkpt>
      <trkpt lat="48.39718" lon="2.54446">
        <ele>79</ele>
        <time>2021-03-05T09:48:43.940Z</time>
      </trkpt>
      <trkpt lat="48.39716" lon="2.54454">
        <ele>79</ele>
        <time>2021-03-05T09:48:48.941Z</time>
      </trkpt>
      <trkpt lat="48.39714" lon="2.54464">
        <ele>79</ele>
        <time>2021-03-05T09:48:52.950Z</time>
      </trkpt>
      <trkpt lat="48.39712" lon="2.54475">
        <ele>79</ele>
        <time>2021-03-05T09:48:57.937Z</time>
      </trkpt>
      <trkpt lat="48.3971" lon="2.54484">
        <ele>79</ele>
        <time>2021-03-05T09:49:02.938Z</time>
      </trkpt>
      <trkpt lat="48.39707" lon="2.54492">
        <ele>79</ele>
        <time>2021-03-05T09:49:07.945Z</time>
      </trkpt>
      <trkpt lat="48.39704" lon="2.545">
        <ele>79</ele>
        <time>2021-03-05T09:49:12.948Z</time>
      </trkpt>
      <trkpt lat="48.397" lon="2.54522">
        <ele>78</ele>
        <time>2021-03-05T09:49:35.931Z</time>
      </trkpt>
      <trkpt lat="48.397" lon="2.54522">
        <ele>78</ele>
        <time>2021-03-05T09:49:40.924Z</time>
      </trkpt>
      <trkpt lat="48.397" lon="2.54522">
        <ele>78</ele>
        <time>2021-03-05T09:49:45.933Z</time>
      </trkpt>
      <trkpt lat="48.39696" lon="2.54524">
        <ele>78</ele>
        <time>2021-03-05T09:49:49.931Z</time>
      </trkpt>
      <trkpt lat="48.39693" lon="2.54524">
        <ele>78</ele>
        <time>2021-03-05T09:49:54.947Z</time>
      </trkpt>
      <trkpt lat="48.39688" lon="2.54524">
        <ele>78</ele>
        <time>2021-03-05T09:49:59.941Z</time>
      </trkpt>
      <trkpt lat="48.39682" lon="2.54522">
        <ele>78</ele>
        <time>2021-03-05T09:50:04.945Z</time>
      </trkpt>
      <trkpt lat="48.39677" lon="2.54521">
        <ele>80</ele>
        <time>2021-03-05T09:50:09.946Z</time>
      </trkpt>
      <trkpt lat="48.39672" lon="2.54523">
        <ele>80</ele>
        <time>2021-03-05T09:50:14.935Z</time>
      </trkpt>
      <trkpt lat="48.39667" lon="2.54512">
        <ele>80</ele>
        <time>2021-03-05T09:50:32.935Z</time>
      </trkpt>
      <trkpt lat="48.39667" lon="2.54512">
        <ele>80</ele>
        <time>2021-03-05T09:50:37.933Z</time>
      </trkpt>
      <trkpt lat="48.39667" lon="2.5451">
        <ele>80</ele>
        <time>2021-03-05T09:50:42.921Z</time>
      </trkpt>
      <trkpt lat="48.39667" lon="2.54508">
        <ele>80</ele>
        <time>2021-03-05T09:50:46.932Z</time>
      </trkpt>
      <trkpt lat="48.39666" lon="2.54504">
        <ele>80</ele>
        <time>2021-03-05T09:50:51.929Z</time>
      </trkpt>
      <trkpt lat="48.39662" lon="2.54495">
        <ele>80</ele>
        <time>2021-03-05T09:51:15.932Z</time>
      </trkpt>
      <trkpt lat="48.39659" lon="2.54498">
        <ele>80</ele>
        <time>2021-03-05T09:51:20.940Z</time>
      </trkpt>
      <trkpt lat="48.39658" lon="2.54503">
        <ele>80</ele>
        <time>2021-03-05T09:51:25.944Z</time>
      </trkpt>
      <trkpt lat="48.39657" lon="2.54505">
        <ele>80</ele>
        <time>2021-03-05T09:51:30.926Z</time>
      </trkpt>
      <trkpt lat="48.39656" lon="2.54506">
        <ele>80</ele>
        <time>2021-03-05T09:51:35.926Z</time>
      </trkpt>
      <trkpt lat="48.39656" lon="2.54506">
        <ele>80</ele>
        <time>2021-03-05T09:51:40.929Z</time>
      </trkpt>
      <trkpt lat="48.39656" lon="2.54505">
        <ele>80</ele>
        <time>2021-03-05T09:51:45.942Z</time>
      </trkpt>
      <trkpt lat="48.39654" lon="2.54504">
        <ele>80</ele>
        <time>2021-03-05T09:51:50.945Z</time>
      </trkpt>
      <trkpt lat="48.3965" lon="2.54502">
        <ele>84</ele>
        <time>2021-03-05T09:51:55.932Z</time>
      </trkpt>
      <trkpt lat="48.39645" lon="2.54502">
        <ele>84</ele>
        <time>2021-03-05T09:52:00.929Z</time>
      </trkpt>
      <trkpt lat="48.39641" lon="2.54501">
        <ele>84</ele>
        <time>2021-03-05T09:52:04.933Z</time>
      </trkpt>
      <trkpt lat="48.39638" lon="2.54501">
        <ele>84</ele>
        <time>2021-03-05T09:52:09.940Z</time>
      </trkpt>
      <trkpt lat="48.39634" lon="2.54503">
        <ele>84</ele>
        <time>2021-03-05T09:52:13.949Z</time>
      </trkpt>
      <trkpt lat="48.3963" lon="2.545">
        <ele>84</ele>
        <time>2021-03-05T09:52:18.933Z</time>
      </trkpt>
      <trkpt lat="48.39626" lon="2.54499">
        <ele>84</ele>
        <time>2021-03-05T09:52:23.935Z</time>
      </trkpt>
      <trkpt lat="48.39624" lon="2.54497">
        <ele>91</ele>
        <time>2021-03-05T09:52:27.949Z</time>
      </trkpt>
      <trkpt lat="48.3962" lon="2.54494">
        <ele>91</ele>
        <time>2021-03-05T09:52:32.934Z</time>
      </trkpt>
      <trkpt lat="48.39616" lon="2.54493">
        <ele>91</ele>
        <time>2021-03-05T09:52:37.943Z</time>
      </trkpt>
      <trkpt lat="48.39612" lon="2.5449">
        <ele>91</ele>
        <time>2021-03-05T09:52:42.944Z</time>
      </trkpt>
      <trkpt lat="48.39609" lon="2.54488">
        <ele>91</ele>
        <time>2021-03-05T09:52:47.933Z</time>
      </trkpt>
      <trkpt lat="48.39606" lon="2.54488">
        <ele>91</ele>
        <time>2021-03-05T09:52:51.949Z</time>
      </trkpt>
      <trkpt lat="48.39604" lon="2.54485">
        <ele>91</ele>
        <time>2021-03-05T09:52:55.971Z</time>
      </trkpt>
      <trkpt lat="48.39601" lon="2.54482">
        <ele>91</ele>
        <time>2021-03-05T09:53:00.976Z</time>
      </trkpt>
      <trkpt lat="48.39597" lon="2.54482">
        <ele>97</ele>
        <time>2021-03-05T09:53:05.922Z</time>
      </trkpt>
      <trkpt lat="48.39595" lon="2.54482">
        <ele>97</ele>
        <time>2021-03-05T09:53:09.930Z</time>
      </trkpt>
      <trkpt lat="48.3959" lon="2.5448">
        <ele>97</ele>
        <time>2021-03-05T09:53:14.933Z</time>
      </trkpt>
      <trkpt lat="48.39586" lon="2.5448">
        <ele>97</ele>
        <time>2021-03-05T09:53:18.943Z</time>
      </trkpt>
      <trkpt lat="48.39582" lon="2.54479">
        <ele>97</ele>
        <time>2021-03-05T09:53:23.943Z</time>
      </trkpt>
      <trkpt lat="48.39579" lon="2.54476">
        <ele>97</ele>
        <time>2021-03-05T09:53:28.952Z</time>
      </trkpt>
      <trkpt lat="48.39575" lon="2.54472">
        <ele>97</ele>
        <time>2021-03-05T09:53:33.944Z</time>
      </trkpt>
      <trkpt lat="48.39571" lon="2.5447">
        <ele>97</ele>
        <time>2021-03-05T09:53:38.936Z</time>
      </trkpt>
      <trkpt lat="48.39567" lon="2.54469">
        <ele>102</ele>
        <time>2021-03-05T09:53:42.944Z</time>
      </trkpt>
      <trkpt lat="48.39563" lon="2.54467">
        <ele>102</ele>
        <time>2021-03-05T09:53:47.940Z</time>
      </trkpt>
      <trkpt lat="48.39559" lon="2.54464">
        <ele>102</ele>
        <time>2021-03-05T09:53:52.940Z</time>
      </trkpt>
      <trkpt lat="48.39555" lon="2.54463">
        <ele>102</ele>
        <time>2021-03-05T09:53:57.936Z</time>
      </trkpt>
      <trkpt lat="48.3955" lon="2.54461">
        <ele>102</ele>
        <time>2021-03-05T09:54:01.948Z</time>
      </trkpt>
      <trkpt lat="48.39545" lon="2.5446">
        <ele>102</ele>
        <time>2021-03-05T09:54:06.941Z</time>
      </trkpt>
      <trkpt lat="48.39541" lon="2.54457">
        <ele>108</ele>
        <time>2021-03-05T09:54:11.943Z</time>
      </trkpt>
      <trkpt lat="48.39537" lon="2.54452">
        <ele>108</ele>
        <time>2021-03-05T09:54:16.919Z</time>
      </trkpt>
      <trkpt lat="48.39535" lon="2.54449">
        <ele>108</ele>
        <time>2021-03-05T09:54:20.918Z</time>
      </trkpt>
      <trkpt lat="48.39531" lon="2.54445">
        <ele>108</ele>
        <time>2021-03-05T09:54:24.917Z</time>
      </trkpt>
      <trkpt lat="48.39528" lon="2.54441">
        <ele>108</ele>
        <time>2021-03-05T09:54:29.960Z</time>
      </trkpt>
      <trkpt lat="48.39525" lon="2.54435">
        <ele>108</ele>
        <time>2021-03-05T09:54:34.941Z</time>
      </trkpt>
      <trkpt lat="48.39523" lon="2.54429">
        <ele>110</ele>
        <time>2021-03-05T09:54:39.953Z</time>
      </trkpt>
      <trkpt lat="48.3952" lon="2.54424">
        <ele>110</ele>
        <time>2021-03-05T09:54:44.929Z</time>
      </trkpt>
      <trkpt lat="48.39518" lon="2.54421">
        <ele>110</ele>
        <time>2021-03-05T09:54:48.960Z</time>
      </trkpt>
      <trkpt lat="48.39516" lon="2.54416">
        <ele>110</ele>
        <time>2021-03-05T09:54:53.945Z</time>
      </trkpt>
      <trkpt lat="48.39516" lon="2.54411">
        <ele>110</ele>
        <time>2021-03-05T09:54:58.943Z</time>
      </trkpt>
      <trkpt lat="48.39516" lon="2.54405">
        <ele>110</ele>
        <time>2021-03-05T09:55:03.923Z</time>
      </trkpt>
      <trkpt lat="48.39515" lon="2.54401">
        <ele>114</ele>
        <time>2021-03-05T09:55:07.930Z</time>
      </trkpt>
      <trkpt lat="48.39513" lon="2.54398">
        <ele>115</ele>
        <time>2021-03-05T09:55:11.933Z</time>
      </trkpt>
      <trkpt lat="48.39511" lon="2.54395">
        <ele>115</ele>
        <time>2021-03-05T09:55:16.919Z</time>
      </trkpt>
      <trkpt lat="48.3951" lon="2.54391">
        <ele>115</ele>
        <time>2021-03-05T09:55:20.993Z</time>
      </trkpt>
      <trkpt lat="48.39511" lon="2.54388">
        <ele>115</ele>
        <time>2021-03-05T09:55:25.925Z</time>
      </trkpt>
      <trkpt lat="48.3951" lon="2.54385">
        <ele>115</ele>
        <time>2021-03-05T09:55:29.934Z</time>
      </trkpt>
      <trkpt lat="48.39507" lon="2.54378">
        <ele>115</ele>
        <time>2021-03-05T09:55:59.931Z</time>
      </trkpt>
      <trkpt lat="48.39504" lon="2.5438">
        <ele>115</ele>
        <time>2021-03-05T09:56:03.948Z</time>
      </trkpt>
      <trkpt lat="48.39503" lon="2.54384">
        <ele>115</ele>
        <time>2021-03-05T09:56:08.933Z</time>
      </trkpt>
      <trkpt lat="48.39501" lon="2.54386">
        <ele>115</ele>
        <time>2021-03-05T09:56:12.944Z</time>
      </trkpt>
      <trkpt lat="48.39498" lon="2.54383">
        <ele>115</ele>
        <time>2021-03-05T09:56:17.940Z</time>
      </trkpt>
      <trkpt lat="48.39491" lon="2.54386">
        <ele>115</ele>
        <time>2021-03-05T09:56:31.941Z</time>
      </trkpt>
      <trkpt lat="48.3949" lon="2.54383">
        <ele>115</ele>
        <time>2021-03-05T09:56:35.946Z</time>
      </trkpt>
      <trkpt lat="48.39489" lon="2.54383">
        <ele>115</ele>
        <time>2021-03-05T09:56:40.930Z</time>
      </trkpt>
      <trkpt lat="48.39488" lon="2.54381">
        <ele>115</ele>
        <time>2021-03-05T09:56:44.947Z</time>
      </trkpt>
      <trkpt lat="48.39486" lon="2.54382">
        <ele>115</ele>
        <time>2021-03-05T09:56:49.931Z</time>
      </trkpt>
      <trkpt lat="48.3948" lon="2.54378">
        <ele>116</ele>
        <time>2021-03-05T09:57:46.934Z</time>
      </trkpt>
      <trkpt lat="48.3948" lon="2.54379">
        <ele>116</ele>
        <time>2021-03-05T09:57:51.936Z</time>
      </trkpt>
      <trkpt lat="48.39477" lon="2.54382">
        <ele>116</ele>
        <time>2021-03-05T09:57:55.966Z</time>
      </trkpt>
      <trkpt lat="48.39475" lon="2.54389">
        <ele>116</ele>
        <time>2021-03-05T09:58:00.948Z</time>
      </trkpt>
      <trkpt lat="48.39472" lon="2.54396">
        <ele>116</ele>
        <time>2021-03-05T09:58:05.939Z</time>
      </trkpt>
      <trkpt lat="48.39469" lon="2.544">
        <ele>116</ele>
        <time>2021-03-05T09:58:10.938Z</time>
      </trkpt>
      <trkpt lat="48.39466" lon="2.54405">
        <ele>116</ele>
        <time>2021-03-05T09:58:15.925Z</time>
      </trkpt>
      <trkpt lat="48.39464" lon="2.5441">
        <ele>116</ele>
        <time>2021-03-05T09:58:20.922Z</time>
      </trkpt>
      <trkpt lat="48.39463" lon="2.54415">
        <ele>116</ele>
        <time>2021-03-05T09:58:24.973Z</time>
      </trkpt>
      <trkpt lat="48.39462" lon="2.54422">
        <ele>116</ele>
        <time>2021-03-05T09:58:29.932Z</time>
      </trkpt>
      <trkpt lat="48.3946" lon="2.54428">
        <ele>116</ele>
        <time>2021-03-05T09:58:34.924Z</time>
      </trkpt>
      <trkpt lat="48.39459" lon="2.54436">
        <ele>116</ele>
        <time>2021-03-05T09:58:39.940Z</time>
      </trkpt>
      <trkpt lat="48.3946" lon="2.54444">
        <ele>116</ele>
        <time>2021-03-05T09:58:44.946Z</time>
      </trkpt>
      <trkpt lat="48.39462" lon="2.54454">
        <ele>116</ele>
        <time>2021-03-05T09:58:49.933Z</time>
      </trkpt>
      <trkpt lat="48.39463" lon="2.54463">
        <ele>115</ele>
        <time>2021-03-05T09:58:54.933Z</time>
      </trkpt>
      <trkpt lat="48.39465" lon="2.5447">
        <ele>115</ele>
        <time>2021-03-05T09:58:58.931Z</time>
      </trkpt>
      <trkpt lat="48.39466" lon="2.54478">
        <ele>115</ele>
        <time>2021-03-05T09:59:03.931Z</time>
      </trkpt>
      <trkpt lat="48.39464" lon="2.54486">
        <ele>116</ele>
        <time>2021-03-05T09:59:08.938Z</time>
      </trkpt>
      <trkpt lat="48.39463" lon="2.54494">
        <ele>116</ele>
        <time>2021-03-05T09:59:13.934Z</time>
      </trkpt>
      <trkpt lat="48.39461" lon="2.54505">
        <ele>116</ele>
        <time>2021-03-05T09:59:18.927Z</time>
      </trkpt>
      <trkpt lat="48.39461" lon="2.54512">
        <ele>116</ele>
        <time>2021-03-05T09:59:22.936Z</time>
      </trkpt>
      <trkpt lat="48.39463" lon="2.5452">
        <ele>118</ele>
        <time>2021-03-05T09:59:27.932Z</time>
      </trkpt>
      <trkpt lat="48.39467" lon="2.54529">
        <ele>118</ele>
        <time>2021-03-05T09:59:32.948Z</time>
      </trkpt>
      <trkpt lat="48.39471" lon="2.54538">
        <ele>118</ele>
        <time>2021-03-05T09:59:37.989Z</time>
      </trkpt>
      <trkpt lat="48.39474" lon="2.54541">
        <ele>118</ele>
        <time>2021-03-05T09:59:42.937Z</time>
      </trkpt>
      <trkpt lat="48.39474" lon="2.54545">
        <ele>120</ele>
        <time>2021-03-05T09:59:51.942Z</time>
      </trkpt>
      <trkpt lat="48.39474" lon="2.54547">
        <ele>120</ele>
        <time>2021-03-05T09:59:56.955Z</time>
      </trkpt>
      <trkpt lat="48.39475" lon="2.5455">
        <ele>120</ele>
        <time>2021-03-05T10:00:01.947Z</time>
      </trkpt>
      <trkpt lat="48.39478" lon="2.54554">
        <ele>120</ele>
        <time>2021-03-05T10:00:05.961Z</time>
      </trkpt>
      <trkpt lat="48.39483" lon="2.54556">
        <ele>120</ele>
        <time>2021-03-05T10:00:10.984Z</time>
      </trkpt>
      <trkpt lat="48.39489" lon="2.54554">
        <ele>119</ele>
        <time>2021-03-05T10:00:15.947Z</time>
      </trkpt>
      <trkpt lat="48.39494" lon="2.54553">
        <ele>119</ele>
        <time>2021-03-05T10:00:20.927Z</time>
      </trkpt>
      <trkpt lat="48.39499" lon="2.54557">
        <ele>119</ele>
        <time>2021-03-05T10:00:25.935Z</time>
      </trkpt>
      <trkpt lat="48.39502" lon="2.54563">
        <ele>119</ele>
        <time>2021-03-05T10:00:30.934Z</time>
      </trkpt>
      <trkpt lat="48.39503" lon="2.5457">
        <ele>119</ele>
        <time>2021-03-05T10:00:35.939Z</time>
      </trkpt>
      <trkpt lat="48.39504" lon="2.54578">
        <ele>119</ele>
        <time>2021-03-05T10:00:40.982Z</time>
      </trkpt>
      <trkpt lat="48.395" lon="2.54584">
        <ele>119</ele>
        <time>2021-03-05T10:00:45.945Z</time>
      </trkpt>
      <trkpt lat="48.39498" lon="2.54591">
        <ele>119</ele>
        <time>2021-03-05T10:00:50.935Z</time>
      </trkpt>
      <trkpt lat="48.39494" lon="2.54597">
        <ele>119</ele>
        <time>2021-03-05T10:00:55.935Z</time>
      </trkpt>
      <trkpt lat="48.3949" lon="2.546">
        <ele>117</ele>
        <time>2021-03-05T10:00:59.948Z</time>
      </trkpt>
      <trkpt lat="48.39487" lon="2.54606">
        <ele>117</ele>
        <time>2021-03-05T10:01:04.948Z</time>
      </trkpt>
      <trkpt lat="48.39482" lon="2.54609">
        <ele>120</ele>
        <time>2021-03-05T10:01:09.948Z</time>
      </trkpt>
      <trkpt lat="48.39477" lon="2.54611">
        <ele>120</ele>
        <time>2021-03-05T10:01:14.941Z</time>
      </trkpt>
      <trkpt lat="48.39474" lon="2.54617">
        <ele>120</ele>
        <time>2021-03-05T10:01:19.937Z</time>
      </trkpt>
      <trkpt lat="48.39471" lon="2.54622">
        <ele>120</ele>
        <time>2021-03-05T10:01:24.928Z</time>
      </trkpt>
      <trkpt lat="48.39465" lon="2.54625">
        <ele>120</ele>
        <time>2021-03-05T10:01:29.935Z</time>
      </trkpt>
      <trkpt lat="48.3946" lon="2.54626">
        <ele>118</ele>
        <time>2021-03-05T10:01:33.935Z</time>
      </trkpt>
      <trkpt lat="48.39458" lon="2.54632">
        <ele>118</ele>
        <time>2021-03-05T10:01:38.939Z</time>
      </trkpt>
      <trkpt lat="48.39458" lon="2.5464">
        <ele>118</ele>
        <time>2021-03-05T10:01:43.941Z</time>
      </trkpt>
      <trkpt lat="48.39457" lon="2.54647">
        <ele>118</ele>
        <time>2021-03-05T10:01:48.945Z</time>
      </trkpt>
      <trkpt lat="48.39455" lon="2.54654">
        <ele>117</ele>
        <time>2021-03-05T10:01:53.948Z</time>
      </trkpt>
      <trkpt lat="48.39454" lon="2.54661">
        <ele>117</ele>
        <time>2021-03-05T10:01:58.939Z</time>
      </trkpt>
      <trkpt lat="48.39452" lon="2.54669">
        <ele>117</ele>
        <time>2021-03-05T10:02:03.946Z</time>
      </trkpt>
      <trkpt lat="48.3945" lon="2.54676">
        <ele>117</ele>
        <time>2021-03-05T10:02:08.946Z</time>
      </trkpt>
      <trkpt lat="48.39449" lon="2.54684">
        <ele>116</ele>
        <time>2021-03-05T10:02:13.949Z</time>
      </trkpt>
      <trkpt lat="48.39448" lon="2.54693">
        <ele>116</ele>
        <time>2021-03-05T10:02:18.938Z</time>
      </trkpt>
      <trkpt lat="48.39446" lon="2.547">
        <ele>116</ele>
        <time>2021-03-05T10:02:23.926Z</time>
      </trkpt>
      <trkpt lat="48.39445" lon="2.54707">
        <ele>116</ele>
        <time>2021-03-05T10:02:28.918Z</time>
      </trkpt>
      <trkpt lat="48.39443" lon="2.54713">
        <ele>116</ele>
        <time>2021-03-05T10:02:32.941Z</time>
      </trkpt>
      <trkpt lat="48.39444" lon="2.54718">
        <ele>116</ele>
        <time>2021-03-05T10:02:37.942Z</time>
      </trkpt>
      <trkpt lat="48.39445" lon="2.54725">
        <ele>116</ele>
        <time>2021-03-05T10:02:42.938Z</time>
      </trkpt>
      <trkpt lat="48.39443" lon="2.54728">
        <ele>116</ele>
        <time>2021-03-05T10:02:47.928Z</time>
      </trkpt>
      <trkpt lat="48.39439" lon="2.5473">
        <ele>116</ele>
        <time>2021-03-05T10:02:52.947Z</time>
      </trkpt>
      <trkpt lat="48.39436" lon="2.54734">
        <ele>116</ele>
        <time>2021-03-05T10:02:57.928Z</time>
      </trkpt>
      <trkpt lat="48.39433" lon="2.54739">
        <ele>116</ele>
        <time>2021-03-05T10:03:01.931Z</time>
      </trkpt>
      <trkpt lat="48.39433" lon="2.54739">
        <ele>116</ele>
        <time>2021-03-05T10:03:05.945Z</time>
      </trkpt>
      <trkpt lat="48.39433" lon="2.54746">
        <ele>116</ele>
        <time>2021-03-05T10:03:10.934Z</time>
      </trkpt>
      <trkpt lat="48.39431" lon="2.5475">
        <ele>116</ele>
        <time>2021-03-05T10:03:14.938Z</time>
      </trkpt>
      <trkpt lat="48.39428" lon="2.54755">
        <ele>111</ele>
        <time>2021-03-05T10:03:19.938Z</time>
      </trkpt>
      <trkpt lat="48.39427" lon="2.54761">
        <ele>111</ele>
        <time>2021-03-05T10:03:23.946Z</time>
      </trkpt>
      <trkpt lat="48.39424" lon="2.54767">
        <ele>112</ele>
        <time>2021-03-05T10:03:28.935Z</time>
      </trkpt>
      <trkpt lat="48.39424" lon="2.54774">
        <ele>112</ele>
        <time>2021-03-05T10:03:33.950Z</time>
      </trkpt>
      <trkpt lat="48.39422" lon="2.5478">
        <ele>112</ele>
        <time>2021-03-05T10:03:38.946Z</time>
      </trkpt>
      <trkpt lat="48.39425" lon="2.54787">
        <ele>112</ele>
        <time>2021-03-05T10:03:43.943Z</time>
      </trkpt>
      <trkpt lat="48.39429" lon="2.54794">
        <ele>110</ele>
        <time>2021-03-05T10:03:48.943Z</time>
      </trkpt>
      <trkpt lat="48.3943" lon="2.54799">
        <ele>110</ele>
        <time>2021-03-05T10:03:53.946Z</time>
      </trkpt>
      <trkpt lat="48.39431" lon="2.54801">
        <ele>112</ele>
        <time>2021-03-05T10:03:57.954Z</time>
      </trkpt>
      <trkpt lat="48.39433" lon="2.54805">
        <ele>112</ele>
        <time>2021-03-05T10:04:02.950Z</time>
      </trkpt>
      <trkpt lat="48.39435" lon="2.54808">
        <ele>112</ele>
        <time>2021-03-05T10:04:06.959Z</time>
      </trkpt>
      <trkpt lat="48.39439" lon="2.54802">
        <ele>112</ele>
        <time>2021-03-05T10:04:11.936Z</time>
      </trkpt>
      <trkpt lat="48.3944" lon="2.54795">
        <ele>112</ele>
        <time>2021-03-05T10:04:15.948Z</time>
      </trkpt>
      <trkpt lat="48.39444" lon="2.54789">
        <ele>115</ele>
        <time>2021-03-05T10:04:20.970Z</time>
      </trkpt>
      <trkpt lat="48.39447" lon="2.54782">
        <ele>115</ele>
        <time>2021-03-05T10:04:25.932Z</time>
      </trkpt>
      <trkpt lat="48.39447" lon="2.54778">
        <ele>115</ele>
        <time>2021-03-05T10:04:29.941Z</time>
      </trkpt>
      <trkpt lat="48.39446" lon="2.54776">
        <ele>115</ele>
        <time>2021-03-05T10:04:47.938Z</time>
      </trkpt>
      <trkpt lat="48.39446" lon="2.54772">
        <ele>115</ele>
        <time>2021-03-05T10:04:52.946Z</time>
      </trkpt>
      <trkpt lat="48.39451" lon="2.54775">
        <ele>115</ele>
        <time>2021-03-05T10:04:57.945Z</time>
      </trkpt>
      <trkpt lat="48.39454" lon="2.54774">
        <ele>115</ele>
        <time>2021-03-05T10:05:01.963Z</time>
      </trkpt>
      <trkpt lat="48.39455" lon="2.5477">
        <ele>115</ele>
        <time>2021-03-05T10:05:06.957Z</time>
      </trkpt>
      <trkpt lat="48.39458" lon="2.54764">
        <ele>115</ele>
        <time>2021-03-05T10:05:24.946Z</time>
      </trkpt>
      <trkpt lat="48.39458" lon="2.54765">
        <ele>115</ele>
        <time>2021-03-05T10:05:29.944Z</time>
      </trkpt>
      <trkpt lat="48.39463" lon="2.54767">
        <ele>112</ele>
        <time>2021-03-05T10:05:34.981Z</time>
      </trkpt>
      <trkpt lat="48.39465" lon="2.5477">
        <ele>112</ele>
        <time>2021-03-05T10:05:39.951Z</time>
      </trkpt>
      <trkpt lat="48.39465" lon="2.54774">
        <ele>112</ele>
        <time>2021-03-05T10:05:44.928Z</time>
      </trkpt>
      <trkpt lat="48.39465" lon="2.54778">
        <ele>112</ele>
        <time>2021-03-05T10:05:48.934Z</time>
      </trkpt>
      <trkpt lat="48.39466" lon="2.54783">
        <ele>112</ele>
        <time>2021-03-05T10:05:52.952Z</time>
      </trkpt>
      <trkpt lat="48.39465" lon="2.54789">
        <ele>112</ele>
        <time>2021-03-05T10:05:57.944Z</time>
      </trkpt>
      <trkpt lat="48.39463" lon="2.54794">
        <ele>108</ele>
        <time>2021-03-05T10:06:02.951Z</time>
      </trkpt>
      <trkpt lat="48.39458" lon="2.54799">
        <ele>108</ele>
        <time>2021-03-05T10:06:11.941Z</time>
      </trkpt>
      <trkpt lat="48.39458" lon="2.54799">
        <ele>112</ele>
        <time>2021-03-05T10:06:15.943Z</time>
      </trkpt>
      <trkpt lat="48.39457" lon="2.54803">
        <ele>112</ele>
        <time>2021-03-05T10:06:20.949Z</time>
      </trkpt>
      <trkpt lat="48.39455" lon="2.54809">
        <ele>112</ele>
        <time>2021-03-05T10:06:25.949Z</time>
      </trkpt>
      <trkpt lat="48.39454" lon="2.54814">
        <ele>112</ele>
        <time>2021-03-05T10:06:30.961Z</time>
      </trkpt>
      <trkpt lat="48.39452" lon="2.54818">
        <ele>112</ele>
        <time>2021-03-05T10:06:35.938Z</time>
      </trkpt>
      <trkpt lat="48.39451" lon="2.5482">
        <ele>108</ele>
        <time>2021-03-05T10:06:39.959Z</time>
      </trkpt>
      <trkpt lat="48.39449" lon="2.54825">
        <ele>108</ele>
        <time>2021-03-05T10:06:45.049Z</time>
      </trkpt>
      <trkpt lat="48.39448" lon="2.54828">
        <ele>108</ele>
        <time>2021-03-05T10:06:49.939Z</time>
      </trkpt>
      <trkpt lat="48.39447" lon="2.54831">
        <ele>108</ele>
        <time>2021-03-05T10:06:54.947Z</time>
      </trkpt>
      <trkpt lat="48.39441" lon="2.54824">
        <ele>108</ele>
        <time>2021-03-05T10:07:21.936Z</time>
      </trkpt>
      <trkpt lat="48.39441" lon="2.54828">
        <ele>108</ele>
        <time>2021-03-05T10:07:25.981Z</time>
      </trkpt>
      <trkpt lat="48.39442" lon="2.54834">
        <ele>108</ele>
        <time>2021-03-05T10:07:30.936Z</time>
      </trkpt>
      <trkpt lat="48.39447" lon="2.5484">
        <ele>108</ele>
        <time>2021-03-05T10:07:34.949Z</time>
      </trkpt>
      <trkpt lat="48.39452" lon="2.54849">
        <ele>102</ele>
        <time>2021-03-05T10:07:39.943Z</time>
      </trkpt>
      <trkpt lat="48.39454" lon="2.54856">
        <ele>102</ele>
        <time>2021-03-05T10:07:43.992Z</time>
      </trkpt>
      <trkpt lat="48.39456" lon="2.54864">
        <ele>102</ele>
        <time>2021-03-05T10:07:48.962Z</time>
      </trkpt>
      <trkpt lat="48.39455" lon="2.54871">
        <ele>102</ele>
        <time>2021-03-05T10:07:53.938Z</time>
      </trkpt>
      <trkpt lat="48.3946" lon="2.54875">
        <ele>99</ele>
        <time>2021-03-05T10:07:58.942Z</time>
      </trkpt>
      <trkpt lat="48.39456" lon="2.54886">
        <ele>96</ele>
        <time>2021-03-05T10:08:17.949Z</time>
      </trkpt>
      <trkpt lat="48.39456" lon="2.54889">
        <ele>96</ele>
        <time>2021-03-05T10:08:22.939Z</time>
      </trkpt>
      <trkpt lat="48.39453" lon="2.54896">
        <ele>96</ele>
        <time>2021-03-05T10:08:27.953Z</time>
      </trkpt>
      <trkpt lat="48.39448" lon="2.54901">
        <ele>96</ele>
        <time>2021-03-05T10:08:32.947Z</time>
      </trkpt>
      <trkpt lat="48.3945" lon="2.54909">
        <ele>92</ele>
        <time>2021-03-05T10:08:37.947Z</time>
      </trkpt>
      <trkpt lat="48.3945" lon="2.54916">
        <ele>92</ele>
        <time>2021-03-05T10:08:42.932Z</time>
      </trkpt>
      <trkpt lat="48.39447" lon="2.5492">
        <ele>92</ele>
        <time>2021-03-05T10:08:46.946Z</time>
      </trkpt>
      <trkpt lat="48.39448" lon="2.54927">
        <ele>92</ele>
        <time>2021-03-05T10:08:50.948Z</time>
      </trkpt>
      <trkpt lat="48.39448" lon="2.54933">
        <ele>88</ele>
        <time>2021-03-05T10:08:55.946Z</time>
      </trkpt>
      <trkpt lat="48.39446" lon="2.54939">
        <ele>88</ele>
        <time>2021-03-05T10:09:00.945Z</time>
      </trkpt>
      <trkpt lat="48.39449" lon="2.54947">
        <ele>88</ele>
        <time>2021-03-05T10:09:05.944Z</time>
      </trkpt>
      <trkpt lat="48.39453" lon="2.54952">
        <ele>88</ele>
        <time>2021-03-05T10:09:10.951Z</time>
      </trkpt>
      <trkpt lat="48.39455" lon="2.54958">
        <ele>88</ele>
        <time>2021-03-05T10:09:14.967Z</time>
      </trkpt>
      <trkpt lat="48.39459" lon="2.54957">
        <ele>87</ele>
        <time>2021-03-05T10:09:19.942Z</time>
      </trkpt>
      <trkpt lat="48.39462" lon="2.5496">
        <ele>86</ele>
        <time>2021-03-05T10:09:24.948Z</time>
      </trkpt>
      <trkpt lat="48.39462" lon="2.54968">
        <ele>86</ele>
        <time>2021-03-05T10:09:29.946Z</time>
      </trkpt>
      <trkpt lat="48.39464" lon="2.54975">
        <ele>86</ele>
        <time>2021-03-05T10:09:34.949Z</time>
      </trkpt>
      <trkpt lat="48.39463" lon="2.54981">
        <ele>86</ele>
        <time>2021-03-05T10:09:39.944Z</time>
      </trkpt>
      <trkpt lat="48.3946" lon="2.54988">
        <ele>85</ele>
        <time>2021-03-05T10:09:44.935Z</time>
      </trkpt>
      <trkpt lat="48.39458" lon="2.54993">
        <ele>86</ele>
        <time>2021-03-05T10:09:48.939Z</time>
      </trkpt>
      <trkpt lat="48.39457" lon="2.55001">
        <ele>86</ele>
        <time>2021-03-05T10:09:53.937Z</time>
      </trkpt>
      <trkpt lat="48.39457" lon="2.55008">
        <ele>86</ele>
        <time>2021-03-05T10:09:58.942Z</time>
      </trkpt>
      <trkpt lat="48.39456" lon="2.55015">
        <ele>86</ele>
        <time>2021-03-05T10:10:02.947Z</time>
      </trkpt>
      <trkpt lat="48.39456" lon="2.55022">
        <ele>86</ele>
        <time>2021-03-05T10:10:07.946Z</time>
      </trkpt>
      <trkpt lat="48.39457" lon="2.5503">
        <ele>86</ele>
        <time>2021-03-05T10:10:13.008Z</time>
      </trkpt>
      <trkpt lat="48.39455" lon="2.55035">
        <ele>86</ele>
        <time>2021-03-05T10:10:17.939Z</time>
      </trkpt>
      <trkpt lat="48.39456" lon="2.5504">
        <ele>86</ele>
        <time>2021-03-05T10:10:21.950Z</time>
      </trkpt>
      <trkpt lat="48.39456" lon="2.55048">
        <ele>85</ele>
        <time>2021-03-05T10:10:26.942Z</time>
      </trkpt>
      <trkpt lat="48.39455" lon="2.55056">
        <ele>85</ele>
        <time>2021-03-05T10:10:31.941Z</time>
      </trkpt>
      <trkpt lat="48.39453" lon="2.55059">
        <ele>85</ele>
        <time>2021-03-05T10:10:36.937Z</time>
      </trkpt>
      <trkpt lat="48.39452" lon="2.55063">
        <ele>85</ele>
        <time>2021-03-05T10:10:40.947Z</time>
      </trkpt>
      <trkpt lat="48.39455" lon="2.55067">
        <ele>85</ele>
        <time>2021-03-05T10:10:45.945Z</time>
      </trkpt>
      <trkpt lat="48.39455" lon="2.55072">
        <ele>83</ele>
        <time>2021-03-05T10:10:50.947Z</time>
      </trkpt>
      <trkpt lat="48.39454" lon="2.55077">
        <ele>83</ele>
        <time>2021-03-05T10:10:55.949Z</time>
      </trkpt>
      <trkpt lat="48.39455" lon="2.55084">
        <ele>83</ele>
        <time>2021-03-05T10:10:59.968Z</time>
      </trkpt>
      <trkpt lat="48.39453" lon="2.5509">
        <ele>83</ele>
        <time>2021-03-05T10:11:04.940Z</time>
      </trkpt>
      <trkpt lat="48.39451" lon="2.55096">
        <ele>83</ele>
        <time>2021-03-05T10:11:08.939Z</time>
      </trkpt>
      <trkpt lat="48.39449" lon="2.55101">
        <ele>81</ele>
        <time>2021-03-05T10:11:13.951Z</time>
      </trkpt>
      <trkpt lat="48.39446" lon="2.55105">
        <ele>81</ele>
        <time>2021-03-05T10:11:18.928Z</time>
      </trkpt>
      <trkpt lat="48.39444" lon="2.55109">
        <ele>81</ele>
        <time>2021-03-05T10:11:23.938Z</time>
      </trkpt>
      <trkpt lat="48.39439" lon="2.55113">
        <ele>81</ele>
        <time>2021-03-05T10:11:28.935Z</time>
      </trkpt>
      <trkpt lat="48.39439" lon="2.55121">
        <ele>81</ele>
        <time>2021-03-05T10:11:33.947Z</time>
      </trkpt>
      <trkpt lat="48.3944" lon="2.55129">
        <ele>79</ele>
        <time>2021-03-05T10:11:38.944Z</time>
      </trkpt>
      <trkpt lat="48.3944" lon="2.55135">
        <ele>79</ele>
        <time>2021-03-05T10:11:42.945Z</time>
      </trkpt>
      <trkpt lat="48.3944" lon="2.55142">
        <ele>79</ele>
        <time>2021-03-05T10:11:47.935Z</time>
      </trkpt>
      <trkpt lat="48.3944" lon="2.5515">
        <ele>79</ele>
        <time>2021-03-05T10:11:52.949Z</time>
      </trkpt>
      <trkpt lat="48.3944" lon="2.55158">
        <ele>78</ele>
        <time>2021-03-05T10:11:57.937Z</time>
      </trkpt>
      <trkpt lat="48.39437" lon="2.55163">
        <ele>78</ele>
        <time>2021-03-05T10:12:02.938Z</time>
      </trkpt>
      <trkpt lat="48.39434" lon="2.55166">
        <ele>78</ele>
        <time>2021-03-05T10:12:06.949Z</time>
      </trkpt>
      <trkpt lat="48.39431" lon="2.55172">
        <ele>78</ele>
        <time>2021-03-05T10:12:11.946Z</time>
      </trkpt>
      <trkpt lat="48.39427" lon="2.55178">
        <ele>80</ele>
        <time>2021-03-05T10:12:16.944Z</time>
      </trkpt>
      <trkpt lat="48.39425" lon="2.55188">
        <ele>79</ele>
        <time>2021-03-05T10:12:21.946Z</time>
      </trkpt>
      <trkpt lat="48.39422" lon="2.55192">
        <ele>79</ele>
        <time>2021-03-05T10:12:25.950Z</time>
      </trkpt>
      <trkpt lat="48.39419" lon="2.55197">
        <ele>79</ele>
        <time>2021-03-05T10:12:30.948Z</time>
      </trkpt>
      <trkpt lat="48.39414" lon="2.55198">
        <ele>79</ele>
        <time>2021-03-05T10:12:35.947Z</time>
      </trkpt>
      <trkpt lat="48.3941" lon="2.55201">
        <ele>79</ele>
        <time>2021-03-05T10:12:40.947Z</time>
      </trkpt>
      <trkpt lat="48.39406" lon="2.55205">
        <ele>79</ele>
        <time>2021-03-05T10:12:45.945Z</time>
      </trkpt>
      <trkpt lat="48.39406" lon="2.55205">
        <ele>79</ele>
        <time>2021-03-05T10:12:50.047Z</time>
      </trkpt>
      <trkpt lat="48.39406" lon="2.55206">
        <ele>79</ele>
        <time>2021-03-05T10:12:54.954Z</time>
      </trkpt>
      <trkpt lat="48.39404" lon="2.55208">
        <ele>79</ele>
        <time>2021-03-05T10:12:59.948Z</time>
      </trkpt>
      <trkpt lat="48.394" lon="2.55212">
        <ele>79</ele>
        <time>2021-03-05T10:13:04.961Z</time>
      </trkpt>
      <trkpt lat="48.39395" lon="2.55215">
        <ele>79</ele>
        <time>2021-03-05T10:13:09.945Z</time>
      </trkpt>
      <trkpt lat="48.3939" lon="2.55216">
        <ele>79</ele>
        <time>2021-03-05T10:13:14.942Z</time>
      </trkpt>
      <trkpt lat="48.39386" lon="2.55213">
        <ele>79</ele>
        <time>2021-03-05T10:13:19.946Z</time>
      </trkpt>
      <trkpt lat="48.39382" lon="2.55212">
        <ele>79</ele>
        <time>2021-03-05T10:13:24.939Z</time>
      </trkpt>
      <trkpt lat="48.39379" lon="2.55207">
        <ele>80</ele>
        <time>2021-03-05T10:13:29.952Z</time>
      </trkpt>
      <trkpt lat="48.39375" lon="2.55203">
        <ele>80</ele>
        <time>2021-03-05T10:13:34.946Z</time>
      </trkpt>
      <trkpt lat="48.39371" lon="2.55198">
        <ele>80</ele>
        <time>2021-03-05T10:13:39.931Z</time>
      </trkpt>
      <trkpt lat="48.39368" lon="2.55195">
        <ele>80</ele>
        <time>2021-03-05T10:13:43.941Z</time>
      </trkpt>
      <trkpt lat="48.39364" lon="2.5519">
        <ele>80</ele>
        <time>2021-03-05T10:13:48.942Z</time>
      </trkpt>
      <trkpt lat="48.3936" lon="2.55185">
        <ele>80</ele>
        <time>2021-03-05T10:13:53.946Z</time>
      </trkpt>
      <trkpt lat="48.39356" lon="2.55179">
        <ele>79</ele>
        <time>2021-03-05T10:13:58.942Z</time>
      </trkpt>
      <trkpt lat="48.39352" lon="2.55174">
        <ele>79</ele>
        <time>2021-03-05T10:14:03.939Z</time>
      </trkpt>
      <trkpt lat="48.39348" lon="2.55169">
        <ele>79</ele>
        <time>2021-03-05T10:14:08.952Z</time>
      </trkpt>
      <trkpt lat="48.39344" lon="2.55164">
        <ele>80</ele>
        <time>2021-03-05T10:14:13.942Z</time>
      </trkpt>
      <trkpt lat="48.3934" lon="2.55158">
        <ele>80</ele>
        <time>2021-03-05T10:14:18.945Z</time>
      </trkpt>
      <trkpt lat="48.39336" lon="2.55152">
        <ele>79</ele>
        <time>2021-03-05T10:14:23.943Z</time>
      </trkpt>
      <trkpt lat="48.39332" lon="2.55148">
        <ele>79</ele>
        <time>2021-03-05T10:14:28.931Z</time>
      </trkpt>
      <trkpt lat="48.39329" lon="2.55144">
        <ele>79</ele>
        <time>2021-03-05T10:14:32.946Z</time>
      </trkpt>
      <trkpt lat="48.39325" lon="2.55139">
        <ele>79</ele>
        <time>2021-03-05T10:14:37.937Z</time>
      </trkpt>
      <trkpt lat="48.3932" lon="2.55135">
        <ele>79</ele>
        <time>2021-03-05T10:14:42.932Z</time>
      </trkpt>
      <trkpt lat="48.39317" lon="2.5513">
        <ele>80</ele>
        <time>2021-03-05T10:14:46.941Z</time>
      </trkpt>
      <trkpt lat="48.39312" lon="2.55124">
        <ele>80</ele>
        <time>2021-03-05T10:14:51.942Z</time>
      </trkpt>
      <trkpt lat="48.39308" lon="2.5512">
        <ele>80</ele>
        <time>2021-03-05T10:14:55.931Z</time>
      </trkpt>
      <trkpt lat="48.39304" lon="2.55115">
        <ele>80</ele>
        <time>2021-03-05T10:15:00.949Z</time>
      </trkpt>
      <trkpt lat="48.39298" lon="2.5511">
        <ele>80</ele>
        <time>2021-03-05T10:15:05.944Z</time>
      </trkpt>
      <trkpt lat="48.39292" lon="2.55104">
        <ele>80</ele>
        <time>2021-03-05T10:15:10.944Z</time>
      </trkpt>
      <trkpt lat="48.39287" lon="2.55099">
        <ele>80</ele>
        <time>2021-03-05T10:15:15.948Z</time>
      </trkpt>
      <trkpt lat="48.39283" lon="2.55093">
        <ele>80</ele>
        <time>2021-03-05T10:15:20.943Z</time>
      </trkpt>
      <trkpt lat="48.3928" lon="2.55089">
        <ele>80</ele>
        <time>2021-03-05T10:15:24.950Z</time>
      </trkpt>
      <trkpt lat="48.39276" lon="2.55082">
        <ele>80</ele>
        <time>2021-03-05T10:15:29.936Z</time>
      </trkpt>
      <trkpt lat="48.39271" lon="2.55076">
        <ele>80</ele>
        <time>2021-03-05T10:15:34.943Z</time>
      </trkpt>
      <trkpt lat="48.39266" lon="2.55071">
        <ele>80</ele>
        <time>2021-03-05T10:15:39.945Z</time>
      </trkpt>
      <trkpt lat="48.39261" lon="2.55065">
        <ele>79</ele>
        <time>2021-03-05T10:15:44.945Z</time>
      </trkpt>
      <trkpt lat="48.39255" lon="2.5506">
        <ele>79</ele>
        <time>2021-03-05T10:15:49.947Z</time>
      </trkpt>
      <trkpt lat="48.39251" lon="2.55054">
        <ele>79</ele>
        <time>2021-03-05T10:15:54.945Z</time>
      </trkpt>
      <trkpt lat="48.39246" lon="2.55049">
        <ele>79</ele>
        <time>2021-03-05T10:15:59.946Z</time>
      </trkpt>
      <trkpt lat="48.39242" lon="2.55043">
        <ele>79</ele>
        <time>2021-03-05T10:16:03.952Z</time>
      </trkpt>
      <trkpt lat="48.39236" lon="2.55038">
        <ele>79</ele>
        <time>2021-03-05T10:16:08.947Z</time>
      </trkpt>
      <trkpt lat="48.3923" lon="2.55031">
        <ele>79</ele>
        <time>2021-03-05T10:16:13.947Z</time>
      </trkpt>
      <trkpt lat="48.39224" lon="2.55024">
        <ele>79</ele>
        <time>2021-03-05T10:16:18.940Z</time>
      </trkpt>
      <trkpt lat="48.39219" lon="2.55018">
        <ele>79</ele>
        <time>2021-03-05T10:16:23.934Z</time>
      </trkpt>
      <trkpt lat="48.39215" lon="2.55012">
        <ele>79</ele>
        <time>2021-03-05T10:16:27.953Z</time>
      </trkpt>
      <trkpt lat="48.3921" lon="2.55006">
        <ele>79</ele>
        <time>2021-03-05T10:16:32.947Z</time>
      </trkpt>
      <trkpt lat="48.39207" lon="2.55002">
        <ele>80</ele>
        <time>2021-03-05T10:16:36.979Z</time>
      </trkpt>
      <trkpt lat="48.39201" lon="2.54994">
        <ele>80</ele>
        <time>2021-03-05T10:16:41.939Z</time>
      </trkpt>
      <trkpt lat="48.39196" lon="2.54988">
        <ele>80</ele>
        <time>2021-03-05T10:16:46.932Z</time>
      </trkpt>
      <trkpt lat="48.39191" lon="2.54983">
        <ele>80</ele>
        <time>2021-03-05T10:16:51.951Z</time>
      </trkpt>
      <trkpt lat="48.39187" lon="2.54977">
        <ele>80</ele>
        <time>2021-03-05T10:16:56.940Z</time>
      </trkpt>
      <trkpt lat="48.39183" lon="2.54973">
        <ele>80</ele>
        <time>2021-03-05T10:17:00.945Z</time>
      </trkpt>
      <trkpt lat="48.39179" lon="2.54966">
        <ele>81</ele>
        <time>2021-03-05T10:17:05.947Z</time>
      </trkpt>
      <trkpt lat="48.39172" lon="2.54962">
        <ele>81</ele>
        <time>2021-03-05T10:17:10.948Z</time>
      </trkpt>
      <trkpt lat="48.39167" lon="2.54955">
        <ele>80</ele>
        <time>2021-03-05T10:17:15.947Z</time>
      </trkpt>
      <trkpt lat="48.39164" lon="2.5495">
        <ele>80</ele>
        <time>2021-03-05T10:17:19.948Z</time>
      </trkpt>
      <trkpt lat="48.39158" lon="2.54944">
        <ele>80</ele>
        <time>2021-03-05T10:17:24.940Z</time>
      </trkpt>
      <trkpt lat="48.39153" lon="2.5494">
        <ele>80</ele>
        <time>2021-03-05T10:17:29.947Z</time>
      </trkpt>
      <trkpt lat="48.39147" lon="2.54934">
        <ele>80</ele>
        <time>2021-03-05T10:17:34.941Z</time>
      </trkpt>
      <trkpt lat="48.39141" lon="2.54929">
        <ele>79</ele>
        <time>2021-03-05T10:17:39.931Z</time>
      </trkpt>
      <trkpt lat="48.39137" lon="2.54925">
        <ele>79</ele>
        <time>2021-03-05T10:17:43.946Z</time>
      </trkpt>
      <trkpt lat="48.39132" lon="2.54921">
        <ele>79</ele>
        <time>2021-03-05T10:17:48.950Z</time>
      </trkpt>
      <trkpt lat="48.39128" lon="2.54915">
        <ele>79</ele>
        <time>2021-03-05T10:17:53.938Z</time>
      </trkpt>
      <trkpt lat="48.39123" lon="2.54911">
        <ele>78</ele>
        <time>2021-03-05T10:17:57.945Z</time>
      </trkpt>
      <trkpt lat="48.39117" lon="2.54905">
        <ele>78</ele>
        <time>2021-03-05T10:18:02.933Z</time>
      </trkpt>
      <trkpt lat="48.39113" lon="2.54901">
        <ele>77</ele>
        <time>2021-03-05T10:18:06.948Z</time>
      </trkpt>
      <trkpt lat="48.39092" lon="2.54882">
        <ele>77</ele>
        <time>2021-03-05T10:18:11.969Z</time>
      </trkpt>
      <trkpt lat="48.39089" lon="2.54877">
        <ele>77</ele>
        <time>2021-03-05T10:18:16.930Z</time>
      </trkpt>
      <trkpt lat="48.39087" lon="2.54873">
        <ele>79</ele>
        <time>2021-03-05T10:18:20.943Z</time>
      </trkpt>
      <trkpt lat="48.39084" lon="2.54869">
        <ele>79</ele>
        <time>2021-03-05T10:18:25.944Z</time>
      </trkpt>
      <trkpt lat="48.39079" lon="2.54867">
        <ele>79</ele>
        <time>2021-03-05T10:18:30.915Z</time>
      </trkpt>
      <trkpt lat="48.39075" lon="2.54864">
        <ele>79</ele>
        <time>2021-03-05T10:18:35.928Z</time>
      </trkpt>
      <trkpt lat="48.3907" lon="2.54861">
        <ele>79</ele>
        <time>2021-03-05T10:18:39.972Z</time>
      </trkpt>
      <trkpt lat="48.39064" lon="2.54858">
        <ele>79</ele>
        <time>2021-03-05T10:18:44.920Z</time>
      </trkpt>
      <trkpt lat="48.39057" lon="2.54854">
        <ele>79</ele>
        <time>2021-03-05T10:18:49.926Z</time>
      </trkpt>
      <trkpt lat="48.39052" lon="2.54851">
        <ele>79</ele>
        <time>2021-03-05T10:18:53.935Z</time>
      </trkpt>
      <trkpt lat="48.39046" lon="2.54847">
        <ele>81</ele>
        <time>2021-03-05T10:18:58.939Z</time>
      </trkpt>
      <trkpt lat="48.3904" lon="2.54844">
        <ele>79</ele>
        <time>2021-03-05T10:19:03.936Z</time>
      </trkpt>
      <trkpt lat="48.39034" lon="2.54842">
        <ele>79</ele>
        <time>2021-03-05T10:19:08.936Z</time>
      </trkpt>
      <trkpt lat="48.39027" lon="2.54839">
        <ele>79</ele>
        <time>2021-03-05T10:19:13.943Z</time>
      </trkpt>
      <trkpt lat="48.39023" lon="2.54837">
        <ele>79</ele>
        <time>2021-03-05T10:19:17.940Z</time>
      </trkpt>
      <trkpt lat="48.39017" lon="2.54834">
        <ele>79</ele>
        <time>2021-03-05T10:19:22.948Z</time>
      </trkpt>
      <trkpt lat="48.39011" lon="2.54831">
        <ele>78</ele>
        <time>2021-03-05T10:19:27.951Z</time>
      </trkpt>
      <trkpt lat="48.39005" lon="2.54829">
        <ele>78</ele>
        <time>2021-03-05T10:19:32.950Z</time>
      </trkpt>
      <trkpt lat="48.38999" lon="2.54829">
        <ele>78</ele>
        <time>2021-03-05T10:19:37.945Z</time>
      </trkpt>
      <trkpt lat="48.38992" lon="2.54827">
        <ele>78</ele>
        <time>2021-03-05T10:19:42.940Z</time>
      </trkpt>
      <trkpt lat="48.38985" lon="2.54827">
        <ele>79</ele>
        <time>2021-03-05T10:19:47.939Z</time>
      </trkpt>
      <trkpt lat="48.3898" lon="2.54828">
        <ele>79</ele>
        <time>2021-03-05T10:19:51.940Z</time>
      </trkpt>
      <trkpt lat="48.38975" lon="2.54826">
        <ele>79</ele>
        <time>2021-03-05T10:19:56.063Z</time>
      </trkpt>
      <trkpt lat="48.38968" lon="2.54817">
        <ele>79</ele>
        <time>2021-03-05T10:20:09.938Z</time>
      </trkpt>
      <trkpt lat="48.3896" lon="2.54818">
        <ele>79</ele>
        <time>2021-03-05T10:20:13.944Z</time>
      </trkpt>
      <trkpt lat="48.38956" lon="2.54813">
        <ele>80</ele>
        <time>2021-03-05T10:20:18.940Z</time>
      </trkpt>
      <trkpt lat="48.38952" lon="2.54809">
        <ele>80</ele>
        <time>2021-03-05T10:20:22.947Z</time>
      </trkpt>
      <trkpt lat="48.38948" lon="2.54804">
        <ele>80</ele>
        <time>2021-03-05T10:20:27.941Z</time>
      </trkpt>
      <trkpt lat="48.38944" lon="2.54799">
        <ele>80</ele>
        <time>2021-03-05T10:20:32.947Z</time>
      </trkpt>
      <trkpt lat="48.38939" lon="2.54796">
        <ele>80</ele>
        <time>2021-03-05T10:20:37.942Z</time>
      </trkpt>
      <trkpt lat="48.38935" lon="2.54792">
        <ele>80</ele>
        <time>2021-03-05T10:20:41.950Z</time>
      </trkpt>
      <trkpt lat="48.38931" lon="2.54789">
        <ele>81</ele>
        <time>2021-03-05T10:20:46.943Z</time>
      </trkpt>
      <trkpt lat="48.38927" lon="2.54787">
        <ele>83</ele>
        <time>2021-03-05T10:20:50.947Z</time>
      </trkpt>
      <trkpt lat="48.38922" lon="2.54784">
        <ele>83</ele>
        <time>2021-03-05T10:20:55.945Z</time>
      </trkpt>
      <trkpt lat="48.38916" lon="2.54782">
        <ele>83</ele>
        <time>2021-03-05T10:21:00.945Z</time>
      </trkpt>
      <trkpt lat="48.38912" lon="2.5478">
        <ele>83</ele>
        <time>2021-03-05T10:21:04.952Z</time>
      </trkpt>
      <trkpt lat="48.38908" lon="2.54778">
        <ele>83</ele>
        <time>2021-03-05T10:21:09.941Z</time>
      </trkpt>
      <trkpt lat="48.38902" lon="2.54777">
        <ele>85</ele>
        <time>2021-03-05T10:21:13.948Z</time>
      </trkpt>
      <trkpt lat="48.38898" lon="2.54775">
        <ele>85</ele>
        <time>2021-03-05T10:21:17.949Z</time>
      </trkpt>
      <trkpt lat="48.38891" lon="2.54771">
        <ele>85</ele>
        <time>2021-03-05T10:21:22.944Z</time>
      </trkpt>
      <trkpt lat="48.38885" lon="2.54768">
        <ele>85</ele>
        <time>2021-03-05T10:21:27.939Z</time>
      </trkpt>
      <trkpt lat="48.38879" lon="2.54764">
        <ele>85</ele>
        <time>2021-03-05T10:21:32.947Z</time>
      </trkpt>
      <trkpt lat="48.38875" lon="2.54763">
        <ele>86</ele>
        <time>2021-03-05T10:21:37.937Z</time>
      </trkpt>
      <trkpt lat="48.38873" lon="2.5476">
        <ele>88</ele>
        <time>2021-03-05T10:21:42.074Z</time>
      </trkpt>
      <trkpt lat="48.3887" lon="2.54754">
        <ele>88</ele>
        <time>2021-03-05T10:21:46.955Z</time>
      </trkpt>
      <trkpt lat="48.38867" lon="2.54746">
        <ele>88</ele>
        <time>2021-03-05T10:21:51.933Z</time>
      </trkpt>
      <trkpt lat="48.38867" lon="2.54741">
        <ele>88</ele>
        <time>2021-03-05T10:21:55.946Z</time>
      </trkpt>
      <trkpt lat="48.38865" lon="2.54732">
        <ele>89</ele>
        <time>2021-03-05T10:22:00.951Z</time>
      </trkpt>
      <trkpt lat="48.38865" lon="2.54724">
        <ele>89</ele>
        <time>2021-03-05T10:22:05.935Z</time>
      </trkpt>
      <trkpt lat="48.38865" lon="2.54717">
        <ele>89</ele>
        <time>2021-03-05T10:22:10.947Z</time>
      </trkpt>
      <trkpt lat="48.38866" lon="2.54708">
        <ele>91</ele>
        <time>2021-03-05T10:22:15.940Z</time>
      </trkpt>
      <trkpt lat="48.38867" lon="2.54701">
        <ele>91</ele>
        <time>2021-03-05T10:22:20.953Z</time>
      </trkpt>
      <trkpt lat="48.38868" lon="2.54693">
        <ele>91</ele>
        <time>2021-03-05T10:22:25.950Z</time>
      </trkpt>
      <trkpt lat="48.38869" lon="2.54685">
        <ele>91</ele>
        <time>2021-03-05T10:22:30.935Z</time>
      </trkpt>
      <trkpt lat="48.3887" lon="2.54676">
        <ele>92</ele>
        <time>2021-03-05T10:22:35.934Z</time>
      </trkpt>
      <trkpt lat="48.38871" lon="2.54668">
        <ele>92</ele>
        <time>2021-03-05T10:22:39.950Z</time>
      </trkpt>
      <trkpt lat="48.38872" lon="2.54659">
        <ele>92</ele>
        <time>2021-03-05T10:22:44.948Z</time>
      </trkpt>
      <trkpt lat="48.38874" lon="2.5465">
        <ele>93</ele>
        <time>2021-03-05T10:22:49.942Z</time>
      </trkpt>
      <trkpt lat="48.38875" lon="2.5464">
        <ele>88</ele>
        <time>2021-03-05T10:22:54.946Z</time>
      </trkpt>
      <trkpt lat="48.38876" lon="2.54632">
        <ele>88</ele>
        <time>2021-03-05T10:22:58.929Z</time>
      </trkpt>
      <trkpt lat="48.38877" lon="2.54623">
        <ele>89</ele>
        <time>2021-03-05T10:23:03.926Z</time>
      </trkpt>
      <trkpt lat="48.38878" lon="2.54614">
        <ele>89</ele>
        <time>2021-03-05T10:23:07.957Z</time>
      </trkpt>
      <trkpt lat="48.38879" lon="2.54604">
        <ele>89</ele>
        <time>2021-03-05T10:23:12.939Z</time>
      </trkpt>
      <trkpt lat="48.3888" lon="2.54595">
        <ele>89</ele>
        <time>2021-03-05T10:23:17.938Z</time>
      </trkpt>
      <trkpt lat="48.38881" lon="2.54585">
        <ele>89</ele>
        <time>2021-03-05T10:23:22.949Z</time>
      </trkpt>
      <trkpt lat="48.38883" lon="2.54576">
        <ele>89</ele>
        <time>2021-03-05T10:23:27.949Z</time>
      </trkpt>
      <trkpt lat="48.38884" lon="2.54567">
        <ele>88</ele>
        <time>2021-03-05T10:23:32.950Z</time>
      </trkpt>
      <trkpt lat="48.38885" lon="2.54558">
        <ele>88</ele>
        <time>2021-03-05T10:23:37.941Z</time>
      </trkpt>
      <trkpt lat="48.38887" lon="2.54549">
        <ele>88</ele>
        <time>2021-03-05T10:23:42.946Z</time>
      </trkpt>
      <trkpt lat="48.38888" lon="2.54541">
        <ele>89</ele>
        <time>2021-03-05T10:23:47.942Z</time>
      </trkpt>
      <trkpt lat="48.38889" lon="2.54534">
        <ele>89</ele>
        <time>2021-03-05T10:23:51.948Z</time>
      </trkpt>
      <trkpt lat="48.38891" lon="2.54525">
        <ele>89</ele>
        <time>2021-03-05T10:23:56.962Z</time>
      </trkpt>
      <trkpt lat="48.38892" lon="2.54516">
        <ele>89</ele>
        <time>2021-03-05T10:24:01.943Z</time>
      </trkpt>
      <trkpt lat="48.38893" lon="2.54508">
        <ele>91</ele>
        <time>2021-03-05T10:24:05.952Z</time>
      </trkpt>
      <trkpt lat="48.38894" lon="2.54499">
        <ele>91</ele>
        <time>2021-03-05T10:24:10.939Z</time>
      </trkpt>
      <trkpt lat="48.38896" lon="2.5449">
        <ele>91</ele>
        <time>2021-03-05T10:24:15.954Z</time>
      </trkpt>
      <trkpt lat="48.38897" lon="2.54481">
        <ele>92</ele>
        <time>2021-03-05T10:24:20.944Z</time>
      </trkpt>
      <trkpt lat="48.38898" lon="2.54471">
        <ele>92</ele>
        <time>2021-03-05T10:24:25.948Z</time>
      </trkpt>
      <trkpt lat="48.38899" lon="2.54461">
        <ele>92</ele>
        <time>2021-03-05T10:24:30.949Z</time>
      </trkpt>
      <trkpt lat="48.389" lon="2.54452">
        <ele>92</ele>
        <time>2021-03-05T10:24:35.952Z</time>
      </trkpt>
      <trkpt lat="48.38901" lon="2.54443">
        <ele>92</ele>
        <time>2021-03-05T10:24:40.968Z</time>
      </trkpt>
      <trkpt lat="48.38902" lon="2.54434">
        <ele>92</ele>
        <time>2021-03-05T10:24:45.967Z</time>
      </trkpt>
      <trkpt lat="48.38903" lon="2.54424">
        <ele>89</ele>
        <time>2021-03-05T10:24:50.946Z</time>
      </trkpt>
      <trkpt lat="48.38904" lon="2.54416">
        <ele>89</ele>
        <time>2021-03-05T10:24:54.952Z</time>
      </trkpt>
      <trkpt lat="48.38905" lon="2.54407">
        <ele>89</ele>
        <time>2021-03-05T10:24:59.946Z</time>
      </trkpt>
      <trkpt lat="48.38906" lon="2.54399">
        <ele>89</ele>
        <time>2021-03-05T10:25:03.945Z</time>
      </trkpt>
      <trkpt lat="48.38906" lon="2.54393">
        <ele>89</ele>
        <time>2021-03-05T10:25:07.952Z</time>
      </trkpt>
      <trkpt lat="48.38907" lon="2.54384">
        <ele>89</ele>
        <time>2021-03-05T10:25:12.942Z</time>
      </trkpt>
      <trkpt lat="48.38908" lon="2.54376">
        <ele>89</ele>
        <time>2021-03-05T10:25:16.950Z</time>
      </trkpt>
      <trkpt lat="48.3891" lon="2.54366">
        <ele>89</ele>
        <time>2021-03-05T10:25:21.948Z</time>
      </trkpt>
      <trkpt lat="48.38912" lon="2.54357">
        <ele>89</ele>
        <time>2021-03-05T10:25:26.960Z</time>
      </trkpt>
      <trkpt lat="48.38913" lon="2.54349">
        <ele>89</ele>
        <time>2021-03-05T10:25:31.969Z</time>
      </trkpt>
      <trkpt lat="48.38913" lon="2.5434">
        <ele>89</ele>
        <time>2021-03-05T10:25:36.942Z</time>
      </trkpt>
      <trkpt lat="48.38914" lon="2.5433">
        <ele>89</ele>
        <time>2021-03-05T10:25:41.950Z</time>
      </trkpt>
      <trkpt lat="48.38914" lon="2.54321">
        <ele>89</ele>
        <time>2021-03-05T10:25:46.946Z</time>
      </trkpt>
      <trkpt lat="48.38914" lon="2.54313">
        <ele>89</ele>
        <time>2021-03-05T10:25:51.941Z</time>
      </trkpt>
      <trkpt lat="48.38915" lon="2.54306">
        <ele>89</ele>
        <time>2021-03-05T10:25:55.949Z</time>
      </trkpt>
      <trkpt lat="48.38915" lon="2.54297">
        <ele>89</ele>
        <time>2021-03-05T10:26:00.949Z</time>
      </trkpt>
      <trkpt lat="48.38916" lon="2.54288">
        <ele>88</ele>
        <time>2021-03-05T10:26:05.963Z</time>
      </trkpt>
      <trkpt lat="48.38918" lon="2.5428">
        <ele>88</ele>
        <time>2021-03-05T10:26:10.945Z</time>
      </trkpt>
      <trkpt lat="48.38918" lon="2.54273">
        <ele>88</ele>
        <time>2021-03-05T10:26:14.957Z</time>
      </trkpt>
      <trkpt lat="48.38919" lon="2.54265">
        <ele>88</ele>
        <time>2021-03-05T10:26:18.936Z</time>
      </trkpt>
      <trkpt lat="48.3892" lon="2.54256">
        <ele>87</ele>
        <time>2021-03-05T10:26:23.938Z</time>
      </trkpt>
      <trkpt lat="48.38921" lon="2.54247">
        <ele>87</ele>
        <time>2021-03-05T10:26:28.943Z</time>
      </trkpt>
      <trkpt lat="48.38923" lon="2.54239">
        <ele>87</ele>
        <time>2021-03-05T10:26:32.965Z</time>
      </trkpt>
      <trkpt lat="48.38925" lon="2.54231">
        <ele>88</ele>
        <time>2021-03-05T10:26:37.943Z</time>
      </trkpt>
      <trkpt lat="48.38926" lon="2.54221">
        <ele>88</ele>
        <time>2021-03-05T10:26:42.945Z</time>
      </trkpt>
      <trkpt lat="48.38928" lon="2.54212">
        <ele>88</ele>
        <time>2021-03-05T10:26:47.940Z</time>
      </trkpt>
      <trkpt lat="48.38929" lon="2.54204">
        <ele>89</ele>
        <time>2021-03-05T10:26:51.949Z</time>
      </trkpt>
      <trkpt lat="48.3893" lon="2.54194">
        <ele>89</ele>
        <time>2021-03-05T10:26:56.946Z</time>
      </trkpt>
      <trkpt lat="48.38931" lon="2.54187">
        <ele>87</ele>
        <time>2021-03-05T10:27:00.959Z</time>
      </trkpt>
      <trkpt lat="48.38932" lon="2.54178">
        <ele>89</ele>
        <time>2021-03-05T10:27:05.946Z</time>
      </trkpt>
      <trkpt lat="48.38934" lon="2.54169">
        <ele>89</ele>
        <time>2021-03-05T10:27:10.946Z</time>
      </trkpt>
      <trkpt lat="48.38934" lon="2.5416">
        <ele>89</ele>
        <time>2021-03-05T10:27:15.941Z</time>
      </trkpt>
      <trkpt lat="48.38935" lon="2.5415">
        <ele>90</ele>
        <time>2021-03-05T10:27:20.946Z</time>
      </trkpt>
      <trkpt lat="48.38937" lon="2.54142">
        <ele>90</ele>
        <time>2021-03-05T10:27:25.949Z</time>
      </trkpt>
      <trkpt lat="48.38938" lon="2.54132">
        <ele>90</ele>
        <time>2021-03-05T10:27:30.947Z</time>
      </trkpt>
      <trkpt lat="48.38939" lon="2.54123">
        <ele>91</ele>
        <time>2021-03-05T10:27:35.934Z</time>
      </trkpt>
      <trkpt lat="48.38941" lon="2.54116">
        <ele>91</ele>
        <time>2021-03-05T10:27:39.942Z</time>
      </trkpt>
      <trkpt lat="48.38942" lon="2.54107">
        <ele>91</ele>
        <time>2021-03-05T10:27:44.949Z</time>
      </trkpt>
      <trkpt lat="48.38945" lon="2.54099">
        <ele>91</ele>
        <time>2021-03-05T10:27:49.935Z</time>
      </trkpt>
      <trkpt lat="48.38948" lon="2.54091">
        <ele>92</ele>
        <time>2021-03-05T10:27:54.963Z</time>
      </trkpt>
      <trkpt lat="48.38951" lon="2.54081">
        <ele>92</ele>
        <time>2021-03-05T10:27:59.945Z</time>
      </trkpt>
      <trkpt lat="48.38955" lon="2.54072">
        <ele>92</ele>
        <time>2021-03-05T10:28:04.949Z</time>
      </trkpt>
      <trkpt lat="48.38957" lon="2.54063">
        <ele>93</ele>
        <time>2021-03-05T10:28:09.949Z</time>
      </trkpt>
      <trkpt lat="48.38959" lon="2.54053">
        <ele>90</ele>
        <time>2021-03-05T10:28:14.942Z</time>
      </trkpt>
      <trkpt lat="48.38962" lon="2.54044">
        <ele>90</ele>
        <time>2021-03-05T10:28:19.941Z</time>
      </trkpt>
      <trkpt lat="48.38964" lon="2.54035">
        <ele>91</ele>
        <time>2021-03-05T10:28:24.946Z</time>
      </trkpt>
      <trkpt lat="48.38967" lon="2.54026">
        <ele>91</ele>
        <time>2021-03-05T10:28:29.946Z</time>
      </trkpt>
      <trkpt lat="48.3897" lon="2.5402">
        <ele>91</ele>
        <time>2021-03-05T10:28:34.946Z</time>
      </trkpt>
      <trkpt lat="48.38974" lon="2.54013">
        <ele>92</ele>
        <time>2021-03-05T10:28:39.957Z</time>
      </trkpt>
      <trkpt lat="48.38978" lon="2.54004">
        <ele>92</ele>
        <time>2021-03-05T10:28:44.949Z</time>
      </trkpt>
      <trkpt lat="48.38982" lon="2.53999">
        <ele>92</ele>
        <time>2021-03-05T10:28:48.958Z</time>
      </trkpt>
      <trkpt lat="48.38986" lon="2.53994">
        <ele>91</ele>
        <time>2021-03-05T10:28:53.942Z</time>
      </trkpt>
      <trkpt lat="48.38991" lon="2.53988">
        <ele>91</ele>
        <time>2021-03-05T10:28:58.938Z</time>
      </trkpt>
      <trkpt lat="48.38995" lon="2.53981">
        <ele>91</ele>
        <time>2021-03-05T10:29:03.939Z</time>
      </trkpt>
      <trkpt lat="48.38999" lon="2.53975">
        <ele>91</ele>
        <time>2021-03-05T10:29:08.949Z</time>
      </trkpt>
      <trkpt lat="48.39003" lon="2.53969">
        <ele>91</ele>
        <time>2021-03-05T10:29:13.952Z</time>
      </trkpt>
      <trkpt lat="48.39007" lon="2.53963">
        <ele>91</ele>
        <time>2021-03-05T10:29:18.949Z</time>
      </trkpt>
      <trkpt lat="48.39011" lon="2.53955">
        <ele>91</ele>
        <time>2021-03-05T10:29:23.943Z</time>
      </trkpt>
      <trkpt lat="48.39016" lon="2.53948">
        <ele>92</ele>
        <time>2021-03-05T10:29:28.946Z</time>
      </trkpt>
      <trkpt lat="48.39019" lon="2.53942">
        <ele>92</ele>
        <time>2021-03-05T10:29:33.952Z</time>
      </trkpt>
      <trkpt lat="48.39023" lon="2.53936">
        <ele>92</ele>
        <time>2021-03-05T10:29:37.968Z</time>
      </trkpt>
      <trkpt lat="48.39027" lon="2.53929">
        <ele>94</ele>
        <time>2021-03-05T10:29:42.956Z</time>
      </trkpt>
      <trkpt lat="48.3903" lon="2.53922">
        <ele>94</ele>
        <time>2021-03-05T10:29:47.946Z</time>
      </trkpt>
      <trkpt lat="48.39032" lon="2.53914">
        <ele>94</ele>
        <time>2021-03-05T10:29:52.943Z</time>
      </trkpt>
      <trkpt lat="48.39033" lon="2.53905">
        <ele>94</ele>
        <time>2021-03-05T10:29:57.943Z</time>
      </trkpt>
      <trkpt lat="48.39034" lon="2.53896">
        <ele>95</ele>
        <time>2021-03-05T10:30:02.941Z</time>
      </trkpt>
      <trkpt lat="48.39035" lon="2.53889">
        <ele>95</ele>
        <time>2021-03-05T10:30:06.962Z</time>
      </trkpt>
      <trkpt lat="48.39034" lon="2.5388">
        <ele>95</ele>
        <time>2021-03-05T10:30:11.953Z</time>
      </trkpt>
      <trkpt lat="48.39035" lon="2.53871">
        <ele>98</ele>
        <time>2021-03-05T10:30:16.948Z</time>
      </trkpt>
      <trkpt lat="48.39035" lon="2.53862">
        <ele>98</ele>
        <time>2021-03-05T10:30:21.947Z</time>
      </trkpt>
      <trkpt lat="48.39035" lon="2.53854">
        <ele>98</ele>
        <time>2021-03-05T10:30:26.949Z</time>
      </trkpt>
      <trkpt lat="48.39034" lon="2.53844">
        <ele>100</ele>
        <time>2021-03-05T10:30:31.942Z</time>
      </trkpt>
      <trkpt lat="48.39033" lon="2.53835">
        <ele>100</ele>
        <time>2021-03-05T10:30:36.942Z</time>
      </trkpt>
      <trkpt lat="48.39032" lon="2.53828">
        <ele>100</ele>
        <time>2021-03-05T10:30:40.968Z</time>
      </trkpt>
      <trkpt lat="48.39033" lon="2.5382">
        <ele>100</ele>
        <time>2021-03-05T10:30:45.948Z</time>
      </trkpt>
      <trkpt lat="48.39033" lon="2.53812">
        <ele>101</ele>
        <time>2021-03-05T10:30:50.952Z</time>
      </trkpt>
      <trkpt lat="48.39034" lon="2.53804">
        <ele>101</ele>
        <time>2021-03-05T10:30:55.945Z</time>
      </trkpt>
      <trkpt lat="48.39036" lon="2.53797">
        <ele>101</ele>
        <time>2021-03-05T10:31:00.951Z</time>
      </trkpt>
      <trkpt lat="48.39036" lon="2.5379">
        <ele>104</ele>
        <time>2021-03-05T10:31:05.947Z</time>
      </trkpt>
      <trkpt lat="48.39037" lon="2.53783">
        <ele>104</ele>
        <time>2021-03-05T10:31:10.944Z</time>
      </trkpt>
      <trkpt lat="48.39039" lon="2.53778">
        <ele>104</ele>
        <time>2021-03-05T10:31:14.947Z</time>
      </trkpt>
      <trkpt lat="48.39041" lon="2.53772">
        <ele>104</ele>
        <time>2021-03-05T10:31:19.954Z</time>
      </trkpt>
      <trkpt lat="48.39044" lon="2.53768">
        <ele>102</ele>
        <time>2021-03-05T10:31:24.949Z</time>
      </trkpt>
      <trkpt lat="48.39047" lon="2.53764">
        <ele>105</ele>
        <time>2021-03-05T10:31:28.955Z</time>
      </trkpt>
      <trkpt lat="48.3905" lon="2.53758">
        <ele>105</ele>
        <time>2021-03-05T10:31:33.962Z</time>
      </trkpt>
      <trkpt lat="48.39052" lon="2.53752">
        <ele>105</ele>
        <time>2021-03-05T10:31:38.948Z</time>
      </trkpt>
      <trkpt lat="48.39055" lon="2.5375">
        <ele>105</ele>
        <time>2021-03-05T10:31:42.955Z</time>
      </trkpt>
      <trkpt lat="48.39059" lon="2.53746">
        <ele>105</ele>
        <time>2021-03-05T10:31:47.951Z</time>
      </trkpt>
      <trkpt lat="48.39063" lon="2.53743">
        <ele>105</ele>
        <time>2021-03-05T10:31:52.956Z</time>
      </trkpt>
      <trkpt lat="48.39066" lon="2.5374">
        <ele>105</ele>
        <time>2021-03-05T10:31:57.944Z</time>
      </trkpt>
      <trkpt lat="48.3907" lon="2.53737">
        <ele>108</ele>
        <time>2021-03-05T10:32:02.948Z</time>
      </trkpt>
      <trkpt lat="48.39074" lon="2.53738">
        <ele>108</ele>
        <time>2021-03-05T10:32:07.949Z</time>
      </trkpt>
      <trkpt lat="48.39077" lon="2.53737">
        <ele>108</ele>
        <time>2021-03-05T10:32:12.957Z</time>
      </trkpt>
      <trkpt lat="48.3908" lon="2.53735">
        <ele>110</ele>
        <time>2021-03-05T10:32:17.940Z</time>
      </trkpt>
      <trkpt lat="48.39082" lon="2.53731">
        <ele>110</ele>
        <time>2021-03-05T10:32:22.943Z</time>
      </trkpt>
      <trkpt lat="48.39086" lon="2.5373">
        <ele>110</ele>
        <time>2021-03-05T10:32:27.945Z</time>
      </trkpt>
      <trkpt lat="48.39088" lon="2.53725">
        <ele>110</ele>
        <time>2021-03-05T10:32:32.941Z</time>
      </trkpt>
      <trkpt lat="48.39091" lon="2.53719">
        <ele>110</ele>
        <time>2021-03-05T10:32:37.941Z</time>
      </trkpt>
      <trkpt lat="48.39093" lon="2.53711">
        <ele>110</ele>
        <time>2021-03-05T10:32:42.940Z</time>
      </trkpt>
      <trkpt lat="48.39094" lon="2.53706">
        <ele>113</ele>
        <time>2021-03-05T10:32:46.951Z</time>
      </trkpt>
      <trkpt lat="48.39097" lon="2.53699">
        <ele>113</ele>
        <time>2021-03-05T10:32:51.947Z</time>
      </trkpt>
      <trkpt lat="48.39099" lon="2.53692">
        <ele>113</ele>
        <time>2021-03-05T10:32:56.941Z</time>
      </trkpt>
      <trkpt lat="48.39103" lon="2.53686">
        <ele>113</ele>
        <time>2021-03-05T10:33:01.942Z</time>
      </trkpt>
      <trkpt lat="48.39105" lon="2.53681">
        <ele>113</ele>
        <time>2021-03-05T10:33:05.953Z</time>
      </trkpt>
      <trkpt lat="48.39109" lon="2.53675">
        <ele>114</ele>
        <time>2021-03-05T10:33:10.948Z</time>
      </trkpt>
      <trkpt lat="48.39111" lon="2.53667">
        <ele>114</ele>
        <time>2021-03-05T10:33:15.942Z</time>
      </trkpt>
      <trkpt lat="48.39113" lon="2.53659">
        <ele>114</ele>
        <time>2021-03-05T10:33:20.941Z</time>
      </trkpt>
      <trkpt lat="48.39116" lon="2.53651">
        <ele>115</ele>
        <time>2021-03-05T10:33:25.947Z</time>
      </trkpt>
      <trkpt lat="48.39118" lon="2.53645">
        <ele>115</ele>
        <time>2021-03-05T10:33:30.958Z</time>
      </trkpt>
      <trkpt lat="48.39121" lon="2.53637">
        <ele>115</ele>
        <time>2021-03-05T10:33:35.947Z</time>
      </trkpt>
      <trkpt lat="48.39123" lon="2.53629">
        <ele>115</ele>
        <time>2021-03-05T10:33:40.947Z</time>
      </trkpt>
      <trkpt lat="48.39126" lon="2.53623">
        <ele>116</ele>
        <time>2021-03-05T10:33:44.993Z</time>
      </trkpt>
      <trkpt lat="48.39128" lon="2.53615">
        <ele>116</ele>
        <time>2021-03-05T10:33:49.933Z</time>
      </trkpt>
      <trkpt lat="48.39131" lon="2.53609">
        <ele>116</ele>
        <time>2021-03-05T10:33:53.962Z</time>
      </trkpt>
      <trkpt lat="48.39133" lon="2.53602">
        <ele>116</ele>
        <time>2021-03-05T10:33:58.946Z</time>
      </trkpt>
      <trkpt lat="48.39135" lon="2.53595">
        <ele>116</ele>
        <time>2021-03-05T10:34:03.943Z</time>
      </trkpt>
      <trkpt lat="48.39138" lon="2.53588">
        <ele>116</ele>
        <time>2021-03-05T10:34:08.940Z</time>
      </trkpt>
      <trkpt lat="48.39141" lon="2.53581">
        <ele>116</ele>
        <time>2021-03-05T10:34:13.947Z</time>
      </trkpt>
      <trkpt lat="48.39143" lon="2.53576">
        <ele>116</ele>
        <time>2021-03-05T10:34:17.947Z</time>
      </trkpt>
      <trkpt lat="48.39146" lon="2.53568">
        <ele>117</ele>
        <time>2021-03-05T10:34:22.946Z</time>
      </trkpt>
      <trkpt lat="48.39149" lon="2.53563">
        <ele>117</ele>
        <time>2021-03-05T10:34:26.951Z</time>
      </trkpt>
      <trkpt lat="48.39153" lon="2.53557">
        <ele>117</ele>
        <time>2021-03-05T10:34:31.948Z</time>
      </trkpt>
      <trkpt lat="48.39157" lon="2.5355">
        <ele>117</ele>
        <time>2021-03-05T10:34:36.960Z</time>
      </trkpt>
      <trkpt lat="48.39158" lon="2.5354">
        <ele>118</ele>
        <time>2021-03-05T10:34:41.922Z</time>
      </trkpt>
      <trkpt lat="48.3916" lon="2.53534">
        <ele>118</ele>
        <time>2021-03-05T10:34:45.927Z</time>
      </trkpt>
      <trkpt lat="48.39161" lon="2.53528">
        <ele>118</ele>
        <time>2021-03-05T10:34:50.019Z</time>
      </trkpt>
      <trkpt lat="48.39163" lon="2.5352">
        <ele>118</ele>
        <time>2021-03-05T10:34:54.946Z</time>
      </trkpt>
      <trkpt lat="48.39163" lon="2.53511">
        <ele>119</ele>
        <time>2021-03-05T10:34:59.957Z</time>
      </trkpt>
      <trkpt lat="48.39165" lon="2.53505">
        <ele>119</ele>
        <time>2021-03-05T10:35:03.970Z</time>
      </trkpt>
      <trkpt lat="48.39168" lon="2.53498">
        <ele>119</ele>
        <time>2021-03-05T10:35:08.947Z</time>
      </trkpt>
      <trkpt lat="48.3917" lon="2.53492">
        <ele>119</ele>
        <time>2021-03-05T10:35:12.966Z</time>
      </trkpt>
      <trkpt lat="48.39174" lon="2.53487">
        <ele>119</ele>
        <time>2021-03-05T10:35:17.954Z</time>
      </trkpt>
      <trkpt lat="48.39179" lon="2.5348">
        <ele>120</ele>
        <time>2021-03-05T10:35:22.942Z</time>
      </trkpt>
      <trkpt lat="48.3918" lon="2.53473">
        <ele>120</ele>
        <time>2021-03-05T10:35:26.952Z</time>
      </trkpt>
      <trkpt lat="48.39182" lon="2.53464">
        <ele>120</ele>
        <time>2021-03-05T10:35:31.948Z</time>
      </trkpt>
      <trkpt lat="48.39184" lon="2.53455">
        <ele>120</ele>
        <time>2021-03-05T10:35:36.947Z</time>
      </trkpt>
      <trkpt lat="48.39186" lon="2.53446">
        <ele>120</ele>
        <time>2021-03-05T10:35:41.941Z</time>
      </trkpt>
      <trkpt lat="48.39186" lon="2.53441">
        <ele>120</ele>
        <time>2021-03-05T10:35:45.969Z</time>
      </trkpt>
      <trkpt lat="48.39184" lon="2.53438">
        <ele>120</ele>
        <time>2021-03-05T10:35:50.948Z</time>
      </trkpt>
      <trkpt lat="48.39181" lon="2.53434">
        <ele>120</ele>
        <time>2021-03-05T10:35:55.956Z</time>
      </trkpt>
      <trkpt lat="48.39178" lon="2.5343">
        <ele>121</ele>
        <time>2021-03-05T10:36:00.951Z</time>
      </trkpt>
      <trkpt lat="48.39175" lon="2.53428">
        <ele>121</ele>
        <time>2021-03-05T10:36:04.968Z</time>
      </trkpt>
      <trkpt lat="48.39172" lon="2.53443">
        <ele>121</ele>
        <time>2021-03-05T10:36:28.936Z</time>
      </trkpt>
      <trkpt lat="48.39176" lon="2.53449">
        <ele>121</ele>
        <time>2021-03-05T10:36:32.949Z</time>
      </trkpt>
      <trkpt lat="48.3917" lon="2.53456">
        <ele>121</ele>
        <time>2021-03-05T10:36:37.943Z</time>
      </trkpt>
      <trkpt lat="48.39164" lon="2.53461">
        <ele>120</ele>
        <time>2021-03-05T10:36:42.966Z</time>
      </trkpt>
      <trkpt lat="48.39159" lon="2.53466">
        <ele>120</ele>
        <time>2021-03-05T10:36:47.951Z</time>
      </trkpt>
      <trkpt lat="48.39154" lon="2.53471">
        <ele>120</ele>
        <time>2021-03-05T10:36:52.936Z</time>
      </trkpt>
      <trkpt lat="48.39151" lon="2.53476">
        <ele>121</ele>
        <time>2021-03-05T10:36:56.947Z</time>
      </trkpt>
      <trkpt lat="48.39149" lon="2.53481">
        <ele>121</ele>
        <time>2021-03-05T10:37:00.952Z</time>
      </trkpt>
      <trkpt lat="48.39146" lon="2.53489">
        <ele>120</ele>
        <time>2021-03-05T10:37:05.951Z</time>
      </trkpt>
      <trkpt lat="48.39145" lon="2.53496">
        <ele>120</ele>
        <time>2021-03-05T10:37:09.955Z</time>
      </trkpt>
      <trkpt lat="48.39143" lon="2.53503">
        <ele>120</ele>
        <time>2021-03-05T10:37:14.950Z</time>
      </trkpt>
      <trkpt lat="48.39139" lon="2.53509">
        <ele>120</ele>
        <time>2021-03-05T10:37:19.949Z</time>
      </trkpt>
      <trkpt lat="48.39136" lon="2.53516">
        <ele>118</ele>
        <time>2021-03-05T10:37:24.945Z</time>
      </trkpt>
      <trkpt lat="48.39131" lon="2.53521">
        <ele>118</ele>
        <time>2021-03-05T10:37:29.942Z</time>
      </trkpt>
      <trkpt lat="48.39127" lon="2.53525">
        <ele>118</ele>
        <time>2021-03-05T10:37:33.951Z</time>
      </trkpt>
      <trkpt lat="48.39123" lon="2.53531">
        <ele>121</ele>
        <time>2021-03-05T10:37:38.941Z</time>
      </trkpt>
      <trkpt lat="48.39119" lon="2.53537">
        <ele>121</ele>
        <time>2021-03-05T10:37:43.951Z</time>
      </trkpt>
      <trkpt lat="48.39116" lon="2.53541">
        <ele>121</ele>
        <time>2021-03-05T10:37:47.964Z</time>
      </trkpt>
      <trkpt lat="48.39112" lon="2.53547">
        <ele>120</ele>
        <time>2021-03-05T10:37:52.947Z</time>
      </trkpt>
      <trkpt lat="48.39108" lon="2.53553">
        <ele>120</ele>
        <time>2021-03-05T10:37:56.952Z</time>
      </trkpt>
      <trkpt lat="48.39104" lon="2.53559">
        <ele>120</ele>
        <time>2021-03-05T10:38:01.953Z</time>
      </trkpt>
      <trkpt lat="48.391" lon="2.53564">
        <ele>120</ele>
        <time>2021-03-05T10:38:05.969Z</time>
      </trkpt>
      <trkpt lat="48.39096" lon="2.53568">
        <ele>121</ele>
        <time>2021-03-05T10:38:10.951Z</time>
      </trkpt>
      <trkpt lat="48.39091" lon="2.53573">
        <ele>120</ele>
        <time>2021-03-05T10:38:15.956Z</time>
      </trkpt>
      <trkpt lat="48.39086" lon="2.53574">
        <ele>120</ele>
        <time>2021-03-05T10:38:20.953Z</time>
      </trkpt>
      <trkpt lat="48.3908" lon="2.53577">
        <ele>120</ele>
        <time>2021-03-05T10:38:25.954Z</time>
      </trkpt>
      <trkpt lat="48.39074" lon="2.53579">
        <ele>120</ele>
        <time>2021-03-05T10:38:30.948Z</time>
      </trkpt>
      <trkpt lat="48.39069" lon="2.53583">
        <ele>120</ele>
        <time>2021-03-05T10:38:34.952Z</time>
      </trkpt>
      <trkpt lat="48.39063" lon="2.5359">
        <ele>120</ele>
        <time>2021-03-05T10:38:39.953Z</time>
      </trkpt>
      <trkpt lat="48.39058" lon="2.53597">
        <ele>120</ele>
        <time>2021-03-05T10:38:44.964Z</time>
      </trkpt>
      <trkpt lat="48.39054" lon="2.53604">
        <ele>120</ele>
        <time>2021-03-05T10:38:49.936Z</time>
      </trkpt>
      <trkpt lat="48.39051" lon="2.53609">
        <ele>120</ele>
        <time>2021-03-05T10:38:53.949Z</time>
      </trkpt>
      <trkpt lat="48.39048" lon="2.53615">
        <ele>120</ele>
        <time>2021-03-05T10:38:57.952Z</time>
      </trkpt>
      <trkpt lat="48.39044" lon="2.53621">
        <ele>120</ele>
        <time>2021-03-05T10:39:02.947Z</time>
      </trkpt>
      <trkpt lat="48.3904" lon="2.53625">
        <ele>121</ele>
        <time>2021-03-05T10:39:07.959Z</time>
      </trkpt>
      <trkpt lat="48.39035" lon="2.53631">
        <ele>121</ele>
        <time>2021-03-05T10:39:12.942Z</time>
      </trkpt>
      <trkpt lat="48.39032" lon="2.53635">
        <ele>121</ele>
        <time>2021-03-05T10:39:16.955Z</time>
      </trkpt>
      <trkpt lat="48.39027" lon="2.53643">
        <ele>121</ele>
        <time>2021-03-05T10:39:20.973Z</time>
      </trkpt>
      <trkpt lat="48.39022" lon="2.53647">
        <ele>121</ele>
        <time>2021-03-05T10:39:25.951Z</time>
      </trkpt>
      <trkpt lat="48.39015" lon="2.53652">
        <ele>121</ele>
        <time>2021-03-05T10:39:30.956Z</time>
      </trkpt>
      <trkpt lat="48.39008" lon="2.53654">
        <ele>123</ele>
        <time>2021-03-05T10:39:35.955Z</time>
      </trkpt>
      <trkpt lat="48.39003" lon="2.53655">
        <ele>123</ele>
        <time>2021-03-05T10:39:40.942Z</time>
      </trkpt>
      <trkpt lat="48.38997" lon="2.53657">
        <ele>123</ele>
        <time>2021-03-05T10:39:45.960Z</time>
      </trkpt>
      <trkpt lat="48.38992" lon="2.53661">
        <ele>123</ele>
        <time>2021-03-05T10:39:50.952Z</time>
      </trkpt>
      <trkpt lat="48.38986" lon="2.53665">
        <ele>125</ele>
        <time>2021-03-05T10:39:55.951Z</time>
      </trkpt>
      <trkpt lat="48.3898" lon="2.53668">
        <ele>125</ele>
        <time>2021-03-05T10:40:00.952Z</time>
      </trkpt>
      <trkpt lat="48.38975" lon="2.53669">
        <ele>125</ele>
        <time>2021-03-05T10:40:05.961Z</time>
      </trkpt>
      <trkpt lat="48.38969" lon="2.5367">
        <ele>125</ele>
        <time>2021-03-05T10:40:10.976Z</time>
      </trkpt>
      <trkpt lat="48.38964" lon="2.53674">
        <ele>125</ele>
        <time>2021-03-05T10:40:15.947Z</time>
      </trkpt>
      <trkpt lat="48.3896" lon="2.53681">
        <ele>125</ele>
        <time>2021-03-05T10:40:19.955Z</time>
      </trkpt>
      <trkpt lat="48.38956" lon="2.53688">
        <ele>125</ele>
        <time>2021-03-05T10:40:24.954Z</time>
      </trkpt>
      <trkpt lat="48.38953" lon="2.53695">
        <ele>125</ele>
        <time>2021-03-05T10:40:29.933Z</time>
      </trkpt>
      <trkpt lat="48.3895" lon="2.53701">
        <ele>125</ele>
        <time>2021-03-05T10:40:33.942Z</time>
      </trkpt>
      <trkpt lat="48.38946" lon="2.53707">
        <ele>125</ele>
        <time>2021-03-05T10:40:38.933Z</time>
      </trkpt>
      <trkpt lat="48.38941" lon="2.53711">
        <ele>123</ele>
        <time>2021-03-05T10:40:42.942Z</time>
      </trkpt>
      <trkpt lat="48.38937" lon="2.53715">
        <ele>123</ele>
        <time>2021-03-05T10:40:47.946Z</time>
      </trkpt>
      <trkpt lat="48.38931" lon="2.53719">
        <ele>123</ele>
        <time>2021-03-05T10:40:52.942Z</time>
      </trkpt>
      <trkpt lat="48.38927" lon="2.53726">
        <ele>124</ele>
        <time>2021-03-05T10:40:56.947Z</time>
      </trkpt>
      <trkpt lat="48.38922" lon="2.53737">
        <ele>124</ele>
        <time>2021-03-05T10:41:01.946Z</time>
      </trkpt>
      <trkpt lat="48.38917" lon="2.53744">
        <ele>124</ele>
        <time>2021-03-05T10:41:06.950Z</time>
      </trkpt>
      <trkpt lat="48.38913" lon="2.53748">
        <ele>124</ele>
        <time>2021-03-05T10:41:10.970Z</time>
      </trkpt>
      <trkpt lat="48.38909" lon="2.53755">
        <ele>124</ele>
        <time>2021-03-05T10:41:15.956Z</time>
      </trkpt>
      <trkpt lat="48.38905" lon="2.53763">
        <ele>124</ele>
        <time>2021-03-05T10:41:20.951Z</time>
      </trkpt>
      <trkpt lat="48.38902" lon="2.5377">
        <ele>123</ele>
        <time>2021-03-05T10:41:25.954Z</time>
      </trkpt>
      <trkpt lat="48.38899" lon="2.53778">
        <ele>123</ele>
        <time>2021-03-05T10:41:30.957Z</time>
      </trkpt>
      <trkpt lat="48.38896" lon="2.53786">
        <ele>123</ele>
        <time>2021-03-05T10:41:35.967Z</time>
      </trkpt>
      <trkpt lat="48.38895" lon="2.53795">
        <ele>122</ele>
        <time>2021-03-05T10:41:40.942Z</time>
      </trkpt>
      <trkpt lat="48.38894" lon="2.53801">
        <ele>122</ele>
        <time>2021-03-05T10:41:44.962Z</time>
      </trkpt>
      <trkpt lat="48.38895" lon="2.53812">
        <ele>122</ele>
        <time>2021-03-05T10:41:49.959Z</time>
      </trkpt>
      <trkpt lat="48.38897" lon="2.53821">
        <ele>121</ele>
        <time>2021-03-05T10:41:54.950Z</time>
      </trkpt>
      <trkpt lat="48.38898" lon="2.53828">
        <ele>121</ele>
        <time>2021-03-05T10:41:59.069Z</time>
      </trkpt>
      <trkpt lat="48.38899" lon="2.53839">
        <ele>121</ele>
        <time>2021-03-05T10:42:03.959Z</time>
      </trkpt>
      <trkpt lat="48.38898" lon="2.53847">
        <ele>122</ele>
        <time>2021-03-05T10:42:08.960Z</time>
      </trkpt>
      <trkpt lat="48.38895" lon="2.53855">
        <ele>122</ele>
        <time>2021-03-05T10:42:13.950Z</time>
      </trkpt>
      <trkpt lat="48.38891" lon="2.53861">
        <ele>122</ele>
        <time>2021-03-05T10:42:18.951Z</time>
      </trkpt>
      <trkpt lat="48.38889" lon="2.53869">
        <ele>122</ele>
        <time>2021-03-05T10:42:23.962Z</time>
      </trkpt>
      <trkpt lat="48.38887" lon="2.53877">
        <ele>122</ele>
        <time>2021-03-05T10:42:28.949Z</time>
      </trkpt>
      <trkpt lat="48.38886" lon="2.53885">
        <ele>122</ele>
        <time>2021-03-05T10:42:33.972Z</time>
      </trkpt>
      <trkpt lat="48.38885" lon="2.53893">
        <ele>122</ele>
        <time>2021-03-05T10:42:38.952Z</time>
      </trkpt>
      <trkpt lat="48.38885" lon="2.53902">
        <ele>122</ele>
        <time>2021-03-05T10:42:43.948Z</time>
      </trkpt>
      <trkpt lat="48.38883" lon="2.53908">
        <ele>120</ele>
        <time>2021-03-05T10:42:47.970Z</time>
      </trkpt>
      <trkpt lat="48.38881" lon="2.53915">
        <ele>120</ele>
        <time>2021-03-05T10:42:52.941Z</time>
      </trkpt>
      <trkpt lat="48.38878" lon="2.53922">
        <ele>120</ele>
        <time>2021-03-05T10:42:57.948Z</time>
      </trkpt>
      <trkpt lat="48.38873" lon="2.53926">
        <ele>122</ele>
        <time>2021-03-05T10:43:02.945Z</time>
      </trkpt>
      <trkpt lat="48.38869" lon="2.5393">
        <ele>122</ele>
        <time>2021-03-05T10:43:07.967Z</time>
      </trkpt>
      <trkpt lat="48.38864" lon="2.53934">
        <ele>120</ele>
        <time>2021-03-05T10:43:12.951Z</time>
      </trkpt>
      <trkpt lat="48.3886" lon="2.53941">
        <ele>120</ele>
        <time>2021-03-05T10:43:17.947Z</time>
      </trkpt>
      <trkpt lat="48.38856" lon="2.53947">
        <ele>120</ele>
        <time>2021-03-05T10:43:22.942Z</time>
      </trkpt>
      <trkpt lat="48.38853" lon="2.53954">
        <ele>120</ele>
        <time>2021-03-05T10:43:27.935Z</time>
      </trkpt>
      <trkpt lat="48.3885" lon="2.53961">
        <ele>119</ele>
        <time>2021-03-05T10:43:31.938Z</time>
      </trkpt>
      <trkpt lat="48.38847" lon="2.53968">
        <ele>121</ele>
        <time>2021-03-05T10:43:36.961Z</time>
      </trkpt>
      <trkpt lat="48.38844" lon="2.53975">
        <ele>121</ele>
        <time>2021-03-05T10:43:41.947Z</time>
      </trkpt>
      <trkpt lat="48.38841" lon="2.53983">
        <ele>121</ele>
        <time>2021-03-05T10:43:45.955Z</time>
      </trkpt>
      <trkpt lat="48.38839" lon="2.53989">
        <ele>121</ele>
        <time>2021-03-05T10:43:50.953Z</time>
      </trkpt>
      <trkpt lat="48.38834" lon="2.53999">
        <ele>121</ele>
        <time>2021-03-05T10:43:55.951Z</time>
      </trkpt>
      <trkpt lat="48.38832" lon="2.54006">
        <ele>121</ele>
        <time>2021-03-05T10:44:00.951Z</time>
      </trkpt>
      <trkpt lat="48.3883" lon="2.54014">
        <ele>121</ele>
        <time>2021-03-05T10:44:04.963Z</time>
      </trkpt>
      <trkpt lat="48.38827" lon="2.54024">
        <ele>121</ele>
        <time>2021-03-05T10:44:09.949Z</time>
      </trkpt>
      <trkpt lat="48.38826" lon="2.5403">
        <ele>121</ele>
        <time>2021-03-05T10:44:13.952Z</time>
      </trkpt>
      <trkpt lat="48.38824" lon="2.54038">
        <ele>121</ele>
        <time>2021-03-05T10:44:18.955Z</time>
      </trkpt>
      <trkpt lat="48.38821" lon="2.54045">
        <ele>121</ele>
        <time>2021-03-05T10:44:23.951Z</time>
      </trkpt>
      <trkpt lat="48.38818" lon="2.54053">
        <ele>120</ele>
        <time>2021-03-05T10:44:28.945Z</time>
      </trkpt>
      <trkpt lat="48.38816" lon="2.5406">
        <ele>120</ele>
        <time>2021-03-05T10:44:32.963Z</time>
      </trkpt>
      <trkpt lat="48.38815" lon="2.54069">
        <ele>120</ele>
        <time>2021-03-05T10:44:37.959Z</time>
      </trkpt>
      <trkpt lat="48.38813" lon="2.54079">
        <ele>120</ele>
        <time>2021-03-05T10:44:42.936Z</time>
      </trkpt>
      <trkpt lat="48.38812" lon="2.54088">
        <ele>120</ele>
        <time>2021-03-05T10:44:46.958Z</time>
      </trkpt>
      <trkpt lat="48.38811" lon="2.54095">
        <ele>120</ele>
        <time>2021-03-05T10:44:50.971Z</time>
      </trkpt>
      <trkpt lat="48.3881" lon="2.54102">
        <ele>119</ele>
        <time>2021-03-05T10:44:55.946Z</time>
      </trkpt>
      <trkpt lat="48.38808" lon="2.54107">
        <ele>119</ele>
        <time>2021-03-05T10:44:59.945Z</time>
      </trkpt>
      <trkpt lat="48.38806" lon="2.5412">
        <ele>119</ele>
        <time>2021-03-05T10:45:04.956Z</time>
      </trkpt>
      <trkpt lat="48.38805" lon="2.54127">
        <ele>120</ele>
        <time>2021-03-05T10:45:09.944Z</time>
      </trkpt>
      <trkpt lat="48.38804" lon="2.54133">
        <ele>120</ele>
        <time>2021-03-05T10:45:13.952Z</time>
      </trkpt>
      <trkpt lat="48.38804" lon="2.5414">
        <ele>120</ele>
        <time>2021-03-05T10:45:18.951Z</time>
      </trkpt>
      <trkpt lat="48.38803" lon="2.54147">
        <ele>120</ele>
        <time>2021-03-05T10:45:22.961Z</time>
      </trkpt>
      <trkpt lat="48.38802" lon="2.54155">
        <ele>118</ele>
        <time>2021-03-05T10:45:27.951Z</time>
      </trkpt>
      <trkpt lat="48.38802" lon="2.54164">
        <ele>118</ele>
        <time>2021-03-05T10:45:32.968Z</time>
      </trkpt>
      <trkpt lat="48.38801" lon="2.54173">
        <ele>118</ele>
        <time>2021-03-05T10:45:37.945Z</time>
      </trkpt>
      <trkpt lat="48.388" lon="2.54181">
        <ele>118</ele>
        <time>2021-03-05T10:45:42.948Z</time>
      </trkpt>
      <trkpt lat="48.38798" lon="2.54187">
        <ele>118</ele>
        <time>2021-03-05T10:45:46.955Z</time>
      </trkpt>
      <trkpt lat="48.38795" lon="2.54192">
        <ele>118</ele>
        <time>2021-03-05T10:45:50.964Z</time>
      </trkpt>
      <trkpt lat="48.38789" lon="2.54196">
        <ele>118</ele>
        <time>2021-03-05T10:45:55.938Z</time>
      </trkpt>
      <trkpt lat="48.38784" lon="2.54197">
        <ele>118</ele>
        <time>2021-03-05T10:45:59.947Z</time>
      </trkpt>
      <trkpt lat="48.38778" lon="2.54195">
        <ele>118</ele>
        <time>2021-03-05T10:46:04.948Z</time>
      </trkpt>
      <trkpt lat="48.38772" lon="2.54196">
        <ele>118</ele>
        <time>2021-03-05T10:46:09.953Z</time>
      </trkpt>
      <trkpt lat="48.38767" lon="2.54201">
        <ele>118</ele>
        <time>2021-03-05T10:46:14.949Z</time>
      </trkpt>
      <trkpt lat="48.38764" lon="2.54208">
        <ele>118</ele>
        <time>2021-03-05T10:46:19.953Z</time>
      </trkpt>
      <trkpt lat="48.38764" lon="2.54215">
        <ele>118</ele>
        <time>2021-03-05T10:46:24.948Z</time>
      </trkpt>
      <trkpt lat="48.38764" lon="2.54222">
        <ele>118</ele>
        <time>2021-03-05T10:46:29.942Z</time>
      </trkpt>
      <trkpt lat="48.38765" lon="2.54229">
        <ele>118</ele>
        <time>2021-03-05T10:46:33.949Z</time>
      </trkpt>
      <trkpt lat="48.38765" lon="2.54238">
        <ele>117</ele>
        <time>2021-03-05T10:46:38.958Z</time>
      </trkpt>
      <trkpt lat="48.38764" lon="2.54247">
        <ele>119</ele>
        <time>2021-03-05T10:46:43.942Z</time>
      </trkpt>
      <trkpt lat="48.38762" lon="2.54252">
        <ele>119</ele>
        <time>2021-03-05T10:46:47.953Z</time>
      </trkpt>
      <trkpt lat="48.3876" lon="2.54261">
        <ele>119</ele>
        <time>2021-03-05T10:46:52.948Z</time>
      </trkpt>
      <trkpt lat="48.38758" lon="2.54268">
        <ele>119</ele>
        <time>2021-03-05T10:46:56.955Z</time>
      </trkpt>
      <trkpt lat="48.38755" lon="2.54274">
        <ele>119</ele>
        <time>2021-03-05T10:47:01.940Z</time>
      </trkpt>
      <trkpt lat="48.3875" lon="2.5428">
        <ele>119</ele>
        <time>2021-03-05T10:47:06.938Z</time>
      </trkpt>
      <trkpt lat="48.38746" lon="2.54286">
        <ele>119</ele>
        <time>2021-03-05T10:47:10.950Z</time>
      </trkpt>
      <trkpt lat="48.38742" lon="2.54292">
        <ele>119</ele>
        <time>2021-03-05T10:47:15.950Z</time>
      </trkpt>
      <trkpt lat="48.38737" lon="2.54299">
        <ele>119</ele>
        <time>2021-03-05T10:47:20.951Z</time>
      </trkpt>
      <trkpt lat="48.38732" lon="2.54305">
        <ele>118</ele>
        <time>2021-03-05T10:47:25.949Z</time>
      </trkpt>
      <trkpt lat="48.38725" lon="2.54314">
        <ele>118</ele>
        <time>2021-03-05T10:47:30.942Z</time>
      </trkpt>
      <trkpt lat="48.38719" lon="2.54317">
        <ele>118</ele>
        <time>2021-03-05T10:47:35.949Z</time>
      </trkpt>
      <trkpt lat="48.38713" lon="2.54324">
        <ele>117</ele>
        <time>2021-03-05T10:47:40.965Z</time>
      </trkpt>
      <trkpt lat="48.38708" lon="2.54331">
        <ele>117</ele>
        <time>2021-03-05T10:47:45.947Z</time>
      </trkpt>
      <trkpt lat="48.38703" lon="2.54335">
        <ele>117</ele>
        <time>2021-03-05T10:47:50.935Z</time>
      </trkpt>
      <trkpt lat="48.38698" lon="2.54342">
        <ele>117</ele>
        <time>2021-03-05T10:47:55.953Z</time>
      </trkpt>
      <trkpt lat="48.38693" lon="2.54351">
        <ele>117</ele>
        <time>2021-03-05T10:48:00.936Z</time>
      </trkpt>
      <trkpt lat="48.3869" lon="2.54357">
        <ele>117</ele>
        <time>2021-03-05T10:48:05.944Z</time>
      </trkpt>
      <trkpt lat="48.38687" lon="2.54366">
        <ele>117</ele>
        <time>2021-03-05T10:48:10.959Z</time>
      </trkpt>
      <trkpt lat="48.38684" lon="2.54375">
        <ele>117</ele>
        <time>2021-03-05T10:48:15.948Z</time>
      </trkpt>
      <trkpt lat="48.3868" lon="2.54382">
        <ele>117</ele>
        <time>2021-03-05T10:48:20.948Z</time>
      </trkpt>
      <trkpt lat="48.38675" lon="2.54384">
        <ele>117</ele>
        <time>2021-03-05T10:48:25.946Z</time>
      </trkpt>
      <trkpt lat="48.3867" lon="2.54385">
        <ele>117</ele>
        <time>2021-03-05T10:48:30.949Z</time>
      </trkpt>
      <trkpt lat="48.38665" lon="2.54381">
        <ele>117</ele>
        <time>2021-03-05T10:48:35.949Z</time>
      </trkpt>
      <trkpt lat="48.38665" lon="2.54373">
        <ele>117</ele>
        <time>2021-03-05T10:48:40.957Z</time>
      </trkpt>
      <trkpt lat="48.38667" lon="2.54365">
        <ele>117</ele>
        <time>2021-03-05T10:48:45.965Z</time>
      </trkpt>
      <trkpt lat="48.38669" lon="2.54357">
        <ele>117</ele>
        <time>2021-03-05T10:48:50.933Z</time>
      </trkpt>
      <trkpt lat="48.3867" lon="2.54351">
        <ele>117</ele>
        <time>2021-03-05T10:48:54.935Z</time>
      </trkpt>
      <trkpt lat="48.38671" lon="2.54344">
        <ele>117</ele>
        <time>2021-03-05T10:48:58.952Z</time>
      </trkpt>
      <trkpt lat="48.38673" lon="2.54336">
        <ele>117</ele>
        <time>2021-03-05T10:49:03.955Z</time>
      </trkpt>
      <trkpt lat="48.38674" lon="2.54328">
        <ele>117</ele>
        <time>2021-03-05T10:49:08.945Z</time>
      </trkpt>
      <trkpt lat="48.38674" lon="2.54322">
        <ele>117</ele>
        <time>2021-03-05T10:49:12.947Z</time>
      </trkpt>
      <trkpt lat="48.38675" lon="2.54314">
        <ele>118</ele>
        <time>2021-03-05T10:49:16.950Z</time>
      </trkpt>
      <trkpt lat="48.38675" lon="2.54306">
        <ele>118</ele>
        <time>2021-03-05T10:49:21.940Z</time>
      </trkpt>
      <trkpt lat="48.38676" lon="2.54299">
        <ele>118</ele>
        <time>2021-03-05T10:49:25.937Z</time>
      </trkpt>
      <trkpt lat="48.38677" lon="2.54291">
        <ele>118</ele>
        <time>2021-03-05T10:49:30.946Z</time>
      </trkpt>
      <trkpt lat="48.38678" lon="2.54282">
        <ele>118</ele>
        <time>2021-03-05T10:49:35.945Z</time>
      </trkpt>
      <trkpt lat="48.38679" lon="2.54273">
        <ele>118</ele>
        <time>2021-03-05T10:49:40.947Z</time>
      </trkpt>
      <trkpt lat="48.3868" lon="2.54266">
        <ele>118</ele>
        <time>2021-03-05T10:49:44.959Z</time>
      </trkpt>
      <trkpt lat="48.38681" lon="2.54257">
        <ele>118</ele>
        <time>2021-03-05T10:49:49.944Z</time>
      </trkpt>
      <trkpt lat="48.38682" lon="2.54248">
        <ele>118</ele>
        <time>2021-03-05T10:49:54.933Z</time>
      </trkpt>
      <trkpt lat="48.38683" lon="2.5424">
        <ele>118</ele>
        <time>2021-03-05T10:49:59.933Z</time>
      </trkpt>
      <trkpt lat="48.38685" lon="2.54233">
        <ele>118</ele>
        <time>2021-03-05T10:50:03.941Z</time>
      </trkpt>
      <trkpt lat="48.38686" lon="2.54226">
        <ele>118</ele>
        <time>2021-03-05T10:50:07.948Z</time>
      </trkpt>
      <trkpt lat="48.38688" lon="2.54216">
        <ele>118</ele>
        <time>2021-03-05T10:50:12.953Z</time>
      </trkpt>
      <trkpt lat="48.3869" lon="2.54207">
        <ele>117</ele>
        <time>2021-03-05T10:50:17.936Z</time>
      </trkpt>
      <trkpt lat="48.38691" lon="2.54199">
        <ele>117</ele>
        <time>2021-03-05T10:50:21.941Z</time>
      </trkpt>
      <trkpt lat="48.38691" lon="2.54192">
        <ele>117</ele>
        <time>2021-03-05T10:50:25.948Z</time>
      </trkpt>
      <trkpt lat="48.38691" lon="2.54182">
        <ele>117</ele>
        <time>2021-03-05T10:50:30.930Z</time>
      </trkpt>
      <trkpt lat="48.38692" lon="2.54173">
        <ele>117</ele>
        <time>2021-03-05T10:50:35.939Z</time>
      </trkpt>
      <trkpt lat="48.38692" lon="2.54163">
        <ele>117</ele>
        <time>2021-03-05T10:50:40.947Z</time>
      </trkpt>
      <trkpt lat="48.38693" lon="2.54154">
        <ele>117</ele>
        <time>2021-03-05T10:50:45.938Z</time>
      </trkpt>
      <trkpt lat="48.38693" lon="2.54146">
        <ele>117</ele>
        <time>2021-03-05T10:50:50.939Z</time>
      </trkpt>
      <trkpt lat="48.38694" lon="2.54137">
        <ele>117</ele>
        <time>2021-03-05T10:50:55.939Z</time>
      </trkpt>
      <trkpt lat="48.38695" lon="2.54128">
        <ele>117</ele>
        <time>2021-03-05T10:51:00.939Z</time>
      </trkpt>
      <trkpt lat="48.38696" lon="2.5412">
        <ele>118</ele>
        <time>2021-03-05T10:51:05.945Z</time>
      </trkpt>
      <trkpt lat="48.38698" lon="2.54111">
        <ele>118</ele>
        <time>2021-03-05T10:51:10.948Z</time>
      </trkpt>
      <trkpt lat="48.38699" lon="2.54102">
        <ele>118</ele>
        <time>2021-03-05T10:51:15.960Z</time>
      </trkpt>
      <trkpt lat="48.38701" lon="2.54094">
        <ele>119</ele>
        <time>2021-03-05T10:51:20.947Z</time>
      </trkpt>
      <trkpt lat="48.387" lon="2.54082">
        <ele>119</ele>
        <time>2021-03-05T10:51:25.954Z</time>
      </trkpt>
      <trkpt lat="48.38701" lon="2.54075">
        <ele>119</ele>
        <time>2021-03-05T10:51:29.965Z</time>
      </trkpt>
      <trkpt lat="48.38701" lon="2.54065">
        <ele>118</ele>
        <time>2021-03-05T10:51:34.949Z</time>
      </trkpt>
      <trkpt lat="48.38702" lon="2.54056">
        <ele>118</ele>
        <time>2021-03-05T10:51:39.945Z</time>
      </trkpt>
      <trkpt lat="48.38703" lon="2.54048">
        <ele>118</ele>
        <time>2021-03-05T10:51:43.949Z</time>
      </trkpt>
      <trkpt lat="48.38703" lon="2.5404">
        <ele>118</ele>
        <time>2021-03-05T10:51:48.944Z</time>
      </trkpt>
      <trkpt lat="48.38704" lon="2.54031">
        <ele>118</ele>
        <time>2021-03-05T10:51:54.039Z</time>
      </trkpt>
      <trkpt lat="48.38703" lon="2.5402">
        <ele>118</ele>
        <time>2021-03-05T10:51:58.960Z</time>
      </trkpt>
      <trkpt lat="48.38704" lon="2.5401">
        <ele>118</ele>
        <time>2021-03-05T10:52:03.970Z</time>
      </trkpt>
      <trkpt lat="48.38705" lon="2.54001">
        <ele>118</ele>
        <time>2021-03-05T10:52:08.956Z</time>
      </trkpt>
      <trkpt lat="48.38706" lon="2.5399">
        <ele>118</ele>
        <time>2021-03-05T10:52:13.946Z</time>
      </trkpt>
      <trkpt lat="48.38706" lon="2.53983">
        <ele>117</ele>
        <time>2021-03-05T10:52:17.944Z</time>
      </trkpt>
      <trkpt lat="48.38706" lon="2.53974">
        <ele>117</ele>
        <time>2021-03-05T10:52:22.951Z</time>
      </trkpt>
      <trkpt lat="48.38707" lon="2.53966">
        <ele>117</ele>
        <time>2021-03-05T10:52:27.956Z</time>
      </trkpt>
      <trkpt lat="48.38707" lon="2.53959">
        <ele>117</ele>
        <time>2021-03-05T10:52:31.954Z</time>
      </trkpt>
      <trkpt lat="48.38708" lon="2.53951">
        <ele>115</ele>
        <time>2021-03-05T10:52:36.944Z</time>
      </trkpt>
      <trkpt lat="48.38709" lon="2.53941">
        <ele>114</ele>
        <time>2021-03-05T10:52:41.945Z</time>
      </trkpt>
      <trkpt lat="48.38709" lon="2.53934">
        <ele>114</ele>
        <time>2021-03-05T10:52:45.949Z</time>
      </trkpt>
      <trkpt lat="48.38709" lon="2.53925">
        <ele>112</ele>
        <time>2021-03-05T10:52:50.945Z</time>
      </trkpt>
      <trkpt lat="48.3871" lon="2.53918">
        <ele>112</ele>
        <time>2021-03-05T10:52:55.048Z</time>
      </trkpt>
      <trkpt lat="48.38712" lon="2.53909">
        <ele>112</ele>
        <time>2021-03-05T10:52:59.948Z</time>
      </trkpt>
      <trkpt lat="48.38712" lon="2.539">
        <ele>110</ele>
        <time>2021-03-05T10:53:04.949Z</time>
      </trkpt>
      <trkpt lat="48.38712" lon="2.53892">
        <ele>110</ele>
        <time>2021-03-05T10:53:08.955Z</time>
      </trkpt>
      <trkpt lat="48.38713" lon="2.53883">
        <ele>110</ele>
        <time>2021-03-05T10:53:13.936Z</time>
      </trkpt>
      <trkpt lat="48.38713" lon="2.53874">
        <ele>108</ele>
        <time>2021-03-05T10:53:18.945Z</time>
      </trkpt>
      <trkpt lat="48.38714" lon="2.53867">
        <ele>108</ele>
        <time>2021-03-05T10:53:22.952Z</time>
      </trkpt>
      <trkpt lat="48.38715" lon="2.53857">
        <ele>108</ele>
        <time>2021-03-05T10:53:27.938Z</time>
      </trkpt>
      <trkpt lat="48.38718" lon="2.5385">
        <ele>108</ele>
        <time>2021-03-05T10:53:31.951Z</time>
      </trkpt>
      <trkpt lat="48.3872" lon="2.53842">
        <ele>106</ele>
        <time>2021-03-05T10:53:36.941Z</time>
      </trkpt>
      <trkpt lat="48.38723" lon="2.53837">
        <ele>106</ele>
        <time>2021-03-05T10:53:40.948Z</time>
      </trkpt>
      <trkpt lat="48.38727" lon="2.53832">
        <ele>106</ele>
        <time>2021-03-05T10:53:45.953Z</time>
      </trkpt>
      <trkpt lat="48.38733" lon="2.53828">
        <ele>106</ele>
        <time>2021-03-05T10:53:50.948Z</time>
      </trkpt>
      <trkpt lat="48.38738" lon="2.53825">
        <ele>107</ele>
        <time>2021-03-05T10:53:54.953Z</time>
      </trkpt>
      <trkpt lat="48.38744" lon="2.53822">
        <ele>107</ele>
        <time>2021-03-05T10:53:59.945Z</time>
      </trkpt>
      <trkpt lat="48.38748" lon="2.53817">
        <ele>105</ele>
        <time>2021-03-05T10:54:03.940Z</time>
      </trkpt>
      <trkpt lat="48.38754" lon="2.53812">
        <ele>105</ele>
        <time>2021-03-05T10:54:08.945Z</time>
      </trkpt>
      <trkpt lat="48.38758" lon="2.53807">
        <ele>105</ele>
        <time>2021-03-05T10:54:12.959Z</time>
      </trkpt>
      <trkpt lat="48.38762" lon="2.538">
        <ele>105</ele>
        <time>2021-03-05T10:54:17.947Z</time>
      </trkpt>
      <trkpt lat="48.38764" lon="2.53792">
        <ele>105</ele>
        <time>2021-03-05T10:54:21.961Z</time>
      </trkpt>
      <trkpt lat="48.38762" lon="2.53782">
        <ele>103</ele>
        <time>2021-03-05T10:54:26.948Z</time>
      </trkpt>
      <trkpt lat="48.38758" lon="2.53775">
        <ele>103</ele>
        <time>2021-03-05T10:54:31.956Z</time>
      </trkpt>
      <trkpt lat="48.38753" lon="2.5377">
        <ele>103</ele>
        <time>2021-03-05T10:54:36.945Z</time>
      </trkpt>
      <trkpt lat="48.38747" lon="2.53763">
        <ele>103</ele>
        <time>2021-03-05T10:54:41.955Z</time>
      </trkpt>
      <trkpt lat="48.38741" lon="2.53759">
        <ele>103</ele>
        <time>2021-03-05T10:54:46.966Z</time>
      </trkpt>
      <trkpt lat="48.38736" lon="2.53756">
        <ele>100</ele>
        <time>2021-03-05T10:54:51.957Z</time>
      </trkpt>
      <trkpt lat="48.38731" lon="2.53754">
        <ele>100</ele>
        <time>2021-03-05T10:54:56.051Z</time>
      </trkpt>
      <trkpt lat="48.38724" lon="2.53751">
        <ele>100</ele>
        <time>2021-03-05T10:55:00.956Z</time>
      </trkpt>
      <trkpt lat="48.38717" lon="2.53747">
        <ele>100</ele>
        <time>2021-03-05T10:55:05.959Z</time>
      </trkpt>
      <trkpt lat="48.38712" lon="2.53742">
        <ele>100</ele>
        <time>2021-03-05T10:55:10.960Z</time>
      </trkpt>
      <trkpt lat="48.38708" lon="2.53735">
        <ele>99</ele>
        <time>2021-03-05T10:55:15.959Z</time>
      </trkpt>
      <trkpt lat="48.38706" lon="2.53729">
        <ele>101</ele>
        <time>2021-03-05T10:55:19.967Z</time>
      </trkpt>
      <trkpt lat="48.38704" lon="2.53718">
        <ele>101</ele>
        <time>2021-03-05T10:55:24.956Z</time>
      </trkpt>
      <trkpt lat="48.38705" lon="2.53708">
        <ele>101</ele>
        <time>2021-03-05T10:55:29.939Z</time>
      </trkpt>
      <trkpt lat="48.38707" lon="2.537">
        <ele>98</ele>
        <time>2021-03-05T10:55:34.955Z</time>
      </trkpt>
      <trkpt lat="48.38709" lon="2.53691">
        <ele>98</ele>
        <time>2021-03-05T10:55:39.962Z</time>
      </trkpt>
      <trkpt lat="48.3871" lon="2.53682">
        <ele>98</ele>
        <time>2021-03-05T10:55:44.957Z</time>
      </trkpt>
      <trkpt lat="48.38711" lon="2.53673">
        <ele>98</ele>
        <time>2021-03-05T10:55:49.950Z</time>
      </trkpt>
      <trkpt lat="48.38711" lon="2.53663">
        <ele>98</ele>
        <time>2021-03-05T10:55:54.962Z</time>
      </trkpt>
      <trkpt lat="48.3871" lon="2.53655">
        <ele>98</ele>
        <time>2021-03-05T10:55:59.949Z</time>
      </trkpt>
      <trkpt lat="48.38709" lon="2.53645">
        <ele>97</ele>
        <time>2021-03-05T10:56:04.932Z</time>
      </trkpt>
      <trkpt lat="48.38708" lon="2.53638">
        <ele>95</ele>
        <time>2021-03-05T10:56:08.934Z</time>
      </trkpt>
      <trkpt lat="48.38706" lon="2.53632">
        <ele>95</ele>
        <time>2021-03-05T10:56:12.948Z</time>
      </trkpt>
      <trkpt lat="48.38704" lon="2.53626">
        <ele>95</ele>
        <time>2021-03-05T10:56:16.946Z</time>
      </trkpt>
      <trkpt lat="48.387" lon="2.53619">
        <ele>92</ele>
        <time>2021-03-05T10:56:21.949Z</time>
      </trkpt>
      <trkpt lat="48.38697" lon="2.5361">
        <ele>92</ele>
        <time>2021-03-05T10:56:26.960Z</time>
      </trkpt>
      <trkpt lat="48.38693" lon="2.53602">
        <ele>92</ele>
        <time>2021-03-05T10:56:31.948Z</time>
      </trkpt>
      <trkpt lat="48.3869" lon="2.53594">
        <ele>90</ele>
        <time>2021-03-05T10:56:36.951Z</time>
      </trkpt>
      <trkpt lat="48.38688" lon="2.53584">
        <ele>90</ele>
        <time>2021-03-05T10:56:41.954Z</time>
      </trkpt>
      <trkpt lat="48.38686" lon="2.53576">
        <ele>90</ele>
        <time>2021-03-05T10:56:46.942Z</time>
      </trkpt>
      <trkpt lat="48.38683" lon="2.53566">
        <ele>89</ele>
        <time>2021-03-05T10:56:51.947Z</time>
      </trkpt>
      <trkpt lat="48.38681" lon="2.53558">
        <ele>89</ele>
        <time>2021-03-05T10:56:55.962Z</time>
      </trkpt>
      <trkpt lat="48.38679" lon="2.53548">
        <ele>88</ele>
        <time>2021-03-05T10:57:00.956Z</time>
      </trkpt>
      <trkpt lat="48.38679" lon="2.53537">
        <ele>87</ele>
        <time>2021-03-05T10:57:05.948Z</time>
      </trkpt>
      <trkpt lat="48.38679" lon="2.53527">
        <ele>87</ele>
        <time>2021-03-05T10:57:10.951Z</time>
      </trkpt>
      <trkpt lat="48.38681" lon="2.53518">
        <ele>87</ele>
        <time>2021-03-05T10:57:14.956Z</time>
      </trkpt>
      <trkpt lat="48.38681" lon="2.53508">
        <ele>86</ele>
        <time>2021-03-05T10:57:19.946Z</time>
      </trkpt>
      <trkpt lat="48.38682" lon="2.53498">
        <ele>86</ele>
        <time>2021-03-05T10:57:24.942Z</time>
      </trkpt>
      <trkpt lat="48.38682" lon="2.5349">
        <ele>86</ele>
        <time>2021-03-05T10:57:28.946Z</time>
      </trkpt>
      <trkpt lat="48.38682" lon="2.5348">
        <ele>84</ele>
        <time>2021-03-05T10:57:33.945Z</time>
      </trkpt>
      <trkpt lat="48.38682" lon="2.5347">
        <ele>84</ele>
        <time>2021-03-05T10:57:38.940Z</time>
      </trkpt>
      <trkpt lat="48.38682" lon="2.53462">
        <ele>84</ele>
        <time>2021-03-05T10:57:42.951Z</time>
      </trkpt>
      <trkpt lat="48.38681" lon="2.53452">
        <ele>83</ele>
        <time>2021-03-05T10:57:47.953Z</time>
      </trkpt>
      <trkpt lat="48.38681" lon="2.53443">
        <ele>83</ele>
        <time>2021-03-05T10:57:52.941Z</time>
      </trkpt>
      <trkpt lat="48.38681" lon="2.53435">
        <ele>83</ele>
        <time>2021-03-05T10:57:56.945Z</time>
      </trkpt>
      <trkpt lat="48.3868" lon="2.53425">
        <ele>82</ele>
        <time>2021-03-05T10:58:01.948Z</time>
      </trkpt>
      <trkpt lat="48.38682" lon="2.53418">
        <ele>82</ele>
        <time>2021-03-05T10:58:05.958Z</time>
      </trkpt>
      <trkpt lat="48.38683" lon="2.53408">
        <ele>82</ele>
        <time>2021-03-05T10:58:10.954Z</time>
      </trkpt>
      <trkpt lat="48.38681" lon="2.53398">
        <ele>81</ele>
        <time>2021-03-05T10:58:15.942Z</time>
      </trkpt>
      <trkpt lat="48.3868" lon="2.53388">
        <ele>81</ele>
        <time>2021-03-05T10:58:20.951Z</time>
      </trkpt>
      <trkpt lat="48.38679" lon="2.53379">
        <ele>81</ele>
        <time>2021-03-05T10:58:25.950Z</time>
      </trkpt>
      <trkpt lat="48.3868" lon="2.5337">
        <ele>81</ele>
        <time>2021-03-05T10:58:30.947Z</time>
      </trkpt>
      <trkpt lat="48.38685" lon="2.53363">
        <ele>80</ele>
        <time>2021-03-05T10:58:35.944Z</time>
      </trkpt>
      <trkpt lat="48.3869" lon="2.5336">
        <ele>80</ele>
        <time>2021-03-05T10:58:40.949Z</time>
      </trkpt>
      <trkpt lat="48.38696" lon="2.53359">
        <ele>80</ele>
        <time>2021-03-05T10:58:45.953Z</time>
      </trkpt>
      <trkpt lat="48.38701" lon="2.53356">
        <ele>80</ele>
        <time>2021-03-05T10:58:49.975Z</time>
      </trkpt>
      <trkpt lat="48.38706" lon="2.53354">
        <ele>80</ele>
        <time>2021-03-05T10:58:54.956Z</time>
      </trkpt>
      <trkpt lat="48.38712" lon="2.53352">
        <ele>79</ele>
        <time>2021-03-05T10:58:59.968Z</time>
      </trkpt>
      <trkpt lat="48.38718" lon="2.53348">
        <ele>79</ele>
        <time>2021-03-05T10:59:04.947Z</time>
      </trkpt>
      <trkpt lat="48.38723" lon="2.53344">
        <ele>78</ele>
        <time>2021-03-05T10:59:09.942Z</time>
      </trkpt>
      <trkpt lat="48.38729" lon="2.5334">
        <ele>78</ele>
        <time>2021-03-05T10:59:14.954Z</time>
      </trkpt>
      <trkpt lat="48.38736" lon="2.53333">
        <ele>78</ele>
        <time>2021-03-05T10:59:19.936Z</time>
      </trkpt>
      <trkpt lat="48.38743" lon="2.53327">
        <ele>78</ele>
        <time>2021-03-05T10:59:24.947Z</time>
      </trkpt>
      <trkpt lat="48.3875" lon="2.53323">
        <ele>78</ele>
        <time>2021-03-05T10:59:29.939Z</time>
      </trkpt>
      <trkpt lat="48.38754" lon="2.53318">
        <ele>77</ele>
        <time>2021-03-05T10:59:33.934Z</time>
      </trkpt>
      <trkpt lat="48.38758" lon="2.53315">
        <ele>77</ele>
        <time>2021-03-05T10:59:37.948Z</time>
      </trkpt>
      <trkpt lat="48.38762" lon="2.53312">
        <ele>77</ele>
        <time>2021-03-05T10:59:42.941Z</time>
      </trkpt>
      <trkpt lat="48.38767" lon="2.53307">
        <ele>76</ele>
        <time>2021-03-05T10:59:47.939Z</time>
      </trkpt>
      <trkpt lat="48.38772" lon="2.53302">
        <ele>76</ele>
        <time>2021-03-05T10:59:52.940Z</time>
      </trkpt>
      <trkpt lat="48.38777" lon="2.53297">
        <ele>76</ele>
        <time>2021-03-05T10:59:57.947Z</time>
      </trkpt>
      <trkpt lat="48.38782" lon="2.5329">
        <ele>75</ele>
        <time>2021-03-05T11:00:02.945Z</time>
      </trkpt>
      <trkpt lat="48.38785" lon="2.53285">
        <ele>75</ele>
        <time>2021-03-05T11:00:06.962Z</time>
      </trkpt>
      <trkpt lat="48.38789" lon="2.53278">
        <ele>75</ele>
        <time>2021-03-05T11:00:11.939Z</time>
      </trkpt>
      <trkpt lat="48.38791" lon="2.53272">
        <ele>75</ele>
        <time>2021-03-05T11:00:15.949Z</time>
      </trkpt>
      <trkpt lat="48.38794" lon="2.53265">
        <ele>75</ele>
        <time>2021-03-05T11:00:20.943Z</time>
      </trkpt>
      <trkpt lat="48.38798" lon="2.53259">
        <ele>75</ele>
        <time>2021-03-05T11:00:25.944Z</time>
      </trkpt>
      <trkpt lat="48.38801" lon="2.53251">
        <ele>75</ele>
        <time>2021-03-05T11:00:30.941Z</time>
      </trkpt>
      <trkpt lat="48.38803" lon="2.53243">
        <ele>75</ele>
        <time>2021-03-05T11:00:35.952Z</time>
      </trkpt>
      <trkpt lat="48.38803" lon="2.53234">
        <ele>76</ele>
        <time>2021-03-05T11:00:40.943Z</time>
      </trkpt>
      <trkpt lat="48.38803" lon="2.53226">
        <ele>76</ele>
        <time>2021-03-05T11:00:44.956Z</time>
      </trkpt>
      <trkpt lat="48.38801" lon="2.53217">
        <ele>76</ele>
        <time>2021-03-05T11:00:49.947Z</time>
      </trkpt>
      <trkpt lat="48.388" lon="2.53209">
        <ele>76</ele>
        <time>2021-03-05T11:00:54.941Z</time>
      </trkpt>
      <trkpt lat="48.38799" lon="2.532">
        <ele>75</ele>
        <time>2021-03-05T11:00:59.940Z</time>
      </trkpt>
      <trkpt lat="48.38798" lon="2.53191">
        <ele>75</ele>
        <time>2021-03-05T11:01:04.936Z</time>
      </trkpt>
      <trkpt lat="48.38796" lon="2.53183">
        <ele>75</ele>
        <time>2021-03-05T11:01:09.935Z</time>
      </trkpt>
      <trkpt lat="48.38794" lon="2.53176">
        <ele>75</ele>
        <time>2021-03-05T11:01:13.949Z</time>
      </trkpt>
      <trkpt lat="48.38792" lon="2.53168">
        <ele>75</ele>
        <time>2021-03-05T11:01:18.946Z</time>
      </trkpt>
      <trkpt lat="48.3879" lon="2.5316">
        <ele>74</ele>
        <time>2021-03-05T11:01:23.951Z</time>
      </trkpt>
      <trkpt lat="48.38788" lon="2.53151">
        <ele>74</ele>
        <time>2021-03-05T11:01:28.946Z</time>
      </trkpt>
      <trkpt lat="48.38785" lon="2.53143">
        <ele>74</ele>
        <time>2021-03-05T11:01:33.950Z</time>
      </trkpt>
      <trkpt lat="48.38781" lon="2.53135">
        <ele>74</ele>
        <time>2021-03-05T11:01:38.945Z</time>
      </trkpt>
      <trkpt lat="48.38778" lon="2.53127">
        <ele>74</ele>
        <time>2021-03-05T11:01:43.948Z</time>
      </trkpt>
      <trkpt lat="48.38775" lon="2.5312">
        <ele>75</ele>
        <time>2021-03-05T11:01:47.960Z</time>
      </trkpt>
      <trkpt lat="48.38772" lon="2.53111">
        <ele>75</ele>
        <time>2021-03-05T11:01:52.947Z</time>
      </trkpt>
      <trkpt lat="48.38769" lon="2.53103">
        <ele>75</ele>
        <time>2021-03-05T11:01:57.963Z</time>
      </trkpt>
      <trkpt lat="48.38766" lon="2.53095">
        <ele>75</ele>
        <time>2021-03-05T11:02:02.939Z</time>
      </trkpt>
      <trkpt lat="48.38763" lon="2.53087">
        <ele>74</ele>
        <time>2021-03-05T11:02:07.940Z</time>
      </trkpt>
      <trkpt lat="48.38761" lon="2.53079">
        <ele>74</ele>
        <time>2021-03-05T11:02:11.944Z</time>
      </trkpt>
      <trkpt lat="48.38758" lon="2.5307">
        <ele>74</ele>
        <time>2021-03-05T11:02:16.944Z</time>
      </trkpt>
      <trkpt lat="48.38756" lon="2.53064">
        <ele>74</ele>
        <time>2021-03-05T11:02:20.953Z</time>
      </trkpt>
      <trkpt lat="48.38753" lon="2.53056">
        <ele>74</ele>
        <time>2021-03-05T11:02:25.939Z</time>
      </trkpt>
      <trkpt lat="48.38751" lon="2.53055">
        <ele>74</ele>
        <time>2021-03-05T11:02:29.958Z</time>
      </trkpt>
      <trkpt lat="48.38748" lon="2.53047">
        <ele>74</ele>
        <time>2021-03-05T11:02:34.947Z</time>
      </trkpt>
      <trkpt lat="48.38746" lon="2.53039">
        <ele>75</ele>
        <time>2021-03-05T11:02:38.952Z</time>
      </trkpt>
      <trkpt lat="48.38744" lon="2.5303">
        <ele>75</ele>
        <time>2021-03-05T11:02:43.945Z</time>
      </trkpt>
      <trkpt lat="48.38742" lon="2.53024">
        <ele>75</ele>
        <time>2021-03-05T11:02:47.944Z</time>
      </trkpt>
      <trkpt lat="48.3874" lon="2.53015">
        <ele>75</ele>
        <time>2021-03-05T11:02:52.950Z</time>
      </trkpt>
      <trkpt lat="48.38739" lon="2.53008">
        <ele>75</ele>
        <time>2021-03-05T11:02:56.962Z</time>
      </trkpt>
      <trkpt lat="48.3874" lon="2.53004">
        <ele>75</ele>
        <time>2021-03-05T11:03:01.948Z</time>
      </trkpt>
      <trkpt lat="48.38742" lon="2.53005">
        <ele>75</ele>
        <time>2021-03-05T11:06:52.945Z</time>
      </trkpt>
      <trkpt lat="48.38741" lon="2.53">
        <ele>75</ele>
        <time>2021-03-05T11:06:57.950Z</time>
      </trkpt>
      <trkpt lat="48.38739" lon="2.52994">
        <ele>75</ele>
        <time>2021-03-05T11:07:02.951Z</time>
      </trkpt>
      <trkpt lat="48.38737" lon="2.52987">
        <ele>75</ele>
        <time>2021-03-05T11:07:07.952Z</time>
      </trkpt>
      <trkpt lat="48.38736" lon="2.52982">
        <ele>72</ele>
        <time>2021-03-05T11:07:12.946Z</time>
      </trkpt>
      <trkpt lat="48.38735" lon="2.52977">
        <ele>72</ele>
        <time>2021-03-05T11:07:16.953Z</time>
      </trkpt>
      <trkpt lat="48.38734" lon="2.5297">
        <ele>72</ele>
        <time>2021-03-05T11:07:21.948Z</time>
      </trkpt>
      <trkpt lat="48.38733" lon="2.52962">
        <ele>72</ele>
        <time>2021-03-05T11:07:26.960Z</time>
      </trkpt>
      <trkpt lat="48.38732" lon="2.52956">
        <ele>73</ele>
        <time>2021-03-05T11:07:30.960Z</time>
      </trkpt>
      <trkpt lat="48.38732" lon="2.52949">
        <ele>73</ele>
        <time>2021-03-05T11:07:35.958Z</time>
      </trkpt>
      <trkpt lat="48.38732" lon="2.52943">
        <ele>73</ele>
        <time>2021-03-05T11:07:40.966Z</time>
      </trkpt>
      <trkpt lat="48.38732" lon="2.52935">
        <ele>73</ele>
        <time>2021-03-05T11:07:45.937Z</time>
      </trkpt>
      <trkpt lat="48.38733" lon="2.52929">
        <ele>74</ele>
        <time>2021-03-05T11:07:50.011Z</time>
      </trkpt>
      <trkpt lat="48.38734" lon="2.52921">
        <ele>74</ele>
        <time>2021-03-05T11:07:54.945Z</time>
      </trkpt>
      <trkpt lat="48.38734" lon="2.52912">
        <ele>74</ele>
        <time>2021-03-05T11:07:59.946Z</time>
      </trkpt>
      <trkpt lat="48.38734" lon="2.52905">
        <ele>74</ele>
        <time>2021-03-05T11:08:03.941Z</time>
      </trkpt>
      <trkpt lat="48.38735" lon="2.52896">
        <ele>76</ele>
        <time>2021-03-05T11:08:08.942Z</time>
      </trkpt>
      <trkpt lat="48.38735" lon="2.52889">
        <ele>76</ele>
        <time>2021-03-05T11:08:12.955Z</time>
      </trkpt>
      <trkpt lat="48.38734" lon="2.5288">
        <ele>76</ele>
        <time>2021-03-05T11:08:17.948Z</time>
      </trkpt>
      <trkpt lat="48.38734" lon="2.52873">
        <ele>78</ele>
        <time>2021-03-05T11:08:21.949Z</time>
      </trkpt>
      <trkpt lat="48.38733" lon="2.52865">
        <ele>78</ele>
        <time>2021-03-05T11:08:26.956Z</time>
      </trkpt>
      <trkpt lat="48.38732" lon="2.52857">
        <ele>78</ele>
        <time>2021-03-05T11:08:31.942Z</time>
      </trkpt>
      <trkpt lat="48.38731" lon="2.5285">
        <ele>78</ele>
        <time>2021-03-05T11:08:35.952Z</time>
      </trkpt>
      <trkpt lat="48.3873" lon="2.52842">
        <ele>80</ele>
        <time>2021-03-05T11:08:40.972Z</time>
      </trkpt>
      <trkpt lat="48.38729" lon="2.52835">
        <ele>80</ele>
        <time>2021-03-05T11:08:45.955Z</time>
      </trkpt>
      <trkpt lat="48.38727" lon="2.52827">
        <ele>80</ele>
        <time>2021-03-05T11:08:50.954Z</time>
      </trkpt>
      <trkpt lat="48.38725" lon="2.52818">
        <ele>81</ele>
        <time>2021-03-05T11:08:55.961Z</time>
      </trkpt>
      <trkpt lat="48.38724" lon="2.52809">
        <ele>81</ele>
        <time>2021-03-05T11:09:00.953Z</time>
      </trkpt>
      <trkpt lat="48.38721" lon="2.52797">
        <ele>81</ele>
        <time>2021-03-05T11:09:05.950Z</time>
      </trkpt>
      <trkpt lat="48.38719" lon="2.52788">
        <ele>83</ele>
        <time>2021-03-05T11:09:10.955Z</time>
      </trkpt>
      <trkpt lat="48.38715" lon="2.52786">
        <ele>83</ele>
        <time>2021-03-05T11:09:15.961Z</time>
      </trkpt>
      <trkpt lat="48.38713" lon="2.52793">
        <ele>81</ele>
        <time>2021-03-05T11:09:19.987Z</time>
      </trkpt>
      <trkpt lat="48.38712" lon="2.52801">
        <ele>81</ele>
        <time>2021-03-05T11:09:24.933Z</time>
      </trkpt>
      <trkpt lat="48.38711" lon="2.52803">
        <ele>81</ele>
        <time>2021-03-05T11:09:28.944Z</time>
      </trkpt>
      <trkpt lat="48.38708" lon="2.52803">
        <ele>84</ele>
        <time>2021-03-05T11:09:33.950Z</time>
      </trkpt>
      <trkpt lat="48.38704" lon="2.52802">
        <ele>84</ele>
        <time>2021-03-05T11:09:37.948Z</time>
      </trkpt>
      <trkpt lat="48.38701" lon="2.52798">
        <ele>84</ele>
        <time>2021-03-05T11:09:42.953Z</time>
      </trkpt>
      <trkpt lat="48.387" lon="2.52793">
        <ele>84</ele>
        <time>2021-03-05T11:09:47.945Z</time>
      </trkpt>
      <trkpt lat="48.38698" lon="2.52788">
        <ele>84</ele>
        <time>2021-03-05T11:09:52.936Z</time>
      </trkpt>
      <trkpt lat="48.38697" lon="2.52785">
        <ele>84</ele>
        <time>2021-03-05T11:09:56.948Z</time>
      </trkpt>
      <trkpt lat="48.38695" lon="2.52781">
        <ele>84</ele>
        <time>2021-03-05T11:10:01.951Z</time>
      </trkpt>
      <trkpt lat="48.38691" lon="2.5278">
        <ele>84</ele>
        <time>2021-03-05T11:10:06.948Z</time>
      </trkpt>
      <trkpt lat="48.38691" lon="2.52775">
        <ele>84</ele>
        <time>2021-03-05T11:10:11.959Z</time>
      </trkpt>
      <trkpt lat="48.38688" lon="2.52771">
        <ele>84</ele>
        <time>2021-03-05T11:10:16.949Z</time>
      </trkpt>
      <trkpt lat="48.38685" lon="2.5277">
        <ele>84</ele>
        <time>2021-03-05T11:10:21.944Z</time>
      </trkpt>
      <trkpt lat="48.38681" lon="2.52773">
        <ele>84</ele>
        <time>2021-03-05T11:10:26.966Z</time>
      </trkpt>
      <trkpt lat="48.38678" lon="2.52774">
        <ele>88</ele>
        <time>2021-03-05T11:10:31.955Z</time>
      </trkpt>
      <trkpt lat="48.38675" lon="2.52777">
        <ele>88</ele>
        <time>2021-03-05T11:10:36.948Z</time>
      </trkpt>
      <trkpt lat="48.38673" lon="2.52778">
        <ele>88</ele>
        <time>2021-03-05T11:10:40.956Z</time>
      </trkpt>
      <trkpt lat="48.3867" lon="2.52776">
        <ele>88</ele>
        <time>2021-03-05T11:10:45.946Z</time>
      </trkpt>
      <trkpt lat="48.38667" lon="2.52777">
        <ele>88</ele>
        <time>2021-03-05T11:10:50.948Z</time>
      </trkpt>
      <trkpt lat="48.38665" lon="2.5278">
        <ele>88</ele>
        <time>2021-03-05T11:10:55.950Z</time>
      </trkpt>
      <trkpt lat="48.38664" lon="2.52785">
        <ele>88</ele>
        <time>2021-03-05T11:11:00.952Z</time>
      </trkpt>
      <trkpt lat="48.38662" lon="2.52789">
        <ele>88</ele>
        <time>2021-03-05T11:11:05.940Z</time>
      </trkpt>
      <trkpt lat="48.38662" lon="2.52793">
        <ele>89</ele>
        <time>2021-03-05T11:11:09.952Z</time>
      </trkpt>
      <trkpt lat="48.38661" lon="2.52798">
        <ele>89</ele>
        <time>2021-03-05T11:11:13.961Z</time>
      </trkpt>
      <trkpt lat="48.38657" lon="2.52799">
        <ele>89</ele>
        <time>2021-03-05T11:11:18.946Z</time>
      </trkpt>
      <trkpt lat="48.38655" lon="2.52805">
        <ele>89</ele>
        <time>2021-03-05T11:11:23.959Z</time>
      </trkpt>
      <trkpt lat="48.38654" lon="2.52811">
        <ele>89</ele>
        <time>2021-03-05T11:11:28.954Z</time>
      </trkpt>
      <trkpt lat="48.38653" lon="2.52818">
        <ele>89</ele>
        <time>2021-03-05T11:11:33.960Z</time>
      </trkpt>
      <trkpt lat="48.38653" lon="2.52826">
        <ele>89</ele>
        <time>2021-03-05T11:11:38.950Z</time>
      </trkpt>
      <trkpt lat="48.38651" lon="2.52831">
        <ele>89</ele>
        <time>2021-03-05T11:11:43.951Z</time>
      </trkpt>
      <trkpt lat="48.3865" lon="2.52837">
        <ele>89</ele>
        <time>2021-03-05T11:11:48.956Z</time>
      </trkpt>
      <trkpt lat="48.3865" lon="2.52841">
        <ele>89</ele>
        <time>2021-03-05T11:11:52.963Z</time>
      </trkpt>
      <trkpt lat="48.38648" lon="2.52847">
        <ele>89</ele>
        <time>2021-03-05T11:11:57.949Z</time>
      </trkpt>
      <trkpt lat="48.38644" lon="2.52849">
        <ele>87</ele>
        <time>2021-03-05T11:12:01.950Z</time>
      </trkpt>
      <trkpt lat="48.38639" lon="2.52849">
        <ele>87</ele>
        <time>2021-03-05T11:12:06.952Z</time>
      </trkpt>
      <trkpt lat="48.38635" lon="2.52854">
        <ele>87</ele>
        <time>2021-03-05T11:12:11.962Z</time>
      </trkpt>
      <trkpt lat="48.38633" lon="2.52859">
        <ele>87</ele>
        <time>2021-03-05T11:12:16.964Z</time>
      </trkpt>
      <trkpt lat="48.38632" lon="2.52863">
        <ele>87</ele>
        <time>2021-03-05T11:12:21.967Z</time>
      </trkpt>
      <trkpt lat="48.3863" lon="2.52865">
        <ele>87</ele>
        <time>2021-03-05T11:12:26.953Z</time>
      </trkpt>
      <trkpt lat="48.38629" lon="2.52871">
        <ele>87</ele>
        <time>2021-03-05T11:12:31.944Z</time>
      </trkpt>
      <trkpt lat="48.38627" lon="2.52874">
        <ele>87</ele>
        <time>2021-03-05T11:12:35.958Z</time>
      </trkpt>
      <trkpt lat="48.38625" lon="2.5288">
        <ele>85</ele>
        <time>2021-03-05T11:12:40.961Z</time>
      </trkpt>
      <trkpt lat="48.38624" lon="2.52884">
        <ele>87</ele>
        <time>2021-03-05T11:12:44.969Z</time>
      </trkpt>
      <trkpt lat="48.38623" lon="2.52889">
        <ele>87</ele>
        <time>2021-03-05T11:12:49.937Z</time>
      </trkpt>
      <trkpt lat="48.38621" lon="2.52896">
        <ele>87</ele>
        <time>2021-03-05T11:12:53.950Z</time>
      </trkpt>
      <trkpt lat="48.38618" lon="2.52903">
        <ele>85</ele>
        <time>2021-03-05T11:12:58.950Z</time>
      </trkpt>
      <trkpt lat="48.38614" lon="2.52907">
        <ele>85</ele>
        <time>2021-03-05T11:13:03.943Z</time>
      </trkpt>
      <trkpt lat="48.38612" lon="2.52913">
        <ele>85</ele>
        <time>2021-03-05T11:13:07.951Z</time>
      </trkpt>
      <trkpt lat="48.3861" lon="2.52919">
        <ele>85</ele>
        <time>2021-03-05T11:13:12.948Z</time>
      </trkpt>
      <trkpt lat="48.38608" lon="2.52923">
        <ele>85</ele>
        <time>2021-03-05T11:13:17.949Z</time>
      </trkpt>
      <trkpt lat="48.38605" lon="2.52928">
        <ele>85</ele>
        <time>2021-03-05T11:13:22.964Z</time>
      </trkpt>
      <trkpt lat="48.38602" lon="2.52933">
        <ele>85</ele>
        <time>2021-03-05T11:13:27.947Z</time>
      </trkpt>
      <trkpt lat="48.38598" lon="2.52936">
        <ele>85</ele>
        <time>2021-03-05T11:13:32.940Z</time>
      </trkpt>
      <trkpt lat="48.38598" lon="2.52936">
        <ele>85</ele>
        <time>2021-03-05T11:13:36.962Z</time>
      </trkpt>
      <trkpt lat="48.38594" lon="2.52937">
        <ele>85</ele>
        <time>2021-03-05T11:13:41.960Z</time>
      </trkpt>
      <trkpt lat="48.38597" lon="2.52925">
        <ele>86</ele>
        <time>2021-03-05T11:18:31.948Z</time>
      </trkpt>
      <trkpt lat="48.38597" lon="2.52924">
        <ele>86</ele>
        <time>2021-03-05T11:18:36.945Z</time>
      </trkpt>
      <trkpt lat="48.38596" lon="2.52924">
        <ele>86</ele>
        <time>2021-03-05T11:18:41.931Z</time>
      </trkpt>
      <trkpt lat="48.38596" lon="2.52924">
        <ele>86</ele>
        <time>2021-03-05T11:18:45.951Z</time>
      </trkpt>
      <trkpt lat="48.38596" lon="2.52924">
        <ele>86</ele>
        <time>2021-03-05T11:18:50.946Z</time>
      </trkpt>
      <trkpt lat="48.38596" lon="2.52924">
        <ele>86</ele>
        <time>2021-03-05T11:19:14.931Z</time>
      </trkpt>
      <trkpt lat="48.38596" lon="2.52924">
        <ele>86</ele>
        <time>2021-03-05T11:19:18.953Z</time>
      </trkpt>
      <trkpt lat="48.38597" lon="2.5293">
        <ele>86</ele>
        <time>2021-03-05T11:19:23.935Z</time>
      </trkpt>
      <trkpt lat="48.38596" lon="2.52936">
        <ele>85</ele>
        <time>2021-03-05T11:19:27.936Z</time>
      </trkpt>
      <trkpt lat="48.38595" lon="2.52938">
        <ele>85</ele>
        <time>2021-03-05T11:19:32.950Z</time>
      </trkpt>
      <trkpt lat="48.38598" lon="2.52924">
        <ele>85</ele>
        <time>2021-03-05T11:34:00.956Z</time>
      </trkpt>
      <trkpt lat="48.38597" lon="2.52924">
        <ele>85</ele>
        <time>2021-03-05T11:34:05.948Z</time>
      </trkpt>
      <trkpt lat="48.38597" lon="2.52921">
        <ele>86</ele>
        <time>2021-03-05T11:34:10.939Z</time>
      </trkpt>
      <trkpt lat="48.38597" lon="2.52921">
        <ele>86</ele>
        <time>2021-03-05T11:34:14.947Z</time>
      </trkpt>
      <trkpt lat="48.38596" lon="2.5292">
        <ele>86</ele>
        <time>2021-03-05T11:34:19.949Z</time>
      </trkpt>
      <trkpt lat="48.38597" lon="2.52921">
        <ele>86</ele>
        <time>2021-03-05T11:39:36.960Z</time>
      </trkpt>
      <trkpt lat="48.38597" lon="2.52921">
        <ele>86</ele>
        <time>2021-03-05T11:39:41.957Z</time>
      </trkpt>
      <trkpt lat="48.38598" lon="2.52922">
        <ele>85</ele>
        <time>2021-03-05T11:39:46.953Z</time>
      </trkpt>
      <trkpt lat="48.38599" lon="2.52928">
        <ele>85</ele>
        <time>2021-03-05T11:39:51.955Z</time>
      </trkpt>
      <trkpt lat="48.38599" lon="2.52934">
        <ele>85</ele>
        <time>2021-03-05T11:39:56.959Z</time>
      </trkpt>
      <trkpt lat="48.38598" lon="2.52931">
        <ele>85</ele>
        <time>2021-03-05T11:55:01.948Z</time>
      </trkpt>
      <trkpt lat="48.38598" lon="2.52928">
        <ele>85</ele>
        <time>2021-03-05T11:55:06.941Z</time>
      </trkpt>
      <trkpt lat="48.38597" lon="2.52927">
        <ele>85</ele>
        <time>2021-03-05T11:55:11.953Z</time>
      </trkpt>
      <trkpt lat="48.38597" lon="2.52922">
        <ele>86</ele>
        <time>2021-03-05T11:55:15.950Z</time>
      </trkpt>
      <trkpt lat="48.38598" lon="2.52921">
        <ele>85</ele>
        <time>2021-03-05T11:55:20.946Z</time>
      </trkpt>
      <trkpt lat="48.38595" lon="2.52921">
        <ele>86</ele>
        <time>2021-03-05T11:55:24.952Z</time>
      </trkpt>
      <trkpt lat="48.38591" lon="2.52915">
        <ele>86</ele>
        <time>2021-03-05T11:55:29.950Z</time>
      </trkpt>
      <trkpt lat="48.38592" lon="2.52909">
        <ele>86</ele>
        <time>2021-03-05T11:55:34.954Z</time>
      </trkpt>
      <trkpt lat="48.38588" lon="2.52902">
        <ele>87</ele>
        <time>2021-03-05T11:55:39.958Z</time>
      </trkpt>
      <trkpt lat="48.38584" lon="2.52899">
        <ele>87</ele>
        <time>2021-03-05T11:56:36.963Z</time>
      </trkpt>
      <trkpt lat="48.38588" lon="2.52903">
        <ele>86</ele>
        <time>2021-03-05T11:56:41.966Z</time>
      </trkpt>
      <trkpt lat="48.3859" lon="2.52911">
        <ele>86</ele>
        <time>2021-03-05T11:56:46.967Z</time>
      </trkpt>
      <trkpt lat="48.38589" lon="2.52917">
        <ele>86</ele>
        <time>2021-03-05T11:56:51.960Z</time>
      </trkpt>
      <trkpt lat="48.3859" lon="2.52922">
        <ele>86</ele>
        <time>2021-03-05T11:56:56.965Z</time>
      </trkpt>
      <trkpt lat="48.38595" lon="2.52929">
        <ele>86</ele>
        <time>2021-03-05T12:08:51.948Z</time>
      </trkpt>
      <trkpt lat="48.38595" lon="2.5293">
        <ele>86</ele>
        <time>2021-03-05T12:08:56.117Z</time>
      </trkpt>
      <trkpt lat="48.38596" lon="2.52933">
        <ele>85</ele>
        <time>2021-03-05T12:09:00.961Z</time>
      </trkpt>
      <trkpt lat="48.38597" lon="2.52935">
        <ele>85</ele>
        <time>2021-03-05T12:09:05.952Z</time>
      </trkpt>
      <trkpt lat="48.38598" lon="2.52938">
        <ele>85</ele>
        <time>2021-03-05T12:09:09.954Z</time>
      </trkpt>
      <trkpt lat="48.38597" lon="2.52943">
        <ele>85</ele>
        <time>2021-03-05T12:09:13.969Z</time>
      </trkpt>
      <trkpt lat="48.38597" lon="2.52947">
        <ele>85</ele>
        <time>2021-03-05T12:09:18.946Z</time>
      </trkpt>
      <trkpt lat="48.38597" lon="2.52951">
        <ele>85</ele>
        <time>2021-03-05T12:09:22.952Z</time>
      </trkpt>
      <trkpt lat="48.38594" lon="2.52954">
        <ele>85</ele>
        <time>2021-03-05T12:09:26.958Z</time>
      </trkpt>
      <trkpt lat="48.3859" lon="2.52957">
        <ele>85</ele>
        <time>2021-03-05T12:09:31.964Z</time>
      </trkpt>
      <trkpt lat="48.38588" lon="2.52954">
        <ele>85</ele>
        <time>2021-03-05T12:09:36.961Z</time>
      </trkpt>
      <trkpt lat="48.38583" lon="2.52954">
        <ele>85</ele>
        <time>2021-03-05T12:09:41.961Z</time>
      </trkpt>
      <trkpt lat="48.38582" lon="2.52957">
        <ele>85</ele>
        <time>2021-03-05T12:09:46.956Z</time>
      </trkpt>
      <trkpt lat="48.38578" lon="2.5296">
        <ele>85</ele>
        <time>2021-03-05T12:09:51.954Z</time>
      </trkpt>
      <trkpt lat="48.38574" lon="2.52959">
        <ele>85</ele>
        <time>2021-03-05T12:09:56.954Z</time>
      </trkpt>
      <trkpt lat="48.38574" lon="2.52957">
        <ele>85</ele>
        <time>2021-03-05T12:10:00.970Z</time>
      </trkpt>
      <trkpt lat="48.38575" lon="2.52955">
        <ele>85</ele>
        <time>2021-03-05T12:10:05.964Z</time>
      </trkpt>
      <trkpt lat="48.38574" lon="2.5295">
        <ele>85</ele>
        <time>2021-03-05T12:10:10.957Z</time>
      </trkpt>
      <trkpt lat="48.38569" lon="2.52947">
        <ele>85</ele>
        <time>2021-03-05T12:10:15.967Z</time>
      </trkpt>
      <trkpt lat="48.38566" lon="2.52949">
        <ele>85</ele>
        <time>2021-03-05T12:10:20.967Z</time>
      </trkpt>
      <trkpt lat="48.38564" lon="2.52954">
        <ele>85</ele>
        <time>2021-03-05T12:10:25.964Z</time>
      </trkpt>
      <trkpt lat="48.38561" lon="2.52957">
        <ele>85</ele>
        <time>2021-03-05T12:10:30.967Z</time>
      </trkpt>
      <trkpt lat="48.38558" lon="2.52955">
        <ele>85</ele>
        <time>2021-03-05T12:10:34.966Z</time>
      </trkpt>
      <trkpt lat="48.38555" lon="2.5295">
        <ele>85</ele>
        <time>2021-03-05T12:10:39.955Z</time>
      </trkpt>
      <trkpt lat="48.38552" lon="2.52948">
        <ele>85</ele>
        <time>2021-03-05T12:10:43.970Z</time>
      </trkpt>
      <trkpt lat="48.38548" lon="2.5295">
        <ele>85</ele>
        <time>2021-03-05T12:10:48.964Z</time>
      </trkpt>
      <trkpt lat="48.38544" lon="2.52951">
        <ele>85</ele>
        <time>2021-03-05T12:10:53.967Z</time>
      </trkpt>
      <trkpt lat="48.38539" lon="2.52953">
        <ele>84</ele>
        <time>2021-03-05T12:10:58.966Z</time>
      </trkpt>
      <trkpt lat="48.38535" lon="2.52952">
        <ele>84</ele>
        <time>2021-03-05T12:11:03.951Z</time>
      </trkpt>
      <trkpt lat="48.38532" lon="2.52952">
        <ele>84</ele>
        <time>2021-03-05T12:11:07.959Z</time>
      </trkpt>
      <trkpt lat="48.38528" lon="2.52954">
        <ele>84</ele>
        <time>2021-03-05T12:11:12.959Z</time>
      </trkpt>
      <trkpt lat="48.38523" lon="2.52954">
        <ele>84</ele>
        <time>2021-03-05T12:11:17.952Z</time>
      </trkpt>
      <trkpt lat="48.3852" lon="2.52952">
        <ele>84</ele>
        <time>2021-03-05T12:11:21.948Z</time>
      </trkpt>
      <trkpt lat="48.38515" lon="2.5295">
        <ele>84</ele>
        <time>2021-03-05T12:11:26.943Z</time>
      </trkpt>
      <trkpt lat="48.38512" lon="2.52945">
        <ele>82</ele>
        <time>2021-03-05T12:11:30.943Z</time>
      </trkpt>
      <trkpt lat="48.38509" lon="2.52941">
        <ele>82</ele>
        <time>2021-03-05T12:11:34.960Z</time>
      </trkpt>
      <trkpt lat="48.38506" lon="2.52939">
        <ele>82</ele>
        <time>2021-03-05T12:11:38.968Z</time>
      </trkpt>
      <trkpt lat="48.38502" lon="2.52939">
        <ele>82</ele>
        <time>2021-03-05T12:11:43.969Z</time>
      </trkpt>
      <trkpt lat="48.38499" lon="2.52943">
        <ele>82</ele>
        <time>2021-03-05T12:11:48.959Z</time>
      </trkpt>
      <trkpt lat="48.38494" lon="2.52948">
        <ele>82</ele>
        <time>2021-03-05T12:11:53.954Z</time>
      </trkpt>
      <trkpt lat="48.3849" lon="2.52953">
        <ele>82</ele>
        <time>2021-03-05T12:11:57.963Z</time>
      </trkpt>
      <trkpt lat="48.38486" lon="2.52962">
        <ele>79</ele>
        <time>2021-03-05T12:12:02.967Z</time>
      </trkpt>
      <trkpt lat="48.38482" lon="2.52969">
        <ele>79</ele>
        <time>2021-03-05T12:12:07.969Z</time>
      </trkpt>
      <trkpt lat="48.38479" lon="2.52977">
        <ele>79</ele>
        <time>2021-03-05T12:12:12.962Z</time>
      </trkpt>
      <trkpt lat="48.38477" lon="2.52984">
        <ele>79</ele>
        <time>2021-03-05T12:12:16.975Z</time>
      </trkpt>
      <trkpt lat="48.38473" lon="2.52989">
        <ele>79</ele>
        <time>2021-03-05T12:12:21.960Z</time>
      </trkpt>
      <trkpt lat="48.38469" lon="2.52993">
        <ele>79</ele>
        <time>2021-03-05T12:12:26.959Z</time>
      </trkpt>
      <trkpt lat="48.38467" lon="2.53001">
        <ele>79</ele>
        <time>2021-03-05T12:12:31.960Z</time>
      </trkpt>
      <trkpt lat="48.38463" lon="2.53008">
        <ele>79</ele>
        <time>2021-03-05T12:12:36.952Z</time>
      </trkpt>
      <trkpt lat="48.38459" lon="2.53012">
        <ele>79</ele>
        <time>2021-03-05T12:12:40.963Z</time>
      </trkpt>
      <trkpt lat="48.38457" lon="2.53019">
        <ele>75</ele>
        <time>2021-03-05T12:12:44.980Z</time>
      </trkpt>
      <trkpt lat="48.38456" lon="2.53027">
        <ele>75</ele>
        <time>2021-03-05T12:12:49.945Z</time>
      </trkpt>
      <trkpt lat="48.38453" lon="2.53032">
        <ele>75</ele>
        <time>2021-03-05T12:12:53.961Z</time>
      </trkpt>
      <trkpt lat="48.38448" lon="2.53037">
        <ele>75</ele>
        <time>2021-03-05T12:12:58.959Z</time>
      </trkpt>
      <trkpt lat="48.38446" lon="2.53044">
        <ele>74</ele>
        <time>2021-03-05T12:13:03.947Z</time>
      </trkpt>
      <trkpt lat="48.38444" lon="2.53051">
        <ele>74</ele>
        <time>2021-03-05T12:13:07.975Z</time>
      </trkpt>
      <trkpt lat="48.38441" lon="2.5306">
        <ele>74</ele>
        <time>2021-03-05T12:13:12.969Z</time>
      </trkpt>
      <trkpt lat="48.38437" lon="2.53066">
        <ele>74</ele>
        <time>2021-03-05T12:13:17.953Z</time>
      </trkpt>
      <trkpt lat="48.38435" lon="2.53075">
        <ele>72</ele>
        <time>2021-03-05T12:13:22.942Z</time>
      </trkpt>
      <trkpt lat="48.38436" lon="2.53081">
        <ele>72</ele>
        <time>2021-03-05T12:13:27.964Z</time>
      </trkpt>
      <trkpt lat="48.38437" lon="2.53087">
        <ele>72</ele>
        <time>2021-03-05T12:13:32.966Z</time>
      </trkpt>
      <trkpt lat="48.38438" lon="2.53095">
        <ele>72</ele>
        <time>2021-03-05T12:13:37.949Z</time>
      </trkpt>
      <trkpt lat="48.3844" lon="2.53103">
        <ele>71</ele>
        <time>2021-03-05T12:13:41.961Z</time>
      </trkpt>
      <trkpt lat="48.38442" lon="2.53113">
        <ele>71</ele>
        <time>2021-03-05T12:13:46.959Z</time>
      </trkpt>
      <trkpt lat="48.38445" lon="2.53119">
        <ele>71</ele>
        <time>2021-03-05T12:13:50.967Z</time>
      </trkpt>
      <trkpt lat="48.38448" lon="2.53126">
        <ele>72</ele>
        <time>2021-03-05T12:13:55.955Z</time>
      </trkpt>
      <trkpt lat="48.38451" lon="2.53135">
        <ele>72</ele>
        <time>2021-03-05T12:14:00.964Z</time>
      </trkpt>
      <trkpt lat="48.38457" lon="2.53143">
        <ele>72</ele>
        <time>2021-03-05T12:14:05.953Z</time>
      </trkpt>
      <trkpt lat="48.3846" lon="2.53151">
        <ele>75</ele>
        <time>2021-03-05T12:14:10.956Z</time>
      </trkpt>
      <trkpt lat="48.38463" lon="2.5316">
        <ele>76</ele>
        <time>2021-03-05T12:14:15.950Z</time>
      </trkpt>
      <trkpt lat="48.38465" lon="2.53168">
        <ele>76</ele>
        <time>2021-03-05T12:14:20.968Z</time>
      </trkpt>
      <trkpt lat="48.38467" lon="2.53177">
        <ele>76</ele>
        <time>2021-03-05T12:14:25.956Z</time>
      </trkpt>
      <trkpt lat="48.3847" lon="2.53183">
        <ele>76</ele>
        <time>2021-03-05T12:14:29.956Z</time>
      </trkpt>
      <trkpt lat="48.38474" lon="2.5319">
        <ele>76</ele>
        <time>2021-03-05T12:14:34.968Z</time>
      </trkpt>
      <trkpt lat="48.38478" lon="2.53198">
        <ele>76</ele>
        <time>2021-03-05T12:14:39.956Z</time>
      </trkpt>
      <trkpt lat="48.38482" lon="2.53205">
        <ele>76</ele>
        <time>2021-03-05T12:14:43.961Z</time>
      </trkpt>
      <trkpt lat="48.38487" lon="2.53213">
        <ele>79</ele>
        <time>2021-03-05T12:14:48.957Z</time>
      </trkpt>
      <trkpt lat="48.38491" lon="2.53221">
        <ele>79</ele>
        <time>2021-03-05T12:14:53.966Z</time>
      </trkpt>
      <trkpt lat="48.38495" lon="2.5323">
        <ele>79</ele>
        <time>2021-03-05T12:14:58.952Z</time>
      </trkpt>
      <trkpt lat="48.38498" lon="2.53238">
        <ele>78</ele>
        <time>2021-03-05T12:15:03.956Z</time>
      </trkpt>
      <trkpt lat="48.385" lon="2.53246">
        <ele>78</ele>
        <time>2021-03-05T12:15:07.984Z</time>
      </trkpt>
      <trkpt lat="48.38503" lon="2.53254">
        <ele>78</ele>
        <time>2021-03-05T12:15:12.951Z</time>
      </trkpt>
      <trkpt lat="48.38506" lon="2.53261">
        <ele>78</ele>
        <time>2021-03-05T12:15:17.958Z</time>
      </trkpt>
      <trkpt lat="48.38508" lon="2.53268">
        <ele>78</ele>
        <time>2021-03-05T12:15:22.956Z</time>
      </trkpt>
      <trkpt lat="48.3851" lon="2.53274">
        <ele>78</ele>
        <time>2021-03-05T12:15:26.966Z</time>
      </trkpt>
      <trkpt lat="48.38512" lon="2.53284">
        <ele>78</ele>
        <time>2021-03-05T12:15:31.957Z</time>
      </trkpt>
      <trkpt lat="48.38512" lon="2.53292">
        <ele>79</ele>
        <time>2021-03-05T12:15:35.965Z</time>
      </trkpt>
      <trkpt lat="48.38512" lon="2.533">
        <ele>79</ele>
        <time>2021-03-05T12:15:40.952Z</time>
      </trkpt>
      <trkpt lat="48.38509" lon="2.53306">
        <ele>79</ele>
        <time>2021-03-05T12:15:45.963Z</time>
      </trkpt>
      <trkpt lat="48.38506" lon="2.53315">
        <ele>79</ele>
        <time>2021-03-05T12:15:50.965Z</time>
      </trkpt>
      <trkpt lat="48.38508" lon="2.5332">
        <ele>79</ele>
        <time>2021-03-05T12:15:55.958Z</time>
      </trkpt>
      <trkpt lat="48.38509" lon="2.53325">
        <ele>79</ele>
        <time>2021-03-05T12:15:59.960Z</time>
      </trkpt>
      <trkpt lat="48.38508" lon="2.53332">
        <ele>79</ele>
        <time>2021-03-05T12:16:04.954Z</time>
      </trkpt>
      <trkpt lat="48.38509" lon="2.53339">
        <ele>79</ele>
        <time>2021-03-05T12:16:08.962Z</time>
      </trkpt>
      <trkpt lat="48.38511" lon="2.53345">
        <ele>79</ele>
        <time>2021-03-05T12:16:12.966Z</time>
      </trkpt>
      <trkpt lat="48.38512" lon="2.53353">
        <ele>80</ele>
        <time>2021-03-05T12:16:17.948Z</time>
      </trkpt>
      <trkpt lat="48.3851" lon="2.53358">
        <ele>80</ele>
        <time>2021-03-05T12:16:22.971Z</time>
      </trkpt>
      <trkpt lat="48.38504" lon="2.5336">
        <ele>80</ele>
        <time>2021-03-05T12:16:27.951Z</time>
      </trkpt>
      <trkpt lat="48.38501" lon="2.53363">
        <ele>80</ele>
        <time>2021-03-05T12:16:31.969Z</time>
      </trkpt>
      <trkpt lat="48.38495" lon="2.53365">
        <ele>80</ele>
        <time>2021-03-05T12:16:36.948Z</time>
      </trkpt>
      <trkpt lat="48.38491" lon="2.53367">
        <ele>80</ele>
        <time>2021-03-05T12:16:40.964Z</time>
      </trkpt>
      <trkpt lat="48.38486" lon="2.5337">
        <ele>80</ele>
        <time>2021-03-05T12:16:45.968Z</time>
      </trkpt>
      <trkpt lat="48.38482" lon="2.53374">
        <ele>80</ele>
        <time>2021-03-05T12:16:50.963Z</time>
      </trkpt>
      <trkpt lat="48.38478" lon="2.53379">
        <ele>81</ele>
        <time>2021-03-05T12:16:54.963Z</time>
      </trkpt>
      <trkpt lat="48.38473" lon="2.53384">
        <ele>81</ele>
        <time>2021-03-05T12:16:59.951Z</time>
      </trkpt>
      <trkpt lat="48.38469" lon="2.53389">
        <ele>81</ele>
        <time>2021-03-05T12:17:03.963Z</time>
      </trkpt>
      <trkpt lat="48.38465" lon="2.53396">
        <ele>81</ele>
        <time>2021-03-05T12:17:08.962Z</time>
      </trkpt>
      <trkpt lat="48.38461" lon="2.53402">
        <ele>81</ele>
        <time>2021-03-05T12:17:13.968Z</time>
      </trkpt>
      <trkpt lat="48.38456" lon="2.53407">
        <ele>80</ele>
        <time>2021-03-05T12:17:18.945Z</time>
      </trkpt>
      <trkpt lat="48.38452" lon="2.53412">
        <ele>80</ele>
        <time>2021-03-05T12:17:22.952Z</time>
      </trkpt>
      <trkpt lat="48.38447" lon="2.53417">
        <ele>80</ele>
        <time>2021-03-05T12:17:26.959Z</time>
      </trkpt>
      <trkpt lat="48.38444" lon="2.5342">
        <ele>80</ele>
        <time>2021-03-05T12:17:30.965Z</time>
      </trkpt>
      <trkpt lat="48.38437" lon="2.53423">
        <ele>80</ele>
        <time>2021-03-05T12:17:35.958Z</time>
      </trkpt>
      <trkpt lat="48.38432" lon="2.53426">
        <ele>80</ele>
        <time>2021-03-05T12:17:39.952Z</time>
      </trkpt>
      <trkpt lat="48.38427" lon="2.5343">
        <ele>78</ele>
        <time>2021-03-05T12:17:43.964Z</time>
      </trkpt>
      <trkpt lat="48.38422" lon="2.53435">
        <ele>79</ele>
        <time>2021-03-05T12:17:48.967Z</time>
      </trkpt>
      <trkpt lat="48.38415" lon="2.53439">
        <ele>79</ele>
        <time>2021-03-05T12:17:53.949Z</time>
      </trkpt>
      <trkpt lat="48.3841" lon="2.53443">
        <ele>79</ele>
        <time>2021-03-05T12:17:58.958Z</time>
      </trkpt>
      <trkpt lat="48.38405" lon="2.53447">
        <ele>79</ele>
        <time>2021-03-05T12:18:02.966Z</time>
      </trkpt>
      <trkpt lat="48.38401" lon="2.53456">
        <ele>78</ele>
        <time>2021-03-05T12:18:07.944Z</time>
      </trkpt>
      <trkpt lat="48.38397" lon="2.53463">
        <ele>78</ele>
        <time>2021-03-05T12:18:12.967Z</time>
      </trkpt>
      <trkpt lat="48.38393" lon="2.53472">
        <ele>78</ele>
        <time>2021-03-05T12:18:17.944Z</time>
      </trkpt>
      <trkpt lat="48.38391" lon="2.53482">
        <ele>78</ele>
        <time>2021-03-05T12:18:22.960Z</time>
      </trkpt>
      <trkpt lat="48.38389" lon="2.53492">
        <ele>79</ele>
        <time>2021-03-05T12:18:27.969Z</time>
      </trkpt>
      <trkpt lat="48.38389" lon="2.53502">
        <ele>79</ele>
        <time>2021-03-05T12:18:32.964Z</time>
      </trkpt>
      <trkpt lat="48.38387" lon="2.53512">
        <ele>79</ele>
        <time>2021-03-05T12:18:37.954Z</time>
      </trkpt>
      <trkpt lat="48.38384" lon="2.53519">
        <ele>79</ele>
        <time>2021-03-05T12:18:41.967Z</time>
      </trkpt>
      <trkpt lat="48.38384" lon="2.53527">
        <ele>79</ele>
        <time>2021-03-05T12:18:46.967Z</time>
      </trkpt>
      <trkpt lat="48.38383" lon="2.53536">
        <ele>79</ele>
        <time>2021-03-05T12:18:51.968Z</time>
      </trkpt>
      <trkpt lat="48.38383" lon="2.53546">
        <ele>79</ele>
        <time>2021-03-05T12:18:56.953Z</time>
      </trkpt>
      <trkpt lat="48.38382" lon="2.53557">
        <ele>79</ele>
        <time>2021-03-05T12:19:01.949Z</time>
      </trkpt>
      <trkpt lat="48.38381" lon="2.53564">
        <ele>79</ele>
        <time>2021-03-05T12:19:05.969Z</time>
      </trkpt>
      <trkpt lat="48.3838" lon="2.53575">
        <ele>80</ele>
        <time>2021-03-05T12:19:10.955Z</time>
      </trkpt>
      <trkpt lat="48.38381" lon="2.53585">
        <ele>80</ele>
        <time>2021-03-05T12:19:15.963Z</time>
      </trkpt>
      <trkpt lat="48.38382" lon="2.53593">
        <ele>80</ele>
        <time>2021-03-05T12:19:20.954Z</time>
      </trkpt>
      <trkpt lat="48.38382" lon="2.536">
        <ele>81</ele>
        <time>2021-03-05T12:19:24.969Z</time>
      </trkpt>
      <trkpt lat="48.38384" lon="2.53609">
        <ele>81</ele>
        <time>2021-03-05T12:19:29.959Z</time>
      </trkpt>
      <trkpt lat="48.38386" lon="2.53618">
        <ele>81</ele>
        <time>2021-03-05T12:19:34.969Z</time>
      </trkpt>
      <trkpt lat="48.38387" lon="2.53627">
        <ele>83</ele>
        <time>2021-03-05T12:19:38.972Z</time>
      </trkpt>
      <trkpt lat="48.38388" lon="2.53636">
        <ele>83</ele>
        <time>2021-03-05T12:19:43.963Z</time>
      </trkpt>
      <trkpt lat="48.38389" lon="2.53646">
        <ele>83</ele>
        <time>2021-03-05T12:19:48.966Z</time>
      </trkpt>
      <trkpt lat="48.38388" lon="2.53655">
        <ele>84</ele>
        <time>2021-03-05T12:19:53.968Z</time>
      </trkpt>
      <trkpt lat="48.3839" lon="2.53663">
        <ele>84</ele>
        <time>2021-03-05T12:19:58.965Z</time>
      </trkpt>
      <trkpt lat="48.38392" lon="2.53672">
        <ele>84</ele>
        <time>2021-03-05T12:20:03.955Z</time>
      </trkpt>
      <trkpt lat="48.38393" lon="2.5368">
        <ele>84</ele>
        <time>2021-03-05T12:20:07.962Z</time>
      </trkpt>
      <trkpt lat="48.38395" lon="2.53689">
        <ele>85</ele>
        <time>2021-03-05T12:20:12.961Z</time>
      </trkpt>
      <trkpt lat="48.38397" lon="2.53699">
        <ele>85</ele>
        <time>2021-03-05T12:20:17.955Z</time>
      </trkpt>
      <trkpt lat="48.38398" lon="2.53706">
        <ele>85</ele>
        <time>2021-03-05T12:20:21.970Z</time>
      </trkpt>
      <trkpt lat="48.384" lon="2.53714">
        <ele>86</ele>
        <time>2021-03-05T12:20:26.955Z</time>
      </trkpt>
      <trkpt lat="48.38402" lon="2.53721">
        <ele>86</ele>
        <time>2021-03-05T12:20:30.971Z</time>
      </trkpt>
      <trkpt lat="48.38404" lon="2.53729">
        <ele>92</ele>
        <time>2021-03-05T12:20:35.961Z</time>
      </trkpt>
      <trkpt lat="48.38405" lon="2.53736">
        <ele>92</ele>
        <time>2021-03-05T12:20:39.969Z</time>
      </trkpt>
      <trkpt lat="48.38405" lon="2.53744">
        <ele>94</ele>
        <time>2021-03-05T12:20:44.969Z</time>
      </trkpt>
      <trkpt lat="48.38406" lon="2.53753">
        <ele>94</ele>
        <time>2021-03-05T12:20:49.956Z</time>
      </trkpt>
      <trkpt lat="48.38407" lon="2.53761">
        <ele>94</ele>
        <time>2021-03-05T12:20:53.958Z</time>
      </trkpt>
      <trkpt lat="48.38407" lon="2.53768">
        <ele>96</ele>
        <time>2021-03-05T12:20:57.964Z</time>
      </trkpt>
      <trkpt lat="48.38407" lon="2.53776">
        <ele>96</ele>
        <time>2021-03-05T12:21:02.956Z</time>
      </trkpt>
      <trkpt lat="48.38405" lon="2.53785">
        <ele>96</ele>
        <time>2021-03-05T12:21:06.951Z</time>
      </trkpt>
      <trkpt lat="48.38402" lon="2.53796">
        <ele>90</ele>
        <time>2021-03-05T12:21:11.952Z</time>
      </trkpt>
      <trkpt lat="48.38401" lon="2.53805">
        <ele>90</ele>
        <time>2021-03-05T12:21:15.955Z</time>
      </trkpt>
      <trkpt lat="48.38399" lon="2.53814">
        <ele>90</ele>
        <time>2021-03-05T12:21:20.950Z</time>
      </trkpt>
      <trkpt lat="48.38396" lon="2.53821">
        <ele>91</ele>
        <time>2021-03-05T12:21:24.956Z</time>
      </trkpt>
      <trkpt lat="48.38394" lon="2.53827">
        <ele>91</ele>
        <time>2021-03-05T12:21:28.950Z</time>
      </trkpt>
      <trkpt lat="48.38392" lon="2.53835">
        <ele>91</ele>
        <time>2021-03-05T12:21:33.948Z</time>
      </trkpt>
      <trkpt lat="48.38389" lon="2.53842">
        <ele>91</ele>
        <time>2021-03-05T12:21:37.952Z</time>
      </trkpt>
      <trkpt lat="48.38387" lon="2.53849">
        <ele>92</ele>
        <time>2021-03-05T12:21:41.954Z</time>
      </trkpt>
      <trkpt lat="48.38383" lon="2.53857">
        <ele>92</ele>
        <time>2021-03-05T12:21:46.951Z</time>
      </trkpt>
      <trkpt lat="48.38381" lon="2.53863">
        <ele>92</ele>
        <time>2021-03-05T12:21:50.954Z</time>
      </trkpt>
      <trkpt lat="48.38376" lon="2.5387">
        <ele>92</ele>
        <time>2021-03-05T12:21:55.953Z</time>
      </trkpt>
      <trkpt lat="48.38372" lon="2.53875">
        <ele>86</ele>
        <time>2021-03-05T12:21:59.952Z</time>
      </trkpt>
      <trkpt lat="48.38368" lon="2.53884">
        <ele>88</ele>
        <time>2021-03-05T12:22:04.947Z</time>
      </trkpt>
      <trkpt lat="48.38366" lon="2.53893">
        <ele>88</ele>
        <time>2021-03-05T12:22:08.959Z</time>
      </trkpt>
      <trkpt lat="48.38362" lon="2.53902">
        <ele>88</ele>
        <time>2021-03-05T12:22:13.946Z</time>
      </trkpt>
      <trkpt lat="48.38359" lon="2.53909">
        <ele>90</ele>
        <time>2021-03-05T12:22:17.969Z</time>
      </trkpt>
      <trkpt lat="48.38356" lon="2.53918">
        <ele>90</ele>
        <time>2021-03-05T12:22:22.954Z</time>
      </trkpt>
      <trkpt lat="48.38352" lon="2.53927">
        <ele>90</ele>
        <time>2021-03-05T12:22:27.960Z</time>
      </trkpt>
      <trkpt lat="48.38349" lon="2.53934">
        <ele>91</ele>
        <time>2021-03-05T12:22:32.958Z</time>
      </trkpt>
      <trkpt lat="48.38344" lon="2.53941">
        <ele>86</ele>
        <time>2021-03-05T12:22:37.955Z</time>
      </trkpt>
      <trkpt lat="48.38343" lon="2.53948">
        <ele>86</ele>
        <time>2021-03-05T12:22:41.964Z</time>
      </trkpt>
      <trkpt lat="48.3834" lon="2.53957">
        <ele>86</ele>
        <time>2021-03-05T12:22:46.949Z</time>
      </trkpt>
      <trkpt lat="48.38338" lon="2.53964">
        <ele>86</ele>
        <time>2021-03-05T12:22:50.967Z</time>
      </trkpt>
      <trkpt lat="48.38337" lon="2.53973">
        <ele>86</ele>
        <time>2021-03-05T12:22:55.960Z</time>
      </trkpt>
      <trkpt lat="48.38335" lon="2.53981">
        <ele>86</ele>
        <time>2021-03-05T12:23:00.961Z</time>
      </trkpt>
      <trkpt lat="48.38331" lon="2.53992">
        <ele>86</ele>
        <time>2021-03-05T12:23:05.943Z</time>
      </trkpt>
      <trkpt lat="48.38329" lon="2.53998">
        <ele>86</ele>
        <time>2021-03-05T12:23:09.953Z</time>
      </trkpt>
      <trkpt lat="48.38326" lon="2.54004">
        <ele>86</ele>
        <time>2021-03-05T12:23:13.951Z</time>
      </trkpt>
      <trkpt lat="48.38323" lon="2.54012">
        <ele>86</ele>
        <time>2021-03-05T12:23:18.964Z</time>
      </trkpt>
      <trkpt lat="48.38319" lon="2.54019">
        <ele>83</ele>
        <time>2021-03-05T12:23:23.948Z</time>
      </trkpt>
      <trkpt lat="48.38316" lon="2.54026">
        <ele>83</ele>
        <time>2021-03-05T12:23:28.945Z</time>
      </trkpt>
      <trkpt lat="48.38313" lon="2.54033">
        <ele>83</ele>
        <time>2021-03-05T12:23:32.969Z</time>
      </trkpt>
      <trkpt lat="48.38309" lon="2.54039">
        <ele>83</ele>
        <time>2021-03-05T12:23:36.969Z</time>
      </trkpt>
      <trkpt lat="48.38304" lon="2.54046">
        <ele>83</ele>
        <time>2021-03-05T12:23:41.937Z</time>
      </trkpt>
      <trkpt lat="48.38301" lon="2.54049">
        <ele>83</ele>
        <time>2021-03-05T12:23:45.949Z</time>
      </trkpt>
      <trkpt lat="48.38295" lon="2.54053">
        <ele>83</ele>
        <time>2021-03-05T12:23:50.956Z</time>
      </trkpt>
      <trkpt lat="48.38292" lon="2.54058">
        <ele>81</ele>
        <time>2021-03-05T12:23:54.968Z</time>
      </trkpt>
      <trkpt lat="48.38286" lon="2.54064">
        <ele>81</ele>
        <time>2021-03-05T12:23:59.971Z</time>
      </trkpt>
      <trkpt lat="48.38281" lon="2.5407">
        <ele>82</ele>
        <time>2021-03-05T12:24:04.960Z</time>
      </trkpt>
      <trkpt lat="48.38277" lon="2.54076">
        <ele>82</ele>
        <time>2021-03-05T12:24:09.970Z</time>
      </trkpt>
      <trkpt lat="48.38274" lon="2.54083">
        <ele>82</ele>
        <time>2021-03-05T12:24:14.964Z</time>
      </trkpt>
      <trkpt lat="48.38271" lon="2.54089">
        <ele>82</ele>
        <time>2021-03-05T12:24:19.950Z</time>
      </trkpt>
      <trkpt lat="48.38268" lon="2.54094">
        <ele>82</ele>
        <time>2021-03-05T12:24:23.966Z</time>
      </trkpt>
      <trkpt lat="48.38269" lon="2.54104">
        <ele>83</ele>
        <time>2021-03-05T12:24:28.963Z</time>
      </trkpt>
      <trkpt lat="48.38271" lon="2.54113">
        <ele>83</ele>
        <time>2021-03-05T12:24:33.945Z</time>
      </trkpt>
      <trkpt lat="48.3827" lon="2.54121">
        <ele>83</ele>
        <time>2021-03-05T12:24:37.966Z</time>
      </trkpt>
      <trkpt lat="48.38271" lon="2.5413">
        <ele>85</ele>
        <time>2021-03-05T12:24:42.968Z</time>
      </trkpt>
      <trkpt lat="48.3827" lon="2.54138">
        <ele>85</ele>
        <time>2021-03-05T12:24:47.964Z</time>
      </trkpt>
      <trkpt lat="48.38267" lon="2.54144">
        <ele>85</ele>
        <time>2021-03-05T12:24:52.952Z</time>
      </trkpt>
      <trkpt lat="48.38266" lon="2.54151">
        <ele>85</ele>
        <time>2021-03-05T12:24:56.958Z</time>
      </trkpt>
      <trkpt lat="48.38265" lon="2.54161">
        <ele>87</ele>
        <time>2021-03-05T12:25:01.968Z</time>
      </trkpt>
      <trkpt lat="48.38264" lon="2.5417">
        <ele>87</ele>
        <time>2021-03-05T12:25:06.983Z</time>
      </trkpt>
      <trkpt lat="48.38263" lon="2.5418">
        <ele>82</ele>
        <time>2021-03-05T12:25:11.956Z</time>
      </trkpt>
      <trkpt lat="48.38261" lon="2.54188">
        <ele>83</ele>
        <time>2021-03-05T12:25:16.966Z</time>
      </trkpt>
      <trkpt lat="48.38259" lon="2.54197">
        <ele>83</ele>
        <time>2021-03-05T12:25:21.968Z</time>
      </trkpt>
      <trkpt lat="48.38259" lon="2.54207">
        <ele>83</ele>
        <time>2021-03-05T12:25:26.964Z</time>
      </trkpt>
      <trkpt lat="48.38261" lon="2.54214">
        <ele>83</ele>
        <time>2021-03-05T12:25:30.977Z</time>
      </trkpt>
      <trkpt lat="48.38262" lon="2.54224">
        <ele>83</ele>
        <time>2021-03-05T12:25:35.959Z</time>
      </trkpt>
      <trkpt lat="48.38262" lon="2.54233">
        <ele>83</ele>
        <time>2021-03-05T12:25:39.968Z</time>
      </trkpt>
      <trkpt lat="48.38261" lon="2.54242">
        <ele>83</ele>
        <time>2021-03-05T12:25:44.968Z</time>
      </trkpt>
      <trkpt lat="48.38261" lon="2.54251">
        <ele>83</ele>
        <time>2021-03-05T12:25:49.967Z</time>
      </trkpt>
      <trkpt lat="48.38262" lon="2.5426">
        <ele>83</ele>
        <time>2021-03-05T12:25:54.963Z</time>
      </trkpt>
      <trkpt lat="48.38263" lon="2.5427">
        <ele>83</ele>
        <time>2021-03-05T12:25:59.945Z</time>
      </trkpt>
      <trkpt lat="48.38262" lon="2.54277">
        <ele>83</ele>
        <time>2021-03-05T12:26:03.965Z</time>
      </trkpt>
      <trkpt lat="48.38261" lon="2.54287">
        <ele>83</ele>
        <time>2021-03-05T12:26:08.957Z</time>
      </trkpt>
      <trkpt lat="48.38261" lon="2.54295">
        <ele>85</ele>
        <time>2021-03-05T12:26:12.962Z</time>
      </trkpt>
      <trkpt lat="48.38259" lon="2.54303">
        <ele>85</ele>
        <time>2021-03-05T12:26:17.967Z</time>
      </trkpt>
      <trkpt lat="48.38259" lon="2.54312">
        <ele>85</ele>
        <time>2021-03-05T12:26:22.963Z</time>
      </trkpt>
      <trkpt lat="48.38258" lon="2.54322">
        <ele>87</ele>
        <time>2021-03-05T12:26:27.961Z</time>
      </trkpt>
      <trkpt lat="48.38256" lon="2.54331">
        <ele>87</ele>
        <time>2021-03-05T12:26:32.966Z</time>
      </trkpt>
      <trkpt lat="48.38255" lon="2.5434">
        <ele>87</ele>
        <time>2021-03-05T12:26:37.960Z</time>
      </trkpt>
      <trkpt lat="48.38252" lon="2.54348">
        <ele>89</ele>
        <time>2021-03-05T12:26:42.961Z</time>
      </trkpt>
      <trkpt lat="48.38249" lon="2.54356">
        <ele>89</ele>
        <time>2021-03-05T12:26:47.952Z</time>
      </trkpt>
      <trkpt lat="48.38247" lon="2.54365">
        <ele>89</ele>
        <time>2021-03-05T12:26:52.962Z</time>
      </trkpt>
      <trkpt lat="48.38244" lon="2.54373">
        <ele>89</ele>
        <time>2021-03-05T12:26:57.954Z</time>
      </trkpt>
      <trkpt lat="48.3824" lon="2.54382">
        <ele>91</ele>
        <time>2021-03-05T12:27:02.954Z</time>
      </trkpt>
      <trkpt lat="48.38234" lon="2.54388">
        <ele>88</ele>
        <time>2021-03-05T12:27:07.955Z</time>
      </trkpt>
      <trkpt lat="48.38231" lon="2.54392">
        <ele>88</ele>
        <time>2021-03-05T12:27:11.965Z</time>
      </trkpt>
      <trkpt lat="48.38226" lon="2.54397">
        <ele>88</ele>
        <time>2021-03-05T12:27:16.969Z</time>
      </trkpt>
      <trkpt lat="48.38221" lon="2.54399">
        <ele>88</ele>
        <time>2021-03-05T12:27:21.954Z</time>
      </trkpt>
      <trkpt lat="48.38216" lon="2.54403">
        <ele>88</ele>
        <time>2021-03-05T12:27:26.962Z</time>
      </trkpt>
      <trkpt lat="48.38214" lon="2.54409">
        <ele>90</ele>
        <time>2021-03-05T12:27:30.967Z</time>
      </trkpt>
      <trkpt lat="48.38209" lon="2.54415">
        <ele>90</ele>
        <time>2021-03-05T12:27:35.962Z</time>
      </trkpt>
      <trkpt lat="48.38205" lon="2.54417">
        <ele>88</ele>
        <time>2021-03-05T12:27:40.953Z</time>
      </trkpt>
      <trkpt lat="48.38201" lon="2.54415">
        <ele>88</ele>
        <time>2021-03-05T12:27:45.963Z</time>
      </trkpt>
      <trkpt lat="48.38193" lon="2.54416">
        <ele>88</ele>
        <time>2021-03-05T12:27:50.953Z</time>
      </trkpt>
      <trkpt lat="48.3819" lon="2.54417">
        <ele>88</ele>
        <time>2021-03-05T12:27:54.953Z</time>
      </trkpt>
      <trkpt lat="48.38184" lon="2.54416">
        <ele>88</ele>
        <time>2021-03-05T12:27:59.956Z</time>
      </trkpt>
      <trkpt lat="48.38178" lon="2.54416">
        <ele>85</ele>
        <time>2021-03-05T12:28:04.964Z</time>
      </trkpt>
      <trkpt lat="48.38172" lon="2.54414">
        <ele>85</ele>
        <time>2021-03-05T12:28:09.953Z</time>
      </trkpt>
      <trkpt lat="48.38168" lon="2.54413">
        <ele>85</ele>
        <time>2021-03-05T12:28:13.969Z</time>
      </trkpt>
      <trkpt lat="48.38163" lon="2.54409">
        <ele>85</ele>
        <time>2021-03-05T12:28:18.960Z</time>
      </trkpt>
      <trkpt lat="48.38158" lon="2.54406">
        <ele>85</ele>
        <time>2021-03-05T12:28:22.971Z</time>
      </trkpt>
      <trkpt lat="48.38153" lon="2.54404">
        <ele>84</ele>
        <time>2021-03-05T12:28:27.966Z</time>
      </trkpt>
      <trkpt lat="48.38147" lon="2.54402">
        <ele>82</ele>
        <time>2021-03-05T12:28:32.975Z</time>
      </trkpt>
      <trkpt lat="48.38142" lon="2.54398">
        <ele>82</ele>
        <time>2021-03-05T12:28:37.964Z</time>
      </trkpt>
      <trkpt lat="48.38136" lon="2.54394">
        <ele>82</ele>
        <time>2021-03-05T12:28:42.964Z</time>
      </trkpt>
      <trkpt lat="48.38131" lon="2.54393">
        <ele>82</ele>
        <time>2021-03-05T12:28:47.963Z</time>
      </trkpt>
      <trkpt lat="48.38125" lon="2.54391">
        <ele>81</ele>
        <time>2021-03-05T12:28:52.963Z</time>
      </trkpt>
      <trkpt lat="48.38119" lon="2.54391">
        <ele>81</ele>
        <time>2021-03-05T12:28:57.967Z</time>
      </trkpt>
      <trkpt lat="48.38113" lon="2.54389">
        <ele>81</ele>
        <time>2021-03-05T12:29:02.967Z</time>
      </trkpt>
      <trkpt lat="48.38107" lon="2.54389">
        <ele>81</ele>
        <time>2021-03-05T12:29:07.991Z</time>
      </trkpt>
      <trkpt lat="48.38101" lon="2.54392">
        <ele>81</ele>
        <time>2021-03-05T12:29:12.962Z</time>
      </trkpt>
      <trkpt lat="48.38096" lon="2.54394">
        <ele>80</ele>
        <time>2021-03-05T12:29:16.963Z</time>
      </trkpt>
      <trkpt lat="48.3809" lon="2.54398">
        <ele>80</ele>
        <time>2021-03-05T12:29:21.957Z</time>
      </trkpt>
      <trkpt lat="48.38084" lon="2.54402">
        <ele>80</ele>
        <time>2021-03-05T12:29:26.967Z</time>
      </trkpt>
      <trkpt lat="48.38078" lon="2.544">
        <ele>80</ele>
        <time>2021-03-05T12:29:31.953Z</time>
      </trkpt>
      <trkpt lat="48.38073" lon="2.54399">
        <ele>80</ele>
        <time>2021-03-05T12:29:35.968Z</time>
      </trkpt>
      <trkpt lat="48.38067" lon="2.544">
        <ele>80</ele>
        <time>2021-03-05T12:29:40.955Z</time>
      </trkpt>
      <trkpt lat="48.38062" lon="2.544">
        <ele>80</ele>
        <time>2021-03-05T12:29:44.965Z</time>
      </trkpt>
      <trkpt lat="48.38057" lon="2.54402">
        <ele>80</ele>
        <time>2021-03-05T12:29:49.943Z</time>
      </trkpt>
      <trkpt lat="48.38051" lon="2.54402">
        <ele>80</ele>
        <time>2021-03-05T12:29:53.967Z</time>
      </trkpt>
      <trkpt lat="48.38044" lon="2.54401">
        <ele>80</ele>
        <time>2021-03-05T12:29:58.957Z</time>
      </trkpt>
      <trkpt lat="48.3804" lon="2.54399">
        <ele>79</ele>
        <time>2021-03-05T12:30:02.969Z</time>
      </trkpt>
      <trkpt lat="48.38034" lon="2.54396">
        <ele>79</ele>
        <time>2021-03-05T12:30:07.968Z</time>
      </trkpt>
      <trkpt lat="48.38028" lon="2.54395">
        <ele>79</ele>
        <time>2021-03-05T12:30:12.971Z</time>
      </trkpt>
      <trkpt lat="48.38023" lon="2.54396">
        <ele>79</ele>
        <time>2021-03-05T12:30:17.954Z</time>
      </trkpt>
      <trkpt lat="48.38018" lon="2.54394">
        <ele>79</ele>
        <time>2021-03-05T12:30:21.957Z</time>
      </trkpt>
      <trkpt lat="48.38013" lon="2.54393">
        <ele>77</ele>
        <time>2021-03-05T12:30:26.948Z</time>
      </trkpt>
      <trkpt lat="48.38008" lon="2.54392">
        <ele>77</ele>
        <time>2021-03-05T12:30:30.953Z</time>
      </trkpt>
      <trkpt lat="48.38002" lon="2.54392">
        <ele>77</ele>
        <time>2021-03-05T12:30:35.962Z</time>
      </trkpt>
      <trkpt lat="48.37997" lon="2.5439">
        <ele>77</ele>
        <time>2021-03-05T12:30:39.962Z</time>
      </trkpt>
      <trkpt lat="48.37991" lon="2.5439">
        <ele>77</ele>
        <time>2021-03-05T12:30:44.965Z</time>
      </trkpt>
      <trkpt lat="48.37986" lon="2.54388">
        <ele>78</ele>
        <time>2021-03-05T12:30:49.953Z</time>
      </trkpt>
      <trkpt lat="48.37981" lon="2.54385">
        <ele>78</ele>
        <time>2021-03-05T12:30:53.955Z</time>
      </trkpt>
      <trkpt lat="48.37976" lon="2.54384">
        <ele>78</ele>
        <time>2021-03-05T12:30:58.954Z</time>
      </trkpt>
      <trkpt lat="48.37971" lon="2.54384">
        <ele>78</ele>
        <time>2021-03-05T12:31:03.959Z</time>
      </trkpt>
      <trkpt lat="48.37967" lon="2.54381">
        <ele>78</ele>
        <time>2021-03-05T12:31:07.967Z</time>
      </trkpt>
      <trkpt lat="48.37962" lon="2.5438">
        <ele>78</ele>
        <time>2021-03-05T12:31:11.969Z</time>
      </trkpt>
      <trkpt lat="48.37957" lon="2.54377">
        <ele>80</ele>
        <time>2021-03-05T12:31:16.966Z</time>
      </trkpt>
      <trkpt lat="48.37951" lon="2.54375">
        <ele>80</ele>
        <time>2021-03-05T12:31:21.964Z</time>
      </trkpt>
      <trkpt lat="48.37946" lon="2.54371">
        <ele>79</ele>
        <time>2021-03-05T12:31:26.943Z</time>
      </trkpt>
      <trkpt lat="48.37942" lon="2.54369">
        <ele>79</ele>
        <time>2021-03-05T12:31:30.969Z</time>
      </trkpt>
      <trkpt lat="48.37937" lon="2.54365">
        <ele>79</ele>
        <time>2021-03-05T12:31:35.944Z</time>
      </trkpt>
      <trkpt lat="48.37932" lon="2.5436">
        <ele>79</ele>
        <time>2021-03-05T12:31:39.960Z</time>
      </trkpt>
      <trkpt lat="48.37929" lon="2.54355">
        <ele>79</ele>
        <time>2021-03-05T12:31:43.961Z</time>
      </trkpt>
      <trkpt lat="48.37925" lon="2.54351">
        <ele>79</ele>
        <time>2021-03-05T12:31:48.944Z</time>
      </trkpt>
      <trkpt lat="48.3792" lon="2.5435">
        <ele>79</ele>
        <time>2021-03-05T12:31:52.968Z</time>
      </trkpt>
      <trkpt lat="48.37915" lon="2.54348">
        <ele>79</ele>
        <time>2021-03-05T12:31:57.959Z</time>
      </trkpt>
      <trkpt lat="48.3791" lon="2.54348">
        <ele>79</ele>
        <time>2021-03-05T12:32:02.964Z</time>
      </trkpt>
      <trkpt lat="48.37906" lon="2.54352">
        <ele>79</ele>
        <time>2021-03-05T12:32:06.966Z</time>
      </trkpt>
      <trkpt lat="48.37901" lon="2.54354">
        <ele>79</ele>
        <time>2021-03-05T12:32:11.967Z</time>
      </trkpt>
      <trkpt lat="48.37896" lon="2.54355">
        <ele>79</ele>
        <time>2021-03-05T12:32:16.975Z</time>
      </trkpt>
      <trkpt lat="48.37889" lon="2.54355">
        <ele>79</ele>
        <time>2021-03-05T12:32:21.963Z</time>
      </trkpt>
      <trkpt lat="48.37883" lon="2.54357">
        <ele>79</ele>
        <time>2021-03-05T12:32:26.962Z</time>
      </trkpt>
      <trkpt lat="48.37876" lon="2.5436">
        <ele>79</ele>
        <time>2021-03-05T12:32:31.964Z</time>
      </trkpt>
      <trkpt lat="48.3787" lon="2.54358">
        <ele>79</ele>
        <time>2021-03-05T12:32:36.964Z</time>
      </trkpt>
      <trkpt lat="48.37864" lon="2.54358">
        <ele>79</ele>
        <time>2021-03-05T12:32:41.956Z</time>
      </trkpt>
      <trkpt lat="48.37859" lon="2.54356">
        <ele>79</ele>
        <time>2021-03-05T12:32:45.965Z</time>
      </trkpt>
      <trkpt lat="48.37853" lon="2.54352">
        <ele>79</ele>
        <time>2021-03-05T12:32:50.957Z</time>
      </trkpt>
      <trkpt lat="48.37848" lon="2.54351">
        <ele>79</ele>
        <time>2021-03-05T12:32:54.972Z</time>
      </trkpt>
      <trkpt lat="48.37844" lon="2.54349">
        <ele>78</ele>
        <time>2021-03-05T12:32:58.964Z</time>
      </trkpt>
      <trkpt lat="48.37837" lon="2.54347">
        <ele>78</ele>
        <time>2021-03-05T12:33:03.947Z</time>
      </trkpt>
      <trkpt lat="48.37831" lon="2.54347">
        <ele>76</ele>
        <time>2021-03-05T12:33:07.959Z</time>
      </trkpt>
      <trkpt lat="48.37825" lon="2.54347">
        <ele>76</ele>
        <time>2021-03-05T12:33:12.952Z</time>
      </trkpt>
      <trkpt lat="48.37819" lon="2.54347">
        <ele>77</ele>
        <time>2021-03-05T12:33:17.969Z</time>
      </trkpt>
      <trkpt lat="48.37813" lon="2.54349">
        <ele>78</ele>
        <time>2021-03-05T12:33:22.957Z</time>
      </trkpt>
      <trkpt lat="48.37808" lon="2.54354">
        <ele>78</ele>
        <time>2021-03-05T12:33:27.962Z</time>
      </trkpt>
      <trkpt lat="48.37802" lon="2.54357">
        <ele>78</ele>
        <time>2021-03-05T12:33:32.957Z</time>
      </trkpt>
      <trkpt lat="48.37797" lon="2.54361">
        <ele>78</ele>
        <time>2021-03-05T12:33:37.970Z</time>
      </trkpt>
      <trkpt lat="48.37791" lon="2.54364">
        <ele>77</ele>
        <time>2021-03-05T12:33:42.967Z</time>
      </trkpt>
      <trkpt lat="48.37785" lon="2.5437">
        <ele>77</ele>
        <time>2021-03-05T12:33:47.969Z</time>
      </trkpt>
      <trkpt lat="48.3778" lon="2.54375">
        <ele>77</ele>
        <time>2021-03-05T12:33:52.969Z</time>
      </trkpt>
      <trkpt lat="48.37774" lon="2.5438">
        <ele>78</ele>
        <time>2021-03-05T12:33:57.968Z</time>
      </trkpt>
      <trkpt lat="48.37769" lon="2.54385">
        <ele>78</ele>
        <time>2021-03-05T12:34:02.964Z</time>
      </trkpt>
      <trkpt lat="48.37765" lon="2.54388">
        <ele>78</ele>
        <time>2021-03-05T12:34:06.969Z</time>
      </trkpt>
      <trkpt lat="48.3776" lon="2.54393">
        <ele>78</ele>
        <time>2021-03-05T12:34:11.970Z</time>
      </trkpt>
      <trkpt lat="48.37755" lon="2.54395">
        <ele>78</ele>
        <time>2021-03-05T12:34:16.968Z</time>
      </trkpt>
      <trkpt lat="48.37749" lon="2.54399">
        <ele>78</ele>
        <time>2021-03-05T12:34:21.958Z</time>
      </trkpt>
      <trkpt lat="48.37743" lon="2.54404">
        <ele>79</ele>
        <time>2021-03-05T12:34:26.956Z</time>
      </trkpt>
      <trkpt lat="48.37739" lon="2.54407">
        <ele>79</ele>
        <time>2021-03-05T12:34:30.966Z</time>
      </trkpt>
      <trkpt lat="48.37736" lon="2.5441">
        <ele>81</ele>
        <time>2021-03-05T12:34:35.956Z</time>
      </trkpt>
      <trkpt lat="48.37732" lon="2.54413">
        <ele>81</ele>
        <time>2021-03-05T12:34:40.965Z</time>
      </trkpt>
      <trkpt lat="48.3773" lon="2.54417">
        <ele>81</ele>
        <time>2021-03-05T12:34:45.955Z</time>
      </trkpt>
      <trkpt lat="48.37726" lon="2.54421">
        <ele>81</ele>
        <time>2021-03-05T12:34:50.958Z</time>
      </trkpt>
      <trkpt lat="48.37721" lon="2.54428">
        <ele>81</ele>
        <time>2021-03-05T12:34:55.958Z</time>
      </trkpt>
      <trkpt lat="48.37717" lon="2.54433">
        <ele>82</ele>
        <time>2021-03-05T12:35:00.957Z</time>
      </trkpt>
      <trkpt lat="48.37712" lon="2.54437">
        <ele>82</ele>
        <time>2021-03-05T12:35:05.962Z</time>
      </trkpt>
      <trkpt lat="48.37708" lon="2.54443">
        <ele>88</ele>
        <time>2021-03-05T12:35:10.964Z</time>
      </trkpt>
      <trkpt lat="48.37704" lon="2.54448">
        <ele>88</ele>
        <time>2021-03-05T12:35:15.959Z</time>
      </trkpt>
      <trkpt lat="48.377" lon="2.54454">
        <ele>88</ele>
        <time>2021-03-05T12:35:20.960Z</time>
      </trkpt>
      <trkpt lat="48.37696" lon="2.54461">
        <ele>89</ele>
        <time>2021-03-05T12:35:25.962Z</time>
      </trkpt>
      <trkpt lat="48.37692" lon="2.54467">
        <ele>89</ele>
        <time>2021-03-05T12:35:30.953Z</time>
      </trkpt>
      <trkpt lat="48.37689" lon="2.54471">
        <ele>89</ele>
        <time>2021-03-05T12:35:34.950Z</time>
      </trkpt>
      <trkpt lat="48.37686" lon="2.54477">
        <ele>89</ele>
        <time>2021-03-05T12:35:38.977Z</time>
      </trkpt>
      <trkpt lat="48.37685" lon="2.54487">
        <ele>91</ele>
        <time>2021-03-05T12:35:43.968Z</time>
      </trkpt>
      <trkpt lat="48.37683" lon="2.54495">
        <ele>91</ele>
        <time>2021-03-05T12:35:48.958Z</time>
      </trkpt>
      <trkpt lat="48.37682" lon="2.54502">
        <ele>91</ele>
        <time>2021-03-05T12:35:53.949Z</time>
      </trkpt>
      <trkpt lat="48.37679" lon="2.54506">
        <ele>99</ele>
        <time>2021-03-05T12:35:57.961Z</time>
      </trkpt>
      <trkpt lat="48.37678" lon="2.54514">
        <ele>99</ele>
        <time>2021-03-05T12:36:02.948Z</time>
      </trkpt>
      <trkpt lat="48.37677" lon="2.54521">
        <ele>99</ele>
        <time>2021-03-05T12:36:07.954Z</time>
      </trkpt>
      <trkpt lat="48.37677" lon="2.54528">
        <ele>99</ele>
        <time>2021-03-05T12:36:11.947Z</time>
      </trkpt>
      <trkpt lat="48.37677" lon="2.54538">
        <ele>99</ele>
        <time>2021-03-05T12:36:16.959Z</time>
      </trkpt>
      <trkpt lat="48.37677" lon="2.54544">
        <ele>99</ele>
        <time>2021-03-05T12:36:20.965Z</time>
      </trkpt>
      <trkpt lat="48.37676" lon="2.54552">
        <ele>99</ele>
        <time>2021-03-05T12:36:25.968Z</time>
      </trkpt>
      <trkpt lat="48.37675" lon="2.5456">
        <ele>99</ele>
        <time>2021-03-05T12:36:30.964Z</time>
      </trkpt>
      <trkpt lat="48.37675" lon="2.54566">
        <ele>99</ele>
        <time>2021-03-05T12:36:34.972Z</time>
      </trkpt>
      <trkpt lat="48.37673" lon="2.54574">
        <ele>97</ele>
        <time>2021-03-05T12:36:39.967Z</time>
      </trkpt>
      <trkpt lat="48.37672" lon="2.54581">
        <ele>97</ele>
        <time>2021-03-05T12:36:44.959Z</time>
      </trkpt>
      <trkpt lat="48.3767" lon="2.54588">
        <ele>97</ele>
        <time>2021-03-05T12:36:49.955Z</time>
      </trkpt>
      <trkpt lat="48.37669" lon="2.54596">
        <ele>97</ele>
        <time>2021-03-05T12:36:54.957Z</time>
      </trkpt>
      <trkpt lat="48.37667" lon="2.54604">
        <ele>98</ele>
        <time>2021-03-05T12:36:58.967Z</time>
      </trkpt>
      <trkpt lat="48.37666" lon="2.54611">
        <ele>98</ele>
        <time>2021-03-05T12:37:02.972Z</time>
      </trkpt>
      <trkpt lat="48.37664" lon="2.54619">
        <ele>98</ele>
        <time>2021-03-05T12:37:07.947Z</time>
      </trkpt>
      <trkpt lat="48.37662" lon="2.54628">
        <ele>99</ele>
        <time>2021-03-05T12:37:12.947Z</time>
      </trkpt>
      <trkpt lat="48.37661" lon="2.54635">
        <ele>99</ele>
        <time>2021-03-05T12:37:16.968Z</time>
      </trkpt>
      <trkpt lat="48.37659" lon="2.54643">
        <ele>99</ele>
        <time>2021-03-05T12:37:21.958Z</time>
      </trkpt>
      <trkpt lat="48.37658" lon="2.54651">
        <ele>99</ele>
        <time>2021-03-05T12:37:26.957Z</time>
      </trkpt>
      <trkpt lat="48.37657" lon="2.54658">
        <ele>100</ele>
        <time>2021-03-05T12:37:30.962Z</time>
      </trkpt>
      <trkpt lat="48.37655" lon="2.54668">
        <ele>100</ele>
        <time>2021-03-05T12:37:35.985Z</time>
      </trkpt>
      <trkpt lat="48.37651" lon="2.54675">
        <ele>105</ele>
        <time>2021-03-05T12:37:40.958Z</time>
      </trkpt>
      <trkpt lat="48.37647" lon="2.54682">
        <ele>106</ele>
        <time>2021-03-05T12:37:45.965Z</time>
      </trkpt>
      <trkpt lat="48.37642" lon="2.54689">
        <ele>106</ele>
        <time>2021-03-05T12:37:50.977Z</time>
      </trkpt>
      <trkpt lat="48.37637" lon="2.54694">
        <ele>106</ele>
        <time>2021-03-05T12:37:55.961Z</time>
      </trkpt>
      <trkpt lat="48.37634" lon="2.5469">
        <ele>106</ele>
        <time>2021-03-05T12:38:00.968Z</time>
      </trkpt>
      <trkpt lat="48.37629" lon="2.54693">
        <ele>106</ele>
        <time>2021-03-05T12:38:05.962Z</time>
      </trkpt>
      <trkpt lat="48.37623" lon="2.54693">
        <ele>106</ele>
        <time>2021-03-05T12:38:10.966Z</time>
      </trkpt>
      <trkpt lat="48.3762" lon="2.54692">
        <ele>106</ele>
        <time>2021-03-05T12:38:14.991Z</time>
      </trkpt>
      <trkpt lat="48.37619" lon="2.54688">
        <ele>106</ele>
        <time>2021-03-05T12:38:19.969Z</time>
      </trkpt>
      <trkpt lat="48.37617" lon="2.5468">
        <ele>106</ele>
        <time>2021-03-05T12:38:24.963Z</time>
      </trkpt>
      <trkpt lat="48.37615" lon="2.54672">
        <ele>106</ele>
        <time>2021-03-05T12:38:29.960Z</time>
      </trkpt>
      <trkpt lat="48.37617" lon="2.54674">
        <ele>106</ele>
        <time>2021-03-05T12:38:48.960Z</time>
      </trkpt>
      <trkpt lat="48.37617" lon="2.54675">
        <ele>106</ele>
        <time>2021-03-05T12:38:52.964Z</time>
      </trkpt>
      <trkpt lat="48.37615" lon="2.54675">
        <ele>106</ele>
        <time>2021-03-05T12:38:57.957Z</time>
      </trkpt>
      <trkpt lat="48.37611" lon="2.5468">
        <ele>106</ele>
        <time>2021-03-05T12:39:02.965Z</time>
      </trkpt>
      <trkpt lat="48.37606" lon="2.54684">
        <ele>106</ele>
        <time>2021-03-05T12:39:07.970Z</time>
      </trkpt>
      <trkpt lat="48.37606" lon="2.54693">
        <ele>106</ele>
        <time>2021-03-05T12:39:12.965Z</time>
      </trkpt>
      <trkpt lat="48.376" lon="2.54691">
        <ele>106</ele>
        <time>2021-03-05T12:39:17.961Z</time>
      </trkpt>
      <trkpt lat="48.37595" lon="2.54689">
        <ele>102</ele>
        <time>2021-03-05T12:39:21.968Z</time>
      </trkpt>
      <trkpt lat="48.37591" lon="2.54689">
        <ele>102</ele>
        <time>2021-03-05T12:39:26.977Z</time>
      </trkpt>
      <trkpt lat="48.37587" lon="2.54686">
        <ele>102</ele>
        <time>2021-03-05T12:39:31.954Z</time>
      </trkpt>
      <trkpt lat="48.37583" lon="2.5468">
        <ele>103</ele>
        <time>2021-03-05T12:39:36.953Z</time>
      </trkpt>
      <trkpt lat="48.37581" lon="2.54675">
        <ele>103</ele>
        <time>2021-03-05T12:39:41.947Z</time>
      </trkpt>
      <trkpt lat="48.37578" lon="2.54669">
        <ele>103</ele>
        <time>2021-03-05T12:39:45.966Z</time>
      </trkpt>
      <trkpt lat="48.37575" lon="2.54664">
        <ele>103</ele>
        <time>2021-03-05T12:39:50.963Z</time>
      </trkpt>
      <trkpt lat="48.37572" lon="2.54661">
        <ele>103</ele>
        <time>2021-03-05T12:39:54.963Z</time>
      </trkpt>
      <trkpt lat="48.37568" lon="2.54661">
        <ele>98</ele>
        <time>2021-03-05T12:39:59.958Z</time>
      </trkpt>
      <trkpt lat="48.37564" lon="2.54662">
        <ele>98</ele>
        <time>2021-03-05T12:40:03.964Z</time>
      </trkpt>
      <trkpt lat="48.37559" lon="2.54662">
        <ele>98</ele>
        <time>2021-03-05T12:40:08.963Z</time>
      </trkpt>
      <trkpt lat="48.37554" lon="2.54662">
        <ele>98</ele>
        <time>2021-03-05T12:40:13.958Z</time>
      </trkpt>
      <trkpt lat="48.3755" lon="2.54662">
        <ele>98</ele>
        <time>2021-03-05T12:40:17.961Z</time>
      </trkpt>
      <trkpt lat="48.37546" lon="2.54663">
        <ele>98</ele>
        <time>2021-03-05T12:40:22.957Z</time>
      </trkpt>
      <trkpt lat="48.37543" lon="2.54672">
        <ele>98</ele>
        <time>2021-03-05T12:40:27.964Z</time>
      </trkpt>
      <trkpt lat="48.37538" lon="2.54674">
        <ele>93</ele>
        <time>2021-03-05T12:40:32.966Z</time>
      </trkpt>
      <trkpt lat="48.37531" lon="2.54674">
        <ele>93</ele>
        <time>2021-03-05T12:40:37.967Z</time>
      </trkpt>
      <trkpt lat="48.37525" lon="2.54676">
        <ele>93</ele>
        <time>2021-03-05T12:40:42.961Z</time>
      </trkpt>
      <trkpt lat="48.37519" lon="2.54674">
        <ele>93</ele>
        <time>2021-03-05T12:40:47.960Z</time>
      </trkpt>
      <trkpt lat="48.37513" lon="2.54675">
        <ele>87</ele>
        <time>2021-03-05T12:40:52.970Z</time>
      </trkpt>
      <trkpt lat="48.37508" lon="2.54675">
        <ele>87</ele>
        <time>2021-03-05T12:40:57.959Z</time>
      </trkpt>
      <trkpt lat="48.37503" lon="2.54675">
        <ele>87</ele>
        <time>2021-03-05T12:41:02.959Z</time>
      </trkpt>
      <trkpt lat="48.37498" lon="2.54675">
        <ele>87</ele>
        <time>2021-03-05T12:41:06.967Z</time>
      </trkpt>
      <trkpt lat="48.37493" lon="2.54674">
        <ele>87</ele>
        <time>2021-03-05T12:41:11.960Z</time>
      </trkpt>
      <trkpt lat="48.37487" lon="2.54674">
        <ele>87</ele>
        <time>2021-03-05T12:41:16.952Z</time>
      </trkpt>
      <trkpt lat="48.37484" lon="2.54671">
        <ele>84</ele>
        <time>2021-03-05T12:41:20.955Z</time>
      </trkpt>
      <trkpt lat="48.37482" lon="2.54664">
        <ele>84</ele>
        <time>2021-03-05T12:41:24.962Z</time>
      </trkpt>
      <trkpt lat="48.37483" lon="2.54654">
        <ele>84</ele>
        <time>2021-03-05T12:41:29.962Z</time>
      </trkpt>
      <trkpt lat="48.37482" lon="2.54647">
        <ele>85</ele>
        <time>2021-03-05T12:41:33.972Z</time>
      </trkpt>
      <trkpt lat="48.37481" lon="2.54638">
        <ele>85</ele>
        <time>2021-03-05T12:41:38.952Z</time>
      </trkpt>
      <trkpt lat="48.3748" lon="2.54632">
        <ele>85</ele>
        <time>2021-03-05T12:41:42.960Z</time>
      </trkpt>
      <trkpt lat="48.37479" lon="2.54625">
        <ele>85</ele>
        <time>2021-03-05T12:41:47.958Z</time>
      </trkpt>
      <trkpt lat="48.37478" lon="2.54619">
        <ele>85</ele>
        <time>2021-03-05T12:41:52.957Z</time>
      </trkpt>
      <trkpt lat="48.37477" lon="2.54615">
        <ele>85</ele>
        <time>2021-03-05T12:41:57.946Z</time>
      </trkpt>
      <trkpt lat="48.37478" lon="2.54611">
        <ele>85</ele>
        <time>2021-03-05T12:42:01.955Z</time>
      </trkpt>
      <trkpt lat="48.37478" lon="2.54606">
        <ele>85</ele>
        <time>2021-03-05T12:42:06.962Z</time>
      </trkpt>
      <trkpt lat="48.37478" lon="2.54598">
        <ele>85</ele>
        <time>2021-03-05T12:42:11.958Z</time>
      </trkpt>
      <trkpt lat="48.37478" lon="2.54591">
        <ele>86</ele>
        <time>2021-03-05T12:42:16.947Z</time>
      </trkpt>
      <trkpt lat="48.3748" lon="2.54586">
        <ele>86</ele>
        <time>2021-03-05T12:42:20.955Z</time>
      </trkpt>
      <trkpt lat="48.37482" lon="2.54581">
        <ele>86</ele>
        <time>2021-03-05T12:42:25.964Z</time>
      </trkpt>
      <trkpt lat="48.37482" lon="2.54573">
        <ele>86</ele>
        <time>2021-03-05T12:42:30.973Z</time>
      </trkpt>
      <trkpt lat="48.37481" lon="2.54564">
        <ele>87</ele>
        <time>2021-03-05T12:42:35.963Z</time>
      </trkpt>
      <trkpt lat="48.37481" lon="2.54556">
        <ele>87</ele>
        <time>2021-03-05T12:42:40.984Z</time>
      </trkpt>
      <trkpt lat="48.37481" lon="2.54548">
        <ele>87</ele>
        <time>2021-03-05T12:42:45.949Z</time>
      </trkpt>
      <trkpt lat="48.37481" lon="2.54539">
        <ele>87</ele>
        <time>2021-03-05T12:42:50.964Z</time>
      </trkpt>
      <trkpt lat="48.3748" lon="2.5453">
        <ele>87</ele>
        <time>2021-03-05T12:42:55.948Z</time>
      </trkpt>
      <trkpt lat="48.3748" lon="2.54522">
        <ele>87</ele>
        <time>2021-03-05T12:42:59.976Z</time>
      </trkpt>
      <trkpt lat="48.37478" lon="2.54514">
        <ele>87</ele>
        <time>2021-03-05T12:43:04.952Z</time>
      </trkpt>
      <trkpt lat="48.37478" lon="2.54507">
        <ele>86</ele>
        <time>2021-03-05T12:43:08.964Z</time>
      </trkpt>
      <trkpt lat="48.37475" lon="2.54498">
        <ele>86</ele>
        <time>2021-03-05T12:43:13.944Z</time>
      </trkpt>
      <trkpt lat="48.37469" lon="2.54483">
        <ele>85</ele>
        <time>2021-03-05T12:43:37.962Z</time>
      </trkpt>
      <trkpt lat="48.37468" lon="2.54482">
        <ele>85</ele>
        <time>2021-03-05T12:43:42.967Z</time>
      </trkpt>
      <trkpt lat="48.37466" lon="2.54482">
        <ele>85</ele>
        <time>2021-03-05T12:43:47.955Z</time>
      </trkpt>
      <trkpt lat="48.37464" lon="2.54484">
        <ele>85</ele>
        <time>2021-03-05T12:43:52.972Z</time>
      </trkpt>
      <trkpt lat="48.37459" lon="2.5449">
        <ele>86</ele>
        <time>2021-03-05T12:43:57.952Z</time>
      </trkpt>
      <trkpt lat="48.37455" lon="2.54489">
        <ele>86</ele>
        <time>2021-03-05T12:44:01.960Z</time>
      </trkpt>
      <trkpt lat="48.37451" lon="2.54486">
        <ele>86</ele>
        <time>2021-03-05T12:44:06.946Z</time>
      </trkpt>
      <trkpt lat="48.37446" lon="2.54485">
        <ele>85</ele>
        <time>2021-03-05T12:44:11.964Z</time>
      </trkpt>
      <trkpt lat="48.3744" lon="2.54484">
        <ele>85</ele>
        <time>2021-03-05T12:44:16.957Z</time>
      </trkpt>
      <trkpt lat="48.37436" lon="2.54481">
        <ele>85</ele>
        <time>2021-03-05T12:44:20.967Z</time>
      </trkpt>
      <trkpt lat="48.37431" lon="2.54476">
        <ele>85</ele>
        <time>2021-03-05T12:44:25.960Z</time>
      </trkpt>
      <trkpt lat="48.37426" lon="2.54469">
        <ele>85</ele>
        <time>2021-03-05T12:44:30.952Z</time>
      </trkpt>
      <trkpt lat="48.37424" lon="2.54461">
        <ele>85</ele>
        <time>2021-03-05T12:44:35.967Z</time>
      </trkpt>
      <trkpt lat="48.37423" lon="2.54452">
        <ele>84</ele>
        <time>2021-03-05T12:44:40.966Z</time>
      </trkpt>
      <trkpt lat="48.3742" lon="2.54446">
        <ele>84</ele>
        <time>2021-03-05T12:44:45.967Z</time>
      </trkpt>
      <trkpt lat="48.37414" lon="2.54447">
        <ele>84</ele>
        <time>2021-03-05T12:44:50.966Z</time>
      </trkpt>
      <trkpt lat="48.37408" lon="2.54447">
        <ele>84</ele>
        <time>2021-03-05T12:44:55.964Z</time>
      </trkpt>
      <trkpt lat="48.37402" lon="2.54446">
        <ele>84</ele>
        <time>2021-03-05T12:45:00.954Z</time>
      </trkpt>
      <trkpt lat="48.37397" lon="2.54446">
        <ele>84</ele>
        <time>2021-03-05T12:45:04.960Z</time>
      </trkpt>
      <trkpt lat="48.37391" lon="2.54447">
        <ele>84</ele>
        <time>2021-03-05T12:45:09.963Z</time>
      </trkpt>
      <trkpt lat="48.37386" lon="2.5445">
        <ele>84</ele>
        <time>2021-03-05T12:45:14.963Z</time>
      </trkpt>
      <trkpt lat="48.3738" lon="2.54449">
        <ele>84</ele>
        <time>2021-03-05T12:45:19.950Z</time>
      </trkpt>
      <trkpt lat="48.37374" lon="2.54447">
        <ele>83</ele>
        <time>2021-03-05T12:45:24.969Z</time>
      </trkpt>
      <trkpt lat="48.37368" lon="2.54443">
        <ele>83</ele>
        <time>2021-03-05T12:45:29.958Z</time>
      </trkpt>
      <trkpt lat="48.37363" lon="2.54437">
        <ele>83</ele>
        <time>2021-03-05T12:45:34.961Z</time>
      </trkpt>
      <trkpt lat="48.3736" lon="2.54429">
        <ele>85</ele>
        <time>2021-03-05T12:45:39.959Z</time>
      </trkpt>
      <trkpt lat="48.37356" lon="2.54422">
        <ele>85</ele>
        <time>2021-03-05T12:45:44.964Z</time>
      </trkpt>
      <trkpt lat="48.37353" lon="2.54415">
        <ele>85</ele>
        <time>2021-03-05T12:45:49.947Z</time>
      </trkpt>
      <trkpt lat="48.3735" lon="2.54408">
        <ele>85</ele>
        <time>2021-03-05T12:45:54.947Z</time>
      </trkpt>
      <trkpt lat="48.37348" lon="2.54402">
        <ele>87</ele>
        <time>2021-03-05T12:45:58.953Z</time>
      </trkpt>
      <trkpt lat="48.37346" lon="2.54392">
        <ele>83</ele>
        <time>2021-03-05T12:46:03.960Z</time>
      </trkpt>
      <trkpt lat="48.37343" lon="2.54385">
        <ele>83</ele>
        <time>2021-03-05T12:46:07.971Z</time>
      </trkpt>
      <trkpt lat="48.37338" lon="2.54378">
        <ele>83</ele>
        <time>2021-03-05T12:46:12.966Z</time>
      </trkpt>
      <trkpt lat="48.37333" lon="2.54372">
        <ele>87</ele>
        <time>2021-03-05T12:46:17.956Z</time>
      </trkpt>
      <trkpt lat="48.37327" lon="2.54368">
        <ele>87</ele>
        <time>2021-03-05T12:46:22.961Z</time>
      </trkpt>
      <trkpt lat="48.37322" lon="2.54367">
        <ele>87</ele>
        <time>2021-03-05T12:46:27.959Z</time>
      </trkpt>
      <trkpt lat="48.37318" lon="2.54362">
        <ele>85</ele>
        <time>2021-03-05T12:46:32.959Z</time>
      </trkpt>
      <trkpt lat="48.37314" lon="2.54356">
        <ele>85</ele>
        <time>2021-03-05T12:46:37.953Z</time>
      </trkpt>
      <trkpt lat="48.3731" lon="2.54352">
        <ele>85</ele>
        <time>2021-03-05T12:46:41.967Z</time>
      </trkpt>
      <trkpt lat="48.37305" lon="2.54351">
        <ele>85</ele>
        <time>2021-03-05T12:46:46.964Z</time>
      </trkpt>
      <trkpt lat="48.37301" lon="2.54348">
        <ele>85</ele>
        <time>2021-03-05T12:46:50.974Z</time>
      </trkpt>
      <trkpt lat="48.37297" lon="2.54346">
        <ele>89</ele>
        <time>2021-03-05T12:46:55.960Z</time>
      </trkpt>
      <trkpt lat="48.37294" lon="2.54343">
        <ele>89</ele>
        <time>2021-03-05T12:47:00.955Z</time>
      </trkpt>
      <trkpt lat="48.37291" lon="2.54335">
        <ele>85</ele>
        <time>2021-03-05T12:47:05.951Z</time>
      </trkpt>
      <trkpt lat="48.37287" lon="2.54332">
        <ele>85</ele>
        <time>2021-03-05T12:47:09.956Z</time>
      </trkpt>
      <trkpt lat="48.37287" lon="2.54332">
        <ele>85</ele>
        <time>2021-03-05T12:47:19.945Z</time>
      </trkpt>
      <trkpt lat="48.37286" lon="2.54331">
        <ele>85</ele>
        <time>2021-03-05T12:47:24.951Z</time>
      </trkpt>
      <trkpt lat="48.37284" lon="2.54329">
        <ele>85</ele>
        <time>2021-03-05T12:47:29.952Z</time>
      </trkpt>
      <trkpt lat="48.37282" lon="2.54325">
        <ele>85</ele>
        <time>2021-03-05T12:47:34.957Z</time>
      </trkpt>
      <trkpt lat="48.37279" lon="2.54322">
        <ele>85</ele>
        <time>2021-03-05T12:47:38.954Z</time>
      </trkpt>
      <trkpt lat="48.37277" lon="2.54317">
        <ele>88</ele>
        <time>2021-03-05T12:47:43.944Z</time>
      </trkpt>
      <trkpt lat="48.37274" lon="2.54311">
        <ele>88</ele>
        <time>2021-03-05T12:47:47.961Z</time>
      </trkpt>
      <trkpt lat="48.37271" lon="2.54305">
        <ele>88</ele>
        <time>2021-03-05T12:47:52.962Z</time>
      </trkpt>
      <trkpt lat="48.37268" lon="2.54297">
        <ele>88</ele>
        <time>2021-03-05T12:47:57.959Z</time>
      </trkpt>
      <trkpt lat="48.37266" lon="2.54289">
        <ele>90</ele>
        <time>2021-03-05T12:48:02.948Z</time>
      </trkpt>
      <trkpt lat="48.37263" lon="2.54282">
        <ele>86</ele>
        <time>2021-03-05T12:48:07.956Z</time>
      </trkpt>
      <trkpt lat="48.37261" lon="2.54276">
        <ele>86</ele>
        <time>2021-03-05T12:48:11.968Z</time>
      </trkpt>
      <trkpt lat="48.37257" lon="2.5427">
        <ele>86</ele>
        <time>2021-03-05T12:48:16.955Z</time>
      </trkpt>
      <trkpt lat="48.37255" lon="2.54264">
        <ele>86</ele>
        <time>2021-03-05T12:48:20.967Z</time>
      </trkpt>
      <trkpt lat="48.37252" lon="2.54257">
        <ele>88</ele>
        <time>2021-03-05T12:48:25.957Z</time>
      </trkpt>
      <trkpt lat="48.37249" lon="2.54249">
        <ele>88</ele>
        <time>2021-03-05T12:48:30.964Z</time>
      </trkpt>
      <trkpt lat="48.37246" lon="2.54241">
        <ele>88</ele>
        <time>2021-03-05T12:48:35.971Z</time>
      </trkpt>
      <trkpt lat="48.37243" lon="2.54233">
        <ele>90</ele>
        <time>2021-03-05T12:48:40.964Z</time>
      </trkpt>
      <trkpt lat="48.37241" lon="2.54226">
        <ele>90</ele>
        <time>2021-03-05T12:48:45.969Z</time>
      </trkpt>
      <trkpt lat="48.37238" lon="2.54219">
        <ele>90</ele>
        <time>2021-03-05T12:48:50.950Z</time>
      </trkpt>
      <trkpt lat="48.37235" lon="2.54213">
        <ele>85</ele>
        <time>2021-03-05T12:48:54.970Z</time>
      </trkpt>
      <trkpt lat="48.37232" lon="2.54205">
        <ele>87</ele>
        <time>2021-03-05T12:48:59.958Z</time>
      </trkpt>
      <trkpt lat="48.37229" lon="2.54198">
        <ele>87</ele>
        <time>2021-03-05T12:49:04.973Z</time>
      </trkpt>
      <trkpt lat="48.37225" lon="2.54192">
        <ele>87</ele>
        <time>2021-03-05T12:49:09.959Z</time>
      </trkpt>
      <trkpt lat="48.37223" lon="2.54182">
        <ele>87</ele>
        <time>2021-03-05T12:49:14.968Z</time>
      </trkpt>
      <trkpt lat="48.3722" lon="2.54175">
        <ele>88</ele>
        <time>2021-03-05T12:49:19.965Z</time>
      </trkpt>
      <trkpt lat="48.37217" lon="2.54167">
        <ele>88</ele>
        <time>2021-03-05T12:49:24.966Z</time>
      </trkpt>
      <trkpt lat="48.37213" lon="2.54163">
        <ele>88</ele>
        <time>2021-03-05T12:49:28.970Z</time>
      </trkpt>
      <trkpt lat="48.37211" lon="2.54156">
        <ele>88</ele>
        <time>2021-03-05T12:49:33.961Z</time>
      </trkpt>
      <trkpt lat="48.3721" lon="2.54148">
        <ele>88</ele>
        <time>2021-03-05T12:49:38.967Z</time>
      </trkpt>
      <trkpt lat="48.37206" lon="2.54141">
        <ele>85</ele>
        <time>2021-03-05T12:49:43.960Z</time>
      </trkpt>
      <trkpt lat="48.37203" lon="2.54135">
        <ele>85</ele>
        <time>2021-03-05T12:49:47.972Z</time>
      </trkpt>
      <trkpt lat="48.37202" lon="2.54127">
        <ele>85</ele>
        <time>2021-03-05T12:49:52.967Z</time>
      </trkpt>
      <trkpt lat="48.372" lon="2.54118">
        <ele>85</ele>
        <time>2021-03-05T12:49:57.971Z</time>
      </trkpt>
      <trkpt lat="48.37197" lon="2.54111">
        <ele>85</ele>
        <time>2021-03-05T12:50:02.964Z</time>
      </trkpt>
      <trkpt lat="48.37193" lon="2.54104">
        <ele>85</ele>
        <time>2021-03-05T12:50:07.963Z</time>
      </trkpt>
      <trkpt lat="48.37189" lon="2.54097">
        <ele>86</ele>
        <time>2021-03-05T12:50:12.972Z</time>
      </trkpt>
      <trkpt lat="48.37188" lon="2.54088">
        <ele>86</ele>
        <time>2021-03-05T12:50:17.968Z</time>
      </trkpt>
      <trkpt lat="48.37184" lon="2.54081">
        <ele>86</ele>
        <time>2021-03-05T12:50:22.965Z</time>
      </trkpt>
      <trkpt lat="48.37182" lon="2.5407">
        <ele>86</ele>
        <time>2021-03-05T12:50:27.960Z</time>
      </trkpt>
      <trkpt lat="48.3718" lon="2.54061">
        <ele>85</ele>
        <time>2021-03-05T12:50:32.954Z</time>
      </trkpt>
      <trkpt lat="48.37178" lon="2.54054">
        <ele>85</ele>
        <time>2021-03-05T12:50:37.962Z</time>
      </trkpt>
      <trkpt lat="48.37174" lon="2.54048">
        <ele>85</ele>
        <time>2021-03-05T12:50:42.963Z</time>
      </trkpt>
      <trkpt lat="48.3717" lon="2.54044">
        <ele>85</ele>
        <time>2021-03-05T12:50:47.966Z</time>
      </trkpt>
      <trkpt lat="48.37165" lon="2.54041">
        <ele>88</ele>
        <time>2021-03-05T12:50:52.955Z</time>
      </trkpt>
      <trkpt lat="48.37162" lon="2.54037">
        <ele>88</ele>
        <time>2021-03-05T12:50:56.968Z</time>
      </trkpt>
      <trkpt lat="48.37158" lon="2.54031">
        <ele>88</ele>
        <time>2021-03-05T12:51:01.970Z</time>
      </trkpt>
      <trkpt lat="48.37155" lon="2.54026">
        <ele>88</ele>
        <time>2021-03-05T12:51:05.989Z</time>
      </trkpt>
      <trkpt lat="48.37152" lon="2.5402">
        <ele>87</ele>
        <time>2021-03-05T12:51:10.941Z</time>
      </trkpt>
      <trkpt lat="48.37149" lon="2.54016">
        <ele>87</ele>
        <time>2021-03-05T12:51:14.972Z</time>
      </trkpt>
      <trkpt lat="48.37145" lon="2.5401">
        <ele>91</ele>
        <time>2021-03-05T12:51:19.948Z</time>
      </trkpt>
      <trkpt lat="48.37142" lon="2.54005">
        <ele>91</ele>
        <time>2021-03-05T12:51:23.956Z</time>
      </trkpt>
      <trkpt lat="48.37139" lon="2.54">
        <ele>91</ele>
        <time>2021-03-05T12:51:27.973Z</time>
      </trkpt>
      <trkpt lat="48.37134" lon="2.53995">
        <ele>91</ele>
        <time>2021-03-05T12:51:32.960Z</time>
      </trkpt>
      <trkpt lat="48.37131" lon="2.5399">
        <ele>91</ele>
        <time>2021-03-05T12:51:37.960Z</time>
      </trkpt>
      <trkpt lat="48.37127" lon="2.53984">
        <ele>94</ele>
        <time>2021-03-05T12:51:42.956Z</time>
      </trkpt>
      <trkpt lat="48.37123" lon="2.53981">
        <ele>93</ele>
        <time>2021-03-05T12:51:47.945Z</time>
      </trkpt>
      <trkpt lat="48.37119" lon="2.53978">
        <ele>93</ele>
        <time>2021-03-05T12:51:51.964Z</time>
      </trkpt>
      <trkpt lat="48.37113" lon="2.53978">
        <ele>93</ele>
        <time>2021-03-05T12:51:56.950Z</time>
      </trkpt>
      <trkpt lat="48.37107" lon="2.53977">
        <ele>93</ele>
        <time>2021-03-05T12:52:01.954Z</time>
      </trkpt>
      <trkpt lat="48.37102" lon="2.53974">
        <ele>93</ele>
        <time>2021-03-05T12:52:06.942Z</time>
      </trkpt>
      <trkpt lat="48.37097" lon="2.53974">
        <ele>93</ele>
        <time>2021-03-05T12:52:10.951Z</time>
      </trkpt>
      <trkpt lat="48.37093" lon="2.5397">
        <ele>92</ele>
        <time>2021-03-05T12:52:14.963Z</time>
      </trkpt>
      <trkpt lat="48.37088" lon="2.53966">
        <ele>92</ele>
        <time>2021-03-05T12:52:19.952Z</time>
      </trkpt>
      <trkpt lat="48.37083" lon="2.53963">
        <ele>92</ele>
        <time>2021-03-05T12:52:23.960Z</time>
      </trkpt>
      <trkpt lat="48.3708" lon="2.53959">
        <ele>92</ele>
        <time>2021-03-05T12:52:27.962Z</time>
      </trkpt>
      <trkpt lat="48.37074" lon="2.53957">
        <ele>97</ele>
        <time>2021-03-05T12:52:32.959Z</time>
      </trkpt>
      <trkpt lat="48.37066" lon="2.53951">
        <ele>97</ele>
        <time>2021-03-05T12:52:37.964Z</time>
      </trkpt>
      <trkpt lat="48.3706" lon="2.53945">
        <ele>97</ele>
        <time>2021-03-05T12:52:42.954Z</time>
      </trkpt>
      <trkpt lat="48.37054" lon="2.5394">
        <ele>97</ele>
        <time>2021-03-05T12:52:47.964Z</time>
      </trkpt>
      <trkpt lat="48.37048" lon="2.53935">
        <ele>97</ele>
        <time>2021-03-05T12:52:52.952Z</time>
      </trkpt>
      <trkpt lat="48.37043" lon="2.53929">
        <ele>100</ele>
        <time>2021-03-05T12:52:57.947Z</time>
      </trkpt>
      <trkpt lat="48.37038" lon="2.53921">
        <ele>100</ele>
        <time>2021-03-05T12:53:02.963Z</time>
      </trkpt>
      <trkpt lat="48.37032" lon="2.53915">
        <ele>100</ele>
        <time>2021-03-05T12:53:07.955Z</time>
      </trkpt>
      <trkpt lat="48.37027" lon="2.53909">
        <ele>100</ele>
        <time>2021-03-05T12:53:12.959Z</time>
      </trkpt>
      <trkpt lat="48.37021" lon="2.53906">
        <ele>100</ele>
        <time>2021-03-05T12:53:17.951Z</time>
      </trkpt>
      <trkpt lat="48.37016" lon="2.53902">
        <ele>102</ele>
        <time>2021-03-05T12:53:21.950Z</time>
      </trkpt>
      <trkpt lat="48.37013" lon="2.53895">
        <ele>108</ele>
        <time>2021-03-05T12:53:25.960Z</time>
      </trkpt>
      <trkpt lat="48.3701" lon="2.53885">
        <ele>108</ele>
        <time>2021-03-05T12:53:30.951Z</time>
      </trkpt>
      <trkpt lat="48.37008" lon="2.53875">
        <ele>108</ele>
        <time>2021-03-05T12:53:35.952Z</time>
      </trkpt>
      <trkpt lat="48.37006" lon="2.53869">
        <ele>109</ele>
        <time>2021-03-05T12:53:39.957Z</time>
      </trkpt>
      <trkpt lat="48.37003" lon="2.53862">
        <ele>109</ele>
        <time>2021-03-05T12:53:44.957Z</time>
      </trkpt>
      <trkpt lat="48.37001" lon="2.53854">
        <ele>109</ele>
        <time>2021-03-05T12:53:49.959Z</time>
      </trkpt>
      <trkpt lat="48.36998" lon="2.53846">
        <ele>107</ele>
        <time>2021-03-05T12:53:54.968Z</time>
      </trkpt>
      <trkpt lat="48.36995" lon="2.53836">
        <ele>107</ele>
        <time>2021-03-05T12:53:59.958Z</time>
      </trkpt>
      <trkpt lat="48.36991" lon="2.53831">
        <ele>107</ele>
        <time>2021-03-05T12:54:04.959Z</time>
      </trkpt>
      <trkpt lat="48.36987" lon="2.53827">
        <ele>107</ele>
        <time>2021-03-05T12:54:08.974Z</time>
      </trkpt>
      <trkpt lat="48.36982" lon="2.53824">
        <ele>111</ele>
        <time>2021-03-05T12:54:13.954Z</time>
      </trkpt>
      <trkpt lat="48.36978" lon="2.53822">
        <ele>111</ele>
        <time>2021-03-05T12:54:17.968Z</time>
      </trkpt>
      <trkpt lat="48.36973" lon="2.53818">
        <ele>109</ele>
        <time>2021-03-05T12:54:22.965Z</time>
      </trkpt>
      <trkpt lat="48.36969" lon="2.53813">
        <ele>109</ele>
        <time>2021-03-05T12:54:27.967Z</time>
      </trkpt>
      <trkpt lat="48.36965" lon="2.53808">
        <ele>109</ele>
        <time>2021-03-05T12:54:32.974Z</time>
      </trkpt>
      <trkpt lat="48.36962" lon="2.53801">
        <ele>109</ele>
        <time>2021-03-05T12:54:37.964Z</time>
      </trkpt>
      <trkpt lat="48.36957" lon="2.53797">
        <ele>112</ele>
        <time>2021-03-05T12:54:42.971Z</time>
      </trkpt>
      <trkpt lat="48.36953" lon="2.53794">
        <ele>112</ele>
        <time>2021-03-05T12:54:47.965Z</time>
      </trkpt>
      <trkpt lat="48.36948" lon="2.5379">
        <ele>110</ele>
        <time>2021-03-05T12:54:52.959Z</time>
      </trkpt>
      <trkpt lat="48.36944" lon="2.53788">
        <ele>110</ele>
        <time>2021-03-05T12:54:57.956Z</time>
      </trkpt>
      <trkpt lat="48.36939" lon="2.53784">
        <ele>110</ele>
        <time>2021-03-05T12:55:02.966Z</time>
      </trkpt>
      <trkpt lat="48.36935" lon="2.5378">
        <ele>110</ele>
        <time>2021-03-05T12:55:07.952Z</time>
      </trkpt>
      <trkpt lat="48.3693" lon="2.53777">
        <ele>114</ele>
        <time>2021-03-05T12:55:12.976Z</time>
      </trkpt>
      <trkpt lat="48.36926" lon="2.53774">
        <ele>114</ele>
        <time>2021-03-05T12:55:17.959Z</time>
      </trkpt>
      <trkpt lat="48.36921" lon="2.53772">
        <ele>114</ele>
        <time>2021-03-05T12:55:22.964Z</time>
      </trkpt>
      <trkpt lat="48.36917" lon="2.53768">
        <ele>114</ele>
        <time>2021-03-05T12:55:27.969Z</time>
      </trkpt>
      <trkpt lat="48.36913" lon="2.53766">
        <ele>114</ele>
        <time>2021-03-05T12:55:32.967Z</time>
      </trkpt>
      <trkpt lat="48.36908" lon="2.53762">
        <ele>112</ele>
        <time>2021-03-05T12:55:37.964Z</time>
      </trkpt>
      <trkpt lat="48.36905" lon="2.53767">
        <ele>114</ele>
        <time>2021-03-05T12:55:42.958Z</time>
      </trkpt>
      <trkpt lat="48.36901" lon="2.53773">
        <ele>116</ele>
        <time>2021-03-05T12:55:46.963Z</time>
      </trkpt>
      <trkpt lat="48.36896" lon="2.53775">
        <ele>116</ele>
        <time>2021-03-05T12:55:51.955Z</time>
      </trkpt>
      <trkpt lat="48.3689" lon="2.53772">
        <ele>116</ele>
        <time>2021-03-05T12:55:56.952Z</time>
      </trkpt>
      <trkpt lat="48.36887" lon="2.53779">
        <ele>116</ele>
        <time>2021-03-05T12:56:01.962Z</time>
      </trkpt>
      <trkpt lat="48.36884" lon="2.53779">
        <ele>116</ele>
        <time>2021-03-05T12:56:05.967Z</time>
      </trkpt>
      <trkpt lat="48.3688" lon="2.53777">
        <ele>116</ele>
        <time>2021-03-05T12:56:10.956Z</time>
      </trkpt>
      <trkpt lat="48.36875" lon="2.53779">
        <ele>116</ele>
        <time>2021-03-05T12:56:14.963Z</time>
      </trkpt>
      <trkpt lat="48.36871" lon="2.53782">
        <ele>116</ele>
        <time>2021-03-05T12:56:19.961Z</time>
      </trkpt>
      <trkpt lat="48.36866" lon="2.53785">
        <ele>116</ele>
        <time>2021-03-05T12:56:24.969Z</time>
      </trkpt>
      <trkpt lat="48.3686" lon="2.53787">
        <ele>116</ele>
        <time>2021-03-05T12:56:29.957Z</time>
      </trkpt>
      <trkpt lat="48.36857" lon="2.53791">
        <ele>116</ele>
        <time>2021-03-05T12:56:34.957Z</time>
      </trkpt>
      <trkpt lat="48.36852" lon="2.53793">
        <ele>118</ele>
        <time>2021-03-05T12:56:38.968Z</time>
      </trkpt>
      <trkpt lat="48.36848" lon="2.53798">
        <ele>118</ele>
        <time>2021-03-05T12:56:43.956Z</time>
      </trkpt>
      <trkpt lat="48.36843" lon="2.538">
        <ele>120</ele>
        <time>2021-03-05T12:56:47.970Z</time>
      </trkpt>
      <trkpt lat="48.36838" lon="2.53805">
        <ele>120</ele>
        <time>2021-03-05T12:56:52.962Z</time>
      </trkpt>
      <trkpt lat="48.36836" lon="2.53797">
        <ele>120</ele>
        <time>2021-03-05T13:02:20.972Z</time>
      </trkpt>
      <trkpt lat="48.36831" lon="2.53798">
        <ele>120</ele>
        <time>2021-03-05T13:02:24.984Z</time>
      </trkpt>
      <trkpt lat="48.36826" lon="2.53801">
        <ele>120</ele>
        <time>2021-03-05T13:02:29.966Z</time>
      </trkpt>
      <trkpt lat="48.36823" lon="2.53799">
        <ele>120</ele>
        <time>2021-03-05T13:02:34.964Z</time>
      </trkpt>
      <trkpt lat="48.3682" lon="2.538">
        <ele>120</ele>
        <time>2021-03-05T13:02:38.974Z</time>
      </trkpt>
      <trkpt lat="48.36816" lon="2.53804">
        <ele>122</ele>
        <time>2021-03-05T13:02:43.952Z</time>
      </trkpt>
      <trkpt lat="48.36812" lon="2.53805">
        <ele>122</ele>
        <time>2021-03-05T13:02:47.953Z</time>
      </trkpt>
      <trkpt lat="48.36808" lon="2.53807">
        <ele>122</ele>
        <time>2021-03-05T13:02:51.971Z</time>
      </trkpt>
      <trkpt lat="48.36805" lon="2.53809">
        <ele>122</ele>
        <time>2021-03-05T13:02:56.964Z</time>
      </trkpt>
      <trkpt lat="48.36802" lon="2.5381">
        <ele>122</ele>
        <time>2021-03-05T13:03:00.969Z</time>
      </trkpt>
      <trkpt lat="48.36798" lon="2.53814">
        <ele>122</ele>
        <time>2021-03-05T13:03:05.968Z</time>
      </trkpt>
      <trkpt lat="48.36794" lon="2.53816">
        <ele>122</ele>
        <time>2021-03-05T13:03:10.946Z</time>
      </trkpt>
      <trkpt lat="48.36793" lon="2.53821">
        <ele>123</ele>
        <time>2021-03-05T13:03:14.956Z</time>
      </trkpt>
      <trkpt lat="48.36789" lon="2.53823">
        <ele>124</ele>
        <time>2021-03-05T13:03:18.968Z</time>
      </trkpt>
      <trkpt lat="48.36784" lon="2.53822">
        <ele>124</ele>
        <time>2021-03-05T13:03:23.951Z</time>
      </trkpt>
      <trkpt lat="48.36779" lon="2.53824">
        <ele>124</ele>
        <time>2021-03-05T13:03:28.972Z</time>
      </trkpt>
      <trkpt lat="48.36774" lon="2.53824">
        <ele>124</ele>
        <time>2021-03-05T13:03:33.971Z</time>
      </trkpt>
      <trkpt lat="48.36769" lon="2.53825">
        <ele>124</ele>
        <time>2021-03-05T13:03:38.946Z</time>
      </trkpt>
      <trkpt lat="48.36764" lon="2.53824">
        <ele>124</ele>
        <time>2021-03-05T13:03:43.958Z</time>
      </trkpt>
      <trkpt lat="48.3676" lon="2.53826">
        <ele>124</ele>
        <time>2021-03-05T13:03:48.965Z</time>
      </trkpt>
      <trkpt lat="48.36754" lon="2.53828">
        <ele>124</ele>
        <time>2021-03-05T13:03:53.960Z</time>
      </trkpt>
      <trkpt lat="48.36749" lon="2.53823">
        <ele>124</ele>
        <time>2021-03-05T13:03:58.952Z</time>
      </trkpt>
      <trkpt lat="48.36747" lon="2.53815">
        <ele>123</ele>
        <time>2021-03-05T13:04:03.966Z</time>
      </trkpt>
      <trkpt lat="48.36744" lon="2.53811">
        <ele>123</ele>
        <time>2021-03-05T13:04:08.961Z</time>
      </trkpt>
      <trkpt lat="48.3674" lon="2.53809">
        <ele>123</ele>
        <time>2021-03-05T13:04:12.966Z</time>
      </trkpt>
      <trkpt lat="48.36736" lon="2.53804">
        <ele>123</ele>
        <time>2021-03-05T13:04:17.955Z</time>
      </trkpt>
      <trkpt lat="48.36733" lon="2.53799">
        <ele>119</ele>
        <time>2021-03-05T13:04:22.962Z</time>
      </trkpt>
      <trkpt lat="48.36729" lon="2.53794">
        <ele>119</ele>
        <time>2021-03-05T13:04:27.971Z</time>
      </trkpt>
      <trkpt lat="48.36727" lon="2.53789">
        <ele>119</ele>
        <time>2021-03-05T13:04:32.968Z</time>
      </trkpt>
      <trkpt lat="48.36726" lon="2.53781">
        <ele>119</ele>
        <time>2021-03-05T13:04:37.967Z</time>
      </trkpt>
      <trkpt lat="48.36725" lon="2.53774">
        <ele>119</ele>
        <time>2021-03-05T13:04:42.960Z</time>
      </trkpt>
      <trkpt lat="48.36721" lon="2.53766">
        <ele>119</ele>
        <time>2021-03-05T13:04:47.970Z</time>
      </trkpt>
      <trkpt lat="48.3672" lon="2.53759">
        <ele>119</ele>
        <time>2021-03-05T13:04:52.971Z</time>
      </trkpt>
      <trkpt lat="48.36718" lon="2.53751">
        <ele>119</ele>
        <time>2021-03-05T13:04:57.963Z</time>
      </trkpt>
      <trkpt lat="48.36717" lon="2.53745">
        <ele>119</ele>
        <time>2021-03-05T13:05:02.966Z</time>
      </trkpt>
      <trkpt lat="48.36717" lon="2.5374">
        <ele>119</ele>
        <time>2021-03-05T13:05:06.980Z</time>
      </trkpt>
      <trkpt lat="48.36719" lon="2.53736">
        <ele>119</ele>
        <time>2021-03-05T13:05:11.965Z</time>
      </trkpt>
      <trkpt lat="48.36722" lon="2.5373">
        <ele>119</ele>
        <time>2021-03-05T13:05:16.960Z</time>
      </trkpt>
      <trkpt lat="48.36727" lon="2.53727">
        <ele>119</ele>
        <time>2021-03-05T13:05:21.961Z</time>
      </trkpt>
      <trkpt lat="48.3673" lon="2.53729">
        <ele>119</ele>
        <time>2021-03-05T13:05:26.957Z</time>
      </trkpt>
      <trkpt lat="48.36735" lon="2.53728">
        <ele>119</ele>
        <time>2021-03-05T13:05:31.962Z</time>
      </trkpt>
      <trkpt lat="48.36739" lon="2.53725">
        <ele>121</ele>
        <time>2021-03-05T13:05:35.968Z</time>
      </trkpt>
      <trkpt lat="48.36744" lon="2.53724">
        <ele>121</ele>
        <time>2021-03-05T13:05:40.964Z</time>
      </trkpt>
      <trkpt lat="48.36748" lon="2.5372">
        <ele>121</ele>
        <time>2021-03-05T13:05:45.960Z</time>
      </trkpt>
      <trkpt lat="48.36753" lon="2.53722">
        <ele>121</ele>
        <time>2021-03-05T13:05:50.964Z</time>
      </trkpt>
      <trkpt lat="48.36757" lon="2.53721">
        <ele>121</ele>
        <time>2021-03-05T13:05:54.971Z</time>
      </trkpt>
      <trkpt lat="48.36762" lon="2.53721">
        <ele>121</ele>
        <time>2021-03-05T13:05:59.962Z</time>
      </trkpt>
      <trkpt lat="48.36766" lon="2.53715">
        <ele>121</ele>
        <time>2021-03-05T13:06:04.962Z</time>
      </trkpt>
      <trkpt lat="48.36768" lon="2.53708">
        <ele>119</ele>
        <time>2021-03-05T13:06:09.960Z</time>
      </trkpt>
      <trkpt lat="48.3677" lon="2.53701">
        <ele>119</ele>
        <time>2021-03-05T13:06:14.961Z</time>
      </trkpt>
      <trkpt lat="48.36772" lon="2.53693">
        <ele>119</ele>
        <time>2021-03-05T13:06:19.968Z</time>
      </trkpt>
      <trkpt lat="48.36773" lon="2.53686">
        <ele>119</ele>
        <time>2021-03-05T13:06:23.970Z</time>
      </trkpt>
      <trkpt lat="48.36771" lon="2.53684">
        <ele>119</ele>
        <time>2021-03-05T13:06:28.942Z</time>
      </trkpt>
      <trkpt lat="48.36771" lon="2.53684">
        <ele>119</ele>
        <time>2021-03-05T13:06:32.953Z</time>
      </trkpt>
      <trkpt lat="48.3677" lon="2.53683">
        <ele>119</ele>
        <time>2021-03-05T13:06:37.956Z</time>
      </trkpt>
      <trkpt lat="48.36768" lon="2.53677">
        <ele>117</ele>
        <time>2021-03-05T13:06:42.954Z</time>
      </trkpt>
      <trkpt lat="48.36768" lon="2.53671">
        <ele>117</ele>
        <time>2021-03-05T13:06:46.970Z</time>
      </trkpt>
      <trkpt lat="48.36765" lon="2.53657">
        <ele>117</ele>
        <time>2021-03-05T13:06:56.953Z</time>
      </trkpt>
      <trkpt lat="48.36764" lon="2.53656">
        <ele>117</ele>
        <time>2021-03-05T13:07:01.947Z</time>
      </trkpt>
      <trkpt lat="48.36764" lon="2.53656">
        <ele>117</ele>
        <time>2021-03-05T13:07:06.960Z</time>
      </trkpt>
      <trkpt lat="48.36764" lon="2.53655">
        <ele>115</ele>
        <time>2021-03-05T13:07:10.949Z</time>
      </trkpt>
      <trkpt lat="48.36764" lon="2.53648">
        <ele>112</ele>
        <time>2021-03-05T13:07:15.946Z</time>
      </trkpt>
      <trkpt lat="48.3677" lon="2.53641">
        <ele>114</ele>
        <time>2021-03-05T13:07:37.957Z</time>
      </trkpt>
      <trkpt lat="48.3677" lon="2.53639">
        <ele>114</ele>
        <time>2021-03-05T13:07:42.963Z</time>
      </trkpt>
      <trkpt lat="48.36769" lon="2.53638">
        <ele>114</ele>
        <time>2021-03-05T13:07:46.970Z</time>
      </trkpt>
      <trkpt lat="48.36771" lon="2.53636">
        <ele>114</ele>
        <time>2021-03-05T13:07:51.977Z</time>
      </trkpt>
      <trkpt lat="48.3677" lon="2.53632">
        <ele>114</ele>
        <time>2021-03-05T13:07:56.942Z</time>
      </trkpt>
      <trkpt lat="48.36768" lon="2.53618">
        <ele>111</ele>
        <time>2021-03-05T13:08:33.125Z</time>
      </trkpt>
      <trkpt lat="48.36769" lon="2.53617">
        <ele>111</ele>
        <time>2021-03-05T13:08:37.944Z</time>
      </trkpt>
      <trkpt lat="48.36769" lon="2.53614">
        <ele>111</ele>
        <time>2021-03-05T13:08:41.958Z</time>
      </trkpt>
      <trkpt lat="48.36772" lon="2.53614">
        <ele>111</ele>
        <time>2021-03-05T13:08:46.942Z</time>
      </trkpt>
      <trkpt lat="48.36777" lon="2.53616">
        <ele>111</ele>
        <time>2021-03-05T13:08:51.947Z</time>
      </trkpt>
      <trkpt lat="48.36782" lon="2.53618">
        <ele>111</ele>
        <time>2021-03-05T13:08:55.982Z</time>
      </trkpt>
      <trkpt lat="48.36783" lon="2.53622">
        <ele>111</ele>
        <time>2021-03-05T13:09:00.951Z</time>
      </trkpt>
      <trkpt lat="48.36786" lon="2.53627">
        <ele>114</ele>
        <time>2021-03-05T13:09:05.948Z</time>
      </trkpt>
      <trkpt lat="48.36789" lon="2.53629">
        <ele>114</ele>
        <time>2021-03-05T13:09:09.947Z</time>
      </trkpt>
      <trkpt lat="48.36793" lon="2.53629">
        <ele>115</ele>
        <time>2021-03-05T13:09:14.964Z</time>
      </trkpt>
      <trkpt lat="48.36797" lon="2.53631">
        <ele>115</ele>
        <time>2021-03-05T13:09:19.964Z</time>
      </trkpt>
      <trkpt lat="48.368" lon="2.53629">
        <ele>115</ele>
        <time>2021-03-05T13:09:24.964Z</time>
      </trkpt>
      <trkpt lat="48.36803" lon="2.53628">
        <ele>115</ele>
        <time>2021-03-05T13:09:28.964Z</time>
      </trkpt>
      <trkpt lat="48.3681" lon="2.53622">
        <ele>111</ele>
        <time>2021-03-05T13:09:42.968Z</time>
      </trkpt>
      <trkpt lat="48.3681" lon="2.53622">
        <ele>111</ele>
        <time>2021-03-05T13:09:47.964Z</time>
      </trkpt>
      <trkpt lat="48.3681" lon="2.53622">
        <ele>111</ele>
        <time>2021-03-05T13:09:52.959Z</time>
      </trkpt>
      <trkpt lat="48.36812" lon="2.53619">
        <ele>111</ele>
        <time>2021-03-05T13:09:56.967Z</time>
      </trkpt>
      <trkpt lat="48.36815" lon="2.53616">
        <ele>111</ele>
        <time>2021-03-05T13:10:01.970Z</time>
      </trkpt>
      <trkpt lat="48.36815" lon="2.53612">
        <ele>111</ele>
        <time>2021-03-05T13:10:06.967Z</time>
      </trkpt>
      <trkpt lat="48.36817" lon="2.53607">
        <ele>111</ele>
        <time>2021-03-05T13:10:11.978Z</time>
      </trkpt>
      <trkpt lat="48.36819" lon="2.536">
        <ele>111</ele>
        <time>2021-03-05T13:10:16.973Z</time>
      </trkpt>
      <trkpt lat="48.3682" lon="2.53596">
        <ele>106</ele>
        <time>2021-03-05T13:10:21.959Z</time>
      </trkpt>
      <trkpt lat="48.36819" lon="2.53596">
        <ele>108</ele>
        <time>2021-03-05T13:10:25.981Z</time>
      </trkpt>
      <trkpt lat="48.36817" lon="2.53595">
        <ele>108</ele>
        <time>2021-03-05T13:10:30.951Z</time>
      </trkpt>
      <trkpt lat="48.36816" lon="2.53591">
        <ele>108</ele>
        <time>2021-03-05T13:10:34.965Z</time>
      </trkpt>
      <trkpt lat="48.36815" lon="2.53587">
        <ele>108</ele>
        <time>2021-03-05T13:10:39.970Z</time>
      </trkpt>
      <trkpt lat="48.36815" lon="2.53583">
        <ele>108</ele>
        <time>2021-03-05T13:10:44.970Z</time>
      </trkpt>
      <trkpt lat="48.36817" lon="2.53583">
        <ele>108</ele>
        <time>2021-03-05T13:10:48.978Z</time>
      </trkpt>
      <trkpt lat="48.36819" lon="2.53579">
        <ele>108</ele>
        <time>2021-03-05T13:10:53.962Z</time>
      </trkpt>
      <trkpt lat="48.36823" lon="2.53578">
        <ele>106</ele>
        <time>2021-03-05T13:10:58.970Z</time>
      </trkpt>
      <trkpt lat="48.36826" lon="2.53572">
        <ele>106</ele>
        <time>2021-03-05T13:11:03.956Z</time>
      </trkpt>
      <trkpt lat="48.36828" lon="2.5356">
        <ele>102</ele>
        <time>2021-03-05T13:11:23.950Z</time>
      </trkpt>
      <trkpt lat="48.36828" lon="2.53559">
        <ele>102</ele>
        <time>2021-03-05T13:11:28.963Z</time>
      </trkpt>
      <trkpt lat="48.36828" lon="2.53559">
        <ele>102</ele>
        <time>2021-03-05T13:11:33.967Z</time>
      </trkpt>
      <trkpt lat="48.36825" lon="2.53554">
        <ele>102</ele>
        <time>2021-03-05T13:11:38.969Z</time>
      </trkpt>
      <trkpt lat="48.36824" lon="2.53554">
        <ele>102</ele>
        <time>2021-03-05T13:11:43.961Z</time>
      </trkpt>
      <trkpt lat="48.36824" lon="2.53553">
        <ele>102</ele>
        <time>2021-03-05T13:11:47.974Z</time>
      </trkpt>
      <trkpt lat="48.36823" lon="2.53553">
        <ele>102</ele>
        <time>2021-03-05T13:11:52.957Z</time>
      </trkpt>
      <trkpt lat="48.3682" lon="2.53552">
        <ele>102</ele>
        <time>2021-03-05T13:11:56.961Z</time>
      </trkpt>
      <trkpt lat="48.36816" lon="2.5355">
        <ele>105</ele>
        <time>2021-03-05T13:12:01.961Z</time>
      </trkpt>
      <trkpt lat="48.36812" lon="2.53548">
        <ele>105</ele>
        <time>2021-03-05T13:12:05.972Z</time>
      </trkpt>
      <trkpt lat="48.36812" lon="2.53545">
        <ele>105</ele>
        <time>2021-03-05T13:12:10.960Z</time>
      </trkpt>
      <trkpt lat="48.36816" lon="2.53541">
        <ele>101</ele>
        <time>2021-03-05T13:12:15.956Z</time>
      </trkpt>
      <trkpt lat="48.36818" lon="2.53535">
        <ele>101</ele>
        <time>2021-03-05T13:12:19.971Z</time>
      </trkpt>
      <trkpt lat="48.36818" lon="2.53529">
        <ele>101</ele>
        <time>2021-03-05T13:12:24.970Z</time>
      </trkpt>
      <trkpt lat="48.36816" lon="2.53524">
        <ele>101</ele>
        <time>2021-03-05T13:12:29.954Z</time>
      </trkpt>
      <trkpt lat="48.36815" lon="2.5352">
        <ele>101</ele>
        <time>2021-03-05T13:12:34.947Z</time>
      </trkpt>
      <trkpt lat="48.3682" lon="2.53515">
        <ele>98</ele>
        <time>2021-03-05T13:12:39.945Z</time>
      </trkpt>
      <trkpt lat="48.36823" lon="2.53513">
        <ele>95</ele>
        <time>2021-03-05T13:12:43.964Z</time>
      </trkpt>
      <trkpt lat="48.36827" lon="2.53511">
        <ele>95</ele>
        <time>2021-03-05T13:12:48.960Z</time>
      </trkpt>
      <trkpt lat="48.36829" lon="2.5351">
        <ele>95</ele>
        <time>2021-03-05T13:12:52.976Z</time>
      </trkpt>
      <trkpt lat="48.36832" lon="2.53508">
        <ele>95</ele>
        <time>2021-03-05T13:12:56.968Z</time>
      </trkpt>
      <trkpt lat="48.36835" lon="2.53505">
        <ele>95</ele>
        <time>2021-03-05T13:13:01.954Z</time>
      </trkpt>
      <trkpt lat="48.3684" lon="2.53505">
        <ele>95</ele>
        <time>2021-03-05T13:13:06.949Z</time>
      </trkpt>
      <trkpt lat="48.36843" lon="2.53504">
        <ele>95</ele>
        <time>2021-03-05T13:13:10.958Z</time>
      </trkpt>
      <trkpt lat="48.36846" lon="2.53504">
        <ele>95</ele>
        <time>2021-03-05T13:13:15.975Z</time>
      </trkpt>
      <trkpt lat="48.36849" lon="2.53505">
        <ele>90</ele>
        <time>2021-03-05T13:13:20.040Z</time>
      </trkpt>
      <trkpt lat="48.3685" lon="2.535">
        <ele>90</ele>
        <time>2021-03-05T13:13:24.965Z</time>
      </trkpt>
      <trkpt lat="48.36849" lon="2.53497">
        <ele>90</ele>
        <time>2021-03-05T13:13:28.972Z</time>
      </trkpt>
      <trkpt lat="48.36847" lon="2.53493">
        <ele>95</ele>
        <time>2021-03-05T13:13:33.968Z</time>
      </trkpt>
      <trkpt lat="48.36849" lon="2.53486">
        <ele>90</ele>
        <time>2021-03-05T13:13:38.974Z</time>
      </trkpt>
      <trkpt lat="48.36854" lon="2.53487">
        <ele>90</ele>
        <time>2021-03-05T13:13:43.964Z</time>
      </trkpt>
      <trkpt lat="48.36857" lon="2.53492">
        <ele>90</ele>
        <time>2021-03-05T13:13:48.968Z</time>
      </trkpt>
      <trkpt lat="48.36858" lon="2.53491">
        <ele>90</ele>
        <time>2021-03-05T13:13:53.965Z</time>
      </trkpt>
      <trkpt lat="48.36859" lon="2.53492">
        <ele>90</ele>
        <time>2021-03-05T13:13:58.964Z</time>
      </trkpt>
      <trkpt lat="48.36863" lon="2.5349">
        <ele>90</ele>
        <time>2021-03-05T13:14:03.973Z</time>
      </trkpt>
      <trkpt lat="48.36865" lon="2.53485">
        <ele>88</ele>
        <time>2021-03-05T13:14:08.960Z</time>
      </trkpt>
      <trkpt lat="48.36868" lon="2.53484">
        <ele>88</ele>
        <time>2021-03-05T13:14:13.974Z</time>
      </trkpt>
      <trkpt lat="48.36873" lon="2.53487">
        <ele>90</ele>
        <time>2021-03-05T13:14:18.960Z</time>
      </trkpt>
      <trkpt lat="48.36879" lon="2.53491">
        <ele>85</ele>
        <time>2021-03-05T13:14:23.980Z</time>
      </trkpt>
      <trkpt lat="48.36883" lon="2.53492">
        <ele>85</ele>
        <time>2021-03-05T13:14:28.960Z</time>
      </trkpt>
      <trkpt lat="48.36887" lon="2.53489">
        <ele>85</ele>
        <time>2021-03-05T13:14:33.968Z</time>
      </trkpt>
      <trkpt lat="48.3689" lon="2.53492">
        <ele>85</ele>
        <time>2021-03-05T13:14:38.962Z</time>
      </trkpt>
      <trkpt lat="48.36894" lon="2.5349">
        <ele>85</ele>
        <time>2021-03-05T13:14:43.965Z</time>
      </trkpt>
      <trkpt lat="48.36898" lon="2.53487">
        <ele>85</ele>
        <time>2021-03-05T13:14:48.967Z</time>
      </trkpt>
      <trkpt lat="48.36904" lon="2.53488">
        <ele>83</ele>
        <time>2021-03-05T13:14:53.969Z</time>
      </trkpt>
      <trkpt lat="48.36907" lon="2.53494">
        <ele>83</ele>
        <time>2021-03-05T13:14:58.972Z</time>
      </trkpt>
      <trkpt lat="48.36907" lon="2.53499">
        <ele>83</ele>
        <time>2021-03-05T13:15:03.962Z</time>
      </trkpt>
      <trkpt lat="48.3691" lon="2.53501">
        <ele>83</ele>
        <time>2021-03-05T13:15:08.967Z</time>
      </trkpt>
      <trkpt lat="48.36916" lon="2.53503">
        <ele>83</ele>
        <time>2021-03-05T13:15:13.966Z</time>
      </trkpt>
      <trkpt lat="48.3692" lon="2.53502">
        <ele>83</ele>
        <time>2021-03-05T13:15:17.967Z</time>
      </trkpt>
      <trkpt lat="48.36923" lon="2.53503">
        <ele>83</ele>
        <time>2021-03-05T13:15:22.962Z</time>
      </trkpt>
      <trkpt lat="48.36926" lon="2.53507">
        <ele>83</ele>
        <time>2021-03-05T13:15:27.966Z</time>
      </trkpt>
      <trkpt lat="48.36929" lon="2.53507">
        <ele>83</ele>
        <time>2021-03-05T13:15:31.968Z</time>
      </trkpt>
      <trkpt lat="48.36933" lon="2.53506">
        <ele>79</ele>
        <time>2021-03-05T13:15:36.967Z</time>
      </trkpt>
      <trkpt lat="48.36941" lon="2.53508">
        <ele>79</ele>
        <time>2021-03-05T13:15:41.957Z</time>
      </trkpt>
      <trkpt lat="48.36941" lon="2.5351">
        <ele>79</ele>
        <time>2021-03-05T13:16:43.949Z</time>
      </trkpt>
      <trkpt lat="48.36941" lon="2.53509">
        <ele>79</ele>
        <time>2021-03-05T13:16:47.958Z</time>
      </trkpt>
      <trkpt lat="48.36944" lon="2.53508">
        <ele>79</ele>
        <time>2021-03-05T13:16:52.968Z</time>
      </trkpt>
      <trkpt lat="48.36949" lon="2.53505">
        <ele>79</ele>
        <time>2021-03-05T13:16:57.958Z</time>
      </trkpt>
      <trkpt lat="48.36952" lon="2.53502">
        <ele>79</ele>
        <time>2021-03-05T13:17:02.964Z</time>
      </trkpt>
      <trkpt lat="48.36959" lon="2.53493">
        <ele>76</ele>
        <time>2021-03-05T13:17:21.944Z</time>
      </trkpt>
      <trkpt lat="48.3696" lon="2.53488">
        <ele>76</ele>
        <time>2021-03-05T13:17:25.966Z</time>
      </trkpt>
      <trkpt lat="48.36965" lon="2.53484">
        <ele>75</ele>
        <time>2021-03-05T13:17:30.959Z</time>
      </trkpt>
      <trkpt lat="48.36972" lon="2.53485">
        <ele>75</ele>
        <time>2021-03-05T13:17:35.970Z</time>
      </trkpt>
      <trkpt lat="48.36979" lon="2.53485">
        <ele>75</ele>
        <time>2021-03-05T13:17:40.966Z</time>
      </trkpt>
      <trkpt lat="48.36982" lon="2.53488">
        <ele>76</ele>
        <time>2021-03-05T13:17:45.959Z</time>
      </trkpt>
      <trkpt lat="48.36987" lon="2.53493">
        <ele>74</ele>
        <time>2021-03-05T13:17:50.970Z</time>
      </trkpt>
      <trkpt lat="48.36993" lon="2.53497">
        <ele>74</ele>
        <time>2021-03-05T13:17:55.964Z</time>
      </trkpt>
      <trkpt lat="48.36999" lon="2.53501">
        <ele>74</ele>
        <time>2021-03-05T13:18:00.964Z</time>
      </trkpt>
      <trkpt lat="48.37004" lon="2.53506">
        <ele>74</ele>
        <time>2021-03-05T13:18:05.959Z</time>
      </trkpt>
      <trkpt lat="48.37009" lon="2.5351">
        <ele>74</ele>
        <time>2021-03-05T13:18:09.964Z</time>
      </trkpt>
      <trkpt lat="48.37013" lon="2.53515">
        <ele>77</ele>
        <time>2021-03-05T13:18:14.961Z</time>
      </trkpt>
      <trkpt lat="48.37017" lon="2.53521">
        <ele>76</ele>
        <time>2021-03-05T13:18:19.966Z</time>
      </trkpt>
      <trkpt lat="48.37022" lon="2.53523">
        <ele>76</ele>
        <time>2021-03-05T13:18:24.951Z</time>
      </trkpt>
      <trkpt lat="48.37027" lon="2.53524">
        <ele>76</ele>
        <time>2021-03-05T13:18:28.969Z</time>
      </trkpt>
      <trkpt lat="48.37034" lon="2.53527">
        <ele>76</ele>
        <time>2021-03-05T13:18:33.968Z</time>
      </trkpt>
      <trkpt lat="48.37039" lon="2.53527">
        <ele>76</ele>
        <time>2021-03-05T13:18:37.982Z</time>
      </trkpt>
      <trkpt lat="48.37044" lon="2.53525">
        <ele>75</ele>
        <time>2021-03-05T13:18:42.967Z</time>
      </trkpt>
      <trkpt lat="48.37048" lon="2.53525">
        <ele>75</ele>
        <time>2021-03-05T13:18:46.982Z</time>
      </trkpt>
      <trkpt lat="48.37052" lon="2.53526">
        <ele>75</ele>
        <time>2021-03-05T13:18:51.965Z</time>
      </trkpt>
      <trkpt lat="48.37057" lon="2.53527">
        <ele>75</ele>
        <time>2021-03-05T13:18:56.961Z</time>
      </trkpt>
      <trkpt lat="48.37062" lon="2.53529">
        <ele>75</ele>
        <time>2021-03-05T13:19:00.969Z</time>
      </trkpt>
      <trkpt lat="48.37068" lon="2.53531">
        <ele>75</ele>
        <time>2021-03-05T13:19:05.971Z</time>
      </trkpt>
      <trkpt lat="48.37073" lon="2.53531">
        <ele>75</ele>
        <time>2021-03-05T13:19:09.984Z</time>
      </trkpt>
      <trkpt lat="48.37081" lon="2.53531">
        <ele>75</ele>
        <time>2021-03-05T13:19:14.957Z</time>
      </trkpt>
      <trkpt lat="48.37089" lon="2.5353">
        <ele>75</ele>
        <time>2021-03-05T13:19:19.940Z</time>
      </trkpt>
      <trkpt lat="48.37093" lon="2.5353">
        <ele>75</ele>
        <time>2021-03-05T13:19:23.954Z</time>
      </trkpt>
      <trkpt lat="48.37097" lon="2.53529">
        <ele>75</ele>
        <time>2021-03-05T13:19:27.971Z</time>
      </trkpt>
      <trkpt lat="48.37099" lon="2.53527">
        <ele>75</ele>
        <time>2021-03-05T13:19:32.960Z</time>
      </trkpt>
      <trkpt lat="48.37103" lon="2.53524">
        <ele>75</ele>
        <time>2021-03-05T13:19:37.945Z</time>
      </trkpt>
      <trkpt lat="48.37107" lon="2.53522">
        <ele>75</ele>
        <time>2021-03-05T13:19:42.956Z</time>
      </trkpt>
      <trkpt lat="48.3711" lon="2.53519">
        <ele>75</ele>
        <time>2021-03-05T13:19:47.943Z</time>
      </trkpt>
      <trkpt lat="48.37113" lon="2.53518">
        <ele>75</ele>
        <time>2021-03-05T13:19:51.974Z</time>
      </trkpt>
      <trkpt lat="48.37122" lon="2.53513">
        <ele>75</ele>
        <time>2021-03-05T13:20:30.943Z</time>
      </trkpt>
      <trkpt lat="48.37122" lon="2.53516">
        <ele>75</ele>
        <time>2021-03-05T13:20:34.960Z</time>
      </trkpt>
      <trkpt lat="48.37122" lon="2.53521">
        <ele>75</ele>
        <time>2021-03-05T13:20:38.953Z</time>
      </trkpt>
      <trkpt lat="48.37122" lon="2.53523">
        <ele>75</ele>
        <time>2021-03-05T13:20:43.946Z</time>
      </trkpt>
      <trkpt lat="48.37123" lon="2.53526">
        <ele>75</ele>
        <time>2021-03-05T13:20:48.965Z</time>
      </trkpt>
      <trkpt lat="48.37124" lon="2.53533">
        <ele>75</ele>
        <time>2021-03-05T13:20:53.956Z</time>
      </trkpt>
      <trkpt lat="48.37128" lon="2.5354">
        <ele>76</ele>
        <time>2021-03-05T13:20:58.975Z</time>
      </trkpt>
      <trkpt lat="48.37133" lon="2.53544">
        <ele>75</ele>
        <time>2021-03-05T13:21:03.958Z</time>
      </trkpt>
      <trkpt lat="48.37137" lon="2.53543">
        <ele>75</ele>
        <time>2021-03-05T13:21:07.970Z</time>
      </trkpt>
      <trkpt lat="48.37141" lon="2.53547">
        <ele>75</ele>
        <time>2021-03-05T13:21:12.960Z</time>
      </trkpt>
      <trkpt lat="48.37144" lon="2.53551">
        <ele>75</ele>
        <time>2021-03-05T13:21:16.963Z</time>
      </trkpt>
      <trkpt lat="48.37147" lon="2.53556">
        <ele>75</ele>
        <time>2021-03-05T13:21:21.966Z</time>
      </trkpt>
      <trkpt lat="48.37152" lon="2.53561">
        <ele>75</ele>
        <time>2021-03-05T13:21:26.963Z</time>
      </trkpt>
      <trkpt lat="48.37155" lon="2.53565">
        <ele>76</ele>
        <time>2021-03-05T13:21:31.977Z</time>
      </trkpt>
      <trkpt lat="48.37159" lon="2.53571">
        <ele>76</ele>
        <time>2021-03-05T13:21:36.973Z</time>
      </trkpt>
      <trkpt lat="48.37163" lon="2.53578">
        <ele>76</ele>
        <time>2021-03-05T13:21:41.956Z</time>
      </trkpt>
      <trkpt lat="48.37165" lon="2.53582">
        <ele>76</ele>
        <time>2021-03-05T13:21:45.971Z</time>
      </trkpt>
      <trkpt lat="48.37167" lon="2.53589">
        <ele>76</ele>
        <time>2021-03-05T13:21:50.970Z</time>
      </trkpt>
      <trkpt lat="48.3717" lon="2.53593">
        <ele>76</ele>
        <time>2021-03-05T13:21:55.963Z</time>
      </trkpt>
      <trkpt lat="48.37175" lon="2.53598">
        <ele>76</ele>
        <time>2021-03-05T13:22:00.972Z</time>
      </trkpt>
      <trkpt lat="48.3718" lon="2.53602">
        <ele>76</ele>
        <time>2021-03-05T13:22:05.966Z</time>
      </trkpt>
      <trkpt lat="48.37183" lon="2.5361">
        <ele>76</ele>
        <time>2021-03-05T13:22:10.970Z</time>
      </trkpt>
      <trkpt lat="48.37187" lon="2.53616">
        <ele>76</ele>
        <time>2021-03-05T13:22:15.969Z</time>
      </trkpt>
      <trkpt lat="48.37191" lon="2.53623">
        <ele>76</ele>
        <time>2021-03-05T13:22:20.946Z</time>
      </trkpt>
      <trkpt lat="48.37194" lon="2.53628">
        <ele>77</ele>
        <time>2021-03-05T13:22:24.968Z</time>
      </trkpt>
      <trkpt lat="48.37199" lon="2.53634">
        <ele>77</ele>
        <time>2021-03-05T13:22:29.966Z</time>
      </trkpt>
      <trkpt lat="48.37202" lon="2.53642">
        <ele>77</ele>
        <time>2021-03-05T13:22:34.964Z</time>
      </trkpt>
      <trkpt lat="48.37207" lon="2.5365">
        <ele>77</ele>
        <time>2021-03-05T13:22:39.967Z</time>
      </trkpt>
      <trkpt lat="48.37211" lon="2.53657">
        <ele>78</ele>
        <time>2021-03-05T13:22:44.963Z</time>
      </trkpt>
      <trkpt lat="48.37215" lon="2.53665">
        <ele>78</ele>
        <time>2021-03-05T13:22:49.960Z</time>
      </trkpt>
      <trkpt lat="48.3722" lon="2.53672">
        <ele>78</ele>
        <time>2021-03-05T13:22:54.953Z</time>
      </trkpt>
      <trkpt lat="48.37223" lon="2.53678">
        <ele>78</ele>
        <time>2021-03-05T13:22:59.967Z</time>
      </trkpt>
      <trkpt lat="48.37227" lon="2.53686">
        <ele>78</ele>
        <time>2021-03-05T13:23:04.957Z</time>
      </trkpt>
      <trkpt lat="48.3723" lon="2.53692">
        <ele>78</ele>
        <time>2021-03-05T13:23:08.976Z</time>
      </trkpt>
      <trkpt lat="48.37234" lon="2.53699">
        <ele>78</ele>
        <time>2021-03-05T13:23:13.966Z</time>
      </trkpt>
      <trkpt lat="48.37238" lon="2.53706">
        <ele>78</ele>
        <time>2021-03-05T13:23:18.966Z</time>
      </trkpt>
      <trkpt lat="48.37241" lon="2.53713">
        <ele>78</ele>
        <time>2021-03-05T13:23:23.952Z</time>
      </trkpt>
      <trkpt lat="48.37246" lon="2.5372">
        <ele>78</ele>
        <time>2021-03-05T13:23:28.965Z</time>
      </trkpt>
      <trkpt lat="48.37249" lon="2.53727">
        <ele>78</ele>
        <time>2021-03-05T13:23:32.969Z</time>
      </trkpt>
      <trkpt lat="48.37252" lon="2.53733">
        <ele>78</ele>
        <time>2021-03-05T13:23:37.963Z</time>
      </trkpt>
      <trkpt lat="48.37257" lon="2.53739">
        <ele>78</ele>
        <time>2021-03-05T13:23:42.961Z</time>
      </trkpt>
      <trkpt lat="48.3726" lon="2.53745">
        <ele>78</ele>
        <time>2021-03-05T13:23:46.966Z</time>
      </trkpt>
      <trkpt lat="48.37263" lon="2.53752">
        <ele>78</ele>
        <time>2021-03-05T13:23:51.965Z</time>
      </trkpt>
      <trkpt lat="48.37267" lon="2.53759">
        <ele>78</ele>
        <time>2021-03-05T13:23:56.959Z</time>
      </trkpt>
      <trkpt lat="48.37271" lon="2.53767">
        <ele>78</ele>
        <time>2021-03-05T13:24:01.952Z</time>
      </trkpt>
      <trkpt lat="48.37275" lon="2.53773">
        <ele>78</ele>
        <time>2021-03-05T13:24:05.964Z</time>
      </trkpt>
      <trkpt lat="48.3728" lon="2.53779">
        <ele>78</ele>
        <time>2021-03-05T13:24:10.955Z</time>
      </trkpt>
      <trkpt lat="48.37284" lon="2.53785">
        <ele>78</ele>
        <time>2021-03-05T13:24:15.955Z</time>
      </trkpt>
      <trkpt lat="48.37287" lon="2.53792">
        <ele>77</ele>
        <time>2021-03-05T13:24:20.952Z</time>
      </trkpt>
      <trkpt lat="48.3729" lon="2.53797">
        <ele>77</ele>
        <time>2021-03-05T13:24:24.961Z</time>
      </trkpt>
      <trkpt lat="48.37295" lon="2.53804">
        <ele>78</ele>
        <time>2021-03-05T13:24:29.954Z</time>
      </trkpt>
      <trkpt lat="48.37298" lon="2.53811">
        <ele>78</ele>
        <time>2021-03-05T13:24:34.959Z</time>
      </trkpt>
      <trkpt lat="48.37301" lon="2.53817">
        <ele>78</ele>
        <time>2021-03-05T13:24:38.967Z</time>
      </trkpt>
      <trkpt lat="48.37305" lon="2.53826">
        <ele>78</ele>
        <time>2021-03-05T13:24:43.959Z</time>
      </trkpt>
      <trkpt lat="48.37309" lon="2.53832">
        <ele>78</ele>
        <time>2021-03-05T13:24:48.967Z</time>
      </trkpt>
      <trkpt lat="48.37315" lon="2.53839">
        <ele>78</ele>
        <time>2021-03-05T13:24:53.964Z</time>
      </trkpt>
      <trkpt lat="48.37319" lon="2.53844">
        <ele>78</ele>
        <time>2021-03-05T13:24:58.959Z</time>
      </trkpt>
      <trkpt lat="48.37323" lon="2.53852">
        <ele>79</ele>
        <time>2021-03-05T13:25:03.967Z</time>
      </trkpt>
      <trkpt lat="48.37328" lon="2.53859">
        <ele>79</ele>
        <time>2021-03-05T13:25:08.972Z</time>
      </trkpt>
      <trkpt lat="48.37332" lon="2.53866">
        <ele>79</ele>
        <time>2021-03-05T13:25:13.962Z</time>
      </trkpt>
      <trkpt lat="48.37337" lon="2.53874">
        <ele>79</ele>
        <time>2021-03-05T13:25:18.975Z</time>
      </trkpt>
      <trkpt lat="48.37341" lon="2.53881">
        <ele>80</ele>
        <time>2021-03-05T13:25:23.957Z</time>
      </trkpt>
      <trkpt lat="48.37346" lon="2.53888">
        <ele>80</ele>
        <time>2021-03-05T13:25:28.958Z</time>
      </trkpt>
      <trkpt lat="48.3735" lon="2.53894">
        <ele>79</ele>
        <time>2021-03-05T13:25:33.959Z</time>
      </trkpt>
      <trkpt lat="48.37354" lon="2.539">
        <ele>79</ele>
        <time>2021-03-05T13:25:38.968Z</time>
      </trkpt>
      <trkpt lat="48.37358" lon="2.53906">
        <ele>80</ele>
        <time>2021-03-05T13:25:43.961Z</time>
      </trkpt>
      <trkpt lat="48.37362" lon="2.53913">
        <ele>80</ele>
        <time>2021-03-05T13:25:48.966Z</time>
      </trkpt>
      <trkpt lat="48.37367" lon="2.5392">
        <ele>80</ele>
        <time>2021-03-05T13:25:53.962Z</time>
      </trkpt>
      <trkpt lat="48.37371" lon="2.53926">
        <ele>80</ele>
        <time>2021-03-05T13:25:58.989Z</time>
      </trkpt>
      <trkpt lat="48.37375" lon="2.53933">
        <ele>80</ele>
        <time>2021-03-05T13:26:03.969Z</time>
      </trkpt>
      <trkpt lat="48.37379" lon="2.5394">
        <ele>79</ele>
        <time>2021-03-05T13:26:08.967Z</time>
      </trkpt>
      <trkpt lat="48.37383" lon="2.53948">
        <ele>79</ele>
        <time>2021-03-05T13:26:13.956Z</time>
      </trkpt>
      <trkpt lat="48.37386" lon="2.53956">
        <ele>79</ele>
        <time>2021-03-05T13:26:18.966Z</time>
      </trkpt>
      <trkpt lat="48.37389" lon="2.53961">
        <ele>80</ele>
        <time>2021-03-05T13:26:22.963Z</time>
      </trkpt>
      <trkpt lat="48.37391" lon="2.53969">
        <ele>80</ele>
        <time>2021-03-05T13:26:27.960Z</time>
      </trkpt>
      <trkpt lat="48.37394" lon="2.53979">
        <ele>80</ele>
        <time>2021-03-05T13:26:32.964Z</time>
      </trkpt>
      <trkpt lat="48.37396" lon="2.53988">
        <ele>81</ele>
        <time>2021-03-05T13:26:37.968Z</time>
      </trkpt>
      <trkpt lat="48.37399" lon="2.53997">
        <ele>81</ele>
        <time>2021-03-05T13:26:42.970Z</time>
      </trkpt>
      <trkpt lat="48.37401" lon="2.54006">
        <ele>81</ele>
        <time>2021-03-05T13:26:47.959Z</time>
      </trkpt>
      <trkpt lat="48.37402" lon="2.54014">
        <ele>81</ele>
        <time>2021-03-05T13:26:51.967Z</time>
      </trkpt>
      <trkpt lat="48.37405" lon="2.54022">
        <ele>81</ele>
        <time>2021-03-05T13:26:56.966Z</time>
      </trkpt>
      <trkpt lat="48.37408" lon="2.54031">
        <ele>81</ele>
        <time>2021-03-05T13:27:01.970Z</time>
      </trkpt>
      <trkpt lat="48.37411" lon="2.5404">
        <ele>81</ele>
        <time>2021-03-05T13:27:06.971Z</time>
      </trkpt>
      <trkpt lat="48.37415" lon="2.54048">
        <ele>81</ele>
        <time>2021-03-05T13:27:11.964Z</time>
      </trkpt>
      <trkpt lat="48.37419" lon="2.54053">
        <ele>81</ele>
        <time>2021-03-05T13:27:15.964Z</time>
      </trkpt>
      <trkpt lat="48.37424" lon="2.54057">
        <ele>81</ele>
        <time>2021-03-05T13:27:20.957Z</time>
      </trkpt>
      <trkpt lat="48.3743" lon="2.54055">
        <ele>81</ele>
        <time>2021-03-05T13:27:25.966Z</time>
      </trkpt>
      <trkpt lat="48.37433" lon="2.54049">
        <ele>81</ele>
        <time>2021-03-05T13:27:30.969Z</time>
      </trkpt>
      <trkpt lat="48.37435" lon="2.54045">
        <ele>81</ele>
        <time>2021-03-05T13:27:34.977Z</time>
      </trkpt>
      <trkpt lat="48.37439" lon="2.5404">
        <ele>81</ele>
        <time>2021-03-05T13:27:39.987Z</time>
      </trkpt>
      <trkpt lat="48.37445" lon="2.54036">
        <ele>81</ele>
        <time>2021-03-05T13:27:44.960Z</time>
      </trkpt>
      <trkpt lat="48.37449" lon="2.54031">
        <ele>81</ele>
        <time>2021-03-05T13:27:48.969Z</time>
      </trkpt>
      <trkpt lat="48.37454" lon="2.54027">
        <ele>81</ele>
        <time>2021-03-05T13:27:53.978Z</time>
      </trkpt>
      <trkpt lat="48.37458" lon="2.54021">
        <ele>81</ele>
        <time>2021-03-05T13:27:58.956Z</time>
      </trkpt>
      <trkpt lat="48.37461" lon="2.54014">
        <ele>82</ele>
        <time>2021-03-05T13:28:03.970Z</time>
      </trkpt>
      <trkpt lat="48.37464" lon="2.54009">
        <ele>83</ele>
        <time>2021-03-05T13:28:08.957Z</time>
      </trkpt>
      <trkpt lat="48.37468" lon="2.54004">
        <ele>83</ele>
        <time>2021-03-05T13:28:13.968Z</time>
      </trkpt>
      <trkpt lat="48.37473" lon="2.53998">
        <ele>83</ele>
        <time>2021-03-05T13:28:18.967Z</time>
      </trkpt>
      <trkpt lat="48.37477" lon="2.53994">
        <ele>83</ele>
        <time>2021-03-05T13:28:23.958Z</time>
      </trkpt>
      <trkpt lat="48.37482" lon="2.53994">
        <ele>83</ele>
        <time>2021-03-05T13:28:28.981Z</time>
      </trkpt>
      <trkpt lat="48.37487" lon="2.53992">
        <ele>87</ele>
        <time>2021-03-05T13:28:33.965Z</time>
      </trkpt>
      <trkpt lat="48.37488" lon="2.53985">
        <ele>86</ele>
        <time>2021-03-05T13:28:38.954Z</time>
      </trkpt>
      <trkpt lat="48.37489" lon="2.53977">
        <ele>86</ele>
        <time>2021-03-05T13:28:43.959Z</time>
      </trkpt>
      <trkpt lat="48.37489" lon="2.53969">
        <ele>86</ele>
        <time>2021-03-05T13:28:48.967Z</time>
      </trkpt>
      <trkpt lat="48.3749" lon="2.53961">
        <ele>86</ele>
        <time>2021-03-05T13:28:53.970Z</time>
      </trkpt>
      <trkpt lat="48.37492" lon="2.53954">
        <ele>85</ele>
        <time>2021-03-05T13:28:58.982Z</time>
      </trkpt>
      <trkpt lat="48.37494" lon="2.53945">
        <ele>85</ele>
        <time>2021-03-05T13:29:03.965Z</time>
      </trkpt>
      <trkpt lat="48.37495" lon="2.53939">
        <ele>85</ele>
        <time>2021-03-05T13:29:07.981Z</time>
      </trkpt>
      <trkpt lat="48.37497" lon="2.53931">
        <ele>85</ele>
        <time>2021-03-05T13:29:12.970Z</time>
      </trkpt>
      <trkpt lat="48.37499" lon="2.53923">
        <ele>83</ele>
        <time>2021-03-05T13:29:17.972Z</time>
      </trkpt>
      <trkpt lat="48.37501" lon="2.53916">
        <ele>83</ele>
        <time>2021-03-05T13:29:21.980Z</time>
      </trkpt>
      <trkpt lat="48.37503" lon="2.5391">
        <ele>83</ele>
        <time>2021-03-05T13:29:25.982Z</time>
      </trkpt>
      <trkpt lat="48.37505" lon="2.53902">
        <ele>82</ele>
        <time>2021-03-05T13:29:30.962Z</time>
      </trkpt>
      <trkpt lat="48.37506" lon="2.53894">
        <ele>82</ele>
        <time>2021-03-05T13:29:35.963Z</time>
      </trkpt>
      <trkpt lat="48.37507" lon="2.53888">
        <ele>82</ele>
        <time>2021-03-05T13:29:39.964Z</time>
      </trkpt>
      <trkpt lat="48.37508" lon="2.53879">
        <ele>82</ele>
        <time>2021-03-05T13:29:44.963Z</time>
      </trkpt>
      <trkpt lat="48.3751" lon="2.53872">
        <ele>82</ele>
        <time>2021-03-05T13:29:48.989Z</time>
      </trkpt>
      <trkpt lat="48.37513" lon="2.53864">
        <ele>82</ele>
        <time>2021-03-05T13:29:53.963Z</time>
      </trkpt>
      <trkpt lat="48.37516" lon="2.53858">
        <ele>82</ele>
        <time>2021-03-05T13:29:57.975Z</time>
      </trkpt>
      <trkpt lat="48.3752" lon="2.53851">
        <ele>82</ele>
        <time>2021-03-05T13:30:02.958Z</time>
      </trkpt>
      <trkpt lat="48.37523" lon="2.53845">
        <ele>81</ele>
        <time>2021-03-05T13:30:06.970Z</time>
      </trkpt>
      <trkpt lat="48.37528" lon="2.5384">
        <ele>81</ele>
        <time>2021-03-05T13:30:11.977Z</time>
      </trkpt>
      <trkpt lat="48.37533" lon="2.53833">
        <ele>81</ele>
        <time>2021-03-05T13:30:16.965Z</time>
      </trkpt>
      <trkpt lat="48.37538" lon="2.53827">
        <ele>81</ele>
        <time>2021-03-05T13:30:21.960Z</time>
      </trkpt>
      <trkpt lat="48.37543" lon="2.53824">
        <ele>81</ele>
        <time>2021-03-05T13:30:25.969Z</time>
      </trkpt>
      <trkpt lat="48.3755" lon="2.53821">
        <ele>81</ele>
        <time>2021-03-05T13:30:30.969Z</time>
      </trkpt>
      <trkpt lat="48.37556" lon="2.53817">
        <ele>80</ele>
        <time>2021-03-05T13:30:35.963Z</time>
      </trkpt>
      <trkpt lat="48.37562" lon="2.53814">
        <ele>80</ele>
        <time>2021-03-05T13:30:40.962Z</time>
      </trkpt>
      <trkpt lat="48.37567" lon="2.53812">
        <ele>80</ele>
        <time>2021-03-05T13:30:45.968Z</time>
      </trkpt>
      <trkpt lat="48.37573" lon="2.53809">
        <ele>80</ele>
        <time>2021-03-05T13:30:50.979Z</time>
      </trkpt>
      <trkpt lat="48.3758" lon="2.53807">
        <ele>80</ele>
        <time>2021-03-05T13:30:55.948Z</time>
      </trkpt>
      <trkpt lat="48.37585" lon="2.53807">
        <ele>80</ele>
        <time>2021-03-05T13:30:59.956Z</time>
      </trkpt>
      <trkpt lat="48.3759" lon="2.53809">
        <ele>80</ele>
        <time>2021-03-05T13:31:03.978Z</time>
      </trkpt>
      <trkpt lat="48.37595" lon="2.53812">
        <ele>80</ele>
        <time>2021-03-05T13:31:08.963Z</time>
      </trkpt>
      <trkpt lat="48.37601" lon="2.53814">
        <ele>80</ele>
        <time>2021-03-05T13:31:13.967Z</time>
      </trkpt>
      <trkpt lat="48.37606" lon="2.53814">
        <ele>80</ele>
        <time>2021-03-05T13:31:18.959Z</time>
      </trkpt>
      <trkpt lat="48.3761" lon="2.53812">
        <ele>80</ele>
        <time>2021-03-05T13:31:22.972Z</time>
      </trkpt>
      <trkpt lat="48.37615" lon="2.53809">
        <ele>80</ele>
        <time>2021-03-05T13:31:27.975Z</time>
      </trkpt>
      <trkpt lat="48.3762" lon="2.53803">
        <ele>80</ele>
        <time>2021-03-05T13:31:32.971Z</time>
      </trkpt>
      <trkpt lat="48.37625" lon="2.53797">
        <ele>79</ele>
        <time>2021-03-05T13:31:37.962Z</time>
      </trkpt>
      <trkpt lat="48.37629" lon="2.53791">
        <ele>79</ele>
        <time>2021-03-05T13:31:41.983Z</time>
      </trkpt>
      <trkpt lat="48.37631" lon="2.53784">
        <ele>79</ele>
        <time>2021-03-05T13:31:46.965Z</time>
      </trkpt>
      <trkpt lat="48.37633" lon="2.5378">
        <ele>79</ele>
        <time>2021-03-05T13:31:51.976Z</time>
      </trkpt>
      <trkpt lat="48.37637" lon="2.53779">
        <ele>79</ele>
        <time>2021-03-05T13:31:56.984Z</time>
      </trkpt>
      <trkpt lat="48.37641" lon="2.53778">
        <ele>79</ele>
        <time>2021-03-05T13:32:01.963Z</time>
      </trkpt>
      <trkpt lat="48.37645" lon="2.53778">
        <ele>79</ele>
        <time>2021-03-05T13:32:05.969Z</time>
      </trkpt>
      <trkpt lat="48.37648" lon="2.53779">
        <ele>79</ele>
        <time>2021-03-05T13:32:10.972Z</time>
      </trkpt>
      <trkpt lat="48.37653" lon="2.53782">
        <ele>79</ele>
        <time>2021-03-05T13:32:15.976Z</time>
      </trkpt>
      <trkpt lat="48.37655" lon="2.53779">
        <ele>80</ele>
        <time>2021-03-05T13:32:20.944Z</time>
      </trkpt>
      <trkpt lat="48.37656" lon="2.53774">
        <ele>80</ele>
        <time>2021-03-05T13:32:24.958Z</time>
      </trkpt>
      <trkpt lat="48.37657" lon="2.53767">
        <ele>80</ele>
        <time>2021-03-05T13:32:29.945Z</time>
      </trkpt>
      <trkpt lat="48.37657" lon="2.5376">
        <ele>80</ele>
        <time>2021-03-05T13:32:34.960Z</time>
      </trkpt>
      <trkpt lat="48.37658" lon="2.53754">
        <ele>80</ele>
        <time>2021-03-05T13:32:38.967Z</time>
      </trkpt>
      <trkpt lat="48.37658" lon="2.53746">
        <ele>80</ele>
        <time>2021-03-05T13:32:43.971Z</time>
      </trkpt>
      <trkpt lat="48.37656" lon="2.53739">
        <ele>80</ele>
        <time>2021-03-05T13:32:48.964Z</time>
      </trkpt>
      <trkpt lat="48.37654" lon="2.5373">
        <ele>80</ele>
        <time>2021-03-05T13:32:53.961Z</time>
      </trkpt>
      <trkpt lat="48.37651" lon="2.53721">
        <ele>79</ele>
        <time>2021-03-05T13:32:58.954Z</time>
      </trkpt>
      <trkpt lat="48.37649" lon="2.53714">
        <ele>79</ele>
        <time>2021-03-05T13:33:03.953Z</time>
      </trkpt>
      <trkpt lat="48.37646" lon="2.53705">
        <ele>80</ele>
        <time>2021-03-05T13:33:07.966Z</time>
      </trkpt>
      <trkpt lat="48.37644" lon="2.53697">
        <ele>80</ele>
        <time>2021-03-05T13:33:12.966Z</time>
      </trkpt>
      <trkpt lat="48.37641" lon="2.53688">
        <ele>80</ele>
        <time>2021-03-05T13:33:17.963Z</time>
      </trkpt>
      <trkpt lat="48.37638" lon="2.53677">
        <ele>81</ele>
        <time>2021-03-05T13:33:22.966Z</time>
      </trkpt>
      <trkpt lat="48.37635" lon="2.53669">
        <ele>81</ele>
        <time>2021-03-05T13:33:27.967Z</time>
      </trkpt>
      <trkpt lat="48.37633" lon="2.53661">
        <ele>81</ele>
        <time>2021-03-05T13:33:32.963Z</time>
      </trkpt>
      <trkpt lat="48.3763" lon="2.53654">
        <ele>81</ele>
        <time>2021-03-05T13:33:37.952Z</time>
      </trkpt>
      <trkpt lat="48.37629" lon="2.53648">
        <ele>81</ele>
        <time>2021-03-05T13:33:41.962Z</time>
      </trkpt>
      <trkpt lat="48.37627" lon="2.53639">
        <ele>81</ele>
        <time>2021-03-05T13:33:45.968Z</time>
      </trkpt>
      <trkpt lat="48.37624" lon="2.53631">
        <ele>80</ele>
        <time>2021-03-05T13:33:50.959Z</time>
      </trkpt>
      <trkpt lat="48.37622" lon="2.53624">
        <ele>79</ele>
        <time>2021-03-05T13:33:55.962Z</time>
      </trkpt>
      <trkpt lat="48.3762" lon="2.53618">
        <ele>79</ele>
        <time>2021-03-05T13:33:59.971Z</time>
      </trkpt>
      <trkpt lat="48.37618" lon="2.53611">
        <ele>79</ele>
        <time>2021-03-05T13:34:04.961Z</time>
      </trkpt>
      <trkpt lat="48.37615" lon="2.53605">
        <ele>79</ele>
        <time>2021-03-05T13:34:08.968Z</time>
      </trkpt>
      <trkpt lat="48.37613" lon="2.53598">
        <ele>79</ele>
        <time>2021-03-05T13:34:13.963Z</time>
      </trkpt>
      <trkpt lat="48.37611" lon="2.53592">
        <ele>79</ele>
        <time>2021-03-05T13:34:17.971Z</time>
      </trkpt>
      <trkpt lat="48.37608" lon="2.53584">
        <ele>79</ele>
        <time>2021-03-05T13:34:21.971Z</time>
      </trkpt>
      <trkpt lat="48.37606" lon="2.53577">
        <ele>79</ele>
        <time>2021-03-05T13:34:26.950Z</time>
      </trkpt>
      <trkpt lat="48.37604" lon="2.5357">
        <ele>79</ele>
        <time>2021-03-05T13:34:30.957Z</time>
      </trkpt>
      <trkpt lat="48.37602" lon="2.53565">
        <ele>79</ele>
        <time>2021-03-05T13:34:34.970Z</time>
      </trkpt>
      <trkpt lat="48.376" lon="2.53558">
        <ele>79</ele>
        <time>2021-03-05T13:34:39.955Z</time>
      </trkpt>
      <trkpt lat="48.37598" lon="2.5355">
        <ele>79</ele>
        <time>2021-03-05T13:34:44.961Z</time>
      </trkpt>
      <trkpt lat="48.37596" lon="2.53544">
        <ele>77</ele>
        <time>2021-03-05T13:34:48.968Z</time>
      </trkpt>
      <trkpt lat="48.37595" lon="2.53535">
        <ele>77</ele>
        <time>2021-03-05T13:34:53.972Z</time>
      </trkpt>
      <trkpt lat="48.37594" lon="2.53528">
        <ele>77</ele>
        <time>2021-03-05T13:34:58.965Z</time>
      </trkpt>
      <trkpt lat="48.37592" lon="2.53519">
        <ele>77</ele>
        <time>2021-03-05T13:35:03.970Z</time>
      </trkpt>
      <trkpt lat="48.37591" lon="2.53509">
        <ele>77</ele>
        <time>2021-03-05T13:35:08.968Z</time>
      </trkpt>
      <trkpt lat="48.37589" lon="2.53501">
        <ele>77</ele>
        <time>2021-03-05T13:35:13.968Z</time>
      </trkpt>
      <trkpt lat="48.37587" lon="2.53492">
        <ele>77</ele>
        <time>2021-03-05T13:35:18.970Z</time>
      </trkpt>
      <trkpt lat="48.37589" lon="2.53486">
        <ele>78</ele>
        <time>2021-03-05T13:35:22.980Z</time>
      </trkpt>
      <trkpt lat="48.3759" lon="2.53477">
        <ele>78</ele>
        <time>2021-03-05T13:35:27.954Z</time>
      </trkpt>
      <trkpt lat="48.37592" lon="2.53466">
        <ele>78</ele>
        <time>2021-03-05T13:35:32.947Z</time>
      </trkpt>
      <trkpt lat="48.37594" lon="2.53459">
        <ele>78</ele>
        <time>2021-03-05T13:35:36.965Z</time>
      </trkpt>
      <trkpt lat="48.37596" lon="2.5345">
        <ele>78</ele>
        <time>2021-03-05T13:35:41.966Z</time>
      </trkpt>
      <trkpt lat="48.37599" lon="2.53444">
        <ele>80</ele>
        <time>2021-03-05T13:35:45.965Z</time>
      </trkpt>
      <trkpt lat="48.37602" lon="2.53437">
        <ele>80</ele>
        <time>2021-03-05T13:35:50.967Z</time>
      </trkpt>
      <trkpt lat="48.37602" lon="2.53429">
        <ele>79</ele>
        <time>2021-03-05T13:35:55.967Z</time>
      </trkpt>
      <trkpt lat="48.376" lon="2.53421">
        <ele>79</ele>
        <time>2021-03-05T13:36:00.963Z</time>
      </trkpt>
      <trkpt lat="48.37598" lon="2.53415">
        <ele>79</ele>
        <time>2021-03-05T13:36:04.970Z</time>
      </trkpt>
      <trkpt lat="48.37594" lon="2.53407">
        <ele>78</ele>
        <time>2021-03-05T13:36:09.960Z</time>
      </trkpt>
      <trkpt lat="48.3759" lon="2.53403">
        <ele>78</ele>
        <time>2021-03-05T13:36:13.963Z</time>
      </trkpt>
      <trkpt lat="48.37584" lon="2.534">
        <ele>77</ele>
        <time>2021-03-05T13:36:18.968Z</time>
      </trkpt>
      <trkpt lat="48.37576" lon="2.53397">
        <ele>77</ele>
        <time>2021-03-05T13:36:23.959Z</time>
      </trkpt>
      <trkpt lat="48.3757" lon="2.53394">
        <ele>77</ele>
        <time>2021-03-05T13:36:27.959Z</time>
      </trkpt>
      <trkpt lat="48.37564" lon="2.5339">
        <ele>77</ele>
        <time>2021-03-05T13:36:32.961Z</time>
      </trkpt>
      <trkpt lat="48.37556" lon="2.53384">
        <ele>77</ele>
        <time>2021-03-05T13:36:37.958Z</time>
      </trkpt>
      <trkpt lat="48.37553" lon="2.53379">
        <ele>77</ele>
        <time>2021-03-05T13:36:41.964Z</time>
      </trkpt>
      <trkpt lat="48.37549" lon="2.53375">
        <ele>76</ele>
        <time>2021-03-05T13:36:46.961Z</time>
      </trkpt>
      <trkpt lat="48.37543" lon="2.53371">
        <ele>76</ele>
        <time>2021-03-05T13:36:51.958Z</time>
      </trkpt>
      <trkpt lat="48.37538" lon="2.53369">
        <ele>77</ele>
        <time>2021-03-05T13:36:56.955Z</time>
      </trkpt>
      <trkpt lat="48.37534" lon="2.53365">
        <ele>77</ele>
        <time>2021-03-05T13:37:00.960Z</time>
      </trkpt>
      <trkpt lat="48.37529" lon="2.53359">
        <ele>77</ele>
        <time>2021-03-05T13:37:05.970Z</time>
      </trkpt>
      <trkpt lat="48.37524" lon="2.53352">
        <ele>77</ele>
        <time>2021-03-05T13:37:10.967Z</time>
      </trkpt>
      <trkpt lat="48.37519" lon="2.53347">
        <ele>75</ele>
        <time>2021-03-05T13:37:15.970Z</time>
      </trkpt>
      <trkpt lat="48.37514" lon="2.53342">
        <ele>76</ele>
        <time>2021-03-05T13:37:20.967Z</time>
      </trkpt>
      <trkpt lat="48.37508" lon="2.53333">
        <ele>76</ele>
        <time>2021-03-05T13:37:25.968Z</time>
      </trkpt>
      <trkpt lat="48.37503" lon="2.53326">
        <ele>76</ele>
        <time>2021-03-05T13:37:30.964Z</time>
      </trkpt>
      <trkpt lat="48.37499" lon="2.53319">
        <ele>75</ele>
        <time>2021-03-05T13:37:35.952Z</time>
      </trkpt>
      <trkpt lat="48.37495" lon="2.53313">
        <ele>75</ele>
        <time>2021-03-05T13:37:39.968Z</time>
      </trkpt>
      <trkpt lat="48.37492" lon="2.53306">
        <ele>75</ele>
        <time>2021-03-05T13:37:44.969Z</time>
      </trkpt>
      <trkpt lat="48.37488" lon="2.53298">
        <ele>75</ele>
        <time>2021-03-05T13:37:49.957Z</time>
      </trkpt>
      <trkpt lat="48.37483" lon="2.53292">
        <ele>76</ele>
        <time>2021-03-05T13:37:53.970Z</time>
      </trkpt>
      <trkpt lat="48.37479" lon="2.53287">
        <ele>75</ele>
        <time>2021-03-05T13:37:57.970Z</time>
      </trkpt>
      <trkpt lat="48.37476" lon="2.53282">
        <ele>75</ele>
        <time>2021-03-05T13:38:02.969Z</time>
      </trkpt>
      <trkpt lat="48.37471" lon="2.53275">
        <ele>75</ele>
        <time>2021-03-05T13:38:07.963Z</time>
      </trkpt>
      <trkpt lat="48.37468" lon="2.5327">
        <ele>75</ele>
        <time>2021-03-05T13:38:11.968Z</time>
      </trkpt>
      <trkpt lat="48.37464" lon="2.53267">
        <ele>75</ele>
        <time>2021-03-05T13:38:16.967Z</time>
      </trkpt>
      <trkpt lat="48.37459" lon="2.53264">
        <ele>75</ele>
        <time>2021-03-05T13:38:21.961Z</time>
      </trkpt>
      <trkpt lat="48.37454" lon="2.5326">
        <ele>76</ele>
        <time>2021-03-05T13:38:26.963Z</time>
      </trkpt>
      <trkpt lat="48.3745" lon="2.53252">
        <ele>76</ele>
        <time>2021-03-05T13:38:31.949Z</time>
      </trkpt>
      <trkpt lat="48.37446" lon="2.53246">
        <ele>76</ele>
        <time>2021-03-05T13:38:36.964Z</time>
      </trkpt>
      <trkpt lat="48.37443" lon="2.53242">
        <ele>76</ele>
        <time>2021-03-05T13:38:40.973Z</time>
      </trkpt>
      <trkpt lat="48.37438" lon="2.53236">
        <ele>76</ele>
        <time>2021-03-05T13:38:45.968Z</time>
      </trkpt>
      <trkpt lat="48.37432" lon="2.53231">
        <ele>76</ele>
        <time>2021-03-05T13:38:50.969Z</time>
      </trkpt>
      <trkpt lat="48.37425" lon="2.53224">
        <ele>76</ele>
        <time>2021-03-05T13:38:55.977Z</time>
      </trkpt>
      <trkpt lat="48.37421" lon="2.53217">
        <ele>76</ele>
        <time>2021-03-05T13:39:00.960Z</time>
      </trkpt>
      <trkpt lat="48.37418" lon="2.5321">
        <ele>76</ele>
        <time>2021-03-05T13:39:05.973Z</time>
      </trkpt>
      <trkpt lat="48.37415" lon="2.53203">
        <ele>76</ele>
        <time>2021-03-05T13:39:10.963Z</time>
      </trkpt>
      <trkpt lat="48.37412" lon="2.53198">
        <ele>76</ele>
        <time>2021-03-05T13:39:14.982Z</time>
      </trkpt>
      <trkpt lat="48.37408" lon="2.53191">
        <ele>76</ele>
        <time>2021-03-05T13:39:19.965Z</time>
      </trkpt>
      <trkpt lat="48.37404" lon="2.53187">
        <ele>76</ele>
        <time>2021-03-05T13:39:23.982Z</time>
      </trkpt>
      <trkpt lat="48.374" lon="2.53181">
        <ele>76</ele>
        <time>2021-03-05T13:39:28.960Z</time>
      </trkpt>
      <trkpt lat="48.374" lon="2.5318">
        <ele>76</ele>
        <time>2021-03-05T13:39:33.957Z</time>
      </trkpt>
      <trkpt lat="48.37399" lon="2.5318">
        <ele>76</ele>
        <time>2021-03-05T13:39:38.966Z</time>
      </trkpt>
      <trkpt lat="48.37394" lon="2.5318">
        <ele>76</ele>
        <time>2021-03-05T13:39:43.963Z</time>
      </trkpt>
      <trkpt lat="48.37388" lon="2.53181">
        <ele>76</ele>
        <time>2021-03-05T13:39:48.969Z</time>
      </trkpt>
      <trkpt lat="48.37384" lon="2.53181">
        <ele>76</ele>
        <time>2021-03-05T13:39:52.974Z</time>
      </trkpt>
      <trkpt lat="48.37378" lon="2.53182">
        <ele>76</ele>
        <time>2021-03-05T13:39:57.959Z</time>
      </trkpt>
      <trkpt lat="48.37371" lon="2.53185">
        <ele>75</ele>
        <time>2021-03-05T13:40:02.958Z</time>
      </trkpt>
      <trkpt lat="48.37364" lon="2.53187">
        <ele>75</ele>
        <time>2021-03-05T13:40:07.966Z</time>
      </trkpt>
      <trkpt lat="48.37357" lon="2.53189">
        <ele>75</ele>
        <time>2021-03-05T13:40:12.966Z</time>
      </trkpt>
      <trkpt lat="48.37352" lon="2.5319">
        <ele>75</ele>
        <time>2021-03-05T13:40:16.967Z</time>
      </trkpt>
      <trkpt lat="48.37347" lon="2.53191">
        <ele>74</ele>
        <time>2021-03-05T13:40:21.973Z</time>
      </trkpt>
      <trkpt lat="48.37341" lon="2.53193">
        <ele>74</ele>
        <time>2021-03-05T13:40:26.971Z</time>
      </trkpt>
      <trkpt lat="48.37335" lon="2.53196">
        <ele>74</ele>
        <time>2021-03-05T13:40:31.947Z</time>
      </trkpt>
      <trkpt lat="48.37328" lon="2.532">
        <ele>74</ele>
        <time>2021-03-05T13:40:35.951Z</time>
      </trkpt>
      <trkpt lat="48.37322" lon="2.53203">
        <ele>74</ele>
        <time>2021-03-05T13:40:40.957Z</time>
      </trkpt>
      <trkpt lat="48.37316" lon="2.53206">
        <ele>73</ele>
        <time>2021-03-05T13:40:44.971Z</time>
      </trkpt>
      <trkpt lat="48.37311" lon="2.53209">
        <ele>73</ele>
        <time>2021-03-05T13:40:49.969Z</time>
      </trkpt>
      <trkpt lat="48.37305" lon="2.53212">
        <ele>73</ele>
        <time>2021-03-05T13:40:54.960Z</time>
      </trkpt>
      <trkpt lat="48.373" lon="2.53215">
        <ele>73</ele>
        <time>2021-03-05T13:40:59.952Z</time>
      </trkpt>
      <trkpt lat="48.37295" lon="2.53217">
        <ele>73</ele>
        <time>2021-03-05T13:41:04.959Z</time>
      </trkpt>
      <trkpt lat="48.37289" lon="2.53219">
        <ele>73</ele>
        <time>2021-03-05T13:41:09.959Z</time>
      </trkpt>
      <trkpt lat="48.37283" lon="2.53221">
        <ele>73</ele>
        <time>2021-03-05T13:41:14.958Z</time>
      </trkpt>
      <trkpt lat="48.37277" lon="2.53223">
        <ele>73</ele>
        <time>2021-03-05T13:41:19.945Z</time>
      </trkpt>
      <trkpt lat="48.37272" lon="2.53226">
        <ele>73</ele>
        <time>2021-03-05T13:41:23.955Z</time>
      </trkpt>
      <trkpt lat="48.37265" lon="2.53229">
        <ele>73</ele>
        <time>2021-03-05T13:41:28.946Z</time>
      </trkpt>
      <trkpt lat="48.37261" lon="2.5323">
        <ele>74</ele>
        <time>2021-03-05T13:41:32.974Z</time>
      </trkpt>
      <trkpt lat="48.37255" lon="2.53233">
        <ele>74</ele>
        <time>2021-03-05T13:41:37.963Z</time>
      </trkpt>
      <trkpt lat="48.37248" lon="2.53238">
        <ele>75</ele>
        <time>2021-03-05T13:41:42.965Z</time>
      </trkpt>
      <trkpt lat="48.37241" lon="2.53243">
        <ele>75</ele>
        <time>2021-03-05T13:41:46.981Z</time>
      </trkpt>
      <trkpt lat="48.37235" lon="2.53246">
        <ele>75</ele>
        <time>2021-03-05T13:41:51.961Z</time>
      </trkpt>
      <trkpt lat="48.3723" lon="2.53248">
        <ele>75</ele>
        <time>2021-03-05T13:41:56.969Z</time>
      </trkpt>
      <trkpt lat="48.37224" lon="2.53253">
        <ele>75</ele>
        <time>2021-03-05T13:42:01.966Z</time>
      </trkpt>
      <trkpt lat="48.37217" lon="2.53256">
        <ele>75</ele>
        <time>2021-03-05T13:42:06.967Z</time>
      </trkpt>
      <trkpt lat="48.37211" lon="2.53261">
        <ele>75</ele>
        <time>2021-03-05T13:42:11.969Z</time>
      </trkpt>
      <trkpt lat="48.37207" lon="2.53265">
        <ele>75</ele>
        <time>2021-03-05T13:42:15.970Z</time>
      </trkpt>
      <trkpt lat="48.37201" lon="2.5327">
        <ele>75</ele>
        <time>2021-03-05T13:42:20.967Z</time>
      </trkpt>
      <trkpt lat="48.37197" lon="2.53273">
        <ele>75</ele>
        <time>2021-03-05T13:42:24.969Z</time>
      </trkpt>
      <trkpt lat="48.37191" lon="2.53278">
        <ele>75</ele>
        <time>2021-03-05T13:42:29.980Z</time>
      </trkpt>
      <trkpt lat="48.37186" lon="2.53283">
        <ele>75</ele>
        <time>2021-03-05T13:42:34.966Z</time>
      </trkpt>
      <trkpt lat="48.37183" lon="2.53285">
        <ele>75</ele>
        <time>2021-03-05T13:42:38.971Z</time>
      </trkpt>
      <trkpt lat="48.37181" lon="2.53288">
        <ele>75</ele>
        <time>2021-03-05T13:42:43.986Z</time>
      </trkpt>
      <trkpt lat="48.37178" lon="2.53292">
        <ele>75</ele>
        <time>2021-03-05T13:42:48.989Z</time>
      </trkpt>
      <trkpt lat="48.37175" lon="2.53296">
        <ele>75</ele>
        <time>2021-03-05T13:42:53.967Z</time>
      </trkpt>
      <trkpt lat="48.37172" lon="2.533">
        <ele>75</ele>
        <time>2021-03-05T13:42:58.951Z</time>
      </trkpt>
      <trkpt lat="48.37166" lon="2.53304">
        <ele>75</ele>
        <time>2021-03-05T13:43:02.965Z</time>
      </trkpt>
      <trkpt lat="48.37161" lon="2.5331">
        <ele>75</ele>
        <time>2021-03-05T13:43:07.971Z</time>
      </trkpt>
      <trkpt lat="48.37156" lon="2.53314">
        <ele>75</ele>
        <time>2021-03-05T13:43:12.960Z</time>
      </trkpt>
      <trkpt lat="48.37152" lon="2.53317">
        <ele>75</ele>
        <time>2021-03-05T13:43:16.966Z</time>
      </trkpt>
      <trkpt lat="48.37149" lon="2.5332">
        <ele>76</ele>
        <time>2021-03-05T13:43:20.968Z</time>
      </trkpt>
      <trkpt lat="48.37143" lon="2.53324">
        <ele>76</ele>
        <time>2021-03-05T13:43:25.969Z</time>
      </trkpt>
      <trkpt lat="48.37137" lon="2.53326">
        <ele>76</ele>
        <time>2021-03-05T13:43:30.960Z</time>
      </trkpt>
      <trkpt lat="48.37132" lon="2.53323">
        <ele>76</ele>
        <time>2021-03-05T13:43:35.954Z</time>
      </trkpt>
      <trkpt lat="48.3713" lon="2.53317">
        <ele>75</ele>
        <time>2021-03-05T13:43:40.961Z</time>
      </trkpt>
      <trkpt lat="48.37128" lon="2.53311">
        <ele>75</ele>
        <time>2021-03-05T13:43:44.962Z</time>
      </trkpt>
      <trkpt lat="48.37123" lon="2.53304">
        <ele>75</ele>
        <time>2021-03-05T13:43:49.957Z</time>
      </trkpt>
      <trkpt lat="48.37121" lon="2.53297">
        <ele>75</ele>
        <time>2021-03-05T13:43:54.960Z</time>
      </trkpt>
      <trkpt lat="48.37118" lon="2.53287">
        <ele>75</ele>
        <time>2021-03-05T13:43:59.953Z</time>
      </trkpt>
      <trkpt lat="48.37117" lon="2.53279">
        <ele>75</ele>
        <time>2021-03-05T13:44:03.960Z</time>
      </trkpt>
      <trkpt lat="48.37114" lon="2.5327">
        <ele>75</ele>
        <time>2021-03-05T13:44:08.956Z</time>
      </trkpt>
      <trkpt lat="48.37112" lon="2.53264">
        <ele>75</ele>
        <time>2021-03-05T13:44:13.951Z</time>
      </trkpt>
      <trkpt lat="48.37111" lon="2.5326">
        <ele>76</ele>
        <time>2021-03-05T13:44:17.968Z</time>
      </trkpt>
      <trkpt lat="48.3711" lon="2.5326">
        <ele>76</ele>
        <time>2021-03-05T13:44:40.980Z</time>
      </trkpt>
      <trkpt lat="48.37108" lon="2.53258">
        <ele>76</ele>
        <time>2021-03-05T13:44:45.956Z</time>
      </trkpt>
      <trkpt lat="48.37107" lon="2.53257">
        <ele>76</ele>
        <time>2021-03-05T13:44:50.947Z</time>
      </trkpt>
      <trkpt lat="48.37104" lon="2.53253">
        <ele>76</ele>
        <time>2021-03-05T13:44:55.973Z</time>
      </trkpt>
      <trkpt lat="48.37102" lon="2.53246">
        <ele>76</ele>
        <time>2021-03-05T13:45:00.956Z</time>
      </trkpt>
      <trkpt lat="48.37099" lon="2.53242">
        <ele>76</ele>
        <time>2021-03-05T13:45:05.963Z</time>
      </trkpt>
      <trkpt lat="48.37094" lon="2.53238">
        <ele>77</ele>
        <time>2021-03-05T13:45:10.960Z</time>
      </trkpt>
      <trkpt lat="48.37089" lon="2.53235">
        <ele>78</ele>
        <time>2021-03-05T13:45:15.948Z</time>
      </trkpt>
      <trkpt lat="48.37085" lon="2.53233">
        <ele>78</ele>
        <time>2021-03-05T13:45:19.969Z</time>
      </trkpt>
      <trkpt lat="48.37081" lon="2.5323">
        <ele>78</ele>
        <time>2021-03-05T13:45:24.965Z</time>
      </trkpt>
      <trkpt lat="48.37078" lon="2.53226">
        <ele>78</ele>
        <time>2021-03-05T13:45:28.972Z</time>
      </trkpt>
      <trkpt lat="48.37075" lon="2.53225">
        <ele>78</ele>
        <time>2021-03-05T13:45:33.969Z</time>
      </trkpt>
      <trkpt lat="48.37073" lon="2.53224">
        <ele>78</ele>
        <time>2021-03-05T13:45:38.955Z</time>
      </trkpt>
      <trkpt lat="48.3707" lon="2.53223">
        <ele>78</ele>
        <time>2021-03-05T13:45:43.971Z</time>
      </trkpt>
      <trkpt lat="48.37066" lon="2.53219">
        <ele>78</ele>
        <time>2021-03-05T13:45:48.962Z</time>
      </trkpt>
      <trkpt lat="48.37062" lon="2.53214">
        <ele>78</ele>
        <time>2021-03-05T13:45:53.974Z</time>
      </trkpt>
      <trkpt lat="48.3706" lon="2.53209">
        <ele>78</ele>
        <time>2021-03-05T13:45:58.968Z</time>
      </trkpt>
      <trkpt lat="48.37056" lon="2.53203">
        <ele>79</ele>
        <time>2021-03-05T13:46:03.962Z</time>
      </trkpt>
      <trkpt lat="48.37052" lon="2.53196">
        <ele>79</ele>
        <time>2021-03-05T13:46:08.955Z</time>
      </trkpt>
      <trkpt lat="48.37048" lon="2.5319">
        <ele>79</ele>
        <time>2021-03-05T13:46:13.951Z</time>
      </trkpt>
      <trkpt lat="48.37042" lon="2.53184">
        <ele>79</ele>
        <time>2021-03-05T13:46:18.952Z</time>
      </trkpt>
      <trkpt lat="48.37037" lon="2.5318">
        <ele>77</ele>
        <time>2021-03-05T13:46:23.959Z</time>
      </trkpt>
      <trkpt lat="48.37033" lon="2.53178">
        <ele>77</ele>
        <time>2021-03-05T13:46:27.965Z</time>
      </trkpt>
      <trkpt lat="48.37028" lon="2.53175">
        <ele>77</ele>
        <time>2021-03-05T13:46:32.960Z</time>
      </trkpt>
      <trkpt lat="48.37024" lon="2.53169">
        <ele>77</ele>
        <time>2021-03-05T13:46:37.963Z</time>
      </trkpt>
      <trkpt lat="48.37021" lon="2.53161">
        <ele>77</ele>
        <time>2021-03-05T13:46:42.961Z</time>
      </trkpt>
      <trkpt lat="48.3702" lon="2.53154">
        <ele>77</ele>
        <time>2021-03-05T13:46:47.968Z</time>
      </trkpt>
      <trkpt lat="48.37016" lon="2.53147">
        <ele>77</ele>
        <time>2021-03-05T13:46:52.963Z</time>
      </trkpt>
      <trkpt lat="48.37014" lon="2.53139">
        <ele>76</ele>
        <time>2021-03-05T13:46:57.958Z</time>
      </trkpt>
      <trkpt lat="48.37013" lon="2.53133">
        <ele>76</ele>
        <time>2021-03-05T13:47:02.956Z</time>
      </trkpt>
      <trkpt lat="48.37008" lon="2.53132">
        <ele>76</ele>
        <time>2021-03-05T13:47:07.966Z</time>
      </trkpt>
      <trkpt lat="48.37004" lon="2.5313">
        <ele>76</ele>
        <time>2021-03-05T13:47:12.962Z</time>
      </trkpt>
      <trkpt lat="48.36999" lon="2.53126">
        <ele>76</ele>
        <time>2021-03-05T13:47:16.960Z</time>
      </trkpt>
      <trkpt lat="48.36995" lon="2.53121">
        <ele>77</ele>
        <time>2021-03-05T13:47:21.962Z</time>
      </trkpt>
      <trkpt lat="48.36991" lon="2.53117">
        <ele>77</ele>
        <time>2021-03-05T13:47:26.973Z</time>
      </trkpt>
      <trkpt lat="48.36985" lon="2.53114">
        <ele>77</ele>
        <time>2021-03-05T13:47:31.971Z</time>
      </trkpt>
      <trkpt lat="48.36982" lon="2.5311">
        <ele>77</ele>
        <time>2021-03-05T13:47:36.960Z</time>
      </trkpt>
      <trkpt lat="48.3698" lon="2.53105">
        <ele>77</ele>
        <time>2021-03-05T13:47:40.965Z</time>
      </trkpt>
      <trkpt lat="48.3698" lon="2.531">
        <ele>77</ele>
        <time>2021-03-05T13:47:45.952Z</time>
      </trkpt>
      <trkpt lat="48.36981" lon="2.53094">
        <ele>78</ele>
        <time>2021-03-05T13:47:50.953Z</time>
      </trkpt>
      <trkpt lat="48.36983" lon="2.53089">
        <ele>78</ele>
        <time>2021-03-05T13:47:55.968Z</time>
      </trkpt>
      <trkpt lat="48.36984" lon="2.53086">
        <ele>78</ele>
        <time>2021-03-05T13:48:00.964Z</time>
      </trkpt>
      <trkpt lat="48.36983" lon="2.53086">
        <ele>78</ele>
        <time>2021-03-05T13:48:10.958Z</time>
      </trkpt>
      <trkpt lat="48.36983" lon="2.53086">
        <ele>78</ele>
        <time>2021-03-05T13:48:15.963Z</time>
      </trkpt>
      <trkpt lat="48.36983" lon="2.53085">
        <ele>78</ele>
        <time>2021-03-05T13:48:20.967Z</time>
      </trkpt>
      <trkpt lat="48.36984" lon="2.53078">
        <ele>78</ele>
        <time>2021-03-05T13:48:25.958Z</time>
      </trkpt>
      <trkpt lat="48.36985" lon="2.53071">
        <ele>78</ele>
        <time>2021-03-05T13:48:30.956Z</time>
      </trkpt>
      <trkpt lat="48.36987" lon="2.53066">
        <ele>80</ele>
        <time>2021-03-05T13:48:35.950Z</time>
      </trkpt>
      <trkpt lat="48.3699" lon="2.53062">
        <ele>80</ele>
        <time>2021-03-05T13:48:39.964Z</time>
      </trkpt>
      <trkpt lat="48.36995" lon="2.53058">
        <ele>80</ele>
        <time>2021-03-05T13:48:44.963Z</time>
      </trkpt>
      <trkpt lat="48.37001" lon="2.53054">
        <ele>80</ele>
        <time>2021-03-05T13:48:49.954Z</time>
      </trkpt>
      <trkpt lat="48.37005" lon="2.5305">
        <ele>80</ele>
        <time>2021-03-05T13:48:53.959Z</time>
      </trkpt>
      <trkpt lat="48.37007" lon="2.53044">
        <ele>80</ele>
        <time>2021-03-05T13:48:58.969Z</time>
      </trkpt>
      <trkpt lat="48.37011" lon="2.53036">
        <ele>81</ele>
        <time>2021-03-05T13:49:03.972Z</time>
      </trkpt>
      <trkpt lat="48.37015" lon="2.53028">
        <ele>82</ele>
        <time>2021-03-05T13:49:08.953Z</time>
      </trkpt>
      <trkpt lat="48.37017" lon="2.53025">
        <ele>82</ele>
        <time>2021-03-05T13:49:12.963Z</time>
      </trkpt>
      <trkpt lat="48.37021" lon="2.5302">
        <ele>82</ele>
        <time>2021-03-05T13:49:17.963Z</time>
      </trkpt>
      <trkpt lat="48.37025" lon="2.53018">
        <ele>82</ele>
        <time>2021-03-05T13:49:22.962Z</time>
      </trkpt>
      <trkpt lat="48.37028" lon="2.53016">
        <ele>82</ele>
        <time>2021-03-05T13:49:27.964Z</time>
      </trkpt>
      <trkpt lat="48.37034" lon="2.53013">
        <ele>81</ele>
        <time>2021-03-05T13:49:32.961Z</time>
      </trkpt>
      <trkpt lat="48.37039" lon="2.53009">
        <ele>81</ele>
        <time>2021-03-05T13:49:37.964Z</time>
      </trkpt>
      <trkpt lat="48.37046" lon="2.53005">
        <ele>81</ele>
        <time>2021-03-05T13:49:42.956Z</time>
      </trkpt>
      <trkpt lat="48.37051" lon="2.53002">
        <ele>81</ele>
        <time>2021-03-05T13:49:47.963Z</time>
      </trkpt>
      <trkpt lat="48.37056" lon="2.53005">
        <ele>81</ele>
        <time>2021-03-05T13:49:52.964Z</time>
      </trkpt>
      <trkpt lat="48.37061" lon="2.53007">
        <ele>81</ele>
        <time>2021-03-05T13:49:57.960Z</time>
      </trkpt>
      <trkpt lat="48.37067" lon="2.53006">
        <ele>81</ele>
        <time>2021-03-05T13:50:01.962Z</time>
      </trkpt>
      <trkpt lat="48.37072" lon="2.53005">
        <ele>79</ele>
        <time>2021-03-05T13:50:05.972Z</time>
      </trkpt>
      <trkpt lat="48.37078" lon="2.53003">
        <ele>79</ele>
        <time>2021-03-05T13:50:10.971Z</time>
      </trkpt>
      <trkpt lat="48.37083" lon="2.53004">
        <ele>79</ele>
        <time>2021-03-05T13:50:15.963Z</time>
      </trkpt>
      <trkpt lat="48.37088" lon="2.53007">
        <ele>79</ele>
        <time>2021-03-05T13:50:20.959Z</time>
      </trkpt>
      <trkpt lat="48.37092" lon="2.53008">
        <ele>79</ele>
        <time>2021-03-05T13:50:24.970Z</time>
      </trkpt>
      <trkpt lat="48.37096" lon="2.53012">
        <ele>79</ele>
        <time>2021-03-05T13:50:29.965Z</time>
      </trkpt>
      <trkpt lat="48.37102" lon="2.53018">
        <ele>77</ele>
        <time>2021-03-05T13:50:34.967Z</time>
      </trkpt>
      <trkpt lat="48.37107" lon="2.53021">
        <ele>77</ele>
        <time>2021-03-05T13:50:39.971Z</time>
      </trkpt>
      <trkpt lat="48.37112" lon="2.53022">
        <ele>77</ele>
        <time>2021-03-05T13:50:44.965Z</time>
      </trkpt>
      <trkpt lat="48.37116" lon="2.53024">
        <ele>77</ele>
        <time>2021-03-05T13:50:49.949Z</time>
      </trkpt>
      <trkpt lat="48.37121" lon="2.53025">
        <ele>77</ele>
        <time>2021-03-05T13:50:53.966Z</time>
      </trkpt>
      <trkpt lat="48.37128" lon="2.53025">
        <ele>75</ele>
        <time>2021-03-05T13:50:58.955Z</time>
      </trkpt>
      <trkpt lat="48.37135" lon="2.53026">
        <ele>75</ele>
        <time>2021-03-05T13:51:03.962Z</time>
      </trkpt>
      <trkpt lat="48.37142" lon="2.53024">
        <ele>75</ele>
        <time>2021-03-05T13:51:08.946Z</time>
      </trkpt>
      <trkpt lat="48.37149" lon="2.53023">
        <ele>75</ele>
        <time>2021-03-05T13:51:13.950Z</time>
      </trkpt>
      <trkpt lat="48.37153" lon="2.53023">
        <ele>75</ele>
        <time>2021-03-05T13:51:17.963Z</time>
      </trkpt>
      <trkpt lat="48.37158" lon="2.5302">
        <ele>73</ele>
        <time>2021-03-05T13:51:22.955Z</time>
      </trkpt>
      <trkpt lat="48.37162" lon="2.53014">
        <ele>73</ele>
        <time>2021-03-05T13:51:27.954Z</time>
      </trkpt>
      <trkpt lat="48.37167" lon="2.5301">
        <ele>74</ele>
        <time>2021-03-05T13:51:31.960Z</time>
      </trkpt>
      <trkpt lat="48.3717" lon="2.53002">
        <ele>74</ele>
        <time>2021-03-05T13:51:36.956Z</time>
      </trkpt>
      <trkpt lat="48.3717" lon="2.52996">
        <ele>74</ele>
        <time>2021-03-05T13:51:40.968Z</time>
      </trkpt>
      <trkpt lat="48.37169" lon="2.5299">
        <ele>74</ele>
        <time>2021-03-05T13:51:45.966Z</time>
      </trkpt>
      <trkpt lat="48.37168" lon="2.52984">
        <ele>75</ele>
        <time>2021-03-05T13:51:50.962Z</time>
      </trkpt>
      <trkpt lat="48.37165" lon="2.52978">
        <ele>75</ele>
        <time>2021-03-05T13:51:55.965Z</time>
      </trkpt>
      <trkpt lat="48.37161" lon="2.5297">
        <ele>75</ele>
        <time>2021-03-05T13:52:00.963Z</time>
      </trkpt>
      <trkpt lat="48.37158" lon="2.52962">
        <ele>75</ele>
        <time>2021-03-05T13:52:05.961Z</time>
      </trkpt>
      <trkpt lat="48.37155" lon="2.52957">
        <ele>76</ele>
        <time>2021-03-05T13:52:09.970Z</time>
      </trkpt>
      <trkpt lat="48.37151" lon="2.52951">
        <ele>76</ele>
        <time>2021-03-05T13:52:14.966Z</time>
      </trkpt>
      <trkpt lat="48.37147" lon="2.52945">
        <ele>76</ele>
        <time>2021-03-05T13:52:19.954Z</time>
      </trkpt>
      <trkpt lat="48.37145" lon="2.52937">
        <ele>76</ele>
        <time>2021-03-05T13:52:24.970Z</time>
      </trkpt>
      <trkpt lat="48.37143" lon="2.52928">
        <ele>76</ele>
        <time>2021-03-05T13:52:29.964Z</time>
      </trkpt>
      <trkpt lat="48.37141" lon="2.5292">
        <ele>76</ele>
        <time>2021-03-05T13:52:34.965Z</time>
      </trkpt>
      <trkpt lat="48.3714" lon="2.52909">
        <ele>76</ele>
        <time>2021-03-05T13:52:39.968Z</time>
      </trkpt>
      <trkpt lat="48.37138" lon="2.52899">
        <ele>76</ele>
        <time>2021-03-05T13:52:44.961Z</time>
      </trkpt>
      <trkpt lat="48.37136" lon="2.52888">
        <ele>76</ele>
        <time>2021-03-05T13:52:49.960Z</time>
      </trkpt>
      <trkpt lat="48.37135" lon="2.5288">
        <ele>76</ele>
        <time>2021-03-05T13:52:54.965Z</time>
      </trkpt>
      <trkpt lat="48.37135" lon="2.52872">
        <ele>76</ele>
        <time>2021-03-05T13:52:59.957Z</time>
      </trkpt>
      <trkpt lat="48.37136" lon="2.52866">
        <ele>76</ele>
        <time>2021-03-05T13:53:04.003Z</time>
      </trkpt>
      <trkpt lat="48.37136" lon="2.52856">
        <ele>76</ele>
        <time>2021-03-05T13:53:08.962Z</time>
      </trkpt>
      <trkpt lat="48.37137" lon="2.52848">
        <ele>76</ele>
        <time>2021-03-05T13:53:13.968Z</time>
      </trkpt>
      <trkpt lat="48.37137" lon="2.52841">
        <ele>76</ele>
        <time>2021-03-05T13:53:18.960Z</time>
      </trkpt>
      <trkpt lat="48.37139" lon="2.52835">
        <ele>76</ele>
        <time>2021-03-05T13:53:28.968Z</time>
      </trkpt>
      <trkpt lat="48.37141" lon="2.52833">
        <ele>76</ele>
        <time>2021-03-05T13:53:33.972Z</time>
      </trkpt>
      <trkpt lat="48.37142" lon="2.52833">
        <ele>76</ele>
        <time>2021-03-05T13:53:38.959Z</time>
      </trkpt>
      <trkpt lat="48.37143" lon="2.52831">
        <ele>76</ele>
        <time>2021-03-05T13:53:43.968Z</time>
      </trkpt>
      <trkpt lat="48.37147" lon="2.52827">
        <ele>76</ele>
        <time>2021-03-05T13:53:48.958Z</time>
      </trkpt>
      <trkpt lat="48.37149" lon="2.52823">
        <ele>76</ele>
        <time>2021-03-05T13:53:52.960Z</time>
      </trkpt>
      <trkpt lat="48.37153" lon="2.52821">
        <ele>78</ele>
        <time>2021-03-05T13:53:57.965Z</time>
      </trkpt>
      <trkpt lat="48.37158" lon="2.5282">
        <ele>78</ele>
        <time>2021-03-05T13:54:02.966Z</time>
      </trkpt>
      <trkpt lat="48.37162" lon="2.52819">
        <ele>78</ele>
        <time>2021-03-05T13:54:07.972Z</time>
      </trkpt>
      <trkpt lat="48.37167" lon="2.52818">
        <ele>78</ele>
        <time>2021-03-05T13:54:12.952Z</time>
      </trkpt>
      <trkpt lat="48.37172" lon="2.52817">
        <ele>78</ele>
        <time>2021-03-05T13:54:16.985Z</time>
      </trkpt>
      <trkpt lat="48.37177" lon="2.52811">
        <ele>78</ele>
        <time>2021-03-05T13:54:21.967Z</time>
      </trkpt>
      <trkpt lat="48.37183" lon="2.52804">
        <ele>80</ele>
        <time>2021-03-05T13:54:26.958Z</time>
      </trkpt>
      <trkpt lat="48.37189" lon="2.52799">
        <ele>80</ele>
        <time>2021-03-05T13:54:31.966Z</time>
      </trkpt>
      <trkpt lat="48.37194" lon="2.52796">
        <ele>80</ele>
        <time>2021-03-05T13:54:35.971Z</time>
      </trkpt>
      <trkpt lat="48.37199" lon="2.52796">
        <ele>80</ele>
        <time>2021-03-05T13:54:40.966Z</time>
      </trkpt>
      <trkpt lat="48.37207" lon="2.52791">
        <ele>80</ele>
        <time>2021-03-05T13:54:45.968Z</time>
      </trkpt>
      <trkpt lat="48.37215" lon="2.52786">
        <ele>81</ele>
        <time>2021-03-05T13:54:50.960Z</time>
      </trkpt>
      <trkpt lat="48.37219" lon="2.5278">
        <ele>81</ele>
        <time>2021-03-05T13:54:55.957Z</time>
      </trkpt>
      <trkpt lat="48.37225" lon="2.52778">
        <ele>81</ele>
        <time>2021-03-05T13:54:59.962Z</time>
      </trkpt>
      <trkpt lat="48.3723" lon="2.52777">
        <ele>81</ele>
        <time>2021-03-05T13:55:04.966Z</time>
      </trkpt>
      <trkpt lat="48.37233" lon="2.52776">
        <ele>81</ele>
        <time>2021-03-05T13:55:08.969Z</time>
      </trkpt>
      <trkpt lat="48.37236" lon="2.52775">
        <ele>80</ele>
        <time>2021-03-05T13:55:13.967Z</time>
      </trkpt>
      <trkpt lat="48.37244" lon="2.52772">
        <ele>80</ele>
        <time>2021-03-05T13:55:18.947Z</time>
      </trkpt>
      <trkpt lat="48.37252" lon="2.52768">
        <ele>80</ele>
        <time>2021-03-05T13:55:23.948Z</time>
      </trkpt>
      <trkpt lat="48.37258" lon="2.52765">
        <ele>80</ele>
        <time>2021-03-05T13:55:28.945Z</time>
      </trkpt>
      <trkpt lat="48.37262" lon="2.52763">
        <ele>79</ele>
        <time>2021-03-05T13:55:32.948Z</time>
      </trkpt>
      <trkpt lat="48.37266" lon="2.52759">
        <ele>77</ele>
        <time>2021-03-05T13:55:36.954Z</time>
      </trkpt>
      <trkpt lat="48.3727" lon="2.52757">
        <ele>77</ele>
        <time>2021-03-05T13:55:40.948Z</time>
      </trkpt>
      <trkpt lat="48.37275" lon="2.52755">
        <ele>77</ele>
        <time>2021-03-05T13:55:45.956Z</time>
      </trkpt>
      <trkpt lat="48.3728" lon="2.52749">
        <ele>77</ele>
        <time>2021-03-05T13:55:50.944Z</time>
      </trkpt>
      <trkpt lat="48.37286" lon="2.52746">
        <ele>77</ele>
        <time>2021-03-05T13:55:54.967Z</time>
      </trkpt>
      <trkpt lat="48.37289" lon="2.52743">
        <ele>77</ele>
        <time>2021-03-05T13:55:59.952Z</time>
      </trkpt>
      <trkpt lat="48.37293" lon="2.52738">
        <ele>77</ele>
        <time>2021-03-05T13:56:04.955Z</time>
      </trkpt>
      <trkpt lat="48.37297" lon="2.52734">
        <ele>78</ele>
        <time>2021-03-05T13:56:09.956Z</time>
      </trkpt>
      <trkpt lat="48.37301" lon="2.5273">
        <ele>78</ele>
        <time>2021-03-05T13:56:14.962Z</time>
      </trkpt>
      <trkpt lat="48.37306" lon="2.52726">
        <ele>78</ele>
        <time>2021-03-05T13:56:19.965Z</time>
      </trkpt>
      <trkpt lat="48.37311" lon="2.52721">
        <ele>78</ele>
        <time>2021-03-05T13:56:24.950Z</time>
      </trkpt>
      <trkpt lat="48.37317" lon="2.52717">
        <ele>78</ele>
        <time>2021-03-05T13:56:29.959Z</time>
      </trkpt>
      <trkpt lat="48.37323" lon="2.52712">
        <ele>78</ele>
        <time>2021-03-05T13:56:34.945Z</time>
      </trkpt>
      <trkpt lat="48.37327" lon="2.5271">
        <ele>78</ele>
        <time>2021-03-05T13:56:39.974Z</time>
      </trkpt>
      <trkpt lat="48.37333" lon="2.52711">
        <ele>78</ele>
        <time>2021-03-05T13:56:44.956Z</time>
      </trkpt>
      <trkpt lat="48.37339" lon="2.52708">
        <ele>79</ele>
        <time>2021-03-05T13:56:48.961Z</time>
      </trkpt>
      <trkpt lat="48.37345" lon="2.52706">
        <ele>79</ele>
        <time>2021-03-05T13:56:52.965Z</time>
      </trkpt>
      <trkpt lat="48.37351" lon="2.52705">
        <ele>78</ele>
        <time>2021-03-05T13:56:57.969Z</time>
      </trkpt>
      <trkpt lat="48.37356" lon="2.52704">
        <ele>78</ele>
        <time>2021-03-05T13:57:02.968Z</time>
      </trkpt>
      <trkpt lat="48.37364" lon="2.52702">
        <ele>78</ele>
        <time>2021-03-05T13:57:07.960Z</time>
      </trkpt>
      <trkpt lat="48.37369" lon="2.527">
        <ele>78</ele>
        <time>2021-03-05T13:57:12.965Z</time>
      </trkpt>
      <trkpt lat="48.37375" lon="2.52697">
        <ele>78</ele>
        <time>2021-03-05T13:57:17.961Z</time>
      </trkpt>
      <trkpt lat="48.37379" lon="2.52694">
        <ele>77</ele>
        <time>2021-03-05T13:57:21.966Z</time>
      </trkpt>
      <trkpt lat="48.37386" lon="2.5269">
        <ele>77</ele>
        <time>2021-03-05T13:57:26.963Z</time>
      </trkpt>
      <trkpt lat="48.37393" lon="2.52687">
        <ele>77</ele>
        <time>2021-03-05T13:57:31.956Z</time>
      </trkpt>
      <trkpt lat="48.37398" lon="2.52683">
        <ele>77</ele>
        <time>2021-03-05T13:57:35.968Z</time>
      </trkpt>
      <trkpt lat="48.37404" lon="2.52679">
        <ele>76</ele>
        <time>2021-03-05T13:57:40.962Z</time>
      </trkpt>
      <trkpt lat="48.37407" lon="2.52679">
        <ele>76</ele>
        <time>2021-03-05T13:57:44.967Z</time>
      </trkpt>
      <trkpt lat="48.37407" lon="2.52679">
        <ele>76</ele>
        <time>2021-03-05T13:57:49.961Z</time>
      </trkpt>
      <trkpt lat="48.37407" lon="2.52679">
        <ele>76</ele>
        <time>2021-03-05T13:57:53.963Z</time>
      </trkpt>
      <trkpt lat="48.37412" lon="2.52675">
        <ele>76</ele>
        <time>2021-03-05T13:57:58.970Z</time>
      </trkpt>
      <trkpt lat="48.37419" lon="2.5267">
        <ele>76</ele>
        <time>2021-03-05T13:58:03.960Z</time>
      </trkpt>
      <trkpt lat="48.37424" lon="2.52667">
        <ele>76</ele>
        <time>2021-03-05T13:58:07.970Z</time>
      </trkpt>
      <trkpt lat="48.37432" lon="2.5266">
        <ele>76</ele>
        <time>2021-03-05T13:58:12.958Z</time>
      </trkpt>
      <trkpt lat="48.37438" lon="2.52656">
        <ele>76</ele>
        <time>2021-03-05T13:58:16.962Z</time>
      </trkpt>
      <trkpt lat="48.37446" lon="2.52653">
        <ele>76</ele>
        <time>2021-03-05T13:58:21.964Z</time>
      </trkpt>
      <trkpt lat="48.37451" lon="2.52652">
        <ele>77</ele>
        <time>2021-03-05T13:58:26.967Z</time>
      </trkpt>
      <trkpt lat="48.37458" lon="2.5265">
        <ele>77</ele>
        <time>2021-03-05T13:58:31.966Z</time>
      </trkpt>
      <trkpt lat="48.37465" lon="2.52645">
        <ele>76</ele>
        <time>2021-03-05T13:58:36.967Z</time>
      </trkpt>
      <trkpt lat="48.37473" lon="2.5264">
        <ele>76</ele>
        <time>2021-03-05T13:58:41.958Z</time>
      </trkpt>
      <trkpt lat="48.3748" lon="2.52636">
        <ele>76</ele>
        <time>2021-03-05T13:58:46.944Z</time>
      </trkpt>
      <trkpt lat="48.37485" lon="2.52635">
        <ele>76</ele>
        <time>2021-03-05T13:58:50.964Z</time>
      </trkpt>
      <trkpt lat="48.37492" lon="2.52632">
        <ele>73</ele>
        <time>2021-03-05T13:58:55.956Z</time>
      </trkpt>
      <trkpt lat="48.37498" lon="2.5263">
        <ele>73</ele>
        <time>2021-03-05T13:59:00.955Z</time>
      </trkpt>
      <trkpt lat="48.37502" lon="2.52627">
        <ele>73</ele>
        <time>2021-03-05T13:59:04.969Z</time>
      </trkpt>
      <trkpt lat="48.37508" lon="2.52627">
        <ele>73</ele>
        <time>2021-03-05T13:59:09.965Z</time>
      </trkpt>
      <trkpt lat="48.37514" lon="2.52624">
        <ele>71</ele>
        <time>2021-03-05T13:59:14.959Z</time>
      </trkpt>
      <trkpt lat="48.37516" lon="2.52623">
        <ele>71</ele>
        <time>2021-03-05T13:59:18.962Z</time>
      </trkpt>
      <trkpt lat="48.37515" lon="2.52623">
        <ele>71</ele>
        <time>2021-03-05T13:59:23.961Z</time>
      </trkpt>
      <trkpt lat="48.37518" lon="2.52622">
        <ele>71</ele>
        <time>2021-03-05T13:59:28.948Z</time>
      </trkpt>
      <trkpt lat="48.37523" lon="2.52619">
        <ele>71</ele>
        <time>2021-03-05T13:59:32.969Z</time>
      </trkpt>
      <trkpt lat="48.37528" lon="2.52616">
        <ele>71</ele>
        <time>2021-03-05T13:59:36.968Z</time>
      </trkpt>
      <trkpt lat="48.37533" lon="2.52612">
        <ele>71</ele>
        <time>2021-03-05T13:59:41.951Z</time>
      </trkpt>
      <trkpt lat="48.37539" lon="2.52607">
        <ele>71</ele>
        <time>2021-03-05T13:59:46.965Z</time>
      </trkpt>
      <trkpt lat="48.37544" lon="2.52602">
        <ele>71</ele>
        <time>2021-03-05T13:59:51.950Z</time>
      </trkpt>
      <trkpt lat="48.37547" lon="2.52596">
        <ele>70</ele>
        <time>2021-03-05T13:59:55.953Z</time>
      </trkpt>
      <trkpt lat="48.3755" lon="2.5259">
        <ele>70</ele>
        <time>2021-03-05T13:59:59.966Z</time>
      </trkpt>
      <trkpt lat="48.37555" lon="2.52584">
        <ele>70</ele>
        <time>2021-03-05T14:00:04.953Z</time>
      </trkpt>
      <trkpt lat="48.37558" lon="2.52579">
        <ele>70</ele>
        <time>2021-03-05T14:00:08.967Z</time>
      </trkpt>
      <trkpt lat="48.37561" lon="2.52572">
        <ele>70</ele>
        <time>2021-03-05T14:00:13.968Z</time>
      </trkpt>
      <trkpt lat="48.37565" lon="2.52563">
        <ele>71</ele>
        <time>2021-03-05T14:00:18.951Z</time>
      </trkpt>
      <trkpt lat="48.37568" lon="2.52554">
        <ele>71</ele>
        <time>2021-03-05T14:00:23.947Z</time>
      </trkpt>
      <trkpt lat="48.37572" lon="2.52546">
        <ele>70</ele>
        <time>2021-03-05T14:00:28.944Z</time>
      </trkpt>
      <trkpt lat="48.37576" lon="2.52542">
        <ele>70</ele>
        <time>2021-03-05T14:00:33.946Z</time>
      </trkpt>
      <trkpt lat="48.3758" lon="2.52537">
        <ele>71</ele>
        <time>2021-03-05T14:00:43.954Z</time>
      </trkpt>
      <trkpt lat="48.37583" lon="2.52534">
        <ele>71</ele>
        <time>2021-03-05T14:00:47.960Z</time>
      </trkpt>
      <trkpt lat="48.37583" lon="2.5253">
        <ele>71</ele>
        <time>2021-03-05T14:00:52.960Z</time>
      </trkpt>
      <trkpt lat="48.37583" lon="2.52528">
        <ele>71</ele>
        <time>2021-03-05T14:00:57.953Z</time>
      </trkpt>
      <trkpt lat="48.37584" lon="2.52525">
        <ele>71</ele>
        <time>2021-03-05T14:01:01.966Z</time>
      </trkpt>
      <trkpt lat="48.37586" lon="2.52519">
        <ele>71</ele>
        <time>2021-03-05T14:01:06.966Z</time>
      </trkpt>
      <trkpt lat="48.37588" lon="2.52512">
        <ele>72</ele>
        <time>2021-03-05T14:01:11.950Z</time>
      </trkpt>
      <trkpt lat="48.37589" lon="2.52507">
        <ele>72</ele>
        <time>2021-03-05T14:01:15.952Z</time>
      </trkpt>
      <trkpt lat="48.37589" lon="2.52506">
        <ele>72</ele>
        <time>2021-03-05T14:01:19.964Z</time>
      </trkpt>
      <trkpt lat="48.37585" lon="2.52503">
        <ele>72</ele>
        <time>2021-03-05T14:07:12.967Z</time>
      </trkpt>
      <trkpt lat="48.37588" lon="2.525">
        <ele>72</ele>
        <time>2021-03-05T14:07:17.953Z</time>
      </trkpt>
      <trkpt lat="48.37591" lon="2.52495">
        <ele>72</ele>
        <time>2021-03-05T14:07:21.967Z</time>
      </trkpt>
      <trkpt lat="48.37596" lon="2.52488">
        <ele>72</ele>
        <time>2021-03-05T14:07:26.967Z</time>
      </trkpt>
      <trkpt lat="48.37599" lon="2.52481">
        <ele>75</ele>
        <time>2021-03-05T14:07:31.948Z</time>
      </trkpt>
      <trkpt lat="48.37601" lon="2.52467">
        <ele>75</ele>
        <time>2021-03-05T14:07:50.953Z</time>
      </trkpt>
      <trkpt lat="48.37601" lon="2.52467">
        <ele>75</ele>
        <time>2021-03-05T14:07:55.968Z</time>
      </trkpt>
      <trkpt lat="48.37602" lon="2.52465">
        <ele>75</ele>
        <time>2021-03-05T14:08:00.952Z</time>
      </trkpt>
      <trkpt lat="48.37603" lon="2.52464">
        <ele>75</ele>
        <time>2021-03-05T14:08:04.963Z</time>
      </trkpt>
      <trkpt lat="48.37605" lon="2.52462">
        <ele>75</ele>
        <time>2021-03-05T14:08:09.962Z</time>
      </trkpt>
      <trkpt lat="48.37607" lon="2.5246">
        <ele>75</ele>
        <time>2021-03-05T14:08:14.971Z</time>
      </trkpt>
      <trkpt lat="48.37609" lon="2.52459">
        <ele>75</ele>
        <time>2021-03-05T14:08:19.971Z</time>
      </trkpt>
      <trkpt lat="48.37612" lon="2.52456">
        <ele>77</ele>
        <time>2021-03-05T14:08:24.965Z</time>
      </trkpt>
      <trkpt lat="48.37615" lon="2.52453">
        <ele>77</ele>
        <time>2021-03-05T14:08:29.955Z</time>
      </trkpt>
      <trkpt lat="48.37616" lon="2.52447">
        <ele>77</ele>
        <time>2021-03-05T14:08:34.961Z</time>
      </trkpt>
      <trkpt lat="48.37616" lon="2.52439">
        <ele>77</ele>
        <time>2021-03-05T14:08:39.965Z</time>
      </trkpt>
      <trkpt lat="48.3762" lon="2.52431">
        <ele>77</ele>
        <time>2021-03-05T14:08:44.966Z</time>
      </trkpt>
      <trkpt lat="48.37624" lon="2.52423">
        <ele>78</ele>
        <time>2021-03-05T14:08:49.954Z</time>
      </trkpt>
      <trkpt lat="48.37628" lon="2.52419">
        <ele>78</ele>
        <time>2021-03-05T14:08:53.957Z</time>
      </trkpt>
      <trkpt lat="48.37634" lon="2.52416">
        <ele>78</ele>
        <time>2021-03-05T14:09:08.958Z</time>
      </trkpt>
      <trkpt lat="48.37635" lon="2.52415">
        <ele>78</ele>
        <time>2021-03-05T14:09:13.960Z</time>
      </trkpt>
      <trkpt lat="48.37639" lon="2.52415">
        <ele>78</ele>
        <time>2021-03-05T14:09:18.960Z</time>
      </trkpt>
      <trkpt lat="48.37639" lon="2.52415">
        <ele>78</ele>
        <time>2021-03-05T14:09:22.963Z</time>
      </trkpt>
      <trkpt lat="48.37643" lon="2.52414">
        <ele>78</ele>
        <time>2021-03-05T14:09:27.969Z</time>
      </trkpt>
      <trkpt lat="48.37648" lon="2.52412">
        <ele>78</ele>
        <time>2021-03-05T14:09:32.966Z</time>
      </trkpt>
      <trkpt lat="48.37653" lon="2.52413">
        <ele>78</ele>
        <time>2021-03-05T14:09:37.961Z</time>
      </trkpt>
      <trkpt lat="48.37658" lon="2.5241">
        <ele>78</ele>
        <time>2021-03-05T14:09:42.976Z</time>
      </trkpt>
      <trkpt lat="48.37661" lon="2.52408">
        <ele>78</ele>
        <time>2021-03-05T14:09:47.967Z</time>
      </trkpt>
      <trkpt lat="48.37665" lon="2.52405">
        <ele>78</ele>
        <time>2021-03-05T14:09:52.966Z</time>
      </trkpt>
      <trkpt lat="48.37668" lon="2.524">
        <ele>79</ele>
        <time>2021-03-05T14:09:57.967Z</time>
      </trkpt>
      <trkpt lat="48.3767" lon="2.52395">
        <ele>79</ele>
        <time>2021-03-05T14:10:02.954Z</time>
      </trkpt>
      <trkpt lat="48.37672" lon="2.52387">
        <ele>79</ele>
        <time>2021-03-05T14:10:07.955Z</time>
      </trkpt>
      <trkpt lat="48.37674" lon="2.5238">
        <ele>79</ele>
        <time>2021-03-05T14:10:11.961Z</time>
      </trkpt>
      <trkpt lat="48.37678" lon="2.52373">
        <ele>79</ele>
        <time>2021-03-05T14:10:16.959Z</time>
      </trkpt>
      <trkpt lat="48.3768" lon="2.52364">
        <ele>79</ele>
        <time>2021-03-05T14:10:21.960Z</time>
      </trkpt>
      <trkpt lat="48.37682" lon="2.52357">
        <ele>76</ele>
        <time>2021-03-05T14:10:25.963Z</time>
      </trkpt>
      <trkpt lat="48.37686" lon="2.52352">
        <ele>76</ele>
        <time>2021-03-05T14:10:30.952Z</time>
      </trkpt>
      <trkpt lat="48.37688" lon="2.52351">
        <ele>76</ele>
        <time>2021-03-05T14:10:35.960Z</time>
      </trkpt>
      <trkpt lat="48.37692" lon="2.52347">
        <ele>76</ele>
        <time>2021-03-05T14:10:40.957Z</time>
      </trkpt>
      <trkpt lat="48.37695" lon="2.52344">
        <ele>76</ele>
        <time>2021-03-05T14:10:45.960Z</time>
      </trkpt>
      <trkpt lat="48.37696" lon="2.52342">
        <ele>76</ele>
        <time>2021-03-05T14:10:50.970Z</time>
      </trkpt>
      <trkpt lat="48.37699" lon="2.52335">
        <ele>76</ele>
        <time>2021-03-05T14:10:55.963Z</time>
      </trkpt>
      <trkpt lat="48.37702" lon="2.52327">
        <ele>76</ele>
        <time>2021-03-05T14:11:00.969Z</time>
      </trkpt>
      <trkpt lat="48.37705" lon="2.5232">
        <ele>76</ele>
        <time>2021-03-05T14:11:05.966Z</time>
      </trkpt>
      <trkpt lat="48.37708" lon="2.52312">
        <ele>75</ele>
        <time>2021-03-05T14:11:10.968Z</time>
      </trkpt>
      <trkpt lat="48.3771" lon="2.5231">
        <ele>73</ele>
        <time>2021-03-05T14:11:15.964Z</time>
      </trkpt>
      <trkpt lat="48.37713" lon="2.52302">
        <ele>73</ele>
        <time>2021-03-05T14:11:20.954Z</time>
      </trkpt>
      <trkpt lat="48.37714" lon="2.52295">
        <ele>73</ele>
        <time>2021-03-05T14:11:24.964Z</time>
      </trkpt>
      <trkpt lat="48.37713" lon="2.52288">
        <ele>72</ele>
        <time>2021-03-05T14:11:29.961Z</time>
      </trkpt>
      <trkpt lat="48.37713" lon="2.52288">
        <ele>72</ele>
        <time>2021-03-05T14:11:33.967Z</time>
      </trkpt>
      <trkpt lat="48.37714" lon="2.5228">
        <ele>72</ele>
        <time>2021-03-05T14:11:38.964Z</time>
      </trkpt>
      <trkpt lat="48.37716" lon="2.52273">
        <ele>72</ele>
        <time>2021-03-05T14:11:43.967Z</time>
      </trkpt>
      <trkpt lat="48.37717" lon="2.52266">
        <ele>72</ele>
        <time>2021-03-05T14:11:48.958Z</time>
      </trkpt>
      <trkpt lat="48.37717" lon="2.52262">
        <ele>72</ele>
        <time>2021-03-05T14:11:53.958Z</time>
      </trkpt>
      <trkpt lat="48.37717" lon="2.52261">
        <ele>72</ele>
        <time>2021-03-05T14:11:57.954Z</time>
      </trkpt>
      <trkpt lat="48.37715" lon="2.52258">
        <ele>72</ele>
        <time>2021-03-05T14:12:01.968Z</time>
      </trkpt>
      <trkpt lat="48.37711" lon="2.52252">
        <ele>72</ele>
        <time>2021-03-05T14:12:06.965Z</time>
      </trkpt>
      <trkpt lat="48.37708" lon="2.52246">
        <ele>73</ele>
        <time>2021-03-05T14:12:11.960Z</time>
      </trkpt>
      <trkpt lat="48.37706" lon="2.52243">
        <ele>73</ele>
        <time>2021-03-05T14:12:15.965Z</time>
      </trkpt>
      <trkpt lat="48.37704" lon="2.52239">
        <ele>73</ele>
        <time>2021-03-05T14:12:20.077Z</time>
      </trkpt>
      <trkpt lat="48.37703" lon="2.52236">
        <ele>74</ele>
        <time>2021-03-05T14:12:24.964Z</time>
      </trkpt>
      <trkpt lat="48.37702" lon="2.52235">
        <ele>74</ele>
        <time>2021-03-05T14:12:28.964Z</time>
      </trkpt>
      <trkpt lat="48.37699" lon="2.52236">
        <ele>74</ele>
        <time>2021-03-05T14:12:33.955Z</time>
      </trkpt>
      <trkpt lat="48.37693" lon="2.52238">
        <ele>73</ele>
        <time>2021-03-05T14:12:37.963Z</time>
      </trkpt>
      <trkpt lat="48.37687" lon="2.52236">
        <ele>74</ele>
        <time>2021-03-05T14:12:42.960Z</time>
      </trkpt>
      <trkpt lat="48.37683" lon="2.52233">
        <ele>74</ele>
        <time>2021-03-05T14:12:46.966Z</time>
      </trkpt>
      <trkpt lat="48.37679" lon="2.5223">
        <ele>75</ele>
        <time>2021-03-05T14:12:51.972Z</time>
      </trkpt>
      <trkpt lat="48.37675" lon="2.52228">
        <ele>75</ele>
        <time>2021-03-05T14:12:56.958Z</time>
      </trkpt>
      <trkpt lat="48.37671" lon="2.52226">
        <ele>75</ele>
        <time>2021-03-05T14:13:01.956Z</time>
      </trkpt>
      <trkpt lat="48.37665" lon="2.52223">
        <ele>75</ele>
        <time>2021-03-05T14:13:06.945Z</time>
      </trkpt>
      <trkpt lat="48.3766" lon="2.52222">
        <ele>75</ele>
        <time>2021-03-05T14:13:10.961Z</time>
      </trkpt>
      <trkpt lat="48.37655" lon="2.52223">
        <ele>75</ele>
        <time>2021-03-05T14:13:14.966Z</time>
      </trkpt>
      <trkpt lat="48.37649" lon="2.52221">
        <ele>76</ele>
        <time>2021-03-05T14:13:19.964Z</time>
      </trkpt>
      <trkpt lat="48.37643" lon="2.5222">
        <ele>76</ele>
        <time>2021-03-05T14:13:24.968Z</time>
      </trkpt>
      <trkpt lat="48.37637" lon="2.52218">
        <ele>76</ele>
        <time>2021-03-05T14:13:29.959Z</time>
      </trkpt>
      <trkpt lat="48.37635" lon="2.52218">
        <ele>76</ele>
        <time>2021-03-05T14:13:34.957Z</time>
      </trkpt>
      <trkpt lat="48.37632" lon="2.52217">
        <ele>76</ele>
        <time>2021-03-05T14:13:38.963Z</time>
      </trkpt>
      <trkpt lat="48.37626" lon="2.52214">
        <ele>76</ele>
        <time>2021-03-05T14:13:43.962Z</time>
      </trkpt>
      <trkpt lat="48.37623" lon="2.52212">
        <ele>77</ele>
        <time>2021-03-05T14:14:12.949Z</time>
      </trkpt>
      <trkpt lat="48.37622" lon="2.52212">
        <ele>77</ele>
        <time>2021-03-05T14:14:16.962Z</time>
      </trkpt>
      <trkpt lat="48.37622" lon="2.52213">
        <ele>77</ele>
        <time>2021-03-05T14:14:21.953Z</time>
      </trkpt>
      <trkpt lat="48.37618" lon="2.52214">
        <ele>77</ele>
        <time>2021-03-05T14:14:25.962Z</time>
      </trkpt>
      <trkpt lat="48.37615" lon="2.52218">
        <ele>77</ele>
        <time>2021-03-05T14:14:30.944Z</time>
      </trkpt>
      <trkpt lat="48.37618" lon="2.52214">
        <ele>77</ele>
        <time>2021-03-05T14:15:01.954Z</time>
      </trkpt>
      <trkpt lat="48.37618" lon="2.52214">
        <ele>77</ele>
        <time>2021-03-05T14:15:05.958Z</time>
      </trkpt>
      <trkpt lat="48.37619" lon="2.5221">
        <ele>77</ele>
        <time>2021-03-05T14:15:10.970Z</time>
      </trkpt>
      <trkpt lat="48.37615" lon="2.52206">
        <ele>75</ele>
        <time>2021-03-05T14:15:15.965Z</time>
      </trkpt>
      <trkpt lat="48.37612" lon="2.52202">
        <ele>75</ele>
        <time>2021-03-05T14:15:19.968Z</time>
      </trkpt>
      <trkpt lat="48.37612" lon="2.52201">
        <ele>75</ele>
        <time>2021-03-05T14:15:28.966Z</time>
      </trkpt>
      <trkpt lat="48.37611" lon="2.522">
        <ele>75</ele>
        <time>2021-03-05T14:15:33.978Z</time>
      </trkpt>
      <trkpt lat="48.37611" lon="2.522">
        <ele>75</ele>
        <time>2021-03-05T14:15:38.958Z</time>
      </trkpt>
      <trkpt lat="48.37609" lon="2.52195">
        <ele>75</ele>
        <time>2021-03-05T14:15:42.963Z</time>
      </trkpt>
      <trkpt lat="48.37604" lon="2.52188">
        <ele>75</ele>
        <time>2021-03-05T14:15:47.979Z</time>
      </trkpt>
      <trkpt lat="48.37599" lon="2.52183">
        <ele>75</ele>
        <time>2021-03-05T14:15:52.955Z</time>
      </trkpt>
      <trkpt lat="48.37596" lon="2.52179">
        <ele>74</ele>
        <time>2021-03-05T14:15:57.958Z</time>
      </trkpt>
      <trkpt lat="48.37592" lon="2.52175">
        <ele>74</ele>
        <time>2021-03-05T14:16:02.954Z</time>
      </trkpt>
      <trkpt lat="48.37588" lon="2.52169">
        <ele>74</ele>
        <time>2021-03-05T14:16:07.946Z</time>
      </trkpt>
      <trkpt lat="48.37584" lon="2.52165">
        <ele>74</ele>
        <time>2021-03-05T14:16:11.957Z</time>
      </trkpt>
      <trkpt lat="48.37581" lon="2.52162">
        <ele>74</ele>
        <time>2021-03-05T14:16:16.956Z</time>
      </trkpt>
      <trkpt lat="48.37578" lon="2.5216">
        <ele>74</ele>
        <time>2021-03-05T14:16:20.957Z</time>
      </trkpt>
      <trkpt lat="48.37573" lon="2.52157">
        <ele>74</ele>
        <time>2021-03-05T14:16:25.971Z</time>
      </trkpt>
      <trkpt lat="48.37567" lon="2.52155">
        <ele>73</ele>
        <time>2021-03-05T14:16:30.958Z</time>
      </trkpt>
      <trkpt lat="48.37562" lon="2.52155">
        <ele>73</ele>
        <time>2021-03-05T14:16:34.969Z</time>
      </trkpt>
      <trkpt lat="48.37558" lon="2.52152">
        <ele>73</ele>
        <time>2021-03-05T14:16:39.966Z</time>
      </trkpt>
      <trkpt lat="48.37554" lon="2.52151">
        <ele>73</ele>
        <time>2021-03-05T14:16:44.968Z</time>
      </trkpt>
      <trkpt lat="48.37549" lon="2.52149">
        <ele>73</ele>
        <time>2021-03-05T14:16:49.960Z</time>
      </trkpt>
      <trkpt lat="48.37545" lon="2.52147">
        <ele>73</ele>
        <time>2021-03-05T14:16:53.968Z</time>
      </trkpt>
      <trkpt lat="48.37541" lon="2.52143">
        <ele>72</ele>
        <time>2021-03-05T14:16:57.967Z</time>
      </trkpt>
      <trkpt lat="48.37537" lon="2.52137">
        <ele>72</ele>
        <time>2021-03-05T14:17:02.962Z</time>
      </trkpt>
      <trkpt lat="48.37532" lon="2.52133">
        <ele>72</ele>
        <time>2021-03-05T14:17:07.961Z</time>
      </trkpt>
      <trkpt lat="48.37526" lon="2.52132">
        <ele>72</ele>
        <time>2021-03-05T14:17:12.966Z</time>
      </trkpt>
      <trkpt lat="48.3752" lon="2.52132">
        <ele>72</ele>
        <time>2021-03-05T14:17:17.954Z</time>
      </trkpt>
      <trkpt lat="48.37514" lon="2.52134">
        <ele>72</ele>
        <time>2021-03-05T14:17:22.967Z</time>
      </trkpt>
      <trkpt lat="48.3751" lon="2.52138">
        <ele>72</ele>
        <time>2021-03-05T14:17:27.959Z</time>
      </trkpt>
      <trkpt lat="48.37508" lon="2.5214">
        <ele>72</ele>
        <time>2021-03-05T14:17:31.957Z</time>
      </trkpt>
      <trkpt lat="48.37504" lon="2.52143">
        <ele>72</ele>
        <time>2021-03-05T14:17:36.961Z</time>
      </trkpt>
      <trkpt lat="48.37498" lon="2.52141">
        <ele>72</ele>
        <time>2021-03-05T14:17:41.957Z</time>
      </trkpt>
      <trkpt lat="48.37494" lon="2.52135">
        <ele>72</ele>
        <time>2021-03-05T14:17:46.966Z</time>
      </trkpt>
      <trkpt lat="48.37489" lon="2.52134">
        <ele>72</ele>
        <time>2021-03-05T14:17:51.962Z</time>
      </trkpt>
      <trkpt lat="48.37484" lon="2.52135">
        <ele>71</ele>
        <time>2021-03-05T14:17:56.962Z</time>
      </trkpt>
      <trkpt lat="48.37484" lon="2.52134">
        <ele>71</ele>
        <time>2021-03-05T14:18:01.967Z</time>
      </trkpt>
      <trkpt lat="48.37481" lon="2.5213">
        <ele>71</ele>
        <time>2021-03-05T14:18:06.966Z</time>
      </trkpt>
      <trkpt lat="48.37478" lon="2.52126">
        <ele>71</ele>
        <time>2021-03-05T14:18:11.967Z</time>
      </trkpt>
      <trkpt lat="48.37476" lon="2.52121">
        <ele>73</ele>
        <time>2021-03-05T14:18:16.959Z</time>
      </trkpt>
      <trkpt lat="48.37473" lon="2.52118">
        <ele>73</ele>
        <time>2021-03-05T14:18:20.958Z</time>
      </trkpt>
      <trkpt lat="48.37468" lon="2.52118">
        <ele>73</ele>
        <time>2021-03-05T14:18:25.968Z</time>
      </trkpt>
      <trkpt lat="48.37466" lon="2.52116">
        <ele>73</ele>
        <time>2021-03-05T14:18:30.962Z</time>
      </trkpt>
      <trkpt lat="48.37465" lon="2.52112">
        <ele>73</ele>
        <time>2021-03-05T14:18:35.967Z</time>
      </trkpt>
      <trkpt lat="48.37462" lon="2.5211">
        <ele>73</ele>
        <time>2021-03-05T14:18:40.976Z</time>
      </trkpt>
      <trkpt lat="48.3746" lon="2.52107">
        <ele>73</ele>
        <time>2021-03-05T14:18:45.965Z</time>
      </trkpt>
      <trkpt lat="48.37458" lon="2.52101">
        <ele>73</ele>
        <time>2021-03-05T14:18:50.958Z</time>
      </trkpt>
      <trkpt lat="48.3746" lon="2.52094">
        <ele>74</ele>
        <time>2021-03-05T14:18:55.958Z</time>
      </trkpt>
      <trkpt lat="48.37463" lon="2.52088">
        <ele>74</ele>
        <time>2021-03-05T14:19:00.967Z</time>
      </trkpt>
      <trkpt lat="48.37465" lon="2.52081">
        <ele>74</ele>
        <time>2021-03-05T14:19:05.968Z</time>
      </trkpt>
      <trkpt lat="48.37465" lon="2.52073">
        <ele>74</ele>
        <time>2021-03-05T14:19:10.968Z</time>
      </trkpt>
      <trkpt lat="48.37466" lon="2.52066">
        <ele>76</ele>
        <time>2021-03-05T14:19:15.966Z</time>
      </trkpt>
      <trkpt lat="48.37466" lon="2.5206">
        <ele>76</ele>
        <time>2021-03-05T14:19:20.955Z</time>
      </trkpt>
      <trkpt lat="48.37466" lon="2.52051">
        <ele>76</ele>
        <time>2021-03-05T14:19:26.035Z</time>
      </trkpt>
      <trkpt lat="48.37464" lon="2.52044">
        <ele>76</ele>
        <time>2021-03-05T14:19:30.967Z</time>
      </trkpt>
      <trkpt lat="48.37462" lon="2.52036">
        <ele>77</ele>
        <time>2021-03-05T14:19:35.963Z</time>
      </trkpt>
      <trkpt lat="48.37467" lon="2.52031">
        <ele>77</ele>
        <time>2021-03-05T14:19:40.970Z</time>
      </trkpt>
      <trkpt lat="48.3747" lon="2.52025">
        <ele>77</ele>
        <time>2021-03-05T14:19:45.966Z</time>
      </trkpt>
      <trkpt lat="48.3747" lon="2.52014">
        <ele>77</ele>
        <time>2021-03-05T14:19:50.953Z</time>
      </trkpt>
      <trkpt lat="48.37468" lon="2.52008">
        <ele>80</ele>
        <time>2021-03-05T14:19:54.972Z</time>
      </trkpt>
      <trkpt lat="48.37468" lon="2.51999">
        <ele>80</ele>
        <time>2021-03-05T14:19:59.957Z</time>
      </trkpt>
      <trkpt lat="48.3747" lon="2.51993">
        <ele>80</ele>
        <time>2021-03-05T14:20:03.963Z</time>
      </trkpt>
      <trkpt lat="48.37472" lon="2.51985">
        <ele>82</ele>
        <time>2021-03-05T14:20:08.959Z</time>
      </trkpt>
      <trkpt lat="48.37471" lon="2.51977">
        <ele>82</ele>
        <time>2021-03-05T14:20:13.967Z</time>
      </trkpt>
      <trkpt lat="48.37473" lon="2.5197">
        <ele>82</ele>
        <time>2021-03-05T14:20:18.962Z</time>
      </trkpt>
      <trkpt lat="48.37475" lon="2.51961">
        <ele>82</ele>
        <time>2021-03-05T14:20:23.956Z</time>
      </trkpt>
      <trkpt lat="48.37476" lon="2.51955">
        <ele>86</ele>
        <time>2021-03-05T14:20:27.968Z</time>
      </trkpt>
      <trkpt lat="48.37476" lon="2.51947">
        <ele>86</ele>
        <time>2021-03-05T14:20:32.968Z</time>
      </trkpt>
      <trkpt lat="48.37476" lon="2.51941">
        <ele>86</ele>
        <time>2021-03-05T14:20:37.956Z</time>
      </trkpt>
      <trkpt lat="48.37476" lon="2.51934">
        <ele>86</ele>
        <time>2021-03-05T14:20:42.963Z</time>
      </trkpt>
      <trkpt lat="48.37475" lon="2.51929">
        <ele>90</ele>
        <time>2021-03-05T14:20:47.966Z</time>
      </trkpt>
      <trkpt lat="48.37474" lon="2.51923">
        <ele>90</ele>
        <time>2021-03-05T14:20:52.960Z</time>
      </trkpt>
      <trkpt lat="48.37473" lon="2.51919">
        <ele>90</ele>
        <time>2021-03-05T14:20:57.967Z</time>
      </trkpt>
      <trkpt lat="48.37476" lon="2.51913">
        <ele>90</ele>
        <time>2021-03-05T14:21:02.965Z</time>
      </trkpt>
      <trkpt lat="48.37478" lon="2.5191">
        <ele>90</ele>
        <time>2021-03-05T14:21:07.962Z</time>
      </trkpt>
      <trkpt lat="48.37478" lon="2.51904">
        <ele>90</ele>
        <time>2021-03-05T14:21:12.954Z</time>
      </trkpt>
      <trkpt lat="48.37477" lon="2.51897">
        <ele>95</ele>
        <time>2021-03-05T14:21:17.967Z</time>
      </trkpt>
      <trkpt lat="48.37474" lon="2.51892">
        <ele>95</ele>
        <time>2021-03-05T14:21:22.953Z</time>
      </trkpt>
      <trkpt lat="48.37474" lon="2.51887">
        <ele>95</ele>
        <time>2021-03-05T14:21:26.954Z</time>
      </trkpt>
      <trkpt lat="48.37475" lon="2.51881">
        <ele>95</ele>
        <time>2021-03-05T14:21:31.953Z</time>
      </trkpt>
      <trkpt lat="48.37476" lon="2.51876">
        <ele>95</ele>
        <time>2021-03-05T14:21:35.954Z</time>
      </trkpt>
      <trkpt lat="48.37479" lon="2.51871">
        <ele>99</ele>
        <time>2021-03-05T14:21:40.954Z</time>
      </trkpt>
      <trkpt lat="48.37479" lon="2.51864">
        <ele>99</ele>
        <time>2021-03-05T14:21:54.966Z</time>
      </trkpt>
      <trkpt lat="48.37479" lon="2.51864">
        <ele>99</ele>
        <time>2021-03-05T14:21:59.961Z</time>
      </trkpt>
      <trkpt lat="48.37479" lon="2.51863">
        <ele>99</ele>
        <time>2021-03-05T14:22:04.972Z</time>
      </trkpt>
      <trkpt lat="48.37482" lon="2.51858">
        <ele>99</ele>
        <time>2021-03-05T14:22:09.967Z</time>
      </trkpt>
      <trkpt lat="48.37484" lon="2.51852">
        <ele>99</ele>
        <time>2021-03-05T14:22:14.963Z</time>
      </trkpt>
      <trkpt lat="48.37485" lon="2.51843">
        <ele>104</ele>
        <time>2021-03-05T14:22:38.965Z</time>
      </trkpt>
      <trkpt lat="48.37485" lon="2.51842">
        <ele>104</ele>
        <time>2021-03-05T14:22:43.956Z</time>
      </trkpt>
      <trkpt lat="48.37485" lon="2.5184">
        <ele>104</ele>
        <time>2021-03-05T14:22:47.967Z</time>
      </trkpt>
      <trkpt lat="48.37484" lon="2.51836">
        <ele>104</ele>
        <time>2021-03-05T14:22:52.969Z</time>
      </trkpt>
      <trkpt lat="48.37483" lon="2.51832">
        <ele>104</ele>
        <time>2021-03-05T14:22:56.969Z</time>
      </trkpt>
      <trkpt lat="48.37486" lon="2.51826">
        <ele>104</ele>
        <time>2021-03-05T14:23:01.960Z</time>
      </trkpt>
      <trkpt lat="48.37488" lon="2.51817">
        <ele>104</ele>
        <time>2021-03-05T14:23:06.951Z</time>
      </trkpt>
      <trkpt lat="48.37489" lon="2.51808">
        <ele>104</ele>
        <time>2021-03-05T14:23:10.967Z</time>
      </trkpt>
      <trkpt lat="48.3749" lon="2.518">
        <ele>104</ele>
        <time>2021-03-05T14:23:15.952Z</time>
      </trkpt>
      <trkpt lat="48.37492" lon="2.51794">
        <ele>104</ele>
        <time>2021-03-05T14:23:20.973Z</time>
      </trkpt>
      <trkpt lat="48.37493" lon="2.51786">
        <ele>106</ele>
        <time>2021-03-05T14:23:25.970Z</time>
      </trkpt>
      <trkpt lat="48.37493" lon="2.51779">
        <ele>106</ele>
        <time>2021-03-05T14:23:29.966Z</time>
      </trkpt>
      <trkpt lat="48.37494" lon="2.51769">
        <ele>106</ele>
        <time>2021-03-05T14:23:34.965Z</time>
      </trkpt>
      <trkpt lat="48.37497" lon="2.51762">
        <ele>106</ele>
        <time>2021-03-05T14:23:38.971Z</time>
      </trkpt>
      <trkpt lat="48.37501" lon="2.51757">
        <ele>106</ele>
        <time>2021-03-05T14:23:42.983Z</time>
      </trkpt>
      <trkpt lat="48.37505" lon="2.51752">
        <ele>106</ele>
        <time>2021-03-05T14:23:47.962Z</time>
      </trkpt>
      <trkpt lat="48.37507" lon="2.51747">
        <ele>106</ele>
        <time>2021-03-05T14:23:51.974Z</time>
      </trkpt>
      <trkpt lat="48.37507" lon="2.51739">
        <ele>106</ele>
        <time>2021-03-05T14:23:56.969Z</time>
      </trkpt>
      <trkpt lat="48.37509" lon="2.51734">
        <ele>105</ele>
        <time>2021-03-05T14:24:00.974Z</time>
      </trkpt>
      <trkpt lat="48.37511" lon="2.51726">
        <ele>105</ele>
        <time>2021-03-05T14:24:05.969Z</time>
      </trkpt>
      <trkpt lat="48.37511" lon="2.51718">
        <ele>105</ele>
        <time>2021-03-05T14:24:10.967Z</time>
      </trkpt>
      <trkpt lat="48.3751" lon="2.51712">
        <ele>105</ele>
        <time>2021-03-05T14:24:15.969Z</time>
      </trkpt>
      <trkpt lat="48.37508" lon="2.51706">
        <ele>102</ele>
        <time>2021-03-05T14:24:19.964Z</time>
      </trkpt>
      <trkpt lat="48.37505" lon="2.51698">
        <ele>102</ele>
        <time>2021-03-05T14:24:24.979Z</time>
      </trkpt>
      <trkpt lat="48.37501" lon="2.51689">
        <ele>102</ele>
        <time>2021-03-05T14:24:29.962Z</time>
      </trkpt>
      <trkpt lat="48.37498" lon="2.51681">
        <ele>102</ele>
        <time>2021-03-05T14:24:34.970Z</time>
      </trkpt>
      <trkpt lat="48.37499" lon="2.51673">
        <ele>98</ele>
        <time>2021-03-05T14:24:39.967Z</time>
      </trkpt>
      <trkpt lat="48.37496" lon="2.51667">
        <ele>98</ele>
        <time>2021-03-05T14:24:44.968Z</time>
      </trkpt>
      <trkpt lat="48.3749" lon="2.51661">
        <ele>98</ele>
        <time>2021-03-05T14:24:49.968Z</time>
      </trkpt>
      <trkpt lat="48.37482" lon="2.51657">
        <ele>100</ele>
        <time>2021-03-05T14:24:54.966Z</time>
      </trkpt>
      <trkpt lat="48.37476" lon="2.51654">
        <ele>100</ele>
        <time>2021-03-05T14:24:59.942Z</time>
      </trkpt>
      <trkpt lat="48.37473" lon="2.51649">
        <ele>96</ele>
        <time>2021-03-05T14:25:03.965Z</time>
      </trkpt>
      <trkpt lat="48.37469" lon="2.51644">
        <ele>96</ele>
        <time>2021-03-05T14:25:08.974Z</time>
      </trkpt>
      <trkpt lat="48.37466" lon="2.51642">
        <ele>96</ele>
        <time>2021-03-05T14:25:13.963Z</time>
      </trkpt>
      <trkpt lat="48.37463" lon="2.51638">
        <ele>96</ele>
        <time>2021-03-05T14:25:18.962Z</time>
      </trkpt>
      <trkpt lat="48.37459" lon="2.51631">
        <ele>96</ele>
        <time>2021-03-05T14:25:22.968Z</time>
      </trkpt>
      <trkpt lat="48.37454" lon="2.51621">
        <ele>95</ele>
        <time>2021-03-05T14:25:27.963Z</time>
      </trkpt>
      <trkpt lat="48.3745" lon="2.51612">
        <ele>95</ele>
        <time>2021-03-05T14:25:32.972Z</time>
      </trkpt>
      <trkpt lat="48.37445" lon="2.51604">
        <ele>95</ele>
        <time>2021-03-05T14:25:37.959Z</time>
      </trkpt>
      <trkpt lat="48.37442" lon="2.51598">
        <ele>95</ele>
        <time>2021-03-05T14:25:41.963Z</time>
      </trkpt>
      <trkpt lat="48.37439" lon="2.51591">
        <ele>91</ele>
        <time>2021-03-05T14:25:46.969Z</time>
      </trkpt>
      <trkpt lat="48.37436" lon="2.51576">
        <ele>91</ele>
        <time>2021-03-05T14:26:39.961Z</time>
      </trkpt>
      <trkpt lat="48.37436" lon="2.51575">
        <ele>91</ele>
        <time>2021-03-05T14:26:44.959Z</time>
      </trkpt>
      <trkpt lat="48.37436" lon="2.51575">
        <ele>91</ele>
        <time>2021-03-05T14:26:49.962Z</time>
      </trkpt>
      <trkpt lat="48.37439" lon="2.51573">
        <ele>91</ele>
        <time>2021-03-05T14:26:53.968Z</time>
      </trkpt>
      <trkpt lat="48.37445" lon="2.51569">
        <ele>89</ele>
        <time>2021-03-05T14:26:57.975Z</time>
      </trkpt>
      <trkpt lat="48.37452" lon="2.51564">
        <ele>89</ele>
        <time>2021-03-05T14:27:02.976Z</time>
      </trkpt>
      <trkpt lat="48.37459" lon="2.51554">
        <ele>88</ele>
        <time>2021-03-05T14:27:07.973Z</time>
      </trkpt>
      <trkpt lat="48.37465" lon="2.51549">
        <ele>88</ele>
        <time>2021-03-05T14:27:12.991Z</time>
      </trkpt>
      <trkpt lat="48.37469" lon="2.51539">
        <ele>88</ele>
        <time>2021-03-05T14:27:17.966Z</time>
      </trkpt>
      <trkpt lat="48.37474" lon="2.5153">
        <ele>88</ele>
        <time>2021-03-05T14:27:22.958Z</time>
      </trkpt>
      <trkpt lat="48.37474" lon="2.5152">
        <ele>88</ele>
        <time>2021-03-05T14:27:26.967Z</time>
      </trkpt>
      <trkpt lat="48.37472" lon="2.51513">
        <ele>86</ele>
        <time>2021-03-05T14:27:30.977Z</time>
      </trkpt>
      <trkpt lat="48.37469" lon="2.51504">
        <ele>86</ele>
        <time>2021-03-05T14:27:35.961Z</time>
      </trkpt>
      <trkpt lat="48.37465" lon="2.51494">
        <ele>86</ele>
        <time>2021-03-05T14:27:39.972Z</time>
      </trkpt>
      <trkpt lat="48.37463" lon="2.51481">
        <ele>84</ele>
        <time>2021-03-05T14:27:44.969Z</time>
      </trkpt>
      <trkpt lat="48.37457" lon="2.51472">
        <ele>84</ele>
        <time>2021-03-05T14:27:48.980Z</time>
      </trkpt>
      <trkpt lat="48.3746" lon="2.51462">
        <ele>84</ele>
        <time>2021-03-05T14:27:53.956Z</time>
      </trkpt>
      <trkpt lat="48.37465" lon="2.51459">
        <ele>84</ele>
        <time>2021-03-05T14:27:57.990Z</time>
      </trkpt>
      <trkpt lat="48.3747" lon="2.51449">
        <ele>83</ele>
        <time>2021-03-05T14:28:02.982Z</time>
      </trkpt>
      <trkpt lat="48.37475" lon="2.51439">
        <ele>83</ele>
        <time>2021-03-05T14:28:07.967Z</time>
      </trkpt>
      <trkpt lat="48.37478" lon="2.51433">
        <ele>83</ele>
        <time>2021-03-05T14:28:12.080Z</time>
      </trkpt>
      <trkpt lat="48.37481" lon="2.51426">
        <ele>84</ele>
        <time>2021-03-05T14:28:16.974Z</time>
      </trkpt>
      <trkpt lat="48.37483" lon="2.51417">
        <ele>84</ele>
        <time>2021-03-05T14:28:21.972Z</time>
      </trkpt>
      <trkpt lat="48.37486" lon="2.51412">
        <ele>81</ele>
        <time>2021-03-05T14:28:25.975Z</time>
      </trkpt>
      <trkpt lat="48.3749" lon="2.51405">
        <ele>81</ele>
        <time>2021-03-05T14:28:30.968Z</time>
      </trkpt>
      <trkpt lat="48.37493" lon="2.51403">
        <ele>81</ele>
        <time>2021-03-05T14:28:34.975Z</time>
      </trkpt>
      <trkpt lat="48.37495" lon="2.51397">
        <ele>80</ele>
        <time>2021-03-05T14:28:39.971Z</time>
      </trkpt>
      <trkpt lat="48.37493" lon="2.5139">
        <ele>80</ele>
        <time>2021-03-05T14:28:44.980Z</time>
      </trkpt>
      <trkpt lat="48.37492" lon="2.51383">
        <ele>80</ele>
        <time>2021-03-05T14:28:49.970Z</time>
      </trkpt>
      <trkpt lat="48.37491" lon="2.51377">
        <ele>80</ele>
        <time>2021-03-05T14:28:54.979Z</time>
      </trkpt>
      <trkpt lat="48.37491" lon="2.51373">
        <ele>80</ele>
        <time>2021-03-05T14:28:59.980Z</time>
      </trkpt>
      <trkpt lat="48.3749" lon="2.51364">
        <ele>80</ele>
        <time>2021-03-05T14:29:04.980Z</time>
      </trkpt>
      <trkpt lat="48.37489" lon="2.51358">
        <ele>80</ele>
        <time>2021-03-05T14:29:09.978Z</time>
      </trkpt>
      <trkpt lat="48.37491" lon="2.51351">
        <ele>80</ele>
        <time>2021-03-05T14:29:14.974Z</time>
      </trkpt>
      <trkpt lat="48.37494" lon="2.51343">
        <ele>78</ele>
        <time>2021-03-05T14:29:19.974Z</time>
      </trkpt>
      <trkpt lat="48.37498" lon="2.51334">
        <ele>78</ele>
        <time>2021-03-05T14:29:24.970Z</time>
      </trkpt>
      <trkpt lat="48.37501" lon="2.51327">
        <ele>78</ele>
        <time>2021-03-05T14:29:29.978Z</time>
      </trkpt>
      <trkpt lat="48.37504" lon="2.51317">
        <ele>78</ele>
        <time>2021-03-05T14:29:34.979Z</time>
      </trkpt>
      <trkpt lat="48.37507" lon="2.51308">
        <ele>78</ele>
        <time>2021-03-05T14:29:39.984Z</time>
      </trkpt>
      <trkpt lat="48.37509" lon="2.51301">
        <ele>78</ele>
        <time>2021-03-05T14:29:44.986Z</time>
      </trkpt>
      <trkpt lat="48.3751" lon="2.51294">
        <ele>78</ele>
        <time>2021-03-05T14:29:49.980Z</time>
      </trkpt>
      <trkpt lat="48.37511" lon="2.5128">
        <ele>76</ele>
        <time>2021-03-05T14:31:06.980Z</time>
      </trkpt>
      <trkpt lat="48.37511" lon="2.5128">
        <ele>76</ele>
        <time>2021-03-05T14:31:11.971Z</time>
      </trkpt>
      <trkpt lat="48.37512" lon="2.5128">
        <ele>76</ele>
        <time>2021-03-05T14:31:16.972Z</time>
      </trkpt>
      <trkpt lat="48.37515" lon="2.51277">
        <ele>75</ele>
        <time>2021-03-05T14:31:21.969Z</time>
      </trkpt>
      <trkpt lat="48.37517" lon="2.51277">
        <ele>75</ele>
        <time>2021-03-05T14:31:25.962Z</time>
      </trkpt>
      <trkpt lat="48.3752" lon="2.51271">
        <ele>75</ele>
        <time>2021-03-05T14:31:30.965Z</time>
      </trkpt>
      <trkpt lat="48.3752" lon="2.51264">
        <ele>75</ele>
        <time>2021-03-05T14:31:35.970Z</time>
      </trkpt>
      <trkpt lat="48.3752" lon="2.5126">
        <ele>74</ele>
        <time>2021-03-05T14:31:39.976Z</time>
      </trkpt>
      <trkpt lat="48.37522" lon="2.51255">
        <ele>74</ele>
        <time>2021-03-05T14:31:44.968Z</time>
      </trkpt>
      <trkpt lat="48.37522" lon="2.5125">
        <ele>74</ele>
        <time>2021-03-05T14:31:49.972Z</time>
      </trkpt>
      <trkpt lat="48.37523" lon="2.51244">
        <ele>74</ele>
        <time>2021-03-05T14:31:54.973Z</time>
      </trkpt>
      <trkpt lat="48.37522" lon="2.51239">
        <ele>74</ele>
        <time>2021-03-05T14:31:59.961Z</time>
      </trkpt>
      <trkpt lat="48.37522" lon="2.51236">
        <ele>74</ele>
        <time>2021-03-05T14:32:04.972Z</time>
      </trkpt>
      <trkpt lat="48.37516" lon="2.51228">
        <ele>74</ele>
        <time>2021-03-05T14:32:48.967Z</time>
      </trkpt>
      <trkpt lat="48.37516" lon="2.51228">
        <ele>74</ele>
        <time>2021-03-05T14:32:53.973Z</time>
      </trkpt>
      <trkpt lat="48.37516" lon="2.51228">
        <ele>74</ele>
        <time>2021-03-05T14:32:58.966Z</time>
      </trkpt>
      <trkpt lat="48.37514" lon="2.51226">
        <ele>74</ele>
        <time>2021-03-05T14:33:02.969Z</time>
      </trkpt>
      <trkpt lat="48.37515" lon="2.51224">
        <ele>74</ele>
        <time>2021-03-05T14:33:07.962Z</time>
      </trkpt>
      <trkpt lat="48.37515" lon="2.51224">
        <ele>74</ele>
        <time>2021-03-05T14:33:53.964Z</time>
      </trkpt>
      <trkpt lat="48.37515" lon="2.51224">
        <ele>74</ele>
        <time>2021-03-05T14:33:58.970Z</time>
      </trkpt>
      <trkpt lat="48.37513" lon="2.51223">
        <ele>75</ele>
        <time>2021-03-05T14:34:03.964Z</time>
      </trkpt>
      <trkpt lat="48.37509" lon="2.51221">
        <ele>75</ele>
        <time>2021-03-05T14:34:07.970Z</time>
      </trkpt>
      <trkpt lat="48.37505" lon="2.51218">
        <ele>75</ele>
        <time>2021-03-05T14:34:12.975Z</time>
      </trkpt>
      <trkpt lat="48.375" lon="2.51214">
        <ele>75</ele>
        <time>2021-03-05T14:34:17.967Z</time>
      </trkpt>
      <trkpt lat="48.37495" lon="2.5121">
        <ele>75</ele>
        <time>2021-03-05T14:34:22.972Z</time>
      </trkpt>
      <trkpt lat="48.3749" lon="2.51205">
        <ele>74</ele>
        <time>2021-03-05T14:34:27.982Z</time>
      </trkpt>
      <trkpt lat="48.37485" lon="2.51201">
        <ele>76</ele>
        <time>2021-03-05T14:34:31.990Z</time>
      </trkpt>
      <trkpt lat="48.37478" lon="2.51198">
        <ele>76</ele>
        <time>2021-03-05T14:34:36.967Z</time>
      </trkpt>
      <trkpt lat="48.37473" lon="2.51195">
        <ele>76</ele>
        <time>2021-03-05T14:34:41.964Z</time>
      </trkpt>
      <trkpt lat="48.3747" lon="2.51193">
        <ele>76</ele>
        <time>2021-03-05T14:34:45.973Z</time>
      </trkpt>
      <trkpt lat="48.37465" lon="2.51188">
        <ele>76</ele>
        <time>2021-03-05T14:34:50.967Z</time>
      </trkpt>
      <trkpt lat="48.3746" lon="2.51185">
        <ele>76</ele>
        <time>2021-03-05T14:34:55.974Z</time>
      </trkpt>
      <trkpt lat="48.37454" lon="2.51181">
        <ele>77</ele>
        <time>2021-03-05T14:35:00.982Z</time>
      </trkpt>
      <trkpt lat="48.37449" lon="2.51176">
        <ele>76</ele>
        <time>2021-03-05T14:35:05.964Z</time>
      </trkpt>
      <trkpt lat="48.37444" lon="2.51174">
        <ele>76</ele>
        <time>2021-03-05T14:35:10.982Z</time>
      </trkpt>
      <trkpt lat="48.37437" lon="2.51171">
        <ele>76</ele>
        <time>2021-03-05T14:35:15.974Z</time>
      </trkpt>
      <trkpt lat="48.37432" lon="2.51169">
        <ele>76</ele>
        <time>2021-03-05T14:35:20.969Z</time>
      </trkpt>
      <trkpt lat="48.37427" lon="2.51167">
        <ele>77</ele>
        <time>2021-03-05T14:35:24.980Z</time>
      </trkpt>
      <trkpt lat="48.37421" lon="2.51164">
        <ele>77</ele>
        <time>2021-03-05T14:35:29.967Z</time>
      </trkpt>
      <trkpt lat="48.37413" lon="2.51162">
        <ele>77</ele>
        <time>2021-03-05T14:35:34.969Z</time>
      </trkpt>
      <trkpt lat="48.37407" lon="2.51161">
        <ele>77</ele>
        <time>2021-03-05T14:35:39.969Z</time>
      </trkpt>
      <trkpt lat="48.37401" lon="2.5116">
        <ele>78</ele>
        <time>2021-03-05T14:35:43.976Z</time>
      </trkpt>
      <trkpt lat="48.37395" lon="2.51159">
        <ele>78</ele>
        <time>2021-03-05T14:35:48.980Z</time>
      </trkpt>
      <trkpt lat="48.3739" lon="2.51157">
        <ele>78</ele>
        <time>2021-03-05T14:35:53.967Z</time>
      </trkpt>
      <trkpt lat="48.37384" lon="2.51154">
        <ele>78</ele>
        <time>2021-03-05T14:35:58.963Z</time>
      </trkpt>
      <trkpt lat="48.37379" lon="2.51152">
        <ele>78</ele>
        <time>2021-03-05T14:36:02.977Z</time>
      </trkpt>
      <trkpt lat="48.37372" lon="2.5115">
        <ele>77</ele>
        <time>2021-03-05T14:36:07.967Z</time>
      </trkpt>
      <trkpt lat="48.37367" lon="2.51148">
        <ele>77</ele>
        <time>2021-03-05T14:36:11.966Z</time>
      </trkpt>
      <trkpt lat="48.37361" lon="2.51145">
        <ele>77</ele>
        <time>2021-03-05T14:36:16.966Z</time>
      </trkpt>
      <trkpt lat="48.37355" lon="2.51144">
        <ele>77</ele>
        <time>2021-03-05T14:36:21.966Z</time>
      </trkpt>
      <trkpt lat="48.3735" lon="2.51141">
        <ele>77</ele>
        <time>2021-03-05T14:36:26.965Z</time>
      </trkpt>
      <trkpt lat="48.37345" lon="2.51139">
        <ele>77</ele>
        <time>2021-03-05T14:36:30.972Z</time>
      </trkpt>
      <trkpt lat="48.3734" lon="2.51137">
        <ele>77</ele>
        <time>2021-03-05T14:36:35.976Z</time>
      </trkpt>
      <trkpt lat="48.37334" lon="2.51133">
        <ele>77</ele>
        <time>2021-03-05T14:36:40.973Z</time>
      </trkpt>
      <trkpt lat="48.37329" lon="2.51129">
        <ele>77</ele>
        <time>2021-03-05T14:36:44.983Z</time>
      </trkpt>
      <trkpt lat="48.37323" lon="2.51125">
        <ele>77</ele>
        <time>2021-03-05T14:36:49.974Z</time>
      </trkpt>
      <trkpt lat="48.37319" lon="2.51123">
        <ele>76</ele>
        <time>2021-03-05T14:36:54.978Z</time>
      </trkpt>
      <trkpt lat="48.37313" lon="2.51118">
        <ele>76</ele>
        <time>2021-03-05T14:36:59.955Z</time>
      </trkpt>
      <trkpt lat="48.37308" lon="2.51116">
        <ele>76</ele>
        <time>2021-03-05T14:37:03.984Z</time>
      </trkpt>
      <trkpt lat="48.37303" lon="2.51112">
        <ele>76</ele>
        <time>2021-03-05T14:37:08.952Z</time>
      </trkpt>
      <trkpt lat="48.37303" lon="2.51108">
        <ele>76</ele>
        <time>2021-03-05T14:37:12.958Z</time>
      </trkpt>
      <trkpt lat="48.37304" lon="2.51103">
        <ele>76</ele>
        <time>2021-03-05T14:37:17.974Z</time>
      </trkpt>
      <trkpt lat="48.37305" lon="2.51097">
        <ele>76</ele>
        <time>2021-03-05T14:37:21.983Z</time>
      </trkpt>
      <trkpt lat="48.37304" lon="2.51093">
        <ele>76</ele>
        <time>2021-03-05T14:37:35.980Z</time>
      </trkpt>
      <trkpt lat="48.37304" lon="2.51092">
        <ele>76</ele>
        <time>2021-03-05T14:37:40.966Z</time>
      </trkpt>
      <trkpt lat="48.37306" lon="2.51089">
        <ele>76</ele>
        <time>2021-03-05T14:37:44.970Z</time>
      </trkpt>
      <trkpt lat="48.37307" lon="2.51086">
        <ele>76</ele>
        <time>2021-03-05T14:37:48.960Z</time>
      </trkpt>
      <trkpt lat="48.3731" lon="2.5108">
        <ele>76</ele>
        <time>2021-03-05T14:37:53.969Z</time>
      </trkpt>
    </trkseg>
  </trk>
</gpx>